<?xml version="1.0" encoding="UTF-8" standalone="no" ?>
<gpx xmlns="http://www.topografix.com/GPX/1/1" xmlns:xsi="http://www.w3.org/2001/XMLSchema-instance" xsi:schemaLocation="http://www.topografix.com/GPX/1/1 http://www.topografix.com/GPX/1/1/gpx.xsd" version="1.1" creator="VisuGPX - https://www.visugpx.com">
  <metadata>
    <name>2017-06-02 Bike ride-Amberieux-Rance O 33km</name>
    <desc><![CDATA[2017-06-02 Bike ride-Amberieux-Rance O 33km]]></desc>
  </metadata>
  <wpt lat="45.92459" lon="4.73711">
    <ele>174</ele>
    <name><![CDATA[2017-06-02 10:04 (Start)]]></name>
  </wpt>
  <wpt lat="45.92459" lon="4.7371">
    <ele>174</ele>
    <name><![CDATA[2017-06-02 10:04 (End)]]></name>
    <desc><![CDATA[Created by Google My Tracks on Android  Name: 2017-06-02 10:04 Activity type: biking Description: - Total distance: 32.49 km (20.2 mi) Total time: 1:40:46 Moving time: 1:40:02 Average speed: 19.34 km/h (12.0 mi/h) Average moving speed: 19.49 km/h (12.1 mi/h) Max speed: 51.54 km/h (32.0 mi/h) Average pace: 3:06 min/km (4:60 min/mi) Average moving pace: 3:05 min/km (4:57 min/mi) Fastest pace: 1:10 min/km (1:52 min/mi) Max elevation: 294 m (964 ft) Min elevation: 168 m (552 ft) Elevation gain: 485 m (1590 ft) Max grade: 9 % Min grade: -9 % Recorded: 02/06/2017 10:04]]></desc>
  </wpt>
  <trk>
    <name><![CDATA[2017-06-02 10:04]]></name>
    <trkseg>
      <trkpt lat="45.92459" lon="4.73711">
        <ele>174</ele>
        <time>2017-06-02T08:04:09.966Z</time>
      </trkpt>
      <trkpt lat="45.92462" lon="4.73701">
        <ele>174</ele>
        <time>2017-06-02T08:04:43Z</time>
      </trkpt>
      <trkpt lat="45.92462" lon="4.73697">
        <ele>174</ele>
        <time>2017-06-02T08:04:44Z</time>
      </trkpt>
      <trkpt lat="45.92464" lon="4.73688">
        <ele>174</ele>
        <time>2017-06-02T08:04:46Z</time>
      </trkpt>
      <trkpt lat="45.92464" lon="4.73684">
        <ele>174</ele>
        <time>2017-06-02T08:04:47Z</time>
      </trkpt>
      <trkpt lat="45.92465" lon="4.73675">
        <ele>174</ele>
        <time>2017-06-02T08:04:49Z</time>
      </trkpt>
      <trkpt lat="45.92466" lon="4.73671">
        <ele>174</ele>
        <time>2017-06-02T08:04:50Z</time>
      </trkpt>
      <trkpt lat="45.92468" lon="4.73661">
        <ele>174</ele>
        <time>2017-06-02T08:04:52Z</time>
      </trkpt>
      <trkpt lat="45.92469" lon="4.73656">
        <ele>174</ele>
        <time>2017-06-02T08:04:53Z</time>
      </trkpt>
      <trkpt lat="45.92472" lon="4.73646">
        <ele>174</ele>
        <time>2017-06-02T08:04:55Z</time>
      </trkpt>
      <trkpt lat="45.92476" lon="4.73644">
        <ele>174</ele>
        <time>2017-06-02T08:04:56Z</time>
      </trkpt>
      <trkpt lat="45.92482" lon="4.73644">
        <ele>174</ele>
        <time>2017-06-02T08:04:57Z</time>
      </trkpt>
      <trkpt lat="45.92487" lon="4.73645">
        <ele>174</ele>
        <time>2017-06-02T08:04:58Z</time>
      </trkpt>
      <trkpt lat="45.92491" lon="4.73645">
        <ele>174</ele>
        <time>2017-06-02T08:04:59Z</time>
      </trkpt>
      <trkpt lat="45.92496" lon="4.73645">
        <ele>174</ele>
        <time>2017-06-02T08:05:00Z</time>
      </trkpt>
      <trkpt lat="45.925" lon="4.73645">
        <ele>174</ele>
        <time>2017-06-02T08:05:01Z</time>
      </trkpt>
      <trkpt lat="45.92505" lon="4.73644">
        <ele>174</ele>
        <time>2017-06-02T08:05:02Z</time>
      </trkpt>
      <trkpt lat="45.9251" lon="4.73643">
        <ele>174</ele>
        <time>2017-06-02T08:05:03Z</time>
      </trkpt>
      <trkpt lat="45.92515" lon="4.73642">
        <ele>174</ele>
        <time>2017-06-02T08:05:04Z</time>
      </trkpt>
      <trkpt lat="45.9252" lon="4.73641">
        <ele>173</ele>
        <time>2017-06-02T08:05:05Z</time>
      </trkpt>
      <trkpt lat="45.92525" lon="4.73643">
        <ele>173</ele>
        <time>2017-06-02T08:05:06Z</time>
      </trkpt>
      <trkpt lat="45.9253" lon="4.73642">
        <ele>173</ele>
        <time>2017-06-02T08:05:07Z</time>
      </trkpt>
      <trkpt lat="45.92536" lon="4.73641">
        <ele>173</ele>
        <time>2017-06-02T08:05:08Z</time>
      </trkpt>
      <trkpt lat="45.92541" lon="4.7364">
        <ele>173</ele>
        <time>2017-06-02T08:05:09Z</time>
      </trkpt>
      <trkpt lat="45.92546" lon="4.73639">
        <ele>173</ele>
        <time>2017-06-02T08:05:10Z</time>
      </trkpt>
      <trkpt lat="45.92552" lon="4.73637">
        <ele>173</ele>
        <time>2017-06-02T08:05:11Z</time>
      </trkpt>
      <trkpt lat="45.92557" lon="4.73636">
        <ele>173</ele>
        <time>2017-06-02T08:05:12Z</time>
      </trkpt>
      <trkpt lat="45.92563" lon="4.73635">
        <ele>173</ele>
        <time>2017-06-02T08:05:13Z</time>
      </trkpt>
      <trkpt lat="45.92568" lon="4.73633">
        <ele>173</ele>
        <time>2017-06-02T08:05:14Z</time>
      </trkpt>
      <trkpt lat="45.92574" lon="4.73632">
        <ele>173</ele>
        <time>2017-06-02T08:05:15Z</time>
      </trkpt>
      <trkpt lat="45.92579" lon="4.7363">
        <ele>173</ele>
        <time>2017-06-02T08:05:16Z</time>
      </trkpt>
      <trkpt lat="45.92585" lon="4.7363">
        <ele>172</ele>
        <time>2017-06-02T08:05:17Z</time>
      </trkpt>
      <trkpt lat="45.92589" lon="4.73629">
        <ele>172</ele>
        <time>2017-06-02T08:05:18Z</time>
      </trkpt>
      <trkpt lat="45.92594" lon="4.73627">
        <ele>172</ele>
        <time>2017-06-02T08:05:19Z</time>
      </trkpt>
      <trkpt lat="45.92599" lon="4.73626">
        <ele>173</ele>
        <time>2017-06-02T08:05:20Z</time>
      </trkpt>
      <trkpt lat="45.92604" lon="4.73626">
        <ele>173</ele>
        <time>2017-06-02T08:05:21Z</time>
      </trkpt>
      <trkpt lat="45.9261" lon="4.73626">
        <ele>173</ele>
        <time>2017-06-02T08:05:22Z</time>
      </trkpt>
      <trkpt lat="45.92617" lon="4.73633">
        <ele>173</ele>
        <time>2017-06-02T08:05:23Z</time>
      </trkpt>
      <trkpt lat="45.9262" lon="4.7364">
        <ele>173</ele>
        <time>2017-06-02T08:05:24Z</time>
      </trkpt>
      <trkpt lat="45.92623" lon="4.73649">
        <ele>173</ele>
        <time>2017-06-02T08:05:25Z</time>
      </trkpt>
      <trkpt lat="45.92627" lon="4.73657">
        <ele>173</ele>
        <time>2017-06-02T08:05:26Z</time>
      </trkpt>
      <trkpt lat="45.92629" lon="4.73664">
        <ele>173</ele>
        <time>2017-06-02T08:05:27Z</time>
      </trkpt>
      <trkpt lat="45.92633" lon="4.73672">
        <ele>173</ele>
        <time>2017-06-02T08:05:28Z</time>
      </trkpt>
      <trkpt lat="45.92637" lon="4.73679">
        <ele>173</ele>
        <time>2017-06-02T08:05:29Z</time>
      </trkpt>
      <trkpt lat="45.92642" lon="4.73685">
        <ele>173</ele>
        <time>2017-06-02T08:05:30Z</time>
      </trkpt>
      <trkpt lat="45.92647" lon="4.73691">
        <ele>173</ele>
        <time>2017-06-02T08:05:31Z</time>
      </trkpt>
      <trkpt lat="45.92652" lon="4.73695">
        <ele>173</ele>
        <time>2017-06-02T08:05:32Z</time>
      </trkpt>
      <trkpt lat="45.92657" lon="4.737">
        <ele>173</ele>
        <time>2017-06-02T08:05:33Z</time>
      </trkpt>
      <trkpt lat="45.92662" lon="4.73705">
        <ele>173</ele>
        <time>2017-06-02T08:05:34Z</time>
      </trkpt>
      <trkpt lat="45.92667" lon="4.73708">
        <ele>174</ele>
        <time>2017-06-02T08:05:35Z</time>
      </trkpt>
      <trkpt lat="45.92673" lon="4.73711">
        <ele>174</ele>
        <time>2017-06-02T08:05:36Z</time>
      </trkpt>
      <trkpt lat="45.92679" lon="4.73713">
        <ele>173</ele>
        <time>2017-06-02T08:05:37Z</time>
      </trkpt>
      <trkpt lat="45.92685" lon="4.73714">
        <ele>173</ele>
        <time>2017-06-02T08:05:38Z</time>
      </trkpt>
      <trkpt lat="45.92692" lon="4.73715">
        <ele>173</ele>
        <time>2017-06-02T08:05:39Z</time>
      </trkpt>
      <trkpt lat="45.92698" lon="4.73716">
        <ele>173</ele>
        <time>2017-06-02T08:05:40Z</time>
      </trkpt>
      <trkpt lat="45.92704" lon="4.73718">
        <ele>173</ele>
        <time>2017-06-02T08:05:41Z</time>
      </trkpt>
      <trkpt lat="45.9271" lon="4.7372">
        <ele>173</ele>
        <time>2017-06-02T08:05:42Z</time>
      </trkpt>
      <trkpt lat="45.92717" lon="4.73721">
        <ele>173</ele>
        <time>2017-06-02T08:05:43Z</time>
      </trkpt>
      <trkpt lat="45.92723" lon="4.73722">
        <ele>173</ele>
        <time>2017-06-02T08:05:44Z</time>
      </trkpt>
      <trkpt lat="45.92728" lon="4.73723">
        <ele>173</ele>
        <time>2017-06-02T08:05:45Z</time>
      </trkpt>
      <trkpt lat="45.92734" lon="4.73725">
        <ele>173</ele>
        <time>2017-06-02T08:05:46Z</time>
      </trkpt>
      <trkpt lat="45.9274" lon="4.73726">
        <ele>173</ele>
        <time>2017-06-02T08:05:47Z</time>
      </trkpt>
      <trkpt lat="45.92745" lon="4.73727">
        <ele>173</ele>
        <time>2017-06-02T08:05:48Z</time>
      </trkpt>
      <trkpt lat="45.92754" lon="4.7373">
        <ele>172</ele>
        <time>2017-06-02T08:05:50Z</time>
      </trkpt>
      <trkpt lat="45.92758" lon="4.73731">
        <ele>172</ele>
        <time>2017-06-02T08:05:51Z</time>
      </trkpt>
      <trkpt lat="45.92766" lon="4.73733">
        <ele>172</ele>
        <time>2017-06-02T08:05:53Z</time>
      </trkpt>
      <trkpt lat="45.9277" lon="4.73734">
        <ele>172</ele>
        <time>2017-06-02T08:05:54Z</time>
      </trkpt>
      <trkpt lat="45.92778" lon="4.73734">
        <ele>172</ele>
        <time>2017-06-02T08:05:56Z</time>
      </trkpt>
      <trkpt lat="45.92782" lon="4.73732">
        <ele>172</ele>
        <time>2017-06-02T08:05:57Z</time>
      </trkpt>
      <trkpt lat="45.92786" lon="4.73721">
        <ele>172</ele>
        <time>2017-06-02T08:05:59Z</time>
      </trkpt>
      <trkpt lat="45.92787" lon="4.73715">
        <ele>172</ele>
        <time>2017-06-02T08:06:00Z</time>
      </trkpt>
      <trkpt lat="45.92788" lon="4.73709">
        <ele>172</ele>
        <time>2017-06-02T08:06:01Z</time>
      </trkpt>
      <trkpt lat="45.92789" lon="4.73702">
        <ele>172</ele>
        <time>2017-06-02T08:06:02Z</time>
      </trkpt>
      <trkpt lat="45.92791" lon="4.73695">
        <ele>172</ele>
        <time>2017-06-02T08:06:03Z</time>
      </trkpt>
      <trkpt lat="45.92793" lon="4.73688">
        <ele>172</ele>
        <time>2017-06-02T08:06:04Z</time>
      </trkpt>
      <trkpt lat="45.92795" lon="4.7368">
        <ele>172</ele>
        <time>2017-06-02T08:06:05Z</time>
      </trkpt>
      <trkpt lat="45.92797" lon="4.73673">
        <ele>172</ele>
        <time>2017-06-02T08:06:06Z</time>
      </trkpt>
      <trkpt lat="45.92798" lon="4.73665">
        <ele>172</ele>
        <time>2017-06-02T08:06:07Z</time>
      </trkpt>
      <trkpt lat="45.928" lon="4.73658">
        <ele>172</ele>
        <time>2017-06-02T08:06:08Z</time>
      </trkpt>
      <trkpt lat="45.92802" lon="4.73651">
        <ele>172</ele>
        <time>2017-06-02T08:06:09Z</time>
      </trkpt>
      <trkpt lat="45.92805" lon="4.73644">
        <ele>172</ele>
        <time>2017-06-02T08:06:10Z</time>
      </trkpt>
      <trkpt lat="45.92809" lon="4.73639">
        <ele>172</ele>
        <time>2017-06-02T08:06:11Z</time>
      </trkpt>
      <trkpt lat="45.92813" lon="4.73634">
        <ele>172</ele>
        <time>2017-06-02T08:06:12Z</time>
      </trkpt>
      <trkpt lat="45.92816" lon="4.73629">
        <ele>172</ele>
        <time>2017-06-02T08:06:13Z</time>
      </trkpt>
      <trkpt lat="45.92818" lon="4.73623">
        <ele>172</ele>
        <time>2017-06-02T08:06:14Z</time>
      </trkpt>
      <trkpt lat="45.92819" lon="4.73615">
        <ele>172</ele>
        <time>2017-06-02T08:06:15Z</time>
      </trkpt>
      <trkpt lat="45.9282" lon="4.73607">
        <ele>171</ele>
        <time>2017-06-02T08:06:16Z</time>
      </trkpt>
      <trkpt lat="45.92821" lon="4.73599">
        <ele>171</ele>
        <time>2017-06-02T08:06:17Z</time>
      </trkpt>
      <trkpt lat="45.92821" lon="4.73592">
        <ele>171</ele>
        <time>2017-06-02T08:06:18Z</time>
      </trkpt>
      <trkpt lat="45.92822" lon="4.73584">
        <ele>171</ele>
        <time>2017-06-02T08:06:19Z</time>
      </trkpt>
      <trkpt lat="45.92823" lon="4.73576">
        <ele>171</ele>
        <time>2017-06-02T08:06:20Z</time>
      </trkpt>
      <trkpt lat="45.92823" lon="4.73568">
        <ele>171</ele>
        <time>2017-06-02T08:06:21Z</time>
      </trkpt>
      <trkpt lat="45.92824" lon="4.7356">
        <ele>171</ele>
        <time>2017-06-02T08:06:22Z</time>
      </trkpt>
      <trkpt lat="45.92824" lon="4.73552">
        <ele>171</ele>
        <time>2017-06-02T08:06:23Z</time>
      </trkpt>
      <trkpt lat="45.92825" lon="4.73544">
        <ele>171</ele>
        <time>2017-06-02T08:06:24Z</time>
      </trkpt>
      <trkpt lat="45.92826" lon="4.73536">
        <ele>172</ele>
        <time>2017-06-02T08:06:25Z</time>
      </trkpt>
      <trkpt lat="45.92827" lon="4.73529">
        <ele>172</ele>
        <time>2017-06-02T08:06:26Z</time>
      </trkpt>
      <trkpt lat="45.92827" lon="4.73521">
        <ele>172</ele>
        <time>2017-06-02T08:06:27Z</time>
      </trkpt>
      <trkpt lat="45.92828" lon="4.73512">
        <ele>172</ele>
        <time>2017-06-02T08:06:28Z</time>
      </trkpt>
      <trkpt lat="45.92829" lon="4.73504">
        <ele>172</ele>
        <time>2017-06-02T08:06:29Z</time>
      </trkpt>
      <trkpt lat="45.92831" lon="4.73496">
        <ele>172</ele>
        <time>2017-06-02T08:06:30Z</time>
      </trkpt>
      <trkpt lat="45.92832" lon="4.73487">
        <ele>172</ele>
        <time>2017-06-02T08:06:31Z</time>
      </trkpt>
      <trkpt lat="45.92833" lon="4.73479">
        <ele>172</ele>
        <time>2017-06-02T08:06:32Z</time>
      </trkpt>
      <trkpt lat="45.92834" lon="4.7347">
        <ele>172</ele>
        <time>2017-06-02T08:06:33Z</time>
      </trkpt>
      <trkpt lat="45.92835" lon="4.73461">
        <ele>172</ele>
        <time>2017-06-02T08:06:34Z</time>
      </trkpt>
      <trkpt lat="45.92836" lon="4.73453">
        <ele>172</ele>
        <time>2017-06-02T08:06:35Z</time>
      </trkpt>
      <trkpt lat="45.92838" lon="4.73444">
        <ele>172</ele>
        <time>2017-06-02T08:06:36Z</time>
      </trkpt>
      <trkpt lat="45.92839" lon="4.73436">
        <ele>172</ele>
        <time>2017-06-02T08:06:37Z</time>
      </trkpt>
      <trkpt lat="45.9284" lon="4.73427">
        <ele>172</ele>
        <time>2017-06-02T08:06:38Z</time>
      </trkpt>
      <trkpt lat="45.92841" lon="4.73418">
        <ele>172</ele>
        <time>2017-06-02T08:06:39Z</time>
      </trkpt>
      <trkpt lat="45.92842" lon="4.7341">
        <ele>172</ele>
        <time>2017-06-02T08:06:40Z</time>
      </trkpt>
      <trkpt lat="45.92844" lon="4.73402">
        <ele>172</ele>
        <time>2017-06-02T08:06:41Z</time>
      </trkpt>
      <trkpt lat="45.92845" lon="4.73393">
        <ele>172</ele>
        <time>2017-06-02T08:06:42Z</time>
      </trkpt>
      <trkpt lat="45.92845" lon="4.73384">
        <ele>172</ele>
        <time>2017-06-02T08:06:43Z</time>
      </trkpt>
      <trkpt lat="45.92846" lon="4.73375">
        <ele>172</ele>
        <time>2017-06-02T08:06:44Z</time>
      </trkpt>
      <trkpt lat="45.92847" lon="4.73367">
        <ele>171</ele>
        <time>2017-06-02T08:06:45Z</time>
      </trkpt>
      <trkpt lat="45.92848" lon="4.73358">
        <ele>171</ele>
        <time>2017-06-02T08:06:46Z</time>
      </trkpt>
      <trkpt lat="45.92849" lon="4.73349">
        <ele>171</ele>
        <time>2017-06-02T08:06:47Z</time>
      </trkpt>
      <trkpt lat="45.92849" lon="4.73341">
        <ele>171</ele>
        <time>2017-06-02T08:06:48Z</time>
      </trkpt>
      <trkpt lat="45.9285" lon="4.73332">
        <ele>171</ele>
        <time>2017-06-02T08:06:49Z</time>
      </trkpt>
      <trkpt lat="45.92851" lon="4.73324">
        <ele>171</ele>
        <time>2017-06-02T08:06:50Z</time>
      </trkpt>
      <trkpt lat="45.92853" lon="4.73315">
        <ele>171</ele>
        <time>2017-06-02T08:06:51Z</time>
      </trkpt>
      <trkpt lat="45.92854" lon="4.73307">
        <ele>171</ele>
        <time>2017-06-02T08:06:52Z</time>
      </trkpt>
      <trkpt lat="45.92855" lon="4.73298">
        <ele>171</ele>
        <time>2017-06-02T08:06:53Z</time>
      </trkpt>
      <trkpt lat="45.92856" lon="4.73288">
        <ele>171</ele>
        <time>2017-06-02T08:06:54Z</time>
      </trkpt>
      <trkpt lat="45.92857" lon="4.73279">
        <ele>171</ele>
        <time>2017-06-02T08:06:55Z</time>
      </trkpt>
      <trkpt lat="45.92859" lon="4.7327">
        <ele>171</ele>
        <time>2017-06-02T08:06:56Z</time>
      </trkpt>
      <trkpt lat="45.9286" lon="4.73261">
        <ele>171</ele>
        <time>2017-06-02T08:06:57Z</time>
      </trkpt>
      <trkpt lat="45.92862" lon="4.73253">
        <ele>171</ele>
        <time>2017-06-02T08:06:58Z</time>
      </trkpt>
      <trkpt lat="45.92863" lon="4.73244">
        <ele>171</ele>
        <time>2017-06-02T08:06:59Z</time>
      </trkpt>
      <trkpt lat="45.92864" lon="4.73236">
        <ele>171</ele>
        <time>2017-06-02T08:07:00Z</time>
      </trkpt>
      <trkpt lat="45.92865" lon="4.73228">
        <ele>171</ele>
        <time>2017-06-02T08:07:01Z</time>
      </trkpt>
      <trkpt lat="45.92866" lon="4.7322">
        <ele>171</ele>
        <time>2017-06-02T08:07:02Z</time>
      </trkpt>
      <trkpt lat="45.92867" lon="4.73212">
        <ele>171</ele>
        <time>2017-06-02T08:07:03Z</time>
      </trkpt>
      <trkpt lat="45.92868" lon="4.73204">
        <ele>171</ele>
        <time>2017-06-02T08:07:04Z</time>
      </trkpt>
      <trkpt lat="45.92869" lon="4.73195">
        <ele>171</ele>
        <time>2017-06-02T08:07:05Z</time>
      </trkpt>
      <trkpt lat="45.9287" lon="4.73187">
        <ele>171</ele>
        <time>2017-06-02T08:07:06Z</time>
      </trkpt>
      <trkpt lat="45.92871" lon="4.73178">
        <ele>171</ele>
        <time>2017-06-02T08:07:07Z</time>
      </trkpt>
      <trkpt lat="45.92872" lon="4.73169">
        <ele>171</ele>
        <time>2017-06-02T08:07:08Z</time>
      </trkpt>
      <trkpt lat="45.92874" lon="4.7316">
        <ele>171</ele>
        <time>2017-06-02T08:07:09Z</time>
      </trkpt>
      <trkpt lat="45.92875" lon="4.73151">
        <ele>171</ele>
        <time>2017-06-02T08:07:10Z</time>
      </trkpt>
      <trkpt lat="45.92876" lon="4.73143">
        <ele>171</ele>
        <time>2017-06-02T08:07:11Z</time>
      </trkpt>
      <trkpt lat="45.92877" lon="4.73134">
        <ele>171</ele>
        <time>2017-06-02T08:07:12Z</time>
      </trkpt>
      <trkpt lat="45.92879" lon="4.73126">
        <ele>172</ele>
        <time>2017-06-02T08:07:13Z</time>
      </trkpt>
      <trkpt lat="45.92881" lon="4.73118">
        <ele>172</ele>
        <time>2017-06-02T08:07:14Z</time>
      </trkpt>
      <trkpt lat="45.92883" lon="4.7311">
        <ele>172</ele>
        <time>2017-06-02T08:07:15Z</time>
      </trkpt>
      <trkpt lat="45.92885" lon="4.73102">
        <ele>172</ele>
        <time>2017-06-02T08:07:16Z</time>
      </trkpt>
      <trkpt lat="45.92887" lon="4.73095">
        <ele>172</ele>
        <time>2017-06-02T08:07:17Z</time>
      </trkpt>
      <trkpt lat="45.9289" lon="4.73088">
        <ele>172</ele>
        <time>2017-06-02T08:07:18Z</time>
      </trkpt>
      <trkpt lat="45.92894" lon="4.7308">
        <ele>172</ele>
        <time>2017-06-02T08:07:19Z</time>
      </trkpt>
      <trkpt lat="45.92897" lon="4.73074">
        <ele>172</ele>
        <time>2017-06-02T08:07:20Z</time>
      </trkpt>
      <trkpt lat="45.929" lon="4.73067">
        <ele>172</ele>
        <time>2017-06-02T08:07:21Z</time>
      </trkpt>
      <trkpt lat="45.92904" lon="4.7306">
        <ele>172</ele>
        <time>2017-06-02T08:07:22Z</time>
      </trkpt>
      <trkpt lat="45.92909" lon="4.73054">
        <ele>172</ele>
        <time>2017-06-02T08:07:23Z</time>
      </trkpt>
      <trkpt lat="45.92913" lon="4.73047">
        <ele>172</ele>
        <time>2017-06-02T08:07:24Z</time>
      </trkpt>
      <trkpt lat="45.92917" lon="4.73041">
        <ele>172</ele>
        <time>2017-06-02T08:07:25Z</time>
      </trkpt>
      <trkpt lat="45.92922" lon="4.73035">
        <ele>171</ele>
        <time>2017-06-02T08:07:26Z</time>
      </trkpt>
      <trkpt lat="45.92925" lon="4.73028">
        <ele>171</ele>
        <time>2017-06-02T08:07:27Z</time>
      </trkpt>
      <trkpt lat="45.9293" lon="4.73023">
        <ele>171</ele>
        <time>2017-06-02T08:07:28Z</time>
      </trkpt>
      <trkpt lat="45.92934" lon="4.73018">
        <ele>171</ele>
        <time>2017-06-02T08:07:29Z</time>
      </trkpt>
      <trkpt lat="45.92937" lon="4.73012">
        <ele>171</ele>
        <time>2017-06-02T08:07:30Z</time>
      </trkpt>
      <trkpt lat="45.92941" lon="4.73007">
        <ele>171</ele>
        <time>2017-06-02T08:07:31Z</time>
      </trkpt>
      <trkpt lat="45.92946" lon="4.73001">
        <ele>171</ele>
        <time>2017-06-02T08:07:32Z</time>
      </trkpt>
      <trkpt lat="45.9295" lon="4.72996">
        <ele>171</ele>
        <time>2017-06-02T08:07:33Z</time>
      </trkpt>
      <trkpt lat="45.92954" lon="4.72991">
        <ele>171</ele>
        <time>2017-06-02T08:07:34Z</time>
      </trkpt>
      <trkpt lat="45.92959" lon="4.72985">
        <ele>171</ele>
        <time>2017-06-02T08:07:35Z</time>
      </trkpt>
      <trkpt lat="45.92963" lon="4.7298">
        <ele>171</ele>
        <time>2017-06-02T08:07:36Z</time>
      </trkpt>
      <trkpt lat="45.92968" lon="4.72975">
        <ele>171</ele>
        <time>2017-06-02T08:07:37Z</time>
      </trkpt>
      <trkpt lat="45.92972" lon="4.72969">
        <ele>171</ele>
        <time>2017-06-02T08:07:38Z</time>
      </trkpt>
      <trkpt lat="45.92977" lon="4.72963">
        <ele>171</ele>
        <time>2017-06-02T08:07:39Z</time>
      </trkpt>
      <trkpt lat="45.92981" lon="4.72958">
        <ele>171</ele>
        <time>2017-06-02T08:07:40Z</time>
      </trkpt>
      <trkpt lat="45.92987" lon="4.72952">
        <ele>171</ele>
        <time>2017-06-02T08:07:41Z</time>
      </trkpt>
      <trkpt lat="45.92991" lon="4.72946">
        <ele>171</ele>
        <time>2017-06-02T08:07:42Z</time>
      </trkpt>
      <trkpt lat="45.92995" lon="4.7294">
        <ele>171</ele>
        <time>2017-06-02T08:07:43Z</time>
      </trkpt>
      <trkpt lat="45.93" lon="4.72934">
        <ele>170</ele>
        <time>2017-06-02T08:07:44Z</time>
      </trkpt>
      <trkpt lat="45.93005" lon="4.72928">
        <ele>170</ele>
        <time>2017-06-02T08:07:45Z</time>
      </trkpt>
      <trkpt lat="45.93011" lon="4.72923">
        <ele>170</ele>
        <time>2017-06-02T08:07:46Z</time>
      </trkpt>
      <trkpt lat="45.93016" lon="4.72917">
        <ele>170</ele>
        <time>2017-06-02T08:07:47Z</time>
      </trkpt>
      <trkpt lat="45.9302" lon="4.72912">
        <ele>171</ele>
        <time>2017-06-02T08:07:48Z</time>
      </trkpt>
      <trkpt lat="45.93025" lon="4.72906">
        <ele>172</ele>
        <time>2017-06-02T08:07:49Z</time>
      </trkpt>
      <trkpt lat="45.93029" lon="4.72901">
        <ele>172</ele>
        <time>2017-06-02T08:07:50Z</time>
      </trkpt>
      <trkpt lat="45.93033" lon="4.72895">
        <ele>172</ele>
        <time>2017-06-02T08:07:51Z</time>
      </trkpt>
      <trkpt lat="45.93037" lon="4.72889">
        <ele>172</ele>
        <time>2017-06-02T08:07:52Z</time>
      </trkpt>
      <trkpt lat="45.93042" lon="4.72883">
        <ele>172</ele>
        <time>2017-06-02T08:07:53Z</time>
      </trkpt>
      <trkpt lat="45.93047" lon="4.72877">
        <ele>172</ele>
        <time>2017-06-02T08:07:54Z</time>
      </trkpt>
      <trkpt lat="45.93052" lon="4.7287">
        <ele>172</ele>
        <time>2017-06-02T08:07:55Z</time>
      </trkpt>
      <trkpt lat="45.93057" lon="4.72864">
        <ele>172</ele>
        <time>2017-06-02T08:07:56Z</time>
      </trkpt>
      <trkpt lat="45.93062" lon="4.72859">
        <ele>172</ele>
        <time>2017-06-02T08:07:57Z</time>
      </trkpt>
      <trkpt lat="45.93066" lon="4.72853">
        <ele>172</ele>
        <time>2017-06-02T08:07:58Z</time>
      </trkpt>
      <trkpt lat="45.93071" lon="4.72848">
        <ele>172</ele>
        <time>2017-06-02T08:07:59Z</time>
      </trkpt>
      <trkpt lat="45.93076" lon="4.72843">
        <ele>173</ele>
        <time>2017-06-02T08:08:00Z</time>
      </trkpt>
      <trkpt lat="45.93081" lon="4.72838">
        <ele>173</ele>
        <time>2017-06-02T08:08:01Z</time>
      </trkpt>
      <trkpt lat="45.93086" lon="4.72833">
        <ele>173</ele>
        <time>2017-06-02T08:08:02Z</time>
      </trkpt>
      <trkpt lat="45.93091" lon="4.72829">
        <ele>172</ele>
        <time>2017-06-02T08:08:03Z</time>
      </trkpt>
      <trkpt lat="45.93097" lon="4.72823">
        <ele>172</ele>
        <time>2017-06-02T08:08:04Z</time>
      </trkpt>
      <trkpt lat="45.93101" lon="4.72819">
        <ele>172</ele>
        <time>2017-06-02T08:08:05Z</time>
      </trkpt>
      <trkpt lat="45.93104" lon="4.72814">
        <ele>172</ele>
        <time>2017-06-02T08:08:06Z</time>
      </trkpt>
      <trkpt lat="45.93108" lon="4.7281">
        <ele>171</ele>
        <time>2017-06-02T08:08:07Z</time>
      </trkpt>
      <trkpt lat="45.93111" lon="4.72804">
        <ele>171</ele>
        <time>2017-06-02T08:08:08Z</time>
      </trkpt>
      <trkpt lat="45.93116" lon="4.72799">
        <ele>171</ele>
        <time>2017-06-02T08:08:09Z</time>
      </trkpt>
      <trkpt lat="45.9312" lon="4.72794">
        <ele>171</ele>
        <time>2017-06-02T08:08:10Z</time>
      </trkpt>
      <trkpt lat="45.93125" lon="4.72788">
        <ele>171</ele>
        <time>2017-06-02T08:08:11Z</time>
      </trkpt>
      <trkpt lat="45.93129" lon="4.72782">
        <ele>171</ele>
        <time>2017-06-02T08:08:12Z</time>
      </trkpt>
      <trkpt lat="45.93134" lon="4.72777">
        <ele>171</ele>
        <time>2017-06-02T08:08:13Z</time>
      </trkpt>
      <trkpt lat="45.93139" lon="4.72771">
        <ele>171</ele>
        <time>2017-06-02T08:08:14Z</time>
      </trkpt>
      <trkpt lat="45.93144" lon="4.72765">
        <ele>171</ele>
        <time>2017-06-02T08:08:15Z</time>
      </trkpt>
      <trkpt lat="45.93149" lon="4.7276">
        <ele>170</ele>
        <time>2017-06-02T08:08:16Z</time>
      </trkpt>
      <trkpt lat="45.93153" lon="4.72754">
        <ele>170</ele>
        <time>2017-06-02T08:08:17Z</time>
      </trkpt>
      <trkpt lat="45.93158" lon="4.72748">
        <ele>170</ele>
        <time>2017-06-02T08:08:18Z</time>
      </trkpt>
      <trkpt lat="45.93163" lon="4.72743">
        <ele>170</ele>
        <time>2017-06-02T08:08:19Z</time>
      </trkpt>
      <trkpt lat="45.93167" lon="4.72737">
        <ele>170</ele>
        <time>2017-06-02T08:08:20Z</time>
      </trkpt>
      <trkpt lat="45.93172" lon="4.72732">
        <ele>170</ele>
        <time>2017-06-02T08:08:21Z</time>
      </trkpt>
      <trkpt lat="45.93176" lon="4.72726">
        <ele>170</ele>
        <time>2017-06-02T08:08:22Z</time>
      </trkpt>
      <trkpt lat="45.93181" lon="4.72721">
        <ele>169</ele>
        <time>2017-06-02T08:08:23Z</time>
      </trkpt>
      <trkpt lat="45.93185" lon="4.72715">
        <ele>169</ele>
        <time>2017-06-02T08:08:24Z</time>
      </trkpt>
      <trkpt lat="45.9319" lon="4.72709">
        <ele>169</ele>
        <time>2017-06-02T08:08:25Z</time>
      </trkpt>
      <trkpt lat="45.93195" lon="4.72703">
        <ele>169</ele>
        <time>2017-06-02T08:08:26Z</time>
      </trkpt>
      <trkpt lat="45.932" lon="4.72697">
        <ele>169</ele>
        <time>2017-06-02T08:08:27Z</time>
      </trkpt>
      <trkpt lat="45.93205" lon="4.7269">
        <ele>169</ele>
        <time>2017-06-02T08:08:28Z</time>
      </trkpt>
      <trkpt lat="45.9321" lon="4.72684">
        <ele>169</ele>
        <time>2017-06-02T08:08:29Z</time>
      </trkpt>
      <trkpt lat="45.93214" lon="4.72678">
        <ele>169</ele>
        <time>2017-06-02T08:08:30Z</time>
      </trkpt>
      <trkpt lat="45.93219" lon="4.72672">
        <ele>169</ele>
        <time>2017-06-02T08:08:31Z</time>
      </trkpt>
      <trkpt lat="45.93224" lon="4.72667">
        <ele>170</ele>
        <time>2017-06-02T08:08:32Z</time>
      </trkpt>
      <trkpt lat="45.93229" lon="4.72661">
        <ele>169</ele>
        <time>2017-06-02T08:08:33Z</time>
      </trkpt>
      <trkpt lat="45.93234" lon="4.72655">
        <ele>169</ele>
        <time>2017-06-02T08:08:34Z</time>
      </trkpt>
      <trkpt lat="45.93239" lon="4.72649">
        <ele>170</ele>
        <time>2017-06-02T08:08:35Z</time>
      </trkpt>
      <trkpt lat="45.93244" lon="4.72643">
        <ele>170</ele>
        <time>2017-06-02T08:08:36Z</time>
      </trkpt>
      <trkpt lat="45.93249" lon="4.72637">
        <ele>170</ele>
        <time>2017-06-02T08:08:37Z</time>
      </trkpt>
      <trkpt lat="45.93254" lon="4.72631">
        <ele>170</ele>
        <time>2017-06-02T08:08:38Z</time>
      </trkpt>
      <trkpt lat="45.93258" lon="4.72626">
        <ele>170</ele>
        <time>2017-06-02T08:08:39Z</time>
      </trkpt>
      <trkpt lat="45.93263" lon="4.7262">
        <ele>170</ele>
        <time>2017-06-02T08:08:40Z</time>
      </trkpt>
      <trkpt lat="45.93267" lon="4.72615">
        <ele>170</ele>
        <time>2017-06-02T08:08:41Z</time>
      </trkpt>
      <trkpt lat="45.93272" lon="4.72609">
        <ele>170</ele>
        <time>2017-06-02T08:08:42Z</time>
      </trkpt>
      <trkpt lat="45.93276" lon="4.72604">
        <ele>170</ele>
        <time>2017-06-02T08:08:43Z</time>
      </trkpt>
      <trkpt lat="45.9328" lon="4.72599">
        <ele>170</ele>
        <time>2017-06-02T08:08:44Z</time>
      </trkpt>
      <trkpt lat="45.93285" lon="4.72594">
        <ele>170</ele>
        <time>2017-06-02T08:08:45Z</time>
      </trkpt>
      <trkpt lat="45.9329" lon="4.72588">
        <ele>170</ele>
        <time>2017-06-02T08:08:46Z</time>
      </trkpt>
      <trkpt lat="45.93295" lon="4.72582">
        <ele>171</ele>
        <time>2017-06-02T08:08:47Z</time>
      </trkpt>
      <trkpt lat="45.933" lon="4.72575">
        <ele>171</ele>
        <time>2017-06-02T08:08:48Z</time>
      </trkpt>
      <trkpt lat="45.93306" lon="4.7257">
        <ele>171</ele>
        <time>2017-06-02T08:08:49Z</time>
      </trkpt>
      <trkpt lat="45.93312" lon="4.72564">
        <ele>171</ele>
        <time>2017-06-02T08:08:50Z</time>
      </trkpt>
      <trkpt lat="45.93317" lon="4.72558">
        <ele>171</ele>
        <time>2017-06-02T08:08:51Z</time>
      </trkpt>
      <trkpt lat="45.93322" lon="4.72552">
        <ele>172</ele>
        <time>2017-06-02T08:08:52Z</time>
      </trkpt>
      <trkpt lat="45.93327" lon="4.72546">
        <ele>172</ele>
        <time>2017-06-02T08:08:53Z</time>
      </trkpt>
      <trkpt lat="45.93332" lon="4.72541">
        <ele>172</ele>
        <time>2017-06-02T08:08:54Z</time>
      </trkpt>
      <trkpt lat="45.93336" lon="4.72536">
        <ele>171</ele>
        <time>2017-06-02T08:08:55Z</time>
      </trkpt>
      <trkpt lat="45.93341" lon="4.72531">
        <ele>172</ele>
        <time>2017-06-02T08:08:56Z</time>
      </trkpt>
      <trkpt lat="45.93346" lon="4.72526">
        <ele>172</ele>
        <time>2017-06-02T08:08:57Z</time>
      </trkpt>
      <trkpt lat="45.9335" lon="4.72521">
        <ele>172</ele>
        <time>2017-06-02T08:08:58Z</time>
      </trkpt>
      <trkpt lat="45.93354" lon="4.72515">
        <ele>172</ele>
        <time>2017-06-02T08:08:59Z</time>
      </trkpt>
      <trkpt lat="45.93358" lon="4.7251">
        <ele>172</ele>
        <time>2017-06-02T08:09:00Z</time>
      </trkpt>
      <trkpt lat="45.93363" lon="4.72505">
        <ele>172</ele>
        <time>2017-06-02T08:09:01Z</time>
      </trkpt>
      <trkpt lat="45.93368" lon="4.725">
        <ele>173</ele>
        <time>2017-06-02T08:09:02Z</time>
      </trkpt>
      <trkpt lat="45.93372" lon="4.72494">
        <ele>173</ele>
        <time>2017-06-02T08:09:03Z</time>
      </trkpt>
      <trkpt lat="45.93377" lon="4.72489">
        <ele>173</ele>
        <time>2017-06-02T08:09:04Z</time>
      </trkpt>
      <trkpt lat="45.93381" lon="4.72483">
        <ele>173</ele>
        <time>2017-06-02T08:09:05Z</time>
      </trkpt>
      <trkpt lat="45.93385" lon="4.72477">
        <ele>173</ele>
        <time>2017-06-02T08:09:06Z</time>
      </trkpt>
      <trkpt lat="45.93389" lon="4.72471">
        <ele>173</ele>
        <time>2017-06-02T08:09:07Z</time>
      </trkpt>
      <trkpt lat="45.93393" lon="4.72465">
        <ele>173</ele>
        <time>2017-06-02T08:09:08Z</time>
      </trkpt>
      <trkpt lat="45.93395" lon="4.72458">
        <ele>173</ele>
        <time>2017-06-02T08:09:09Z</time>
      </trkpt>
      <trkpt lat="45.93397" lon="4.72453">
        <ele>173</ele>
        <time>2017-06-02T08:09:10Z</time>
      </trkpt>
      <trkpt lat="45.93401" lon="4.72444">
        <ele>173</ele>
        <time>2017-06-02T08:09:13Z</time>
      </trkpt>
      <trkpt lat="45.93402" lon="4.72442">
        <ele>173</ele>
        <time>2017-06-02T08:09:14Z</time>
      </trkpt>
      <trkpt lat="45.93405" lon="4.72436">
        <ele>173</ele>
        <time>2017-06-02T08:09:16Z</time>
      </trkpt>
      <trkpt lat="45.93408" lon="4.72432">
        <ele>173</ele>
        <time>2017-06-02T08:09:17Z</time>
      </trkpt>
      <trkpt lat="45.93413" lon="4.72423">
        <ele>174</ele>
        <time>2017-06-02T08:09:19Z</time>
      </trkpt>
      <trkpt lat="45.93418" lon="4.7242">
        <ele>174</ele>
        <time>2017-06-02T08:09:20Z</time>
      </trkpt>
      <trkpt lat="45.93422" lon="4.72417">
        <ele>174</ele>
        <time>2017-06-02T08:09:21Z</time>
      </trkpt>
      <trkpt lat="45.93427" lon="4.72414">
        <ele>174</ele>
        <time>2017-06-02T08:09:22Z</time>
      </trkpt>
      <trkpt lat="45.93432" lon="4.72412">
        <ele>174</ele>
        <time>2017-06-02T08:09:23Z</time>
      </trkpt>
      <trkpt lat="45.93437" lon="4.72409">
        <ele>174</ele>
        <time>2017-06-02T08:09:24Z</time>
      </trkpt>
      <trkpt lat="45.93442" lon="4.72406">
        <ele>173</ele>
        <time>2017-06-02T08:09:25Z</time>
      </trkpt>
      <trkpt lat="45.93447" lon="4.72402">
        <ele>173</ele>
        <time>2017-06-02T08:09:26Z</time>
      </trkpt>
      <trkpt lat="45.93452" lon="4.72398">
        <ele>173</ele>
        <time>2017-06-02T08:09:27Z</time>
      </trkpt>
      <trkpt lat="45.93457" lon="4.72393">
        <ele>173</ele>
        <time>2017-06-02T08:09:28Z</time>
      </trkpt>
      <trkpt lat="45.93462" lon="4.72388">
        <ele>173</ele>
        <time>2017-06-02T08:09:29Z</time>
      </trkpt>
      <trkpt lat="45.93467" lon="4.72382">
        <ele>173</ele>
        <time>2017-06-02T08:09:30Z</time>
      </trkpt>
      <trkpt lat="45.93472" lon="4.72376">
        <ele>173</ele>
        <time>2017-06-02T08:09:31Z</time>
      </trkpt>
      <trkpt lat="45.93476" lon="4.72369">
        <ele>173</ele>
        <time>2017-06-02T08:09:32Z</time>
      </trkpt>
      <trkpt lat="45.93481" lon="4.72363">
        <ele>173</ele>
        <time>2017-06-02T08:09:33Z</time>
      </trkpt>
      <trkpt lat="45.93485" lon="4.72357">
        <ele>173</ele>
        <time>2017-06-02T08:09:34Z</time>
      </trkpt>
      <trkpt lat="45.9349" lon="4.7235">
        <ele>173</ele>
        <time>2017-06-02T08:09:35Z</time>
      </trkpt>
      <trkpt lat="45.93494" lon="4.72344">
        <ele>173</ele>
        <time>2017-06-02T08:09:36Z</time>
      </trkpt>
      <trkpt lat="45.93499" lon="4.72337">
        <ele>173</ele>
        <time>2017-06-02T08:09:37Z</time>
      </trkpt>
      <trkpt lat="45.93503" lon="4.72331">
        <ele>173</ele>
        <time>2017-06-02T08:09:38Z</time>
      </trkpt>
      <trkpt lat="45.93507" lon="4.72325">
        <ele>173</ele>
        <time>2017-06-02T08:09:39Z</time>
      </trkpt>
      <trkpt lat="45.9351" lon="4.72319">
        <ele>173</ele>
        <time>2017-06-02T08:09:40Z</time>
      </trkpt>
      <trkpt lat="45.93514" lon="4.72313">
        <ele>173</ele>
        <time>2017-06-02T08:09:41Z</time>
      </trkpt>
      <trkpt lat="45.93517" lon="4.72308">
        <ele>173</ele>
        <time>2017-06-02T08:09:42Z</time>
      </trkpt>
      <trkpt lat="45.9352" lon="4.72302">
        <ele>172</ele>
        <time>2017-06-02T08:09:43Z</time>
      </trkpt>
      <trkpt lat="45.93523" lon="4.72296">
        <ele>172</ele>
        <time>2017-06-02T08:09:44Z</time>
      </trkpt>
      <trkpt lat="45.93526" lon="4.72289">
        <ele>172</ele>
        <time>2017-06-02T08:09:45Z</time>
      </trkpt>
      <trkpt lat="45.93529" lon="4.72282">
        <ele>172</ele>
        <time>2017-06-02T08:09:46Z</time>
      </trkpt>
      <trkpt lat="45.93532" lon="4.72275">
        <ele>172</ele>
        <time>2017-06-02T08:09:47Z</time>
      </trkpt>
      <trkpt lat="45.93534" lon="4.72268">
        <ele>172</ele>
        <time>2017-06-02T08:09:48Z</time>
      </trkpt>
      <trkpt lat="45.93537" lon="4.72261">
        <ele>172</ele>
        <time>2017-06-02T08:09:49Z</time>
      </trkpt>
      <trkpt lat="45.9354" lon="4.72254">
        <ele>172</ele>
        <time>2017-06-02T08:09:50Z</time>
      </trkpt>
      <trkpt lat="45.93542" lon="4.72246">
        <ele>172</ele>
        <time>2017-06-02T08:09:51Z</time>
      </trkpt>
      <trkpt lat="45.93546" lon="4.72239">
        <ele>172</ele>
        <time>2017-06-02T08:09:52Z</time>
      </trkpt>
      <trkpt lat="45.93549" lon="4.72233">
        <ele>172</ele>
        <time>2017-06-02T08:09:53Z</time>
      </trkpt>
      <trkpt lat="45.93553" lon="4.72229">
        <ele>173</ele>
        <time>2017-06-02T08:09:54Z</time>
      </trkpt>
      <trkpt lat="45.93559" lon="4.72227">
        <ele>173</ele>
        <time>2017-06-02T08:09:55Z</time>
      </trkpt>
      <trkpt lat="45.93565" lon="4.72229">
        <ele>173</ele>
        <time>2017-06-02T08:09:56Z</time>
      </trkpt>
      <trkpt lat="45.9357" lon="4.72233">
        <ele>173</ele>
        <time>2017-06-02T08:09:57Z</time>
      </trkpt>
      <trkpt lat="45.93574" lon="4.72237">
        <ele>173</ele>
        <time>2017-06-02T08:09:58Z</time>
      </trkpt>
      <trkpt lat="45.93578" lon="4.72242">
        <ele>173</ele>
        <time>2017-06-02T08:09:59Z</time>
      </trkpt>
      <trkpt lat="45.93582" lon="4.72246">
        <ele>173</ele>
        <time>2017-06-02T08:10:00Z</time>
      </trkpt>
      <trkpt lat="45.93586" lon="4.7225">
        <ele>173</ele>
        <time>2017-06-02T08:10:01Z</time>
      </trkpt>
      <trkpt lat="45.9359" lon="4.72254">
        <ele>173</ele>
        <time>2017-06-02T08:10:02Z</time>
      </trkpt>
      <trkpt lat="45.93594" lon="4.72259">
        <ele>173</ele>
        <time>2017-06-02T08:10:03Z</time>
      </trkpt>
      <trkpt lat="45.93598" lon="4.72263">
        <ele>173</ele>
        <time>2017-06-02T08:10:04Z</time>
      </trkpt>
      <trkpt lat="45.93603" lon="4.72267">
        <ele>173</ele>
        <time>2017-06-02T08:10:05Z</time>
      </trkpt>
      <trkpt lat="45.93608" lon="4.72271">
        <ele>172</ele>
        <time>2017-06-02T08:10:06Z</time>
      </trkpt>
      <trkpt lat="45.93612" lon="4.72275">
        <ele>172</ele>
        <time>2017-06-02T08:10:07Z</time>
      </trkpt>
      <trkpt lat="45.93616" lon="4.7228">
        <ele>172</ele>
        <time>2017-06-02T08:10:08Z</time>
      </trkpt>
      <trkpt lat="45.93621" lon="4.72285">
        <ele>172</ele>
        <time>2017-06-02T08:10:09Z</time>
      </trkpt>
      <trkpt lat="45.93626" lon="4.7229">
        <ele>172</ele>
        <time>2017-06-02T08:10:10Z</time>
      </trkpt>
      <trkpt lat="45.9363" lon="4.72294">
        <ele>172</ele>
        <time>2017-06-02T08:10:11Z</time>
      </trkpt>
      <trkpt lat="45.93634" lon="4.72299">
        <ele>172</ele>
        <time>2017-06-02T08:10:12Z</time>
      </trkpt>
      <trkpt lat="45.93638" lon="4.72303">
        <ele>172</ele>
        <time>2017-06-02T08:10:13Z</time>
      </trkpt>
      <trkpt lat="45.93642" lon="4.72308">
        <ele>172</ele>
        <time>2017-06-02T08:10:14Z</time>
      </trkpt>
      <trkpt lat="45.93647" lon="4.72313">
        <ele>172</ele>
        <time>2017-06-02T08:10:15Z</time>
      </trkpt>
      <trkpt lat="45.93652" lon="4.72318">
        <ele>172</ele>
        <time>2017-06-02T08:10:16Z</time>
      </trkpt>
      <trkpt lat="45.93657" lon="4.72323">
        <ele>172</ele>
        <time>2017-06-02T08:10:17Z</time>
      </trkpt>
      <trkpt lat="45.93663" lon="4.72328">
        <ele>171</ele>
        <time>2017-06-02T08:10:18Z</time>
      </trkpt>
      <trkpt lat="45.93667" lon="4.72333">
        <ele>171</ele>
        <time>2017-06-02T08:10:19Z</time>
      </trkpt>
      <trkpt lat="45.93672" lon="4.72338">
        <ele>171</ele>
        <time>2017-06-02T08:10:20Z</time>
      </trkpt>
      <trkpt lat="45.93679" lon="4.72345">
        <ele>171</ele>
        <time>2017-06-02T08:10:21Z</time>
      </trkpt>
      <trkpt lat="45.93684" lon="4.7235">
        <ele>171</ele>
        <time>2017-06-02T08:10:22Z</time>
      </trkpt>
      <trkpt lat="45.93688" lon="4.72354">
        <ele>171</ele>
        <time>2017-06-02T08:10:23Z</time>
      </trkpt>
      <trkpt lat="45.93693" lon="4.72358">
        <ele>171</ele>
        <time>2017-06-02T08:10:24Z</time>
      </trkpt>
      <trkpt lat="45.93696" lon="4.72364">
        <ele>171</ele>
        <time>2017-06-02T08:10:25Z</time>
      </trkpt>
      <trkpt lat="45.93702" lon="4.72368">
        <ele>171</ele>
        <time>2017-06-02T08:10:26Z</time>
      </trkpt>
      <trkpt lat="45.93707" lon="4.72374">
        <ele>171</ele>
        <time>2017-06-02T08:10:27Z</time>
      </trkpt>
      <trkpt lat="45.93712" lon="4.72378">
        <ele>171</ele>
        <time>2017-06-02T08:10:28Z</time>
      </trkpt>
      <trkpt lat="45.93717" lon="4.72382">
        <ele>171</ele>
        <time>2017-06-02T08:10:29Z</time>
      </trkpt>
      <trkpt lat="45.93722" lon="4.72386">
        <ele>171</ele>
        <time>2017-06-02T08:10:30Z</time>
      </trkpt>
      <trkpt lat="45.93727" lon="4.72391">
        <ele>171</ele>
        <time>2017-06-02T08:10:31Z</time>
      </trkpt>
      <trkpt lat="45.93731" lon="4.72395">
        <ele>171</ele>
        <time>2017-06-02T08:10:32Z</time>
      </trkpt>
      <trkpt lat="45.93736" lon="4.72399">
        <ele>171</ele>
        <time>2017-06-02T08:10:33Z</time>
      </trkpt>
      <trkpt lat="45.93741" lon="4.72404">
        <ele>171</ele>
        <time>2017-06-02T08:10:34Z</time>
      </trkpt>
      <trkpt lat="45.93746" lon="4.72408">
        <ele>171</ele>
        <time>2017-06-02T08:10:35Z</time>
      </trkpt>
      <trkpt lat="45.9375" lon="4.72413">
        <ele>171</ele>
        <time>2017-06-02T08:10:36Z</time>
      </trkpt>
      <trkpt lat="45.93755" lon="4.72418">
        <ele>171</ele>
        <time>2017-06-02T08:10:37Z</time>
      </trkpt>
      <trkpt lat="45.9376" lon="4.72423">
        <ele>171</ele>
        <time>2017-06-02T08:10:38Z</time>
      </trkpt>
      <trkpt lat="45.93765" lon="4.72428">
        <ele>171</ele>
        <time>2017-06-02T08:10:39Z</time>
      </trkpt>
      <trkpt lat="45.93769" lon="4.72432">
        <ele>171</ele>
        <time>2017-06-02T08:10:40Z</time>
      </trkpt>
      <trkpt lat="45.93775" lon="4.72436">
        <ele>171</ele>
        <time>2017-06-02T08:10:41Z</time>
      </trkpt>
      <trkpt lat="45.9378" lon="4.72441">
        <ele>172</ele>
        <time>2017-06-02T08:10:42Z</time>
      </trkpt>
      <trkpt lat="45.93785" lon="4.72446">
        <ele>172</ele>
        <time>2017-06-02T08:10:43Z</time>
      </trkpt>
      <trkpt lat="45.93791" lon="4.72451">
        <ele>172</ele>
        <time>2017-06-02T08:10:44Z</time>
      </trkpt>
      <trkpt lat="45.93796" lon="4.72455">
        <ele>172</ele>
        <time>2017-06-02T08:10:45Z</time>
      </trkpt>
      <trkpt lat="45.93802" lon="4.7246">
        <ele>172</ele>
        <time>2017-06-02T08:10:46Z</time>
      </trkpt>
      <trkpt lat="45.93807" lon="4.72465">
        <ele>172</ele>
        <time>2017-06-02T08:10:47Z</time>
      </trkpt>
      <trkpt lat="45.93812" lon="4.7247">
        <ele>172</ele>
        <time>2017-06-02T08:10:48Z</time>
      </trkpt>
      <trkpt lat="45.93816" lon="4.72476">
        <ele>172</ele>
        <time>2017-06-02T08:10:49Z</time>
      </trkpt>
      <trkpt lat="45.93821" lon="4.72481">
        <ele>173</ele>
        <time>2017-06-02T08:10:50Z</time>
      </trkpt>
      <trkpt lat="45.93825" lon="4.72484">
        <ele>173</ele>
        <time>2017-06-02T08:10:51Z</time>
      </trkpt>
      <trkpt lat="45.9383" lon="4.72489">
        <ele>173</ele>
        <time>2017-06-02T08:10:52Z</time>
      </trkpt>
      <trkpt lat="45.93834" lon="4.72493">
        <ele>174</ele>
        <time>2017-06-02T08:10:53Z</time>
      </trkpt>
      <trkpt lat="45.93839" lon="4.72497">
        <ele>174</ele>
        <time>2017-06-02T08:10:54Z</time>
      </trkpt>
      <trkpt lat="45.93843" lon="4.72501">
        <ele>174</ele>
        <time>2017-06-02T08:10:55Z</time>
      </trkpt>
      <trkpt lat="45.93849" lon="4.72506">
        <ele>174</ele>
        <time>2017-06-02T08:10:56Z</time>
      </trkpt>
      <trkpt lat="45.93854" lon="4.72511">
        <ele>173</ele>
        <time>2017-06-02T08:10:57Z</time>
      </trkpt>
      <trkpt lat="45.93858" lon="4.72521">
        <ele>173</ele>
        <time>2017-06-02T08:10:58Z</time>
      </trkpt>
      <trkpt lat="45.93865" lon="4.72526">
        <ele>173</ele>
        <time>2017-06-02T08:11:00Z</time>
      </trkpt>
      <trkpt lat="45.9387" lon="4.72525">
        <ele>173</ele>
        <time>2017-06-02T08:11:01Z</time>
      </trkpt>
      <trkpt lat="45.93874" lon="4.72522">
        <ele>173</ele>
        <time>2017-06-02T08:11:02Z</time>
      </trkpt>
      <trkpt lat="45.93878" lon="4.72518">
        <ele>173</ele>
        <time>2017-06-02T08:11:03Z</time>
      </trkpt>
      <trkpt lat="45.93882" lon="4.72512">
        <ele>173</ele>
        <time>2017-06-02T08:11:04Z</time>
      </trkpt>
      <trkpt lat="45.93886" lon="4.72507">
        <ele>173</ele>
        <time>2017-06-02T08:11:05Z</time>
      </trkpt>
      <trkpt lat="45.9389" lon="4.72503">
        <ele>173</ele>
        <time>2017-06-02T08:11:06Z</time>
      </trkpt>
      <trkpt lat="45.93894" lon="4.72497">
        <ele>172</ele>
        <time>2017-06-02T08:11:07Z</time>
      </trkpt>
      <trkpt lat="45.93899" lon="4.72492">
        <ele>172</ele>
        <time>2017-06-02T08:11:08Z</time>
      </trkpt>
      <trkpt lat="45.93903" lon="4.72487">
        <ele>172</ele>
        <time>2017-06-02T08:11:09Z</time>
      </trkpt>
      <trkpt lat="45.93908" lon="4.72482">
        <ele>172</ele>
        <time>2017-06-02T08:11:10Z</time>
      </trkpt>
      <trkpt lat="45.93913" lon="4.72476">
        <ele>172</ele>
        <time>2017-06-02T08:11:11Z</time>
      </trkpt>
      <trkpt lat="45.93917" lon="4.7247">
        <ele>171</ele>
        <time>2017-06-02T08:11:12Z</time>
      </trkpt>
      <trkpt lat="45.93922" lon="4.72464">
        <ele>171</ele>
        <time>2017-06-02T08:11:13Z</time>
      </trkpt>
      <trkpt lat="45.93928" lon="4.72458">
        <ele>171</ele>
        <time>2017-06-02T08:11:14Z</time>
      </trkpt>
      <trkpt lat="45.93933" lon="4.72451">
        <ele>171</ele>
        <time>2017-06-02T08:11:15Z</time>
      </trkpt>
      <trkpt lat="45.93938" lon="4.72444">
        <ele>171</ele>
        <time>2017-06-02T08:11:16Z</time>
      </trkpt>
      <trkpt lat="45.93944" lon="4.72438">
        <ele>171</ele>
        <time>2017-06-02T08:11:17Z</time>
      </trkpt>
      <trkpt lat="45.93949" lon="4.72432">
        <ele>171</ele>
        <time>2017-06-02T08:11:18Z</time>
      </trkpt>
      <trkpt lat="45.93954" lon="4.72425">
        <ele>171</ele>
        <time>2017-06-02T08:11:19Z</time>
      </trkpt>
      <trkpt lat="45.9396" lon="4.72419">
        <ele>171</ele>
        <time>2017-06-02T08:11:20Z</time>
      </trkpt>
      <trkpt lat="45.93965" lon="4.72413">
        <ele>171</ele>
        <time>2017-06-02T08:11:21Z</time>
      </trkpt>
      <trkpt lat="45.9397" lon="4.72407">
        <ele>171</ele>
        <time>2017-06-02T08:11:22Z</time>
      </trkpt>
      <trkpt lat="45.93976" lon="4.724">
        <ele>171</ele>
        <time>2017-06-02T08:11:23Z</time>
      </trkpt>
      <trkpt lat="45.93981" lon="4.72393">
        <ele>171</ele>
        <time>2017-06-02T08:11:24Z</time>
      </trkpt>
      <trkpt lat="45.93986" lon="4.72387">
        <ele>171</ele>
        <time>2017-06-02T08:11:25Z</time>
      </trkpt>
      <trkpt lat="45.93991" lon="4.72381">
        <ele>171</ele>
        <time>2017-06-02T08:11:26Z</time>
      </trkpt>
      <trkpt lat="45.93996" lon="4.72376">
        <ele>171</ele>
        <time>2017-06-02T08:11:27Z</time>
      </trkpt>
      <trkpt lat="45.94001" lon="4.7237">
        <ele>171</ele>
        <time>2017-06-02T08:11:28Z</time>
      </trkpt>
      <trkpt lat="45.94006" lon="4.72363">
        <ele>171</ele>
        <time>2017-06-02T08:11:29Z</time>
      </trkpt>
      <trkpt lat="45.9401" lon="4.72358">
        <ele>171</ele>
        <time>2017-06-02T08:11:30Z</time>
      </trkpt>
      <trkpt lat="45.94014" lon="4.72352">
        <ele>171</ele>
        <time>2017-06-02T08:11:31Z</time>
      </trkpt>
      <trkpt lat="45.94018" lon="4.72347">
        <ele>171</ele>
        <time>2017-06-02T08:11:32Z</time>
      </trkpt>
      <trkpt lat="45.94021" lon="4.72341">
        <ele>171</ele>
        <time>2017-06-02T08:11:33Z</time>
      </trkpt>
      <trkpt lat="45.94025" lon="4.72336">
        <ele>171</ele>
        <time>2017-06-02T08:11:34Z</time>
      </trkpt>
      <trkpt lat="45.94029" lon="4.72331">
        <ele>171</ele>
        <time>2017-06-02T08:11:35Z</time>
      </trkpt>
      <trkpt lat="45.94033" lon="4.72326">
        <ele>171</ele>
        <time>2017-06-02T08:11:36Z</time>
      </trkpt>
      <trkpt lat="45.94037" lon="4.7232">
        <ele>171</ele>
        <time>2017-06-02T08:11:37Z</time>
      </trkpt>
      <trkpt lat="45.94043" lon="4.72315">
        <ele>171</ele>
        <time>2017-06-02T08:11:38Z</time>
      </trkpt>
      <trkpt lat="45.94047" lon="4.72309">
        <ele>171</ele>
        <time>2017-06-02T08:11:39Z</time>
      </trkpt>
      <trkpt lat="45.94052" lon="4.72304">
        <ele>171</ele>
        <time>2017-06-02T08:11:40Z</time>
      </trkpt>
      <trkpt lat="45.94056" lon="4.72299">
        <ele>171</ele>
        <time>2017-06-02T08:11:41Z</time>
      </trkpt>
      <trkpt lat="45.9406" lon="4.72293">
        <ele>171</ele>
        <time>2017-06-02T08:11:42Z</time>
      </trkpt>
      <trkpt lat="45.94065" lon="4.72288">
        <ele>171</ele>
        <time>2017-06-02T08:11:43Z</time>
      </trkpt>
      <trkpt lat="45.9407" lon="4.72283">
        <ele>171</ele>
        <time>2017-06-02T08:11:44Z</time>
      </trkpt>
      <trkpt lat="45.94074" lon="4.72279">
        <ele>171</ele>
        <time>2017-06-02T08:11:45Z</time>
      </trkpt>
      <trkpt lat="45.94078" lon="4.72275">
        <ele>171</ele>
        <time>2017-06-02T08:11:46Z</time>
      </trkpt>
      <trkpt lat="45.94083" lon="4.72272">
        <ele>171</ele>
        <time>2017-06-02T08:11:47Z</time>
      </trkpt>
      <trkpt lat="45.94088" lon="4.72271">
        <ele>171</ele>
        <time>2017-06-02T08:11:48Z</time>
      </trkpt>
      <trkpt lat="45.94093" lon="4.7227">
        <ele>171</ele>
        <time>2017-06-02T08:11:49Z</time>
      </trkpt>
      <trkpt lat="45.94098" lon="4.72269">
        <ele>171</ele>
        <time>2017-06-02T08:11:50Z</time>
      </trkpt>
      <trkpt lat="45.94104" lon="4.7227">
        <ele>171</ele>
        <time>2017-06-02T08:11:51Z</time>
      </trkpt>
      <trkpt lat="45.9411" lon="4.72271">
        <ele>171</ele>
        <time>2017-06-02T08:11:52Z</time>
      </trkpt>
      <trkpt lat="45.94116" lon="4.72274">
        <ele>171</ele>
        <time>2017-06-02T08:11:53Z</time>
      </trkpt>
      <trkpt lat="45.94121" lon="4.72278">
        <ele>171</ele>
        <time>2017-06-02T08:11:54Z</time>
      </trkpt>
      <trkpt lat="45.94127" lon="4.72282">
        <ele>171</ele>
        <time>2017-06-02T08:11:55Z</time>
      </trkpt>
      <trkpt lat="45.94133" lon="4.72285">
        <ele>171</ele>
        <time>2017-06-02T08:11:56Z</time>
      </trkpt>
      <trkpt lat="45.94139" lon="4.72288">
        <ele>171</ele>
        <time>2017-06-02T08:11:57Z</time>
      </trkpt>
      <trkpt lat="45.94145" lon="4.7229">
        <ele>171</ele>
        <time>2017-06-02T08:11:58Z</time>
      </trkpt>
      <trkpt lat="45.94151" lon="4.72292">
        <ele>171</ele>
        <time>2017-06-02T08:11:59Z</time>
      </trkpt>
      <trkpt lat="45.94157" lon="4.72293">
        <ele>171</ele>
        <time>2017-06-02T08:12:00Z</time>
      </trkpt>
      <trkpt lat="45.94163" lon="4.72294">
        <ele>171</ele>
        <time>2017-06-02T08:12:01Z</time>
      </trkpt>
      <trkpt lat="45.94169" lon="4.72295">
        <ele>171</ele>
        <time>2017-06-02T08:12:02Z</time>
      </trkpt>
      <trkpt lat="45.94174" lon="4.72295">
        <ele>171</ele>
        <time>2017-06-02T08:12:03Z</time>
      </trkpt>
      <trkpt lat="45.9418" lon="4.72295">
        <ele>171</ele>
        <time>2017-06-02T08:12:04Z</time>
      </trkpt>
      <trkpt lat="45.94185" lon="4.72295">
        <ele>171</ele>
        <time>2017-06-02T08:12:05Z</time>
      </trkpt>
      <trkpt lat="45.94191" lon="4.72295">
        <ele>171</ele>
        <time>2017-06-02T08:12:06Z</time>
      </trkpt>
      <trkpt lat="45.94196" lon="4.72296">
        <ele>171</ele>
        <time>2017-06-02T08:12:07Z</time>
      </trkpt>
      <trkpt lat="45.94201" lon="4.72296">
        <ele>171</ele>
        <time>2017-06-02T08:12:08Z</time>
      </trkpt>
      <trkpt lat="45.94207" lon="4.72296">
        <ele>171</ele>
        <time>2017-06-02T08:12:09Z</time>
      </trkpt>
      <trkpt lat="45.94212" lon="4.72295">
        <ele>171</ele>
        <time>2017-06-02T08:12:10Z</time>
      </trkpt>
      <trkpt lat="45.94217" lon="4.72294">
        <ele>171</ele>
        <time>2017-06-02T08:12:11Z</time>
      </trkpt>
      <trkpt lat="45.94222" lon="4.72292">
        <ele>171</ele>
        <time>2017-06-02T08:12:12Z</time>
      </trkpt>
      <trkpt lat="45.94228" lon="4.72291">
        <ele>171</ele>
        <time>2017-06-02T08:12:13Z</time>
      </trkpt>
      <trkpt lat="45.94233" lon="4.7229">
        <ele>171</ele>
        <time>2017-06-02T08:12:14Z</time>
      </trkpt>
      <trkpt lat="45.94238" lon="4.72288">
        <ele>171</ele>
        <time>2017-06-02T08:12:15Z</time>
      </trkpt>
      <trkpt lat="45.94244" lon="4.72286">
        <ele>171</ele>
        <time>2017-06-02T08:12:16Z</time>
      </trkpt>
      <trkpt lat="45.94249" lon="4.72284">
        <ele>171</ele>
        <time>2017-06-02T08:12:17Z</time>
      </trkpt>
      <trkpt lat="45.94255" lon="4.72282">
        <ele>171</ele>
        <time>2017-06-02T08:12:18Z</time>
      </trkpt>
      <trkpt lat="45.9426" lon="4.7228">
        <ele>171</ele>
        <time>2017-06-02T08:12:19Z</time>
      </trkpt>
      <trkpt lat="45.94264" lon="4.72278">
        <ele>171</ele>
        <time>2017-06-02T08:12:20Z</time>
      </trkpt>
      <trkpt lat="45.94269" lon="4.72277">
        <ele>171</ele>
        <time>2017-06-02T08:12:21Z</time>
      </trkpt>
      <trkpt lat="45.94276" lon="4.72281">
        <ele>171</ele>
        <time>2017-06-02T08:12:23Z</time>
      </trkpt>
      <trkpt lat="45.94279" lon="4.72286">
        <ele>171</ele>
        <time>2017-06-02T08:12:24Z</time>
      </trkpt>
      <trkpt lat="45.94281" lon="4.72293">
        <ele>171</ele>
        <time>2017-06-02T08:12:25Z</time>
      </trkpt>
      <trkpt lat="45.94284" lon="4.723">
        <ele>171</ele>
        <time>2017-06-02T08:12:26Z</time>
      </trkpt>
      <trkpt lat="45.94287" lon="4.72306">
        <ele>171</ele>
        <time>2017-06-02T08:12:27Z</time>
      </trkpt>
      <trkpt lat="45.9429" lon="4.72313">
        <ele>171</ele>
        <time>2017-06-02T08:12:28Z</time>
      </trkpt>
      <trkpt lat="45.94293" lon="4.72319">
        <ele>171</ele>
        <time>2017-06-02T08:12:29Z</time>
      </trkpt>
      <trkpt lat="45.94297" lon="4.72326">
        <ele>171</ele>
        <time>2017-06-02T08:12:30Z</time>
      </trkpt>
      <trkpt lat="45.94299" lon="4.72332">
        <ele>171</ele>
        <time>2017-06-02T08:12:31Z</time>
      </trkpt>
      <trkpt lat="45.94303" lon="4.72339">
        <ele>172</ele>
        <time>2017-06-02T08:12:32Z</time>
      </trkpt>
      <trkpt lat="45.94306" lon="4.72346">
        <ele>172</ele>
        <time>2017-06-02T08:12:33Z</time>
      </trkpt>
      <trkpt lat="45.94308" lon="4.72353">
        <ele>172</ele>
        <time>2017-06-02T08:12:34Z</time>
      </trkpt>
      <trkpt lat="45.94312" lon="4.72359">
        <ele>172</ele>
        <time>2017-06-02T08:12:35Z</time>
      </trkpt>
      <trkpt lat="45.94315" lon="4.72366">
        <ele>172</ele>
        <time>2017-06-02T08:12:36Z</time>
      </trkpt>
      <trkpt lat="45.94318" lon="4.72372">
        <ele>172</ele>
        <time>2017-06-02T08:12:37Z</time>
      </trkpt>
      <trkpt lat="45.94321" lon="4.72379">
        <ele>172</ele>
        <time>2017-06-02T08:12:38Z</time>
      </trkpt>
      <trkpt lat="45.94324" lon="4.72385">
        <ele>172</ele>
        <time>2017-06-02T08:12:39Z</time>
      </trkpt>
      <trkpt lat="45.94328" lon="4.72392">
        <ele>172</ele>
        <time>2017-06-02T08:12:40Z</time>
      </trkpt>
      <trkpt lat="45.94331" lon="4.72398">
        <ele>172</ele>
        <time>2017-06-02T08:12:41Z</time>
      </trkpt>
      <trkpt lat="45.94334" lon="4.72405">
        <ele>173</ele>
        <time>2017-06-02T08:12:42Z</time>
      </trkpt>
      <trkpt lat="45.94337" lon="4.72412">
        <ele>173</ele>
        <time>2017-06-02T08:12:43Z</time>
      </trkpt>
      <trkpt lat="45.9434" lon="4.7242">
        <ele>173</ele>
        <time>2017-06-02T08:12:44Z</time>
      </trkpt>
      <trkpt lat="45.94344" lon="4.72427">
        <ele>173</ele>
        <time>2017-06-02T08:12:45Z</time>
      </trkpt>
      <trkpt lat="45.94347" lon="4.72434">
        <ele>173</ele>
        <time>2017-06-02T08:12:46Z</time>
      </trkpt>
      <trkpt lat="45.9435" lon="4.72442">
        <ele>173</ele>
        <time>2017-06-02T08:12:47Z</time>
      </trkpt>
      <trkpt lat="45.94354" lon="4.72449">
        <ele>173</ele>
        <time>2017-06-02T08:12:48Z</time>
      </trkpt>
      <trkpt lat="45.94357" lon="4.72456">
        <ele>173</ele>
        <time>2017-06-02T08:12:49Z</time>
      </trkpt>
      <trkpt lat="45.9436" lon="4.72463">
        <ele>173</ele>
        <time>2017-06-02T08:12:50Z</time>
      </trkpt>
      <trkpt lat="45.94364" lon="4.7247">
        <ele>173</ele>
        <time>2017-06-02T08:12:51Z</time>
      </trkpt>
      <trkpt lat="45.94367" lon="4.72477">
        <ele>173</ele>
        <time>2017-06-02T08:12:52Z</time>
      </trkpt>
      <trkpt lat="45.9437" lon="4.72483">
        <ele>173</ele>
        <time>2017-06-02T08:12:53Z</time>
      </trkpt>
      <trkpt lat="45.94373" lon="4.7249">
        <ele>173</ele>
        <time>2017-06-02T08:12:54Z</time>
      </trkpt>
      <trkpt lat="45.94375" lon="4.72497">
        <ele>173</ele>
        <time>2017-06-02T08:12:55Z</time>
      </trkpt>
      <trkpt lat="45.94378" lon="4.72504">
        <ele>174</ele>
        <time>2017-06-02T08:12:56Z</time>
      </trkpt>
      <trkpt lat="45.9438" lon="4.72511">
        <ele>174</ele>
        <time>2017-06-02T08:12:57Z</time>
      </trkpt>
      <trkpt lat="45.94382" lon="4.72517">
        <ele>174</ele>
        <time>2017-06-02T08:12:58Z</time>
      </trkpt>
      <trkpt lat="45.94384" lon="4.72524">
        <ele>174</ele>
        <time>2017-06-02T08:12:59Z</time>
      </trkpt>
      <trkpt lat="45.94386" lon="4.72532">
        <ele>174</ele>
        <time>2017-06-02T08:13:00Z</time>
      </trkpt>
      <trkpt lat="45.94387" lon="4.72538">
        <ele>174</ele>
        <time>2017-06-02T08:13:01Z</time>
      </trkpt>
      <trkpt lat="45.94389" lon="4.72545">
        <ele>173</ele>
        <time>2017-06-02T08:13:02Z</time>
      </trkpt>
      <trkpt lat="45.9439" lon="4.72553">
        <ele>173</ele>
        <time>2017-06-02T08:13:03Z</time>
      </trkpt>
      <trkpt lat="45.94392" lon="4.72561">
        <ele>173</ele>
        <time>2017-06-02T08:13:04Z</time>
      </trkpt>
      <trkpt lat="45.94392" lon="4.72568">
        <ele>173</ele>
        <time>2017-06-02T08:13:05Z</time>
      </trkpt>
      <trkpt lat="45.94394" lon="4.72576">
        <ele>173</ele>
        <time>2017-06-02T08:13:06Z</time>
      </trkpt>
      <trkpt lat="45.94396" lon="4.72584">
        <ele>173</ele>
        <time>2017-06-02T08:13:07Z</time>
      </trkpt>
      <trkpt lat="45.94397" lon="4.72593">
        <ele>173</ele>
        <time>2017-06-02T08:13:08Z</time>
      </trkpt>
      <trkpt lat="45.94398" lon="4.72601">
        <ele>173</ele>
        <time>2017-06-02T08:13:09Z</time>
      </trkpt>
      <trkpt lat="45.944" lon="4.7261">
        <ele>173</ele>
        <time>2017-06-02T08:13:10Z</time>
      </trkpt>
      <trkpt lat="45.94401" lon="4.72618">
        <ele>173</ele>
        <time>2017-06-02T08:13:11Z</time>
      </trkpt>
      <trkpt lat="45.94402" lon="4.72627">
        <ele>174</ele>
        <time>2017-06-02T08:13:12Z</time>
      </trkpt>
      <trkpt lat="45.94403" lon="4.72635">
        <ele>174</ele>
        <time>2017-06-02T08:13:13Z</time>
      </trkpt>
      <trkpt lat="45.94404" lon="4.72643">
        <ele>174</ele>
        <time>2017-06-02T08:13:14Z</time>
      </trkpt>
      <trkpt lat="45.94405" lon="4.72651">
        <ele>174</ele>
        <time>2017-06-02T08:13:15Z</time>
      </trkpt>
      <trkpt lat="45.94406" lon="4.72659">
        <ele>174</ele>
        <time>2017-06-02T08:13:16Z</time>
      </trkpt>
      <trkpt lat="45.94407" lon="4.72667">
        <ele>173</ele>
        <time>2017-06-02T08:13:17Z</time>
      </trkpt>
      <trkpt lat="45.94407" lon="4.72675">
        <ele>173</ele>
        <time>2017-06-02T08:13:18Z</time>
      </trkpt>
      <trkpt lat="45.94408" lon="4.72682">
        <ele>173</ele>
        <time>2017-06-02T08:13:19Z</time>
      </trkpt>
      <trkpt lat="45.94409" lon="4.72689">
        <ele>173</ele>
        <time>2017-06-02T08:13:20Z</time>
      </trkpt>
      <trkpt lat="45.9441" lon="4.72696">
        <ele>173</ele>
        <time>2017-06-02T08:13:21Z</time>
      </trkpt>
      <trkpt lat="45.94411" lon="4.72704">
        <ele>172</ele>
        <time>2017-06-02T08:13:22Z</time>
      </trkpt>
      <trkpt lat="45.94411" lon="4.72712">
        <ele>172</ele>
        <time>2017-06-02T08:13:23Z</time>
      </trkpt>
      <trkpt lat="45.94412" lon="4.72719">
        <ele>172</ele>
        <time>2017-06-02T08:13:24Z</time>
      </trkpt>
      <trkpt lat="45.94413" lon="4.72727">
        <ele>172</ele>
        <time>2017-06-02T08:13:25Z</time>
      </trkpt>
      <trkpt lat="45.94414" lon="4.72736">
        <ele>171</ele>
        <time>2017-06-02T08:13:26Z</time>
      </trkpt>
      <trkpt lat="45.94414" lon="4.72744">
        <ele>171</ele>
        <time>2017-06-02T08:13:27Z</time>
      </trkpt>
      <trkpt lat="45.94415" lon="4.72753">
        <ele>171</ele>
        <time>2017-06-02T08:13:28Z</time>
      </trkpt>
      <trkpt lat="45.94416" lon="4.72762">
        <ele>170</ele>
        <time>2017-06-02T08:13:29Z</time>
      </trkpt>
      <trkpt lat="45.94417" lon="4.7277">
        <ele>169</ele>
        <time>2017-06-02T08:13:30Z</time>
      </trkpt>
      <trkpt lat="45.94419" lon="4.72779">
        <ele>168</ele>
        <time>2017-06-02T08:13:31Z</time>
      </trkpt>
      <trkpt lat="45.9442" lon="4.72787">
        <ele>168</ele>
        <time>2017-06-02T08:13:32Z</time>
      </trkpt>
      <trkpt lat="45.9442" lon="4.72796">
        <ele>168</ele>
        <time>2017-06-02T08:13:33Z</time>
      </trkpt>
      <trkpt lat="45.94421" lon="4.72804">
        <ele>167</ele>
        <time>2017-06-02T08:13:34Z</time>
      </trkpt>
      <trkpt lat="45.94423" lon="4.72813">
        <ele>167</ele>
        <time>2017-06-02T08:13:35Z</time>
      </trkpt>
      <trkpt lat="45.94424" lon="4.72821">
        <ele>167</ele>
        <time>2017-06-02T08:13:36Z</time>
      </trkpt>
      <trkpt lat="45.94425" lon="4.7283">
        <ele>166</ele>
        <time>2017-06-02T08:13:37Z</time>
      </trkpt>
      <trkpt lat="45.94426" lon="4.72837">
        <ele>166</ele>
        <time>2017-06-02T08:13:38Z</time>
      </trkpt>
      <trkpt lat="45.94427" lon="4.72845">
        <ele>166</ele>
        <time>2017-06-02T08:13:39Z</time>
      </trkpt>
      <trkpt lat="45.94428" lon="4.72853">
        <ele>166</ele>
        <time>2017-06-02T08:13:40Z</time>
      </trkpt>
      <trkpt lat="45.9443" lon="4.7286">
        <ele>166</ele>
        <time>2017-06-02T08:13:41Z</time>
      </trkpt>
      <trkpt lat="45.94431" lon="4.72867">
        <ele>166</ele>
        <time>2017-06-02T08:13:42Z</time>
      </trkpt>
      <trkpt lat="45.94432" lon="4.72879">
        <ele>166</ele>
        <time>2017-06-02T08:13:44Z</time>
      </trkpt>
      <trkpt lat="45.94433" lon="4.72885">
        <ele>166</ele>
        <time>2017-06-02T08:13:45Z</time>
      </trkpt>
      <trkpt lat="45.94434" lon="4.72892">
        <ele>166</ele>
        <time>2017-06-02T08:13:46Z</time>
      </trkpt>
      <trkpt lat="45.94435" lon="4.72898">
        <ele>166</ele>
        <time>2017-06-02T08:13:47Z</time>
      </trkpt>
      <trkpt lat="45.94437" lon="4.72911">
        <ele>166</ele>
        <time>2017-06-02T08:13:49Z</time>
      </trkpt>
      <trkpt lat="45.94438" lon="4.72917">
        <ele>167</ele>
        <time>2017-06-02T08:13:50Z</time>
      </trkpt>
      <trkpt lat="45.94438" lon="4.72923">
        <ele>167</ele>
        <time>2017-06-02T08:13:51Z</time>
      </trkpt>
      <trkpt lat="45.94439" lon="4.7293">
        <ele>167</ele>
        <time>2017-06-02T08:13:52Z</time>
      </trkpt>
      <trkpt lat="45.9444" lon="4.72936">
        <ele>167</ele>
        <time>2017-06-02T08:13:53Z</time>
      </trkpt>
      <trkpt lat="45.94441" lon="4.72943">
        <ele>167</ele>
        <time>2017-06-02T08:13:54Z</time>
      </trkpt>
      <trkpt lat="45.94441" lon="4.72951">
        <ele>167</ele>
        <time>2017-06-02T08:13:55Z</time>
      </trkpt>
      <trkpt lat="45.94442" lon="4.72958">
        <ele>167</ele>
        <time>2017-06-02T08:13:56Z</time>
      </trkpt>
      <trkpt lat="45.94443" lon="4.72966">
        <ele>167</ele>
        <time>2017-06-02T08:13:57Z</time>
      </trkpt>
      <trkpt lat="45.94445" lon="4.72974">
        <ele>167</ele>
        <time>2017-06-02T08:13:58Z</time>
      </trkpt>
      <trkpt lat="45.94446" lon="4.72983">
        <ele>167</ele>
        <time>2017-06-02T08:13:59Z</time>
      </trkpt>
      <trkpt lat="45.94447" lon="4.72991">
        <ele>167</ele>
        <time>2017-06-02T08:14:00Z</time>
      </trkpt>
      <trkpt lat="45.94448" lon="4.73">
        <ele>167</ele>
        <time>2017-06-02T08:14:01Z</time>
      </trkpt>
      <trkpt lat="45.94449" lon="4.73009">
        <ele>169</ele>
        <time>2017-06-02T08:14:02Z</time>
      </trkpt>
      <trkpt lat="45.9445" lon="4.73018">
        <ele>169</ele>
        <time>2017-06-02T08:14:03Z</time>
      </trkpt>
      <trkpt lat="45.94452" lon="4.73028">
        <ele>169</ele>
        <time>2017-06-02T08:14:04Z</time>
      </trkpt>
      <trkpt lat="45.94453" lon="4.73038">
        <ele>169</ele>
        <time>2017-06-02T08:14:05Z</time>
      </trkpt>
      <trkpt lat="45.94454" lon="4.73048">
        <ele>169</ele>
        <time>2017-06-02T08:14:06Z</time>
      </trkpt>
      <trkpt lat="45.94455" lon="4.73059">
        <ele>170</ele>
        <time>2017-06-02T08:14:07Z</time>
      </trkpt>
      <trkpt lat="45.94456" lon="4.73069">
        <ele>170</ele>
        <time>2017-06-02T08:14:08Z</time>
      </trkpt>
      <trkpt lat="45.94458" lon="4.7308">
        <ele>170</ele>
        <time>2017-06-02T08:14:09Z</time>
      </trkpt>
      <trkpt lat="45.94459" lon="4.7309">
        <ele>171</ele>
        <time>2017-06-02T08:14:10Z</time>
      </trkpt>
      <trkpt lat="45.9446" lon="4.731">
        <ele>171</ele>
        <time>2017-06-02T08:14:11Z</time>
      </trkpt>
      <trkpt lat="45.94461" lon="4.7311">
        <ele>172</ele>
        <time>2017-06-02T08:14:12Z</time>
      </trkpt>
      <trkpt lat="45.94463" lon="4.73119">
        <ele>172</ele>
        <time>2017-06-02T08:14:13Z</time>
      </trkpt>
      <trkpt lat="45.94464" lon="4.73128">
        <ele>172</ele>
        <time>2017-06-02T08:14:14Z</time>
      </trkpt>
      <trkpt lat="45.94466" lon="4.73135">
        <ele>172</ele>
        <time>2017-06-02T08:14:15Z</time>
      </trkpt>
      <trkpt lat="45.94467" lon="4.73143">
        <ele>172</ele>
        <time>2017-06-02T08:14:16Z</time>
      </trkpt>
      <trkpt lat="45.94468" lon="4.7315">
        <ele>172</ele>
        <time>2017-06-02T08:14:17Z</time>
      </trkpt>
      <trkpt lat="45.94469" lon="4.73157">
        <ele>172</ele>
        <time>2017-06-02T08:14:18Z</time>
      </trkpt>
      <trkpt lat="45.9447" lon="4.73165">
        <ele>172</ele>
        <time>2017-06-02T08:14:19Z</time>
      </trkpt>
      <trkpt lat="45.94471" lon="4.73172">
        <ele>174</ele>
        <time>2017-06-02T08:14:20Z</time>
      </trkpt>
      <trkpt lat="45.94473" lon="4.7318">
        <ele>174</ele>
        <time>2017-06-02T08:14:21Z</time>
      </trkpt>
      <trkpt lat="45.94474" lon="4.73187">
        <ele>174</ele>
        <time>2017-06-02T08:14:22Z</time>
      </trkpt>
      <trkpt lat="45.94475" lon="4.73195">
        <ele>174</ele>
        <time>2017-06-02T08:14:23Z</time>
      </trkpt>
      <trkpt lat="45.94476" lon="4.73202">
        <ele>174</ele>
        <time>2017-06-02T08:14:24Z</time>
      </trkpt>
      <trkpt lat="45.94477" lon="4.7321">
        <ele>175</ele>
        <time>2017-06-02T08:14:25Z</time>
      </trkpt>
      <trkpt lat="45.94478" lon="4.73216">
        <ele>175</ele>
        <time>2017-06-02T08:14:26Z</time>
      </trkpt>
      <trkpt lat="45.94479" lon="4.73223">
        <ele>175</ele>
        <time>2017-06-02T08:14:27Z</time>
      </trkpt>
      <trkpt lat="45.9448" lon="4.73229">
        <ele>175</ele>
        <time>2017-06-02T08:14:28Z</time>
      </trkpt>
      <trkpt lat="45.94481" lon="4.7324">
        <ele>175</ele>
        <time>2017-06-02T08:14:30Z</time>
      </trkpt>
      <trkpt lat="45.94481" lon="4.73246">
        <ele>175</ele>
        <time>2017-06-02T08:14:31Z</time>
      </trkpt>
      <trkpt lat="45.94481" lon="4.73252">
        <ele>176</ele>
        <time>2017-06-02T08:14:32Z</time>
      </trkpt>
      <trkpt lat="45.94482" lon="4.73259">
        <ele>176</ele>
        <time>2017-06-02T08:14:33Z</time>
      </trkpt>
      <trkpt lat="45.94483" lon="4.73265">
        <ele>177</ele>
        <time>2017-06-02T08:14:34Z</time>
      </trkpt>
      <trkpt lat="45.94485" lon="4.73272">
        <ele>177</ele>
        <time>2017-06-02T08:14:35Z</time>
      </trkpt>
      <trkpt lat="45.94486" lon="4.73284">
        <ele>177</ele>
        <time>2017-06-02T08:14:37Z</time>
      </trkpt>
      <trkpt lat="45.94487" lon="4.73289">
        <ele>177</ele>
        <time>2017-06-02T08:14:38Z</time>
      </trkpt>
      <trkpt lat="45.94488" lon="4.733">
        <ele>177</ele>
        <time>2017-06-02T08:14:40Z</time>
      </trkpt>
      <trkpt lat="45.94488" lon="4.73306">
        <ele>177</ele>
        <time>2017-06-02T08:14:41Z</time>
      </trkpt>
      <trkpt lat="45.94488" lon="4.73318">
        <ele>177</ele>
        <time>2017-06-02T08:14:43Z</time>
      </trkpt>
      <trkpt lat="45.94489" lon="4.73323">
        <ele>177</ele>
        <time>2017-06-02T08:14:44Z</time>
      </trkpt>
      <trkpt lat="45.9449" lon="4.73334">
        <ele>178</ele>
        <time>2017-06-02T08:14:46Z</time>
      </trkpt>
      <trkpt lat="45.9449" lon="4.73339">
        <ele>178</ele>
        <time>2017-06-02T08:14:47Z</time>
      </trkpt>
      <trkpt lat="45.94492" lon="4.73349">
        <ele>178</ele>
        <time>2017-06-02T08:14:49Z</time>
      </trkpt>
      <trkpt lat="45.94492" lon="4.73354">
        <ele>178</ele>
        <time>2017-06-02T08:14:50Z</time>
      </trkpt>
      <trkpt lat="45.94494" lon="4.73365">
        <ele>179</ele>
        <time>2017-06-02T08:14:52Z</time>
      </trkpt>
      <trkpt lat="45.94495" lon="4.7337">
        <ele>179</ele>
        <time>2017-06-02T08:14:53Z</time>
      </trkpt>
      <trkpt lat="45.94496" lon="4.7338">
        <ele>179</ele>
        <time>2017-06-02T08:14:55Z</time>
      </trkpt>
      <trkpt lat="45.94496" lon="4.73385">
        <ele>179</ele>
        <time>2017-06-02T08:14:56Z</time>
      </trkpt>
      <trkpt lat="45.94497" lon="4.73396">
        <ele>179</ele>
        <time>2017-06-02T08:14:58Z</time>
      </trkpt>
      <trkpt lat="45.94498" lon="4.73401">
        <ele>180</ele>
        <time>2017-06-02T08:14:59Z</time>
      </trkpt>
      <trkpt lat="45.94498" lon="4.73412">
        <ele>180</ele>
        <time>2017-06-02T08:15:01Z</time>
      </trkpt>
      <trkpt lat="45.94498" lon="4.73417">
        <ele>180</ele>
        <time>2017-06-02T08:15:02Z</time>
      </trkpt>
      <trkpt lat="45.94498" lon="4.73427">
        <ele>181</ele>
        <time>2017-06-02T08:15:04Z</time>
      </trkpt>
      <trkpt lat="45.94498" lon="4.73432">
        <ele>181</ele>
        <time>2017-06-02T08:15:05Z</time>
      </trkpt>
      <trkpt lat="45.94497" lon="4.73441">
        <ele>181</ele>
        <time>2017-06-02T08:15:07Z</time>
      </trkpt>
      <trkpt lat="45.94497" lon="4.73446">
        <ele>181</ele>
        <time>2017-06-02T08:15:08Z</time>
      </trkpt>
      <trkpt lat="45.94498" lon="4.73456">
        <ele>182</ele>
        <time>2017-06-02T08:15:10Z</time>
      </trkpt>
      <trkpt lat="45.94498" lon="4.73461">
        <ele>182</ele>
        <time>2017-06-02T08:15:11Z</time>
      </trkpt>
      <trkpt lat="45.94498" lon="4.7347">
        <ele>182</ele>
        <time>2017-06-02T08:15:13Z</time>
      </trkpt>
      <trkpt lat="45.94498" lon="4.73475">
        <ele>182</ele>
        <time>2017-06-02T08:15:14Z</time>
      </trkpt>
      <trkpt lat="45.94498" lon="4.73484">
        <ele>182</ele>
        <time>2017-06-02T08:15:16Z</time>
      </trkpt>
      <trkpt lat="45.94499" lon="4.73489">
        <ele>183</ele>
        <time>2017-06-02T08:15:17Z</time>
      </trkpt>
      <trkpt lat="45.94499" lon="4.73499">
        <ele>183</ele>
        <time>2017-06-02T08:15:19Z</time>
      </trkpt>
      <trkpt lat="45.94498" lon="4.73503">
        <ele>183</ele>
        <time>2017-06-02T08:15:20Z</time>
      </trkpt>
      <trkpt lat="45.94498" lon="4.73514">
        <ele>184</ele>
        <time>2017-06-02T08:15:22Z</time>
      </trkpt>
      <trkpt lat="45.94498" lon="4.73519">
        <ele>184</ele>
        <time>2017-06-02T08:15:23Z</time>
      </trkpt>
      <trkpt lat="45.94498" lon="4.73528">
        <ele>184</ele>
        <time>2017-06-02T08:15:25Z</time>
      </trkpt>
      <trkpt lat="45.94497" lon="4.73532">
        <ele>184</ele>
        <time>2017-06-02T08:15:26Z</time>
      </trkpt>
      <trkpt lat="45.94497" lon="4.73543">
        <ele>184</ele>
        <time>2017-06-02T08:15:28Z</time>
      </trkpt>
      <trkpt lat="45.94497" lon="4.73548">
        <ele>185</ele>
        <time>2017-06-02T08:15:29Z</time>
      </trkpt>
      <trkpt lat="45.94497" lon="4.73559">
        <ele>185</ele>
        <time>2017-06-02T08:15:31Z</time>
      </trkpt>
      <trkpt lat="45.94496" lon="4.73564">
        <ele>185</ele>
        <time>2017-06-02T08:15:32Z</time>
      </trkpt>
      <trkpt lat="45.94496" lon="4.73575">
        <ele>185</ele>
        <time>2017-06-02T08:15:34Z</time>
      </trkpt>
      <trkpt lat="45.94496" lon="4.7358">
        <ele>185</ele>
        <time>2017-06-02T08:15:35Z</time>
      </trkpt>
      <trkpt lat="45.94496" lon="4.73591">
        <ele>185</ele>
        <time>2017-06-02T08:15:37Z</time>
      </trkpt>
      <trkpt lat="45.94496" lon="4.73597">
        <ele>185</ele>
        <time>2017-06-02T08:15:38Z</time>
      </trkpt>
      <trkpt lat="45.94495" lon="4.73608">
        <ele>186</ele>
        <time>2017-06-02T08:15:40Z</time>
      </trkpt>
      <trkpt lat="45.94495" lon="4.73613">
        <ele>186</ele>
        <time>2017-06-02T08:15:41Z</time>
      </trkpt>
      <trkpt lat="45.94493" lon="4.73624">
        <ele>186</ele>
        <time>2017-06-02T08:15:43Z</time>
      </trkpt>
      <trkpt lat="45.94493" lon="4.73629">
        <ele>186</ele>
        <time>2017-06-02T08:15:44Z</time>
      </trkpt>
      <trkpt lat="45.94491" lon="4.73639">
        <ele>186</ele>
        <time>2017-06-02T08:15:46Z</time>
      </trkpt>
      <trkpt lat="45.9449" lon="4.73644">
        <ele>186</ele>
        <time>2017-06-02T08:15:47Z</time>
      </trkpt>
      <trkpt lat="45.94488" lon="4.73654">
        <ele>185</ele>
        <time>2017-06-02T08:15:49Z</time>
      </trkpt>
      <trkpt lat="45.94487" lon="4.7366">
        <ele>185</ele>
        <time>2017-06-02T08:15:50Z</time>
      </trkpt>
      <trkpt lat="45.94485" lon="4.73671">
        <ele>186</ele>
        <time>2017-06-02T08:15:52Z</time>
      </trkpt>
      <trkpt lat="45.94485" lon="4.73677">
        <ele>186</ele>
        <time>2017-06-02T08:15:53Z</time>
      </trkpt>
      <trkpt lat="45.94483" lon="4.73689">
        <ele>186</ele>
        <time>2017-06-02T08:15:55Z</time>
      </trkpt>
      <trkpt lat="45.94482" lon="4.73694">
        <ele>186</ele>
        <time>2017-06-02T08:15:56Z</time>
      </trkpt>
      <trkpt lat="45.9448" lon="4.73706">
        <ele>186</ele>
        <time>2017-06-02T08:15:58Z</time>
      </trkpt>
      <trkpt lat="45.94479" lon="4.73711">
        <ele>186</ele>
        <time>2017-06-02T08:15:59Z</time>
      </trkpt>
      <trkpt lat="45.94478" lon="4.7372">
        <ele>186</ele>
        <time>2017-06-02T08:16:01Z</time>
      </trkpt>
      <trkpt lat="45.94478" lon="4.73726">
        <ele>186</ele>
        <time>2017-06-02T08:16:02Z</time>
      </trkpt>
      <trkpt lat="45.94477" lon="4.73737">
        <ele>186</ele>
        <time>2017-06-02T08:16:04Z</time>
      </trkpt>
      <trkpt lat="45.94477" lon="4.73743">
        <ele>186</ele>
        <time>2017-06-02T08:16:05Z</time>
      </trkpt>
      <trkpt lat="45.94476" lon="4.73754">
        <ele>186</ele>
        <time>2017-06-02T08:16:07Z</time>
      </trkpt>
      <trkpt lat="45.94475" lon="4.73759">
        <ele>186</ele>
        <time>2017-06-02T08:16:08Z</time>
      </trkpt>
      <trkpt lat="45.94478" lon="4.7377">
        <ele>186</ele>
        <time>2017-06-02T08:16:10Z</time>
      </trkpt>
      <trkpt lat="45.94481" lon="4.73775">
        <ele>186</ele>
        <time>2017-06-02T08:16:11Z</time>
      </trkpt>
      <trkpt lat="45.94485" lon="4.73778">
        <ele>186</ele>
        <time>2017-06-02T08:16:12Z</time>
      </trkpt>
      <trkpt lat="45.94489" lon="4.73781">
        <ele>186</ele>
        <time>2017-06-02T08:16:13Z</time>
      </trkpt>
      <trkpt lat="45.94497" lon="4.73788">
        <ele>186</ele>
        <time>2017-06-02T08:16:15Z</time>
      </trkpt>
      <trkpt lat="45.945" lon="4.73791">
        <ele>186</ele>
        <time>2017-06-02T08:16:16Z</time>
      </trkpt>
      <trkpt lat="45.94507" lon="4.73798">
        <ele>186</ele>
        <time>2017-06-02T08:16:18Z</time>
      </trkpt>
      <trkpt lat="45.9451" lon="4.73801">
        <ele>186</ele>
        <time>2017-06-02T08:16:19Z</time>
      </trkpt>
      <trkpt lat="45.94514" lon="4.73804">
        <ele>186</ele>
        <time>2017-06-02T08:16:20Z</time>
      </trkpt>
      <trkpt lat="45.94518" lon="4.73808">
        <ele>186</ele>
        <time>2017-06-02T08:16:21Z</time>
      </trkpt>
      <trkpt lat="45.94526" lon="4.73814">
        <ele>186</ele>
        <time>2017-06-02T08:16:23Z</time>
      </trkpt>
      <trkpt lat="45.9453" lon="4.73817">
        <ele>186</ele>
        <time>2017-06-02T08:16:24Z</time>
      </trkpt>
      <trkpt lat="45.94537" lon="4.73824">
        <ele>186</ele>
        <time>2017-06-02T08:16:26Z</time>
      </trkpt>
      <trkpt lat="45.94541" lon="4.73828">
        <ele>186</ele>
        <time>2017-06-02T08:16:27Z</time>
      </trkpt>
      <trkpt lat="45.94545" lon="4.73831">
        <ele>186</ele>
        <time>2017-06-02T08:16:28Z</time>
      </trkpt>
      <trkpt lat="45.94548" lon="4.73835">
        <ele>186</ele>
        <time>2017-06-02T08:16:29Z</time>
      </trkpt>
      <trkpt lat="45.94555" lon="4.73843">
        <ele>186</ele>
        <time>2017-06-02T08:16:31Z</time>
      </trkpt>
      <trkpt lat="45.94558" lon="4.73847">
        <ele>186</ele>
        <time>2017-06-02T08:16:32Z</time>
      </trkpt>
      <trkpt lat="45.94564" lon="4.73855">
        <ele>186</ele>
        <time>2017-06-02T08:16:34Z</time>
      </trkpt>
      <trkpt lat="45.94568" lon="4.73858">
        <ele>186</ele>
        <time>2017-06-02T08:16:35Z</time>
      </trkpt>
      <trkpt lat="45.94573" lon="4.73865">
        <ele>186</ele>
        <time>2017-06-02T08:16:37Z</time>
      </trkpt>
      <trkpt lat="45.94576" lon="4.73868">
        <ele>186</ele>
        <time>2017-06-02T08:16:38Z</time>
      </trkpt>
      <trkpt lat="45.94582" lon="4.73876">
        <ele>186</ele>
        <time>2017-06-02T08:16:40Z</time>
      </trkpt>
      <trkpt lat="45.94585" lon="4.7388">
        <ele>187</ele>
        <time>2017-06-02T08:16:41Z</time>
      </trkpt>
      <trkpt lat="45.94591" lon="4.73887">
        <ele>187</ele>
        <time>2017-06-02T08:16:43Z</time>
      </trkpt>
      <trkpt lat="45.94594" lon="4.73891">
        <ele>187</ele>
        <time>2017-06-02T08:16:44Z</time>
      </trkpt>
      <trkpt lat="45.946" lon="4.73897">
        <ele>187</ele>
        <time>2017-06-02T08:16:46Z</time>
      </trkpt>
      <trkpt lat="45.94603" lon="4.739">
        <ele>187</ele>
        <time>2017-06-02T08:16:47Z</time>
      </trkpt>
      <trkpt lat="45.94609" lon="4.73909">
        <ele>187</ele>
        <time>2017-06-02T08:16:49Z</time>
      </trkpt>
      <trkpt lat="45.94613" lon="4.73914">
        <ele>187</ele>
        <time>2017-06-02T08:16:50Z</time>
      </trkpt>
      <trkpt lat="45.94617" lon="4.73919">
        <ele>187</ele>
        <time>2017-06-02T08:16:51Z</time>
      </trkpt>
      <trkpt lat="45.94621" lon="4.73924">
        <ele>187</ele>
        <time>2017-06-02T08:16:52Z</time>
      </trkpt>
      <trkpt lat="45.94625" lon="4.7393">
        <ele>187</ele>
        <time>2017-06-02T08:16:53Z</time>
      </trkpt>
      <trkpt lat="45.94628" lon="4.73935">
        <ele>187</ele>
        <time>2017-06-02T08:16:54Z</time>
      </trkpt>
      <trkpt lat="45.94631" lon="4.7394">
        <ele>187</ele>
        <time>2017-06-02T08:16:55Z</time>
      </trkpt>
      <trkpt lat="45.94635" lon="4.73944">
        <ele>187</ele>
        <time>2017-06-02T08:16:56Z</time>
      </trkpt>
      <trkpt lat="45.94638" lon="4.73949">
        <ele>187</ele>
        <time>2017-06-02T08:16:57Z</time>
      </trkpt>
      <trkpt lat="45.94642" lon="4.73953">
        <ele>187</ele>
        <time>2017-06-02T08:16:58Z</time>
      </trkpt>
      <trkpt lat="45.94645" lon="4.73958">
        <ele>187</ele>
        <time>2017-06-02T08:16:59Z</time>
      </trkpt>
      <trkpt lat="45.94649" lon="4.73962">
        <ele>187</ele>
        <time>2017-06-02T08:17:00Z</time>
      </trkpt>
      <trkpt lat="45.94652" lon="4.73967">
        <ele>187</ele>
        <time>2017-06-02T08:17:01Z</time>
      </trkpt>
      <trkpt lat="45.94656" lon="4.73972">
        <ele>187</ele>
        <time>2017-06-02T08:17:02Z</time>
      </trkpt>
      <trkpt lat="45.9466" lon="4.73976">
        <ele>187</ele>
        <time>2017-06-02T08:17:03Z</time>
      </trkpt>
      <trkpt lat="45.94663" lon="4.73981">
        <ele>187</ele>
        <time>2017-06-02T08:17:04Z</time>
      </trkpt>
      <trkpt lat="45.94669" lon="4.73988">
        <ele>187</ele>
        <time>2017-06-02T08:17:06Z</time>
      </trkpt>
      <trkpt lat="45.94672" lon="4.73992">
        <ele>187</ele>
        <time>2017-06-02T08:17:07Z</time>
      </trkpt>
      <trkpt lat="45.94678" lon="4.74001">
        <ele>187</ele>
        <time>2017-06-02T08:17:09Z</time>
      </trkpt>
      <trkpt lat="45.94681" lon="4.74005">
        <ele>187</ele>
        <time>2017-06-02T08:17:10Z</time>
      </trkpt>
      <trkpt lat="45.94688" lon="4.74013">
        <ele>187</ele>
        <time>2017-06-02T08:17:12Z</time>
      </trkpt>
      <trkpt lat="45.94691" lon="4.74018">
        <ele>187</ele>
        <time>2017-06-02T08:17:13Z</time>
      </trkpt>
      <trkpt lat="45.94697" lon="4.74026">
        <ele>187</ele>
        <time>2017-06-02T08:17:15Z</time>
      </trkpt>
      <trkpt lat="45.947" lon="4.7403">
        <ele>187</ele>
        <time>2017-06-02T08:17:16Z</time>
      </trkpt>
      <trkpt lat="45.94706" lon="4.74038">
        <ele>187</ele>
        <time>2017-06-02T08:17:18Z</time>
      </trkpt>
      <trkpt lat="45.94709" lon="4.74042">
        <ele>187</ele>
        <time>2017-06-02T08:17:19Z</time>
      </trkpt>
      <trkpt lat="45.94715" lon="4.7405">
        <ele>187</ele>
        <time>2017-06-02T08:17:21Z</time>
      </trkpt>
      <trkpt lat="45.94718" lon="4.74054">
        <ele>187</ele>
        <time>2017-06-02T08:17:22Z</time>
      </trkpt>
      <trkpt lat="45.94725" lon="4.74061">
        <ele>188</ele>
        <time>2017-06-02T08:17:24Z</time>
      </trkpt>
      <trkpt lat="45.94728" lon="4.74065">
        <ele>188</ele>
        <time>2017-06-02T08:17:25Z</time>
      </trkpt>
      <trkpt lat="45.94734" lon="4.74073">
        <ele>188</ele>
        <time>2017-06-02T08:17:27Z</time>
      </trkpt>
      <trkpt lat="45.94738" lon="4.74078">
        <ele>188</ele>
        <time>2017-06-02T08:17:28Z</time>
      </trkpt>
      <trkpt lat="45.94741" lon="4.74082">
        <ele>188</ele>
        <time>2017-06-02T08:17:29Z</time>
      </trkpt>
      <trkpt lat="45.94745" lon="4.74086">
        <ele>188</ele>
        <time>2017-06-02T08:17:30Z</time>
      </trkpt>
      <trkpt lat="45.94751" lon="4.74095">
        <ele>189</ele>
        <time>2017-06-02T08:17:32Z</time>
      </trkpt>
      <trkpt lat="45.94754" lon="4.741">
        <ele>189</ele>
        <time>2017-06-02T08:17:33Z</time>
      </trkpt>
      <trkpt lat="45.9476" lon="4.74107">
        <ele>189</ele>
        <time>2017-06-02T08:17:35Z</time>
      </trkpt>
      <trkpt lat="45.94763" lon="4.74112">
        <ele>189</ele>
        <time>2017-06-02T08:17:36Z</time>
      </trkpt>
      <trkpt lat="45.94767" lon="4.74121">
        <ele>189</ele>
        <time>2017-06-02T08:17:38Z</time>
      </trkpt>
      <trkpt lat="45.9477" lon="4.74126">
        <ele>189</ele>
        <time>2017-06-02T08:17:39Z</time>
      </trkpt>
      <trkpt lat="45.94775" lon="4.74135">
        <ele>189</ele>
        <time>2017-06-02T08:17:41Z</time>
      </trkpt>
      <trkpt lat="45.94778" lon="4.7414">
        <ele>189</ele>
        <time>2017-06-02T08:17:42Z</time>
      </trkpt>
      <trkpt lat="45.94781" lon="4.74145">
        <ele>189</ele>
        <time>2017-06-02T08:17:43Z</time>
      </trkpt>
      <trkpt lat="45.94784" lon="4.7415">
        <ele>189</ele>
        <time>2017-06-02T08:17:44Z</time>
      </trkpt>
      <trkpt lat="45.94787" lon="4.74155">
        <ele>189</ele>
        <time>2017-06-02T08:17:45Z</time>
      </trkpt>
      <trkpt lat="45.9479" lon="4.7416">
        <ele>189</ele>
        <time>2017-06-02T08:17:46Z</time>
      </trkpt>
      <trkpt lat="45.94796" lon="4.74169">
        <ele>188</ele>
        <time>2017-06-02T08:17:48Z</time>
      </trkpt>
      <trkpt lat="45.94799" lon="4.74174">
        <ele>188</ele>
        <time>2017-06-02T08:17:49Z</time>
      </trkpt>
      <trkpt lat="45.94801" lon="4.74178">
        <ele>189</ele>
        <time>2017-06-02T08:17:50Z</time>
      </trkpt>
      <trkpt lat="45.94805" lon="4.74183">
        <ele>189</ele>
        <time>2017-06-02T08:17:51Z</time>
      </trkpt>
      <trkpt lat="45.94808" lon="4.74188">
        <ele>189</ele>
        <time>2017-06-02T08:17:52Z</time>
      </trkpt>
      <trkpt lat="45.94811" lon="4.74193">
        <ele>189</ele>
        <time>2017-06-02T08:17:53Z</time>
      </trkpt>
      <trkpt lat="45.94814" lon="4.74198">
        <ele>189</ele>
        <time>2017-06-02T08:17:54Z</time>
      </trkpt>
      <trkpt lat="45.94817" lon="4.74203">
        <ele>188</ele>
        <time>2017-06-02T08:17:55Z</time>
      </trkpt>
      <trkpt lat="45.9482" lon="4.74208">
        <ele>188</ele>
        <time>2017-06-02T08:17:56Z</time>
      </trkpt>
      <trkpt lat="45.94823" lon="4.74214">
        <ele>188</ele>
        <time>2017-06-02T08:17:57Z</time>
      </trkpt>
      <trkpt lat="45.94827" lon="4.74219">
        <ele>188</ele>
        <time>2017-06-02T08:17:58Z</time>
      </trkpt>
      <trkpt lat="45.9483" lon="4.74225">
        <ele>188</ele>
        <time>2017-06-02T08:17:59Z</time>
      </trkpt>
      <trkpt lat="45.94832" lon="4.74231">
        <ele>189</ele>
        <time>2017-06-02T08:18:00Z</time>
      </trkpt>
      <trkpt lat="45.94835" lon="4.74237">
        <ele>190</ele>
        <time>2017-06-02T08:18:01Z</time>
      </trkpt>
      <trkpt lat="45.94837" lon="4.74243">
        <ele>189</ele>
        <time>2017-06-02T08:18:02Z</time>
      </trkpt>
      <trkpt lat="45.94841" lon="4.74248">
        <ele>189</ele>
        <time>2017-06-02T08:18:03Z</time>
      </trkpt>
      <trkpt lat="45.94844" lon="4.74254">
        <ele>190</ele>
        <time>2017-06-02T08:18:04Z</time>
      </trkpt>
      <trkpt lat="45.94848" lon="4.74259">
        <ele>190</ele>
        <time>2017-06-02T08:18:05Z</time>
      </trkpt>
      <trkpt lat="45.94853" lon="4.74269">
        <ele>190</ele>
        <time>2017-06-02T08:18:07Z</time>
      </trkpt>
      <trkpt lat="45.94856" lon="4.74275">
        <ele>190</ele>
        <time>2017-06-02T08:18:08Z</time>
      </trkpt>
      <trkpt lat="45.94859" lon="4.74281">
        <ele>190</ele>
        <time>2017-06-02T08:18:09Z</time>
      </trkpt>
      <trkpt lat="45.94863" lon="4.74286">
        <ele>191</ele>
        <time>2017-06-02T08:18:10Z</time>
      </trkpt>
      <trkpt lat="45.94866" lon="4.74292">
        <ele>191</ele>
        <time>2017-06-02T08:18:11Z</time>
      </trkpt>
      <trkpt lat="45.94868" lon="4.74297">
        <ele>191</ele>
        <time>2017-06-02T08:18:12Z</time>
      </trkpt>
      <trkpt lat="45.94873" lon="4.74307">
        <ele>191</ele>
        <time>2017-06-02T08:18:14Z</time>
      </trkpt>
      <trkpt lat="45.94875" lon="4.74312">
        <ele>191</ele>
        <time>2017-06-02T08:18:15Z</time>
      </trkpt>
      <trkpt lat="45.9488" lon="4.74323">
        <ele>191</ele>
        <time>2017-06-02T08:18:17Z</time>
      </trkpt>
      <trkpt lat="45.94883" lon="4.74328">
        <ele>191</ele>
        <time>2017-06-02T08:18:18Z</time>
      </trkpt>
      <trkpt lat="45.94885" lon="4.74333">
        <ele>191</ele>
        <time>2017-06-02T08:18:19Z</time>
      </trkpt>
      <trkpt lat="45.94889" lon="4.74338">
        <ele>191</ele>
        <time>2017-06-02T08:18:20Z</time>
      </trkpt>
      <trkpt lat="45.94892" lon="4.74343">
        <ele>191</ele>
        <time>2017-06-02T08:18:21Z</time>
      </trkpt>
      <trkpt lat="45.94895" lon="4.74348">
        <ele>191</ele>
        <time>2017-06-02T08:18:22Z</time>
      </trkpt>
      <trkpt lat="45.94898" lon="4.74354">
        <ele>191</ele>
        <time>2017-06-02T08:18:23Z</time>
      </trkpt>
      <trkpt lat="45.94901" lon="4.7436">
        <ele>191</ele>
        <time>2017-06-02T08:18:24Z</time>
      </trkpt>
      <trkpt lat="45.94906" lon="4.74369">
        <ele>191</ele>
        <time>2017-06-02T08:18:26Z</time>
      </trkpt>
      <trkpt lat="45.94909" lon="4.74374">
        <ele>191</ele>
        <time>2017-06-02T08:18:27Z</time>
      </trkpt>
      <trkpt lat="45.94914" lon="4.74384">
        <ele>191</ele>
        <time>2017-06-02T08:18:29Z</time>
      </trkpt>
      <trkpt lat="45.94916" lon="4.74388">
        <ele>191</ele>
        <time>2017-06-02T08:18:30Z</time>
      </trkpt>
      <trkpt lat="45.94922" lon="4.74399">
        <ele>192</ele>
        <time>2017-06-02T08:18:32Z</time>
      </trkpt>
      <trkpt lat="45.94924" lon="4.74404">
        <ele>192</ele>
        <time>2017-06-02T08:18:33Z</time>
      </trkpt>
      <trkpt lat="45.94929" lon="4.74414">
        <ele>192</ele>
        <time>2017-06-02T08:18:35Z</time>
      </trkpt>
      <trkpt lat="45.94932" lon="4.74419">
        <ele>192</ele>
        <time>2017-06-02T08:18:36Z</time>
      </trkpt>
      <trkpt lat="45.94937" lon="4.74427">
        <ele>192</ele>
        <time>2017-06-02T08:18:38Z</time>
      </trkpt>
      <trkpt lat="45.9494" lon="4.74432">
        <ele>192</ele>
        <time>2017-06-02T08:18:39Z</time>
      </trkpt>
      <trkpt lat="45.94943" lon="4.74438">
        <ele>192</ele>
        <time>2017-06-02T08:18:40Z</time>
      </trkpt>
      <trkpt lat="45.94945" lon="4.74443">
        <ele>192</ele>
        <time>2017-06-02T08:18:41Z</time>
      </trkpt>
      <trkpt lat="45.94951" lon="4.74453">
        <ele>192</ele>
        <time>2017-06-02T08:18:43Z</time>
      </trkpt>
      <trkpt lat="45.94953" lon="4.74458">
        <ele>192</ele>
        <time>2017-06-02T08:18:44Z</time>
      </trkpt>
      <trkpt lat="45.94958" lon="4.74467">
        <ele>193</ele>
        <time>2017-06-02T08:18:46Z</time>
      </trkpt>
      <trkpt lat="45.9496" lon="4.74472">
        <ele>193</ele>
        <time>2017-06-02T08:18:47Z</time>
      </trkpt>
      <trkpt lat="45.94965" lon="4.74481">
        <ele>193</ele>
        <time>2017-06-02T08:18:49Z</time>
      </trkpt>
      <trkpt lat="45.94967" lon="4.74485">
        <ele>193</ele>
        <time>2017-06-02T08:18:50Z</time>
      </trkpt>
      <trkpt lat="45.94971" lon="4.74493">
        <ele>193</ele>
        <time>2017-06-02T08:18:52Z</time>
      </trkpt>
      <trkpt lat="45.94973" lon="4.74498">
        <ele>193</ele>
        <time>2017-06-02T08:18:53Z</time>
      </trkpt>
      <trkpt lat="45.94978" lon="4.74507">
        <ele>193</ele>
        <time>2017-06-02T08:18:55Z</time>
      </trkpt>
      <trkpt lat="45.9498" lon="4.74512">
        <ele>193</ele>
        <time>2017-06-02T08:18:56Z</time>
      </trkpt>
      <trkpt lat="45.94985" lon="4.74521">
        <ele>193</ele>
        <time>2017-06-02T08:18:58Z</time>
      </trkpt>
      <trkpt lat="45.94988" lon="4.74526">
        <ele>193</ele>
        <time>2017-06-02T08:18:59Z</time>
      </trkpt>
      <trkpt lat="45.94992" lon="4.74535">
        <ele>193</ele>
        <time>2017-06-02T08:19:01Z</time>
      </trkpt>
      <trkpt lat="45.94995" lon="4.7454">
        <ele>193</ele>
        <time>2017-06-02T08:19:02Z</time>
      </trkpt>
      <trkpt lat="45.94998" lon="4.74545">
        <ele>193</ele>
        <time>2017-06-02T08:19:03Z</time>
      </trkpt>
      <trkpt lat="45.95" lon="4.74551">
        <ele>194</ele>
        <time>2017-06-02T08:19:04Z</time>
      </trkpt>
      <trkpt lat="45.95005" lon="4.74561">
        <ele>194</ele>
        <time>2017-06-02T08:19:06Z</time>
      </trkpt>
      <trkpt lat="45.95008" lon="4.74565">
        <ele>194</ele>
        <time>2017-06-02T08:19:07Z</time>
      </trkpt>
      <trkpt lat="45.95013" lon="4.74575">
        <ele>194</ele>
        <time>2017-06-02T08:19:09Z</time>
      </trkpt>
      <trkpt lat="45.95016" lon="4.74579">
        <ele>194</ele>
        <time>2017-06-02T08:19:10Z</time>
      </trkpt>
      <trkpt lat="45.95021" lon="4.7459">
        <ele>194</ele>
        <time>2017-06-02T08:19:12Z</time>
      </trkpt>
      <trkpt lat="45.95024" lon="4.74595">
        <ele>194</ele>
        <time>2017-06-02T08:19:13Z</time>
      </trkpt>
      <trkpt lat="45.95029" lon="4.74605">
        <ele>194</ele>
        <time>2017-06-02T08:19:15Z</time>
      </trkpt>
      <trkpt lat="45.95032" lon="4.74609">
        <ele>194</ele>
        <time>2017-06-02T08:19:16Z</time>
      </trkpt>
      <trkpt lat="45.95037" lon="4.7462">
        <ele>194</ele>
        <time>2017-06-02T08:19:18Z</time>
      </trkpt>
      <trkpt lat="45.9504" lon="4.74625">
        <ele>194</ele>
        <time>2017-06-02T08:19:19Z</time>
      </trkpt>
      <trkpt lat="45.95043" lon="4.74631">
        <ele>194</ele>
        <time>2017-06-02T08:19:20Z</time>
      </trkpt>
      <trkpt lat="45.95045" lon="4.74636">
        <ele>194</ele>
        <time>2017-06-02T08:19:21Z</time>
      </trkpt>
      <trkpt lat="45.95048" lon="4.74641">
        <ele>194</ele>
        <time>2017-06-02T08:19:22Z</time>
      </trkpt>
      <trkpt lat="45.95051" lon="4.74647">
        <ele>194</ele>
        <time>2017-06-02T08:19:23Z</time>
      </trkpt>
      <trkpt lat="45.95054" lon="4.74652">
        <ele>194</ele>
        <time>2017-06-02T08:19:24Z</time>
      </trkpt>
      <trkpt lat="45.95056" lon="4.74658">
        <ele>194</ele>
        <time>2017-06-02T08:19:25Z</time>
      </trkpt>
      <trkpt lat="45.95059" lon="4.74663">
        <ele>194</ele>
        <time>2017-06-02T08:19:26Z</time>
      </trkpt>
      <trkpt lat="45.95062" lon="4.74668">
        <ele>194</ele>
        <time>2017-06-02T08:19:27Z</time>
      </trkpt>
      <trkpt lat="45.95065" lon="4.74673">
        <ele>194</ele>
        <time>2017-06-02T08:19:28Z</time>
      </trkpt>
      <trkpt lat="45.95068" lon="4.74678">
        <ele>194</ele>
        <time>2017-06-02T08:19:29Z</time>
      </trkpt>
      <trkpt lat="45.95071" lon="4.74684">
        <ele>194</ele>
        <time>2017-06-02T08:19:30Z</time>
      </trkpt>
      <trkpt lat="45.95075" lon="4.74689">
        <ele>194</ele>
        <time>2017-06-02T08:19:31Z</time>
      </trkpt>
      <trkpt lat="45.95078" lon="4.74695">
        <ele>194</ele>
        <time>2017-06-02T08:19:32Z</time>
      </trkpt>
      <trkpt lat="45.95081" lon="4.747">
        <ele>194</ele>
        <time>2017-06-02T08:19:33Z</time>
      </trkpt>
      <trkpt lat="45.95085" lon="4.74706">
        <ele>194</ele>
        <time>2017-06-02T08:19:34Z</time>
      </trkpt>
      <trkpt lat="45.95088" lon="4.74712">
        <ele>194</ele>
        <time>2017-06-02T08:19:35Z</time>
      </trkpt>
      <trkpt lat="45.95091" lon="4.74718">
        <ele>194</ele>
        <time>2017-06-02T08:19:36Z</time>
      </trkpt>
      <trkpt lat="45.95095" lon="4.74724">
        <ele>194</ele>
        <time>2017-06-02T08:19:37Z</time>
      </trkpt>
      <trkpt lat="45.95098" lon="4.7473">
        <ele>194</ele>
        <time>2017-06-02T08:19:38Z</time>
      </trkpt>
      <trkpt lat="45.95102" lon="4.74736">
        <ele>194</ele>
        <time>2017-06-02T08:19:39Z</time>
      </trkpt>
      <trkpt lat="45.95105" lon="4.74742">
        <ele>194</ele>
        <time>2017-06-02T08:19:40Z</time>
      </trkpt>
      <trkpt lat="45.95108" lon="4.74747">
        <ele>194</ele>
        <time>2017-06-02T08:19:41Z</time>
      </trkpt>
      <trkpt lat="45.9511" lon="4.74751">
        <ele>194</ele>
        <time>2017-06-02T08:19:42Z</time>
      </trkpt>
      <trkpt lat="45.95114" lon="4.74757">
        <ele>194</ele>
        <time>2017-06-02T08:19:43Z</time>
      </trkpt>
      <trkpt lat="45.95117" lon="4.74762">
        <ele>194</ele>
        <time>2017-06-02T08:19:44Z</time>
      </trkpt>
      <trkpt lat="45.9512" lon="4.74767">
        <ele>194</ele>
        <time>2017-06-02T08:19:45Z</time>
      </trkpt>
      <trkpt lat="45.95123" lon="4.74772">
        <ele>194</ele>
        <time>2017-06-02T08:19:46Z</time>
      </trkpt>
      <trkpt lat="45.95127" lon="4.74777">
        <ele>194</ele>
        <time>2017-06-02T08:19:47Z</time>
      </trkpt>
      <trkpt lat="45.9513" lon="4.74783">
        <ele>194</ele>
        <time>2017-06-02T08:19:48Z</time>
      </trkpt>
      <trkpt lat="45.95133" lon="4.74788">
        <ele>194</ele>
        <time>2017-06-02T08:19:49Z</time>
      </trkpt>
      <trkpt lat="45.95136" lon="4.74794">
        <ele>194</ele>
        <time>2017-06-02T08:19:50Z</time>
      </trkpt>
      <trkpt lat="45.95139" lon="4.74799">
        <ele>194</ele>
        <time>2017-06-02T08:19:51Z</time>
      </trkpt>
      <trkpt lat="45.95143" lon="4.74804">
        <ele>194</ele>
        <time>2017-06-02T08:19:52Z</time>
      </trkpt>
      <trkpt lat="45.95146" lon="4.74809">
        <ele>194</ele>
        <time>2017-06-02T08:19:53Z</time>
      </trkpt>
      <trkpt lat="45.95149" lon="4.74814">
        <ele>194</ele>
        <time>2017-06-02T08:19:54Z</time>
      </trkpt>
      <trkpt lat="45.95152" lon="4.74819">
        <ele>194</ele>
        <time>2017-06-02T08:19:55Z</time>
      </trkpt>
      <trkpt lat="45.95158" lon="4.74828">
        <ele>194</ele>
        <time>2017-06-02T08:19:57Z</time>
      </trkpt>
      <trkpt lat="45.95161" lon="4.74833">
        <ele>194</ele>
        <time>2017-06-02T08:19:58Z</time>
      </trkpt>
      <trkpt lat="45.95164" lon="4.74838">
        <ele>194</ele>
        <time>2017-06-02T08:19:59Z</time>
      </trkpt>
      <trkpt lat="45.95167" lon="4.74843">
        <ele>193</ele>
        <time>2017-06-02T08:20:00Z</time>
      </trkpt>
      <trkpt lat="45.9517" lon="4.74848">
        <ele>194</ele>
        <time>2017-06-02T08:20:01Z</time>
      </trkpt>
      <trkpt lat="45.95173" lon="4.74853">
        <ele>194</ele>
        <time>2017-06-02T08:20:02Z</time>
      </trkpt>
      <trkpt lat="45.95176" lon="4.74858">
        <ele>194</ele>
        <time>2017-06-02T08:20:03Z</time>
      </trkpt>
      <trkpt lat="45.9518" lon="4.74863">
        <ele>194</ele>
        <time>2017-06-02T08:20:04Z</time>
      </trkpt>
      <trkpt lat="45.95183" lon="4.74868">
        <ele>194</ele>
        <time>2017-06-02T08:20:05Z</time>
      </trkpt>
      <trkpt lat="45.95187" lon="4.74874">
        <ele>194</ele>
        <time>2017-06-02T08:20:06Z</time>
      </trkpt>
      <trkpt lat="45.9519" lon="4.74879">
        <ele>194</ele>
        <time>2017-06-02T08:20:07Z</time>
      </trkpt>
      <trkpt lat="45.95193" lon="4.74885">
        <ele>194</ele>
        <time>2017-06-02T08:20:08Z</time>
      </trkpt>
      <trkpt lat="45.95196" lon="4.74891">
        <ele>194</ele>
        <time>2017-06-02T08:20:09Z</time>
      </trkpt>
      <trkpt lat="45.952" lon="4.74897">
        <ele>194</ele>
        <time>2017-06-02T08:20:10Z</time>
      </trkpt>
      <trkpt lat="45.95204" lon="4.74902">
        <ele>194</ele>
        <time>2017-06-02T08:20:11Z</time>
      </trkpt>
      <trkpt lat="45.95208" lon="4.74907">
        <ele>194</ele>
        <time>2017-06-02T08:20:12Z</time>
      </trkpt>
      <trkpt lat="45.95212" lon="4.74913">
        <ele>193</ele>
        <time>2017-06-02T08:20:13Z</time>
      </trkpt>
      <trkpt lat="45.95215" lon="4.74918">
        <ele>192</ele>
        <time>2017-06-02T08:20:14Z</time>
      </trkpt>
      <trkpt lat="45.95218" lon="4.74923">
        <ele>192</ele>
        <time>2017-06-02T08:20:15Z</time>
      </trkpt>
      <trkpt lat="45.95222" lon="4.74929">
        <ele>192</ele>
        <time>2017-06-02T08:20:16Z</time>
      </trkpt>
      <trkpt lat="45.95225" lon="4.74934">
        <ele>192</ele>
        <time>2017-06-02T08:20:17Z</time>
      </trkpt>
      <trkpt lat="45.95229" lon="4.7494">
        <ele>192</ele>
        <time>2017-06-02T08:20:18Z</time>
      </trkpt>
      <trkpt lat="45.95232" lon="4.74946">
        <ele>192</ele>
        <time>2017-06-02T08:20:19Z</time>
      </trkpt>
      <trkpt lat="45.95236" lon="4.74952">
        <ele>192</ele>
        <time>2017-06-02T08:20:20Z</time>
      </trkpt>
      <trkpt lat="45.9524" lon="4.74958">
        <ele>192</ele>
        <time>2017-06-02T08:20:21Z</time>
      </trkpt>
      <trkpt lat="45.95244" lon="4.74964">
        <ele>191</ele>
        <time>2017-06-02T08:20:22Z</time>
      </trkpt>
      <trkpt lat="45.95247" lon="4.7497">
        <ele>191</ele>
        <time>2017-06-02T08:20:23Z</time>
      </trkpt>
      <trkpt lat="45.95251" lon="4.74975">
        <ele>192</ele>
        <time>2017-06-02T08:20:24Z</time>
      </trkpt>
      <trkpt lat="45.95254" lon="4.74981">
        <ele>192</ele>
        <time>2017-06-02T08:20:25Z</time>
      </trkpt>
      <trkpt lat="45.95258" lon="4.74986">
        <ele>192</ele>
        <time>2017-06-02T08:20:26Z</time>
      </trkpt>
      <trkpt lat="45.95261" lon="4.74992">
        <ele>192</ele>
        <time>2017-06-02T08:20:27Z</time>
      </trkpt>
      <trkpt lat="45.95265" lon="4.74998">
        <ele>192</ele>
        <time>2017-06-02T08:20:28Z</time>
      </trkpt>
      <trkpt lat="45.95268" lon="4.75003">
        <ele>191</ele>
        <time>2017-06-02T08:20:29Z</time>
      </trkpt>
      <trkpt lat="45.95271" lon="4.75008">
        <ele>191</ele>
        <time>2017-06-02T08:20:30Z</time>
      </trkpt>
      <trkpt lat="45.95275" lon="4.75014">
        <ele>191</ele>
        <time>2017-06-02T08:20:31Z</time>
      </trkpt>
      <trkpt lat="45.95279" lon="4.75019">
        <ele>191</ele>
        <time>2017-06-02T08:20:32Z</time>
      </trkpt>
      <trkpt lat="45.95282" lon="4.75024">
        <ele>191</ele>
        <time>2017-06-02T08:20:33Z</time>
      </trkpt>
      <trkpt lat="45.95286" lon="4.7503">
        <ele>191</ele>
        <time>2017-06-02T08:20:34Z</time>
      </trkpt>
      <trkpt lat="45.9529" lon="4.75036">
        <ele>191</ele>
        <time>2017-06-02T08:20:35Z</time>
      </trkpt>
      <trkpt lat="45.95293" lon="4.75041">
        <ele>191</ele>
        <time>2017-06-02T08:20:36Z</time>
      </trkpt>
      <trkpt lat="45.95297" lon="4.75047">
        <ele>191</ele>
        <time>2017-06-02T08:20:37Z</time>
      </trkpt>
      <trkpt lat="45.95301" lon="4.75053">
        <ele>191</ele>
        <time>2017-06-02T08:20:38Z</time>
      </trkpt>
      <trkpt lat="45.95305" lon="4.75059">
        <ele>191</ele>
        <time>2017-06-02T08:20:39Z</time>
      </trkpt>
      <trkpt lat="45.95309" lon="4.75066">
        <ele>192</ele>
        <time>2017-06-02T08:20:40Z</time>
      </trkpt>
      <trkpt lat="45.95313" lon="4.75072">
        <ele>192</ele>
        <time>2017-06-02T08:20:41Z</time>
      </trkpt>
      <trkpt lat="45.95317" lon="4.75078">
        <ele>192</ele>
        <time>2017-06-02T08:20:42Z</time>
      </trkpt>
      <trkpt lat="45.95321" lon="4.75084">
        <ele>191</ele>
        <time>2017-06-02T08:20:43Z</time>
      </trkpt>
      <trkpt lat="45.95325" lon="4.7509">
        <ele>191</ele>
        <time>2017-06-02T08:20:44Z</time>
      </trkpt>
      <trkpt lat="45.95329" lon="4.75096">
        <ele>191</ele>
        <time>2017-06-02T08:20:45Z</time>
      </trkpt>
      <trkpt lat="45.95332" lon="4.75102">
        <ele>190</ele>
        <time>2017-06-02T08:20:46Z</time>
      </trkpt>
      <trkpt lat="45.95336" lon="4.75108">
        <ele>192</ele>
        <time>2017-06-02T08:20:47Z</time>
      </trkpt>
      <trkpt lat="45.9534" lon="4.75114">
        <ele>192</ele>
        <time>2017-06-02T08:20:48Z</time>
      </trkpt>
      <trkpt lat="45.95343" lon="4.75119">
        <ele>191</ele>
        <time>2017-06-02T08:20:49Z</time>
      </trkpt>
      <trkpt lat="45.95347" lon="4.75125">
        <ele>191</ele>
        <time>2017-06-02T08:20:50Z</time>
      </trkpt>
      <trkpt lat="45.95351" lon="4.75131">
        <ele>191</ele>
        <time>2017-06-02T08:20:51Z</time>
      </trkpt>
      <trkpt lat="45.95354" lon="4.75137">
        <ele>191</ele>
        <time>2017-06-02T08:20:52Z</time>
      </trkpt>
      <trkpt lat="45.95358" lon="4.75143">
        <ele>191</ele>
        <time>2017-06-02T08:20:53Z</time>
      </trkpt>
      <trkpt lat="45.95362" lon="4.75149">
        <ele>191</ele>
        <time>2017-06-02T08:20:54Z</time>
      </trkpt>
      <trkpt lat="45.95366" lon="4.75155">
        <ele>191</ele>
        <time>2017-06-02T08:20:55Z</time>
      </trkpt>
      <trkpt lat="45.95369" lon="4.75162">
        <ele>191</ele>
        <time>2017-06-02T08:20:56Z</time>
      </trkpt>
      <trkpt lat="45.95373" lon="4.75169">
        <ele>189</ele>
        <time>2017-06-02T08:20:57Z</time>
      </trkpt>
      <trkpt lat="45.95377" lon="4.75175">
        <ele>189</ele>
        <time>2017-06-02T08:20:58Z</time>
      </trkpt>
      <trkpt lat="45.95381" lon="4.75181">
        <ele>189</ele>
        <time>2017-06-02T08:20:59Z</time>
      </trkpt>
      <trkpt lat="45.95385" lon="4.75188">
        <ele>189</ele>
        <time>2017-06-02T08:21:00Z</time>
      </trkpt>
      <trkpt lat="45.95388" lon="4.75194">
        <ele>189</ele>
        <time>2017-06-02T08:21:01Z</time>
      </trkpt>
      <trkpt lat="45.95392" lon="4.75201">
        <ele>189</ele>
        <time>2017-06-02T08:21:02Z</time>
      </trkpt>
      <trkpt lat="45.95396" lon="4.75207">
        <ele>188</ele>
        <time>2017-06-02T08:21:03Z</time>
      </trkpt>
      <trkpt lat="45.95399" lon="4.75213">
        <ele>188</ele>
        <time>2017-06-02T08:21:04Z</time>
      </trkpt>
      <trkpt lat="45.95403" lon="4.7522">
        <ele>188</ele>
        <time>2017-06-02T08:21:05Z</time>
      </trkpt>
      <trkpt lat="45.95406" lon="4.75226">
        <ele>188</ele>
        <time>2017-06-02T08:21:06Z</time>
      </trkpt>
      <trkpt lat="45.9541" lon="4.75233">
        <ele>189</ele>
        <time>2017-06-02T08:21:07Z</time>
      </trkpt>
      <trkpt lat="45.95413" lon="4.7524">
        <ele>189</ele>
        <time>2017-06-02T08:21:08Z</time>
      </trkpt>
      <trkpt lat="45.95417" lon="4.75246">
        <ele>189</ele>
        <time>2017-06-02T08:21:09Z</time>
      </trkpt>
      <trkpt lat="45.9542" lon="4.75252">
        <ele>189</ele>
        <time>2017-06-02T08:21:10Z</time>
      </trkpt>
      <trkpt lat="45.95423" lon="4.75259">
        <ele>189</ele>
        <time>2017-06-02T08:21:11Z</time>
      </trkpt>
      <trkpt lat="45.95426" lon="4.75267">
        <ele>189</ele>
        <time>2017-06-02T08:21:12Z</time>
      </trkpt>
      <trkpt lat="45.9543" lon="4.75274">
        <ele>188</ele>
        <time>2017-06-02T08:21:13Z</time>
      </trkpt>
      <trkpt lat="45.95434" lon="4.7528">
        <ele>188</ele>
        <time>2017-06-02T08:21:14Z</time>
      </trkpt>
      <trkpt lat="45.95438" lon="4.75287">
        <ele>188</ele>
        <time>2017-06-02T08:21:15Z</time>
      </trkpt>
      <trkpt lat="45.95442" lon="4.75294">
        <ele>188</ele>
        <time>2017-06-02T08:21:16Z</time>
      </trkpt>
      <trkpt lat="45.95446" lon="4.75301">
        <ele>188</ele>
        <time>2017-06-02T08:21:17Z</time>
      </trkpt>
      <trkpt lat="45.9545" lon="4.75308">
        <ele>188</ele>
        <time>2017-06-02T08:21:18Z</time>
      </trkpt>
      <trkpt lat="45.95454" lon="4.75315">
        <ele>188</ele>
        <time>2017-06-02T08:21:19Z</time>
      </trkpt>
      <trkpt lat="45.95458" lon="4.75322">
        <ele>188</ele>
        <time>2017-06-02T08:21:20Z</time>
      </trkpt>
      <trkpt lat="45.95461" lon="4.75329">
        <ele>188</ele>
        <time>2017-06-02T08:21:21Z</time>
      </trkpt>
      <trkpt lat="45.95465" lon="4.75336">
        <ele>185</ele>
        <time>2017-06-02T08:21:22Z</time>
      </trkpt>
      <trkpt lat="45.95469" lon="4.75343">
        <ele>186</ele>
        <time>2017-06-02T08:21:23Z</time>
      </trkpt>
      <trkpt lat="45.95474" lon="4.7535">
        <ele>186</ele>
        <time>2017-06-02T08:21:24Z</time>
      </trkpt>
      <trkpt lat="45.95477" lon="4.75357">
        <ele>186</ele>
        <time>2017-06-02T08:21:25Z</time>
      </trkpt>
      <trkpt lat="45.95481" lon="4.75365">
        <ele>185</ele>
        <time>2017-06-02T08:21:26Z</time>
      </trkpt>
      <trkpt lat="45.95485" lon="4.75372">
        <ele>185</ele>
        <time>2017-06-02T08:21:27Z</time>
      </trkpt>
      <trkpt lat="45.95488" lon="4.7538">
        <ele>185</ele>
        <time>2017-06-02T08:21:28Z</time>
      </trkpt>
      <trkpt lat="45.95492" lon="4.75389">
        <ele>185</ele>
        <time>2017-06-02T08:21:29Z</time>
      </trkpt>
      <trkpt lat="45.95495" lon="4.75397">
        <ele>185</ele>
        <time>2017-06-02T08:21:30Z</time>
      </trkpt>
      <trkpt lat="45.95498" lon="4.75405">
        <ele>185</ele>
        <time>2017-06-02T08:21:31Z</time>
      </trkpt>
      <trkpt lat="45.95501" lon="4.75414">
        <ele>185</ele>
        <time>2017-06-02T08:21:32Z</time>
      </trkpt>
      <trkpt lat="45.95503" lon="4.75423">
        <ele>186</ele>
        <time>2017-06-02T08:21:33Z</time>
      </trkpt>
      <trkpt lat="45.95505" lon="4.75432">
        <ele>186</ele>
        <time>2017-06-02T08:21:34Z</time>
      </trkpt>
      <trkpt lat="45.95507" lon="4.75442">
        <ele>186</ele>
        <time>2017-06-02T08:21:35Z</time>
      </trkpt>
      <trkpt lat="45.95507" lon="4.75452">
        <ele>187</ele>
        <time>2017-06-02T08:21:36Z</time>
      </trkpt>
      <trkpt lat="45.95507" lon="4.75462">
        <ele>186</ele>
        <time>2017-06-02T08:21:37Z</time>
      </trkpt>
      <trkpt lat="45.95506" lon="4.75472">
        <ele>186</ele>
        <time>2017-06-02T08:21:38Z</time>
      </trkpt>
      <trkpt lat="45.95506" lon="4.75482">
        <ele>186</ele>
        <time>2017-06-02T08:21:39Z</time>
      </trkpt>
      <trkpt lat="45.95508" lon="4.7549">
        <ele>185</ele>
        <time>2017-06-02T08:21:40Z</time>
      </trkpt>
      <trkpt lat="45.95512" lon="4.75498">
        <ele>185</ele>
        <time>2017-06-02T08:21:41Z</time>
      </trkpt>
      <trkpt lat="45.95517" lon="4.75502">
        <ele>185</ele>
        <time>2017-06-02T08:21:42Z</time>
      </trkpt>
      <trkpt lat="45.95523" lon="4.75506">
        <ele>185</ele>
        <time>2017-06-02T08:21:43Z</time>
      </trkpt>
      <trkpt lat="45.95528" lon="4.7551">
        <ele>185</ele>
        <time>2017-06-02T08:21:44Z</time>
      </trkpt>
      <trkpt lat="45.95532" lon="4.75514">
        <ele>185</ele>
        <time>2017-06-02T08:21:45Z</time>
      </trkpt>
      <trkpt lat="45.95536" lon="4.75518">
        <ele>186</ele>
        <time>2017-06-02T08:21:46Z</time>
      </trkpt>
      <trkpt lat="45.9554" lon="4.75523">
        <ele>186</ele>
        <time>2017-06-02T08:21:47Z</time>
      </trkpt>
      <trkpt lat="45.95545" lon="4.75527">
        <ele>186</ele>
        <time>2017-06-02T08:21:48Z</time>
      </trkpt>
      <trkpt lat="45.9555" lon="4.75532">
        <ele>186</ele>
        <time>2017-06-02T08:21:49Z</time>
      </trkpt>
      <trkpt lat="45.95555" lon="4.75537">
        <ele>186</ele>
        <time>2017-06-02T08:21:50Z</time>
      </trkpt>
      <trkpt lat="45.95559" lon="4.75541">
        <ele>186</ele>
        <time>2017-06-02T08:21:51Z</time>
      </trkpt>
      <trkpt lat="45.95564" lon="4.75545">
        <ele>186</ele>
        <time>2017-06-02T08:21:52Z</time>
      </trkpt>
      <trkpt lat="45.95569" lon="4.7555">
        <ele>186</ele>
        <time>2017-06-02T08:21:53Z</time>
      </trkpt>
      <trkpt lat="45.95573" lon="4.75555">
        <ele>186</ele>
        <time>2017-06-02T08:21:54Z</time>
      </trkpt>
      <trkpt lat="45.95578" lon="4.7556">
        <ele>186</ele>
        <time>2017-06-02T08:21:55Z</time>
      </trkpt>
      <trkpt lat="45.95582" lon="4.75566">
        <ele>186</ele>
        <time>2017-06-02T08:21:56Z</time>
      </trkpt>
      <trkpt lat="45.95586" lon="4.75572">
        <ele>187</ele>
        <time>2017-06-02T08:21:57Z</time>
      </trkpt>
      <trkpt lat="45.95589" lon="4.75579">
        <ele>187</ele>
        <time>2017-06-02T08:21:58Z</time>
      </trkpt>
      <trkpt lat="45.95592" lon="4.75585">
        <ele>187</ele>
        <time>2017-06-02T08:21:59Z</time>
      </trkpt>
      <trkpt lat="45.95594" lon="4.75591">
        <ele>187</ele>
        <time>2017-06-02T08:22:00Z</time>
      </trkpt>
      <trkpt lat="45.95597" lon="4.75597">
        <ele>187</ele>
        <time>2017-06-02T08:22:01Z</time>
      </trkpt>
      <trkpt lat="45.95599" lon="4.75603">
        <ele>187</ele>
        <time>2017-06-02T08:22:02Z</time>
      </trkpt>
      <trkpt lat="45.95602" lon="4.75609">
        <ele>187</ele>
        <time>2017-06-02T08:22:03Z</time>
      </trkpt>
      <trkpt lat="45.95604" lon="4.75616">
        <ele>188</ele>
        <time>2017-06-02T08:22:04Z</time>
      </trkpt>
      <trkpt lat="45.95607" lon="4.75622">
        <ele>188</ele>
        <time>2017-06-02T08:22:05Z</time>
      </trkpt>
      <trkpt lat="45.95609" lon="4.75629">
        <ele>188</ele>
        <time>2017-06-02T08:22:06Z</time>
      </trkpt>
      <trkpt lat="45.95611" lon="4.75636">
        <ele>188</ele>
        <time>2017-06-02T08:22:07Z</time>
      </trkpt>
      <trkpt lat="45.95612" lon="4.75643">
        <ele>188</ele>
        <time>2017-06-02T08:22:08Z</time>
      </trkpt>
      <trkpt lat="45.95614" lon="4.75651">
        <ele>188</ele>
        <time>2017-06-02T08:22:09Z</time>
      </trkpt>
      <trkpt lat="45.95615" lon="4.75658">
        <ele>188</ele>
        <time>2017-06-02T08:22:10Z</time>
      </trkpt>
      <trkpt lat="45.95617" lon="4.75666">
        <ele>188</ele>
        <time>2017-06-02T08:22:11Z</time>
      </trkpt>
      <trkpt lat="45.95618" lon="4.75673">
        <ele>187</ele>
        <time>2017-06-02T08:22:12Z</time>
      </trkpt>
      <trkpt lat="45.95619" lon="4.75681">
        <ele>187</ele>
        <time>2017-06-02T08:22:13Z</time>
      </trkpt>
      <trkpt lat="45.95621" lon="4.75688">
        <ele>187</ele>
        <time>2017-06-02T08:22:14Z</time>
      </trkpt>
      <trkpt lat="45.95621" lon="4.75694">
        <ele>187</ele>
        <time>2017-06-02T08:22:15Z</time>
      </trkpt>
      <trkpt lat="45.95622" lon="4.75701">
        <ele>187</ele>
        <time>2017-06-02T08:22:16Z</time>
      </trkpt>
      <trkpt lat="45.95623" lon="4.75708">
        <ele>187</ele>
        <time>2017-06-02T08:22:17Z</time>
      </trkpt>
      <trkpt lat="45.95624" lon="4.75714">
        <ele>187</ele>
        <time>2017-06-02T08:22:18Z</time>
      </trkpt>
      <trkpt lat="45.95625" lon="4.75721">
        <ele>187</ele>
        <time>2017-06-02T08:22:19Z</time>
      </trkpt>
      <trkpt lat="45.95626" lon="4.75728">
        <ele>187</ele>
        <time>2017-06-02T08:22:20Z</time>
      </trkpt>
      <trkpt lat="45.95627" lon="4.75735">
        <ele>187</ele>
        <time>2017-06-02T08:22:21Z</time>
      </trkpt>
      <trkpt lat="45.95628" lon="4.75742">
        <ele>187</ele>
        <time>2017-06-02T08:22:22Z</time>
      </trkpt>
      <trkpt lat="45.95629" lon="4.7575">
        <ele>187</ele>
        <time>2017-06-02T08:22:23Z</time>
      </trkpt>
      <trkpt lat="45.9563" lon="4.75758">
        <ele>186</ele>
        <time>2017-06-02T08:22:24Z</time>
      </trkpt>
      <trkpt lat="45.95631" lon="4.75766">
        <ele>185</ele>
        <time>2017-06-02T08:22:25Z</time>
      </trkpt>
      <trkpt lat="45.95632" lon="4.75774">
        <ele>185</ele>
        <time>2017-06-02T08:22:26Z</time>
      </trkpt>
      <trkpt lat="45.95633" lon="4.75782">
        <ele>185</ele>
        <time>2017-06-02T08:22:27Z</time>
      </trkpt>
      <trkpt lat="45.95635" lon="4.7579">
        <ele>185</ele>
        <time>2017-06-02T08:22:28Z</time>
      </trkpt>
      <trkpt lat="45.95636" lon="4.75798">
        <ele>185</ele>
        <time>2017-06-02T08:22:29Z</time>
      </trkpt>
      <trkpt lat="45.95637" lon="4.75806">
        <ele>185</ele>
        <time>2017-06-02T08:22:30Z</time>
      </trkpt>
      <trkpt lat="45.95639" lon="4.75814">
        <ele>185</ele>
        <time>2017-06-02T08:22:31Z</time>
      </trkpt>
      <trkpt lat="45.95641" lon="4.75821">
        <ele>185</ele>
        <time>2017-06-02T08:22:32Z</time>
      </trkpt>
      <trkpt lat="45.95643" lon="4.75829">
        <ele>185</ele>
        <time>2017-06-02T08:22:33Z</time>
      </trkpt>
      <trkpt lat="45.95644" lon="4.75836">
        <ele>184</ele>
        <time>2017-06-02T08:22:34Z</time>
      </trkpt>
      <trkpt lat="45.95647" lon="4.75843">
        <ele>184</ele>
        <time>2017-06-02T08:22:35Z</time>
      </trkpt>
      <trkpt lat="45.95648" lon="4.75851">
        <ele>184</ele>
        <time>2017-06-02T08:22:36Z</time>
      </trkpt>
      <trkpt lat="45.95651" lon="4.75858">
        <ele>184</ele>
        <time>2017-06-02T08:22:37Z</time>
      </trkpt>
      <trkpt lat="45.95653" lon="4.75866">
        <ele>184</ele>
        <time>2017-06-02T08:22:38Z</time>
      </trkpt>
      <trkpt lat="45.95655" lon="4.75873">
        <ele>184</ele>
        <time>2017-06-02T08:22:39Z</time>
      </trkpt>
      <trkpt lat="45.95657" lon="4.75881">
        <ele>184</ele>
        <time>2017-06-02T08:22:40Z</time>
      </trkpt>
      <trkpt lat="45.9566" lon="4.75889">
        <ele>184</ele>
        <time>2017-06-02T08:22:41Z</time>
      </trkpt>
      <trkpt lat="45.95662" lon="4.75897">
        <ele>184</ele>
        <time>2017-06-02T08:22:42Z</time>
      </trkpt>
      <trkpt lat="45.95665" lon="4.75905">
        <ele>184</ele>
        <time>2017-06-02T08:22:43Z</time>
      </trkpt>
      <trkpt lat="45.95668" lon="4.75913">
        <ele>184</ele>
        <time>2017-06-02T08:22:44Z</time>
      </trkpt>
      <trkpt lat="45.95671" lon="4.7592">
        <ele>184</ele>
        <time>2017-06-02T08:22:45Z</time>
      </trkpt>
      <trkpt lat="45.95674" lon="4.75928">
        <ele>185</ele>
        <time>2017-06-02T08:22:46Z</time>
      </trkpt>
      <trkpt lat="45.95678" lon="4.75936">
        <ele>185</ele>
        <time>2017-06-02T08:22:47Z</time>
      </trkpt>
      <trkpt lat="45.95681" lon="4.75943">
        <ele>185</ele>
        <time>2017-06-02T08:22:48Z</time>
      </trkpt>
      <trkpt lat="45.95684" lon="4.7595">
        <ele>185</ele>
        <time>2017-06-02T08:22:49Z</time>
      </trkpt>
      <trkpt lat="45.95687" lon="4.75957">
        <ele>185</ele>
        <time>2017-06-02T08:22:50Z</time>
      </trkpt>
      <trkpt lat="45.9569" lon="4.75964">
        <ele>185</ele>
        <time>2017-06-02T08:22:51Z</time>
      </trkpt>
      <trkpt lat="45.95693" lon="4.7597">
        <ele>185</ele>
        <time>2017-06-02T08:22:52Z</time>
      </trkpt>
      <trkpt lat="45.95696" lon="4.75976">
        <ele>185</ele>
        <time>2017-06-02T08:22:53Z</time>
      </trkpt>
      <trkpt lat="45.95699" lon="4.75982">
        <ele>185</ele>
        <time>2017-06-02T08:22:54Z</time>
      </trkpt>
      <trkpt lat="45.95702" lon="4.75988">
        <ele>185</ele>
        <time>2017-06-02T08:22:55Z</time>
      </trkpt>
      <trkpt lat="45.95705" lon="4.75993">
        <ele>185</ele>
        <time>2017-06-02T08:22:56Z</time>
      </trkpt>
      <trkpt lat="45.95707" lon="4.75999">
        <ele>185</ele>
        <time>2017-06-02T08:22:57Z</time>
      </trkpt>
      <trkpt lat="45.9571" lon="4.76005">
        <ele>184</ele>
        <time>2017-06-02T08:22:58Z</time>
      </trkpt>
      <trkpt lat="45.95713" lon="4.76011">
        <ele>184</ele>
        <time>2017-06-02T08:22:59Z</time>
      </trkpt>
      <trkpt lat="45.95715" lon="4.76017">
        <ele>184</ele>
        <time>2017-06-02T08:23:00Z</time>
      </trkpt>
      <trkpt lat="45.95718" lon="4.76024">
        <ele>184</ele>
        <time>2017-06-02T08:23:01Z</time>
      </trkpt>
      <trkpt lat="45.9572" lon="4.7603">
        <ele>184</ele>
        <time>2017-06-02T08:23:02Z</time>
      </trkpt>
      <trkpt lat="45.95723" lon="4.76036">
        <ele>184</ele>
        <time>2017-06-02T08:23:03Z</time>
      </trkpt>
      <trkpt lat="45.95726" lon="4.76043">
        <ele>184</ele>
        <time>2017-06-02T08:23:04Z</time>
      </trkpt>
      <trkpt lat="45.95729" lon="4.76049">
        <ele>184</ele>
        <time>2017-06-02T08:23:05Z</time>
      </trkpt>
      <trkpt lat="45.95732" lon="4.76055">
        <ele>184</ele>
        <time>2017-06-02T08:23:06Z</time>
      </trkpt>
      <trkpt lat="45.95735" lon="4.76062">
        <ele>184</ele>
        <time>2017-06-02T08:23:07Z</time>
      </trkpt>
      <trkpt lat="45.95738" lon="4.76069">
        <ele>184</ele>
        <time>2017-06-02T08:23:08Z</time>
      </trkpt>
      <trkpt lat="45.95741" lon="4.76076">
        <ele>185</ele>
        <time>2017-06-02T08:23:09Z</time>
      </trkpt>
      <trkpt lat="45.95744" lon="4.76083">
        <ele>185</ele>
        <time>2017-06-02T08:23:10Z</time>
      </trkpt>
      <trkpt lat="45.95746" lon="4.7609">
        <ele>185</ele>
        <time>2017-06-02T08:23:11Z</time>
      </trkpt>
      <trkpt lat="45.95749" lon="4.76096">
        <ele>185</ele>
        <time>2017-06-02T08:23:12Z</time>
      </trkpt>
      <trkpt lat="45.9575" lon="4.76103">
        <ele>186</ele>
        <time>2017-06-02T08:23:13Z</time>
      </trkpt>
      <trkpt lat="45.95752" lon="4.76109">
        <ele>186</ele>
        <time>2017-06-02T08:23:14Z</time>
      </trkpt>
      <trkpt lat="45.95755" lon="4.7612">
        <ele>186</ele>
        <time>2017-06-02T08:23:16Z</time>
      </trkpt>
      <trkpt lat="45.95757" lon="4.76126">
        <ele>186</ele>
        <time>2017-06-02T08:23:17Z</time>
      </trkpt>
      <trkpt lat="45.95758" lon="4.76139">
        <ele>186</ele>
        <time>2017-06-02T08:23:19Z</time>
      </trkpt>
      <trkpt lat="45.95759" lon="4.76146">
        <ele>186</ele>
        <time>2017-06-02T08:23:20Z</time>
      </trkpt>
      <trkpt lat="45.95759" lon="4.76153">
        <ele>186</ele>
        <time>2017-06-02T08:23:21Z</time>
      </trkpt>
      <trkpt lat="45.9576" lon="4.76161">
        <ele>186</ele>
        <time>2017-06-02T08:23:22Z</time>
      </trkpt>
      <trkpt lat="45.9576" lon="4.76168">
        <ele>185</ele>
        <time>2017-06-02T08:23:23Z</time>
      </trkpt>
      <trkpt lat="45.95761" lon="4.76176">
        <ele>185</ele>
        <time>2017-06-02T08:23:24Z</time>
      </trkpt>
      <trkpt lat="45.95761" lon="4.76183">
        <ele>186</ele>
        <time>2017-06-02T08:23:25Z</time>
      </trkpt>
      <trkpt lat="45.95761" lon="4.76191">
        <ele>186</ele>
        <time>2017-06-02T08:23:26Z</time>
      </trkpt>
      <trkpt lat="45.95762" lon="4.76199">
        <ele>186</ele>
        <time>2017-06-02T08:23:27Z</time>
      </trkpt>
      <trkpt lat="45.95762" lon="4.76206">
        <ele>186</ele>
        <time>2017-06-02T08:23:28Z</time>
      </trkpt>
      <trkpt lat="45.95763" lon="4.76213">
        <ele>186</ele>
        <time>2017-06-02T08:23:29Z</time>
      </trkpt>
      <trkpt lat="45.95764" lon="4.7622">
        <ele>186</ele>
        <time>2017-06-02T08:23:30Z</time>
      </trkpt>
      <trkpt lat="45.95764" lon="4.76227">
        <ele>186</ele>
        <time>2017-06-02T08:23:31Z</time>
      </trkpt>
      <trkpt lat="45.95765" lon="4.76233">
        <ele>186</ele>
        <time>2017-06-02T08:23:32Z</time>
      </trkpt>
      <trkpt lat="45.95765" lon="4.7624">
        <ele>186</ele>
        <time>2017-06-02T08:23:33Z</time>
      </trkpt>
      <trkpt lat="45.95765" lon="4.76247">
        <ele>185</ele>
        <time>2017-06-02T08:23:34Z</time>
      </trkpt>
      <trkpt lat="45.95766" lon="4.76254">
        <ele>185</ele>
        <time>2017-06-02T08:23:35Z</time>
      </trkpt>
      <trkpt lat="45.95766" lon="4.7626">
        <ele>185</ele>
        <time>2017-06-02T08:23:36Z</time>
      </trkpt>
      <trkpt lat="45.95766" lon="4.76267">
        <ele>185</ele>
        <time>2017-06-02T08:23:37Z</time>
      </trkpt>
      <trkpt lat="45.95766" lon="4.76275">
        <ele>186</ele>
        <time>2017-06-02T08:23:38Z</time>
      </trkpt>
      <trkpt lat="45.95766" lon="4.76282">
        <ele>186</ele>
        <time>2017-06-02T08:23:39Z</time>
      </trkpt>
      <trkpt lat="45.95767" lon="4.76289">
        <ele>186</ele>
        <time>2017-06-02T08:23:40Z</time>
      </trkpt>
      <trkpt lat="45.95767" lon="4.76297">
        <ele>186</ele>
        <time>2017-06-02T08:23:41Z</time>
      </trkpt>
      <trkpt lat="45.95768" lon="4.76304">
        <ele>186</ele>
        <time>2017-06-02T08:23:42Z</time>
      </trkpt>
      <trkpt lat="45.95768" lon="4.76312">
        <ele>185</ele>
        <time>2017-06-02T08:23:43Z</time>
      </trkpt>
      <trkpt lat="45.95769" lon="4.76319">
        <ele>185</ele>
        <time>2017-06-02T08:23:44Z</time>
      </trkpt>
      <trkpt lat="45.95769" lon="4.76327">
        <ele>185</ele>
        <time>2017-06-02T08:23:45Z</time>
      </trkpt>
      <trkpt lat="45.95769" lon="4.76335">
        <ele>186</ele>
        <time>2017-06-02T08:23:46Z</time>
      </trkpt>
      <trkpt lat="45.95769" lon="4.76342">
        <ele>186</ele>
        <time>2017-06-02T08:23:47Z</time>
      </trkpt>
      <trkpt lat="45.9577" lon="4.76348">
        <ele>186</ele>
        <time>2017-06-02T08:23:48Z</time>
      </trkpt>
      <trkpt lat="45.9577" lon="4.76355">
        <ele>186</ele>
        <time>2017-06-02T08:23:49Z</time>
      </trkpt>
      <trkpt lat="45.95771" lon="4.76362">
        <ele>186</ele>
        <time>2017-06-02T08:23:50Z</time>
      </trkpt>
      <trkpt lat="45.95771" lon="4.76369">
        <ele>186</ele>
        <time>2017-06-02T08:23:51Z</time>
      </trkpt>
      <trkpt lat="45.95771" lon="4.76375">
        <ele>186</ele>
        <time>2017-06-02T08:23:52Z</time>
      </trkpt>
      <trkpt lat="45.95772" lon="4.76382">
        <ele>186</ele>
        <time>2017-06-02T08:23:53Z</time>
      </trkpt>
      <trkpt lat="45.95772" lon="4.76389">
        <ele>186</ele>
        <time>2017-06-02T08:23:54Z</time>
      </trkpt>
      <trkpt lat="45.95774" lon="4.76401">
        <ele>186</ele>
        <time>2017-06-02T08:23:56Z</time>
      </trkpt>
      <trkpt lat="45.95775" lon="4.76407">
        <ele>186</ele>
        <time>2017-06-02T08:23:57Z</time>
      </trkpt>
      <trkpt lat="45.95775" lon="4.76414">
        <ele>186</ele>
        <time>2017-06-02T08:23:58Z</time>
      </trkpt>
      <trkpt lat="45.95776" lon="4.76421">
        <ele>186</ele>
        <time>2017-06-02T08:23:59Z</time>
      </trkpt>
      <trkpt lat="45.95777" lon="4.76428">
        <ele>186</ele>
        <time>2017-06-02T08:24:00Z</time>
      </trkpt>
      <trkpt lat="45.95778" lon="4.76436">
        <ele>186</ele>
        <time>2017-06-02T08:24:01Z</time>
      </trkpt>
      <trkpt lat="45.95779" lon="4.76445">
        <ele>186</ele>
        <time>2017-06-02T08:24:02Z</time>
      </trkpt>
      <trkpt lat="45.9578" lon="4.76453">
        <ele>186</ele>
        <time>2017-06-02T08:24:03Z</time>
      </trkpt>
      <trkpt lat="45.95781" lon="4.76461">
        <ele>186</ele>
        <time>2017-06-02T08:24:04Z</time>
      </trkpt>
      <trkpt lat="45.95782" lon="4.76469">
        <ele>186</ele>
        <time>2017-06-02T08:24:05Z</time>
      </trkpt>
      <trkpt lat="45.95783" lon="4.76476">
        <ele>186</ele>
        <time>2017-06-02T08:24:06Z</time>
      </trkpt>
      <trkpt lat="45.95784" lon="4.76484">
        <ele>186</ele>
        <time>2017-06-02T08:24:07Z</time>
      </trkpt>
      <trkpt lat="45.95785" lon="4.76491">
        <ele>186</ele>
        <time>2017-06-02T08:24:08Z</time>
      </trkpt>
      <trkpt lat="45.95786" lon="4.76498">
        <ele>186</ele>
        <time>2017-06-02T08:24:09Z</time>
      </trkpt>
      <trkpt lat="45.95787" lon="4.76504">
        <ele>187</ele>
        <time>2017-06-02T08:24:10Z</time>
      </trkpt>
      <trkpt lat="45.95788" lon="4.76511">
        <ele>187</ele>
        <time>2017-06-02T08:24:11Z</time>
      </trkpt>
      <trkpt lat="45.95789" lon="4.76517">
        <ele>187</ele>
        <time>2017-06-02T08:24:12Z</time>
      </trkpt>
      <trkpt lat="45.95789" lon="4.76523">
        <ele>187</ele>
        <time>2017-06-02T08:24:13Z</time>
      </trkpt>
      <trkpt lat="45.9579" lon="4.7653">
        <ele>187</ele>
        <time>2017-06-02T08:24:14Z</time>
      </trkpt>
      <trkpt lat="45.95791" lon="4.76536">
        <ele>187</ele>
        <time>2017-06-02T08:24:15Z</time>
      </trkpt>
      <trkpt lat="45.95792" lon="4.76543">
        <ele>187</ele>
        <time>2017-06-02T08:24:16Z</time>
      </trkpt>
      <trkpt lat="45.95793" lon="4.7655">
        <ele>187</ele>
        <time>2017-06-02T08:24:17Z</time>
      </trkpt>
      <trkpt lat="45.95794" lon="4.76556">
        <ele>187</ele>
        <time>2017-06-02T08:24:18Z</time>
      </trkpt>
      <trkpt lat="45.95796" lon="4.76563">
        <ele>187</ele>
        <time>2017-06-02T08:24:19Z</time>
      </trkpt>
      <trkpt lat="45.95797" lon="4.7657">
        <ele>187</ele>
        <time>2017-06-02T08:24:20Z</time>
      </trkpt>
      <trkpt lat="45.95798" lon="4.76577">
        <ele>187</ele>
        <time>2017-06-02T08:24:21Z</time>
      </trkpt>
      <trkpt lat="45.95799" lon="4.76584">
        <ele>187</ele>
        <time>2017-06-02T08:24:22Z</time>
      </trkpt>
      <trkpt lat="45.958" lon="4.76592">
        <ele>187</ele>
        <time>2017-06-02T08:24:23Z</time>
      </trkpt>
      <trkpt lat="45.95801" lon="4.76599">
        <ele>187</ele>
        <time>2017-06-02T08:24:24Z</time>
      </trkpt>
      <trkpt lat="45.95802" lon="4.76606">
        <ele>187</ele>
        <time>2017-06-02T08:24:25Z</time>
      </trkpt>
      <trkpt lat="45.95803" lon="4.76613">
        <ele>188</ele>
        <time>2017-06-02T08:24:26Z</time>
      </trkpt>
      <trkpt lat="45.95804" lon="4.7662">
        <ele>188</ele>
        <time>2017-06-02T08:24:27Z</time>
      </trkpt>
      <trkpt lat="45.95805" lon="4.76626">
        <ele>188</ele>
        <time>2017-06-02T08:24:28Z</time>
      </trkpt>
      <trkpt lat="45.95806" lon="4.76633">
        <ele>188</ele>
        <time>2017-06-02T08:24:29Z</time>
      </trkpt>
      <trkpt lat="45.95807" lon="4.7664">
        <ele>188</ele>
        <time>2017-06-02T08:24:30Z</time>
      </trkpt>
      <trkpt lat="45.95808" lon="4.76647">
        <ele>188</ele>
        <time>2017-06-02T08:24:31Z</time>
      </trkpt>
      <trkpt lat="45.95809" lon="4.76654">
        <ele>188</ele>
        <time>2017-06-02T08:24:32Z</time>
      </trkpt>
      <trkpt lat="45.9581" lon="4.76661">
        <ele>188</ele>
        <time>2017-06-02T08:24:33Z</time>
      </trkpt>
      <trkpt lat="45.95811" lon="4.76667">
        <ele>189</ele>
        <time>2017-06-02T08:24:34Z</time>
      </trkpt>
      <trkpt lat="45.95812" lon="4.76674">
        <ele>189</ele>
        <time>2017-06-02T08:24:35Z</time>
      </trkpt>
      <trkpt lat="45.95813" lon="4.76681">
        <ele>189</ele>
        <time>2017-06-02T08:24:36Z</time>
      </trkpt>
      <trkpt lat="45.95814" lon="4.76688">
        <ele>189</ele>
        <time>2017-06-02T08:24:37Z</time>
      </trkpt>
      <trkpt lat="45.95815" lon="4.76695">
        <ele>189</ele>
        <time>2017-06-02T08:24:38Z</time>
      </trkpt>
      <trkpt lat="45.95816" lon="4.76701">
        <ele>189</ele>
        <time>2017-06-02T08:24:39Z</time>
      </trkpt>
      <trkpt lat="45.95817" lon="4.76707">
        <ele>189</ele>
        <time>2017-06-02T08:24:40Z</time>
      </trkpt>
      <trkpt lat="45.95818" lon="4.76714">
        <ele>189</ele>
        <time>2017-06-02T08:24:41Z</time>
      </trkpt>
      <trkpt lat="45.95819" lon="4.76721">
        <ele>189</ele>
        <time>2017-06-02T08:24:42Z</time>
      </trkpt>
      <trkpt lat="45.9582" lon="4.76729">
        <ele>190</ele>
        <time>2017-06-02T08:24:43Z</time>
      </trkpt>
      <trkpt lat="45.95821" lon="4.76737">
        <ele>190</ele>
        <time>2017-06-02T08:24:44Z</time>
      </trkpt>
      <trkpt lat="45.95822" lon="4.76745">
        <ele>190</ele>
        <time>2017-06-02T08:24:45Z</time>
      </trkpt>
      <trkpt lat="45.95823" lon="4.76753">
        <ele>191</ele>
        <time>2017-06-02T08:24:46Z</time>
      </trkpt>
      <trkpt lat="45.95824" lon="4.76761">
        <ele>190</ele>
        <time>2017-06-02T08:24:47Z</time>
      </trkpt>
      <trkpt lat="45.95826" lon="4.76768">
        <ele>190</ele>
        <time>2017-06-02T08:24:48Z</time>
      </trkpt>
      <trkpt lat="45.95827" lon="4.76775">
        <ele>190</ele>
        <time>2017-06-02T08:24:49Z</time>
      </trkpt>
      <trkpt lat="45.95828" lon="4.76782">
        <ele>190</ele>
        <time>2017-06-02T08:24:50Z</time>
      </trkpt>
      <trkpt lat="45.95829" lon="4.76789">
        <ele>190</ele>
        <time>2017-06-02T08:24:51Z</time>
      </trkpt>
      <trkpt lat="45.95829" lon="4.76796">
        <ele>190</ele>
        <time>2017-06-02T08:24:52Z</time>
      </trkpt>
      <trkpt lat="45.9583" lon="4.76803">
        <ele>190</ele>
        <time>2017-06-02T08:24:53Z</time>
      </trkpt>
      <trkpt lat="45.95829" lon="4.76809">
        <ele>190</ele>
        <time>2017-06-02T08:24:54Z</time>
      </trkpt>
      <trkpt lat="45.95829" lon="4.76816">
        <ele>190</ele>
        <time>2017-06-02T08:24:55Z</time>
      </trkpt>
      <trkpt lat="45.95828" lon="4.76822">
        <ele>190</ele>
        <time>2017-06-02T08:24:56Z</time>
      </trkpt>
      <trkpt lat="45.95827" lon="4.76829">
        <ele>190</ele>
        <time>2017-06-02T08:24:57Z</time>
      </trkpt>
      <trkpt lat="45.95826" lon="4.76836">
        <ele>190</ele>
        <time>2017-06-02T08:24:58Z</time>
      </trkpt>
      <trkpt lat="45.95824" lon="4.76843">
        <ele>190</ele>
        <time>2017-06-02T08:24:59Z</time>
      </trkpt>
      <trkpt lat="45.95823" lon="4.7685">
        <ele>190</ele>
        <time>2017-06-02T08:25:00Z</time>
      </trkpt>
      <trkpt lat="45.95822" lon="4.76857">
        <ele>189</ele>
        <time>2017-06-02T08:25:01Z</time>
      </trkpt>
      <trkpt lat="45.95821" lon="4.76864">
        <ele>189</ele>
        <time>2017-06-02T08:25:02Z</time>
      </trkpt>
      <trkpt lat="45.9582" lon="4.76872">
        <ele>189</ele>
        <time>2017-06-02T08:25:03Z</time>
      </trkpt>
      <trkpt lat="45.95818" lon="4.76879">
        <ele>189</ele>
        <time>2017-06-02T08:25:04Z</time>
      </trkpt>
      <trkpt lat="45.95817" lon="4.76886">
        <ele>189</ele>
        <time>2017-06-02T08:25:05Z</time>
      </trkpt>
      <trkpt lat="45.95815" lon="4.76894">
        <ele>189</ele>
        <time>2017-06-02T08:25:06Z</time>
      </trkpt>
      <trkpt lat="45.95812" lon="4.76901">
        <ele>189</ele>
        <time>2017-06-02T08:25:07Z</time>
      </trkpt>
      <trkpt lat="45.95811" lon="4.76909">
        <ele>189</ele>
        <time>2017-06-02T08:25:08Z</time>
      </trkpt>
      <trkpt lat="45.95809" lon="4.76917">
        <ele>189</ele>
        <time>2017-06-02T08:25:09Z</time>
      </trkpt>
      <trkpt lat="45.95808" lon="4.76924">
        <ele>189</ele>
        <time>2017-06-02T08:25:10Z</time>
      </trkpt>
      <trkpt lat="45.95807" lon="4.76932">
        <ele>189</ele>
        <time>2017-06-02T08:25:11Z</time>
      </trkpt>
      <trkpt lat="45.95806" lon="4.76939">
        <ele>189</ele>
        <time>2017-06-02T08:25:12Z</time>
      </trkpt>
      <trkpt lat="45.95804" lon="4.76946">
        <ele>189</ele>
        <time>2017-06-02T08:25:13Z</time>
      </trkpt>
      <trkpt lat="45.95803" lon="4.76953">
        <ele>189</ele>
        <time>2017-06-02T08:25:14Z</time>
      </trkpt>
      <trkpt lat="45.95802" lon="4.7696">
        <ele>189</ele>
        <time>2017-06-02T08:25:15Z</time>
      </trkpt>
      <trkpt lat="45.95801" lon="4.76967">
        <ele>189</ele>
        <time>2017-06-02T08:25:16Z</time>
      </trkpt>
      <trkpt lat="45.958" lon="4.76973">
        <ele>189</ele>
        <time>2017-06-02T08:25:17Z</time>
      </trkpt>
      <trkpt lat="45.95799" lon="4.76985">
        <ele>189</ele>
        <time>2017-06-02T08:25:19Z</time>
      </trkpt>
      <trkpt lat="45.95799" lon="4.76991">
        <ele>189</ele>
        <time>2017-06-02T08:25:20Z</time>
      </trkpt>
      <trkpt lat="45.95799" lon="4.77003">
        <ele>190</ele>
        <time>2017-06-02T08:25:22Z</time>
      </trkpt>
      <trkpt lat="45.958" lon="4.7701">
        <ele>190</ele>
        <time>2017-06-02T08:25:23Z</time>
      </trkpt>
      <trkpt lat="45.95801" lon="4.77017">
        <ele>190</ele>
        <time>2017-06-02T08:25:24Z</time>
      </trkpt>
      <trkpt lat="45.95803" lon="4.77024">
        <ele>190</ele>
        <time>2017-06-02T08:25:25Z</time>
      </trkpt>
      <trkpt lat="45.95806" lon="4.77031">
        <ele>190</ele>
        <time>2017-06-02T08:25:26Z</time>
      </trkpt>
      <trkpt lat="45.95809" lon="4.77039">
        <ele>190</ele>
        <time>2017-06-02T08:25:27Z</time>
      </trkpt>
      <trkpt lat="45.95812" lon="4.77046">
        <ele>190</ele>
        <time>2017-06-02T08:25:28Z</time>
      </trkpt>
      <trkpt lat="45.95815" lon="4.77053">
        <ele>190</ele>
        <time>2017-06-02T08:25:29Z</time>
      </trkpt>
      <trkpt lat="45.95818" lon="4.7706">
        <ele>190</ele>
        <time>2017-06-02T08:25:30Z</time>
      </trkpt>
      <trkpt lat="45.95821" lon="4.77067">
        <ele>191</ele>
        <time>2017-06-02T08:25:31Z</time>
      </trkpt>
      <trkpt lat="45.95824" lon="4.77073">
        <ele>191</ele>
        <time>2017-06-02T08:25:32Z</time>
      </trkpt>
      <trkpt lat="45.95827" lon="4.7708">
        <ele>191</ele>
        <time>2017-06-02T08:25:33Z</time>
      </trkpt>
      <trkpt lat="45.95829" lon="4.77087">
        <ele>191</ele>
        <time>2017-06-02T08:25:34Z</time>
      </trkpt>
      <trkpt lat="45.95831" lon="4.77094">
        <ele>191</ele>
        <time>2017-06-02T08:25:35Z</time>
      </trkpt>
      <trkpt lat="45.95834" lon="4.771">
        <ele>193</ele>
        <time>2017-06-02T08:25:36Z</time>
      </trkpt>
      <trkpt lat="45.95836" lon="4.77107">
        <ele>193</ele>
        <time>2017-06-02T08:25:37Z</time>
      </trkpt>
      <trkpt lat="45.95838" lon="4.77113">
        <ele>193</ele>
        <time>2017-06-02T08:25:38Z</time>
      </trkpt>
      <trkpt lat="45.95841" lon="4.7712">
        <ele>193</ele>
        <time>2017-06-02T08:25:39Z</time>
      </trkpt>
      <trkpt lat="45.95843" lon="4.77126">
        <ele>193</ele>
        <time>2017-06-02T08:25:40Z</time>
      </trkpt>
      <trkpt lat="45.95845" lon="4.77132">
        <ele>193</ele>
        <time>2017-06-02T08:25:41Z</time>
      </trkpt>
      <trkpt lat="45.95846" lon="4.77138">
        <ele>193</ele>
        <time>2017-06-02T08:25:42Z</time>
      </trkpt>
      <trkpt lat="45.95848" lon="4.77145">
        <ele>192</ele>
        <time>2017-06-02T08:25:43Z</time>
      </trkpt>
      <trkpt lat="45.9585" lon="4.77151">
        <ele>192</ele>
        <time>2017-06-02T08:25:44Z</time>
      </trkpt>
      <trkpt lat="45.95852" lon="4.77157">
        <ele>192</ele>
        <time>2017-06-02T08:25:45Z</time>
      </trkpt>
      <trkpt lat="45.95854" lon="4.77164">
        <ele>192</ele>
        <time>2017-06-02T08:25:46Z</time>
      </trkpt>
      <trkpt lat="45.95855" lon="4.7717">
        <ele>192</ele>
        <time>2017-06-02T08:25:47Z</time>
      </trkpt>
      <trkpt lat="45.95857" lon="4.77176">
        <ele>192</ele>
        <time>2017-06-02T08:25:48Z</time>
      </trkpt>
      <trkpt lat="45.95859" lon="4.77182">
        <ele>192</ele>
        <time>2017-06-02T08:25:49Z</time>
      </trkpt>
      <trkpt lat="45.95862" lon="4.77193">
        <ele>192</ele>
        <time>2017-06-02T08:25:51Z</time>
      </trkpt>
      <trkpt lat="45.95863" lon="4.77199">
        <ele>193</ele>
        <time>2017-06-02T08:25:52Z</time>
      </trkpt>
      <trkpt lat="45.95867" lon="4.7721">
        <ele>193</ele>
        <time>2017-06-02T08:25:54Z</time>
      </trkpt>
      <trkpt lat="45.95868" lon="4.77217">
        <ele>193</ele>
        <time>2017-06-02T08:25:55Z</time>
      </trkpt>
      <trkpt lat="45.9587" lon="4.77223">
        <ele>193</ele>
        <time>2017-06-02T08:25:56Z</time>
      </trkpt>
      <trkpt lat="45.95871" lon="4.77229">
        <ele>193</ele>
        <time>2017-06-02T08:25:57Z</time>
      </trkpt>
      <trkpt lat="45.95872" lon="4.77236">
        <ele>193</ele>
        <time>2017-06-02T08:25:58Z</time>
      </trkpt>
      <trkpt lat="45.95874" lon="4.77242">
        <ele>193</ele>
        <time>2017-06-02T08:25:59Z</time>
      </trkpt>
      <trkpt lat="45.95876" lon="4.77253">
        <ele>193</ele>
        <time>2017-06-02T08:26:01Z</time>
      </trkpt>
      <trkpt lat="45.95877" lon="4.77259">
        <ele>193</ele>
        <time>2017-06-02T08:26:02Z</time>
      </trkpt>
      <trkpt lat="45.95878" lon="4.77265">
        <ele>193</ele>
        <time>2017-06-02T08:26:03Z</time>
      </trkpt>
      <trkpt lat="45.95879" lon="4.77272">
        <ele>193</ele>
        <time>2017-06-02T08:26:04Z</time>
      </trkpt>
      <trkpt lat="45.9588" lon="4.77279">
        <ele>193</ele>
        <time>2017-06-02T08:26:05Z</time>
      </trkpt>
      <trkpt lat="45.95882" lon="4.77287">
        <ele>193</ele>
        <time>2017-06-02T08:26:06Z</time>
      </trkpt>
      <trkpt lat="45.95884" lon="4.77294">
        <ele>193</ele>
        <time>2017-06-02T08:26:07Z</time>
      </trkpt>
      <trkpt lat="45.95885" lon="4.77301">
        <ele>193</ele>
        <time>2017-06-02T08:26:08Z</time>
      </trkpt>
      <trkpt lat="45.95887" lon="4.77309">
        <ele>193</ele>
        <time>2017-06-02T08:26:09Z</time>
      </trkpt>
      <trkpt lat="45.95889" lon="4.77318">
        <ele>193</ele>
        <time>2017-06-02T08:26:10Z</time>
      </trkpt>
      <trkpt lat="45.95892" lon="4.77326">
        <ele>193</ele>
        <time>2017-06-02T08:26:11Z</time>
      </trkpt>
      <trkpt lat="45.95894" lon="4.77333">
        <ele>193</ele>
        <time>2017-06-02T08:26:12Z</time>
      </trkpt>
      <trkpt lat="45.95897" lon="4.7734">
        <ele>193</ele>
        <time>2017-06-02T08:26:13Z</time>
      </trkpt>
      <trkpt lat="45.95899" lon="4.77347">
        <ele>193</ele>
        <time>2017-06-02T08:26:14Z</time>
      </trkpt>
      <trkpt lat="45.95901" lon="4.77353">
        <ele>193</ele>
        <time>2017-06-02T08:26:15Z</time>
      </trkpt>
      <trkpt lat="45.95903" lon="4.77359">
        <ele>193</ele>
        <time>2017-06-02T08:26:16Z</time>
      </trkpt>
      <trkpt lat="45.95907" lon="4.7737">
        <ele>193</ele>
        <time>2017-06-02T08:26:18Z</time>
      </trkpt>
      <trkpt lat="45.95909" lon="4.77376">
        <ele>193</ele>
        <time>2017-06-02T08:26:19Z</time>
      </trkpt>
      <trkpt lat="45.95911" lon="4.77382">
        <ele>193</ele>
        <time>2017-06-02T08:26:20Z</time>
      </trkpt>
      <trkpt lat="45.95914" lon="4.77388">
        <ele>193</ele>
        <time>2017-06-02T08:26:21Z</time>
      </trkpt>
      <trkpt lat="45.95917" lon="4.77395">
        <ele>193</ele>
        <time>2017-06-02T08:26:22Z</time>
      </trkpt>
      <trkpt lat="45.95919" lon="4.77402">
        <ele>195</ele>
        <time>2017-06-02T08:26:23Z</time>
      </trkpt>
      <trkpt lat="45.95921" lon="4.77409">
        <ele>195</ele>
        <time>2017-06-02T08:26:24Z</time>
      </trkpt>
      <trkpt lat="45.95923" lon="4.77416">
        <ele>195</ele>
        <time>2017-06-02T08:26:25Z</time>
      </trkpt>
      <trkpt lat="45.95925" lon="4.77423">
        <ele>195</ele>
        <time>2017-06-02T08:26:26Z</time>
      </trkpt>
      <trkpt lat="45.95928" lon="4.7743">
        <ele>195</ele>
        <time>2017-06-02T08:26:27Z</time>
      </trkpt>
      <trkpt lat="45.9593" lon="4.77436">
        <ele>195</ele>
        <time>2017-06-02T08:26:28Z</time>
      </trkpt>
      <trkpt lat="45.95932" lon="4.77443">
        <ele>195</ele>
        <time>2017-06-02T08:26:29Z</time>
      </trkpt>
      <trkpt lat="45.95934" lon="4.77449">
        <ele>195</ele>
        <time>2017-06-02T08:26:30Z</time>
      </trkpt>
      <trkpt lat="45.95936" lon="4.77454">
        <ele>195</ele>
        <time>2017-06-02T08:26:31Z</time>
      </trkpt>
      <trkpt lat="45.95938" lon="4.7746">
        <ele>195</ele>
        <time>2017-06-02T08:26:32Z</time>
      </trkpt>
      <trkpt lat="45.95941" lon="4.77466">
        <ele>195</ele>
        <time>2017-06-02T08:26:33Z</time>
      </trkpt>
      <trkpt lat="45.95943" lon="4.77472">
        <ele>195</ele>
        <time>2017-06-02T08:26:34Z</time>
      </trkpt>
      <trkpt lat="45.95945" lon="4.77478">
        <ele>195</ele>
        <time>2017-06-02T08:26:35Z</time>
      </trkpt>
      <trkpt lat="45.95947" lon="4.77486">
        <ele>195</ele>
        <time>2017-06-02T08:26:36Z</time>
      </trkpt>
      <trkpt lat="45.95948" lon="4.77493">
        <ele>195</ele>
        <time>2017-06-02T08:26:37Z</time>
      </trkpt>
      <trkpt lat="45.95951" lon="4.775">
        <ele>194</ele>
        <time>2017-06-02T08:26:38Z</time>
      </trkpt>
      <trkpt lat="45.95954" lon="4.77507">
        <ele>195</ele>
        <time>2017-06-02T08:26:39Z</time>
      </trkpt>
      <trkpt lat="45.95957" lon="4.77514">
        <ele>195</ele>
        <time>2017-06-02T08:26:40Z</time>
      </trkpt>
      <trkpt lat="45.9596" lon="4.77521">
        <ele>195</ele>
        <time>2017-06-02T08:26:41Z</time>
      </trkpt>
      <trkpt lat="45.95964" lon="4.77528">
        <ele>195</ele>
        <time>2017-06-02T08:26:42Z</time>
      </trkpt>
      <trkpt lat="45.95967" lon="4.77534">
        <ele>195</ele>
        <time>2017-06-02T08:26:43Z</time>
      </trkpt>
      <trkpt lat="45.9597" lon="4.7754">
        <ele>195</ele>
        <time>2017-06-02T08:26:44Z</time>
      </trkpt>
      <trkpt lat="45.95972" lon="4.77546">
        <ele>195</ele>
        <time>2017-06-02T08:26:45Z</time>
      </trkpt>
      <trkpt lat="45.95974" lon="4.77551">
        <ele>195</ele>
        <time>2017-06-02T08:26:46Z</time>
      </trkpt>
      <trkpt lat="45.95977" lon="4.77557">
        <ele>195</ele>
        <time>2017-06-02T08:26:47Z</time>
      </trkpt>
      <trkpt lat="45.95979" lon="4.77563">
        <ele>195</ele>
        <time>2017-06-02T08:26:48Z</time>
      </trkpt>
      <trkpt lat="45.95982" lon="4.77569">
        <ele>196</ele>
        <time>2017-06-02T08:26:49Z</time>
      </trkpt>
      <trkpt lat="45.95985" lon="4.77576">
        <ele>196</ele>
        <time>2017-06-02T08:26:50Z</time>
      </trkpt>
      <trkpt lat="45.95989" lon="4.77583">
        <ele>196</ele>
        <time>2017-06-02T08:26:51Z</time>
      </trkpt>
      <trkpt lat="45.95993" lon="4.77589">
        <ele>196</ele>
        <time>2017-06-02T08:26:52Z</time>
      </trkpt>
      <trkpt lat="45.95998" lon="4.77595">
        <ele>196</ele>
        <time>2017-06-02T08:26:53Z</time>
      </trkpt>
      <trkpt lat="45.96002" lon="4.776">
        <ele>198</ele>
        <time>2017-06-02T08:26:54Z</time>
      </trkpt>
      <trkpt lat="45.96006" lon="4.77604">
        <ele>198</ele>
        <time>2017-06-02T08:26:55Z</time>
      </trkpt>
      <trkpt lat="45.96009" lon="4.77609">
        <ele>199</ele>
        <time>2017-06-02T08:26:56Z</time>
      </trkpt>
      <trkpt lat="45.96012" lon="4.77613">
        <ele>199</ele>
        <time>2017-06-02T08:26:57Z</time>
      </trkpt>
      <trkpt lat="45.96015" lon="4.77619">
        <ele>199</ele>
        <time>2017-06-02T08:26:58Z</time>
      </trkpt>
      <trkpt lat="45.96018" lon="4.77623">
        <ele>199</ele>
        <time>2017-06-02T08:26:59Z</time>
      </trkpt>
      <trkpt lat="45.96025" lon="4.77632">
        <ele>199</ele>
        <time>2017-06-02T08:27:01Z</time>
      </trkpt>
      <trkpt lat="45.96028" lon="4.77636">
        <ele>199</ele>
        <time>2017-06-02T08:27:02Z</time>
      </trkpt>
      <trkpt lat="45.96035" lon="4.77644">
        <ele>199</ele>
        <time>2017-06-02T08:27:04Z</time>
      </trkpt>
      <trkpt lat="45.96038" lon="4.77648">
        <ele>199</ele>
        <time>2017-06-02T08:27:05Z</time>
      </trkpt>
      <trkpt lat="45.96044" lon="4.77655">
        <ele>199</ele>
        <time>2017-06-02T08:27:07Z</time>
      </trkpt>
      <trkpt lat="45.96047" lon="4.77659">
        <ele>199</ele>
        <time>2017-06-02T08:27:08Z</time>
      </trkpt>
      <trkpt lat="45.96053" lon="4.77668">
        <ele>197</ele>
        <time>2017-06-02T08:27:10Z</time>
      </trkpt>
      <trkpt lat="45.96057" lon="4.77672">
        <ele>197</ele>
        <time>2017-06-02T08:27:11Z</time>
      </trkpt>
      <trkpt lat="45.96063" lon="4.7768">
        <ele>198</ele>
        <time>2017-06-02T08:27:13Z</time>
      </trkpt>
      <trkpt lat="45.96066" lon="4.77684">
        <ele>198</ele>
        <time>2017-06-02T08:27:14Z</time>
      </trkpt>
      <trkpt lat="45.96072" lon="4.77692">
        <ele>197</ele>
        <time>2017-06-02T08:27:16Z</time>
      </trkpt>
      <trkpt lat="45.96074" lon="4.77697">
        <ele>197</ele>
        <time>2017-06-02T08:27:17Z</time>
      </trkpt>
      <trkpt lat="45.96079" lon="4.77706">
        <ele>197</ele>
        <time>2017-06-02T08:27:19Z</time>
      </trkpt>
      <trkpt lat="45.96082" lon="4.77711">
        <ele>196</ele>
        <time>2017-06-02T08:27:20Z</time>
      </trkpt>
      <trkpt lat="45.96085" lon="4.77716">
        <ele>199</ele>
        <time>2017-06-02T08:27:21Z</time>
      </trkpt>
      <trkpt lat="45.96088" lon="4.77721">
        <ele>199</ele>
        <time>2017-06-02T08:27:22Z</time>
      </trkpt>
      <trkpt lat="45.96091" lon="4.77727">
        <ele>199</ele>
        <time>2017-06-02T08:27:23Z</time>
      </trkpt>
      <trkpt lat="45.96094" lon="4.77732">
        <ele>198</ele>
        <time>2017-06-02T08:27:24Z</time>
      </trkpt>
      <trkpt lat="45.961" lon="4.77741">
        <ele>198</ele>
        <time>2017-06-02T08:27:26Z</time>
      </trkpt>
      <trkpt lat="45.96102" lon="4.77745">
        <ele>198</ele>
        <time>2017-06-02T08:27:27Z</time>
      </trkpt>
      <trkpt lat="45.96107" lon="4.77754">
        <ele>197</ele>
        <time>2017-06-02T08:27:29Z</time>
      </trkpt>
      <trkpt lat="45.9611" lon="4.77758">
        <ele>197</ele>
        <time>2017-06-02T08:27:30Z</time>
      </trkpt>
      <trkpt lat="45.96116" lon="4.77767">
        <ele>197</ele>
        <time>2017-06-02T08:27:32Z</time>
      </trkpt>
      <trkpt lat="45.96118" lon="4.77772">
        <ele>197</ele>
        <time>2017-06-02T08:27:33Z</time>
      </trkpt>
      <trkpt lat="45.96122" lon="4.7778">
        <ele>197</ele>
        <time>2017-06-02T08:27:35Z</time>
      </trkpt>
      <trkpt lat="45.96124" lon="4.77783">
        <ele>197</ele>
        <time>2017-06-02T08:27:36Z</time>
      </trkpt>
      <trkpt lat="45.96128" lon="4.77792">
        <ele>197</ele>
        <time>2017-06-02T08:27:38Z</time>
      </trkpt>
      <trkpt lat="45.96131" lon="4.77796">
        <ele>197</ele>
        <time>2017-06-02T08:27:39Z</time>
      </trkpt>
      <trkpt lat="45.96136" lon="4.77805">
        <ele>197</ele>
        <time>2017-06-02T08:27:41Z</time>
      </trkpt>
      <trkpt lat="45.96139" lon="4.7781">
        <ele>198</ele>
        <time>2017-06-02T08:27:42Z</time>
      </trkpt>
      <trkpt lat="45.96144" lon="4.77819">
        <ele>198</ele>
        <time>2017-06-02T08:27:44Z</time>
      </trkpt>
      <trkpt lat="45.96147" lon="4.77824">
        <ele>198</ele>
        <time>2017-06-02T08:27:45Z</time>
      </trkpt>
      <trkpt lat="45.96152" lon="4.77835">
        <ele>197</ele>
        <time>2017-06-02T08:27:47Z</time>
      </trkpt>
      <trkpt lat="45.96155" lon="4.7784">
        <ele>197</ele>
        <time>2017-06-02T08:27:48Z</time>
      </trkpt>
      <trkpt lat="45.96158" lon="4.77845">
        <ele>197</ele>
        <time>2017-06-02T08:27:49Z</time>
      </trkpt>
      <trkpt lat="45.96161" lon="4.7785">
        <ele>196</ele>
        <time>2017-06-02T08:27:50Z</time>
      </trkpt>
      <trkpt lat="45.96164" lon="4.77855">
        <ele>196</ele>
        <time>2017-06-02T08:27:51Z</time>
      </trkpt>
      <trkpt lat="45.96168" lon="4.7786">
        <ele>201</ele>
        <time>2017-06-02T08:27:52Z</time>
      </trkpt>
      <trkpt lat="45.96171" lon="4.77866">
        <ele>201</ele>
        <time>2017-06-02T08:27:53Z</time>
      </trkpt>
      <trkpt lat="45.96174" lon="4.77871">
        <ele>201</ele>
        <time>2017-06-02T08:27:54Z</time>
      </trkpt>
      <trkpt lat="45.96178" lon="4.77876">
        <ele>201</ele>
        <time>2017-06-02T08:27:55Z</time>
      </trkpt>
      <trkpt lat="45.96181" lon="4.77881">
        <ele>201</ele>
        <time>2017-06-02T08:27:56Z</time>
      </trkpt>
      <trkpt lat="45.96185" lon="4.7789">
        <ele>201</ele>
        <time>2017-06-02T08:27:58Z</time>
      </trkpt>
      <trkpt lat="45.96188" lon="4.77895">
        <ele>200</ele>
        <time>2017-06-02T08:27:59Z</time>
      </trkpt>
      <trkpt lat="45.96194" lon="4.77904">
        <ele>201</ele>
        <time>2017-06-02T08:28:01Z</time>
      </trkpt>
      <trkpt lat="45.96197" lon="4.77909">
        <ele>201</ele>
        <time>2017-06-02T08:28:02Z</time>
      </trkpt>
      <trkpt lat="45.962" lon="4.77913">
        <ele>201</ele>
        <time>2017-06-02T08:28:03Z</time>
      </trkpt>
      <trkpt lat="45.96203" lon="4.77918">
        <ele>198</ele>
        <time>2017-06-02T08:28:04Z</time>
      </trkpt>
      <trkpt lat="45.96207" lon="4.77924">
        <ele>199</ele>
        <time>2017-06-02T08:28:05Z</time>
      </trkpt>
      <trkpt lat="45.96211" lon="4.77929">
        <ele>199</ele>
        <time>2017-06-02T08:28:06Z</time>
      </trkpt>
      <trkpt lat="45.96214" lon="4.77934">
        <ele>199</ele>
        <time>2017-06-02T08:28:07Z</time>
      </trkpt>
      <trkpt lat="45.96218" lon="4.7794">
        <ele>199</ele>
        <time>2017-06-02T08:28:08Z</time>
      </trkpt>
      <trkpt lat="45.96221" lon="4.77945">
        <ele>199</ele>
        <time>2017-06-02T08:28:09Z</time>
      </trkpt>
      <trkpt lat="45.96224" lon="4.7795">
        <ele>199</ele>
        <time>2017-06-02T08:28:10Z</time>
      </trkpt>
      <trkpt lat="45.96228" lon="4.77954">
        <ele>199</ele>
        <time>2017-06-02T08:28:11Z</time>
      </trkpt>
      <trkpt lat="45.96232" lon="4.77958">
        <ele>199</ele>
        <time>2017-06-02T08:28:12Z</time>
      </trkpt>
      <trkpt lat="45.96236" lon="4.77962">
        <ele>199</ele>
        <time>2017-06-02T08:28:13Z</time>
      </trkpt>
      <trkpt lat="45.9624" lon="4.77966">
        <ele>199</ele>
        <time>2017-06-02T08:28:14Z</time>
      </trkpt>
      <trkpt lat="45.96244" lon="4.7797">
        <ele>198</ele>
        <time>2017-06-02T08:28:15Z</time>
      </trkpt>
      <trkpt lat="45.96248" lon="4.77973">
        <ele>198</ele>
        <time>2017-06-02T08:28:16Z</time>
      </trkpt>
      <trkpt lat="45.96252" lon="4.77978">
        <ele>202</ele>
        <time>2017-06-02T08:28:17Z</time>
      </trkpt>
      <trkpt lat="45.96256" lon="4.77982">
        <ele>201</ele>
        <time>2017-06-02T08:28:18Z</time>
      </trkpt>
      <trkpt lat="45.9626" lon="4.77986">
        <ele>201</ele>
        <time>2017-06-02T08:28:19Z</time>
      </trkpt>
      <trkpt lat="45.96264" lon="4.77989">
        <ele>201</ele>
        <time>2017-06-02T08:28:20Z</time>
      </trkpt>
      <trkpt lat="45.96268" lon="4.77993">
        <ele>201</ele>
        <time>2017-06-02T08:28:21Z</time>
      </trkpt>
      <trkpt lat="45.96273" lon="4.77996">
        <ele>202</ele>
        <time>2017-06-02T08:28:22Z</time>
      </trkpt>
      <trkpt lat="45.96279" lon="4.78">
        <ele>198</ele>
        <time>2017-06-02T08:28:23Z</time>
      </trkpt>
      <trkpt lat="45.96283" lon="4.78004">
        <ele>198</ele>
        <time>2017-06-02T08:28:24Z</time>
      </trkpt>
      <trkpt lat="45.96287" lon="4.78009">
        <ele>199</ele>
        <time>2017-06-02T08:28:25Z</time>
      </trkpt>
      <trkpt lat="45.96292" lon="4.78013">
        <ele>199</ele>
        <time>2017-06-02T08:28:26Z</time>
      </trkpt>
      <trkpt lat="45.96297" lon="4.78017">
        <ele>199</ele>
        <time>2017-06-02T08:28:27Z</time>
      </trkpt>
      <trkpt lat="45.96301" lon="4.78022">
        <ele>199</ele>
        <time>2017-06-02T08:28:28Z</time>
      </trkpt>
      <trkpt lat="45.96305" lon="4.78027">
        <ele>199</ele>
        <time>2017-06-02T08:28:29Z</time>
      </trkpt>
      <trkpt lat="45.96309" lon="4.78032">
        <ele>199</ele>
        <time>2017-06-02T08:28:30Z</time>
      </trkpt>
      <trkpt lat="45.96313" lon="4.78037">
        <ele>199</ele>
        <time>2017-06-02T08:28:31Z</time>
      </trkpt>
      <trkpt lat="45.96317" lon="4.78041">
        <ele>199</ele>
        <time>2017-06-02T08:28:32Z</time>
      </trkpt>
      <trkpt lat="45.96322" lon="4.78046">
        <ele>199</ele>
        <time>2017-06-02T08:28:33Z</time>
      </trkpt>
      <trkpt lat="45.96326" lon="4.7805">
        <ele>199</ele>
        <time>2017-06-02T08:28:34Z</time>
      </trkpt>
      <trkpt lat="45.9633" lon="4.78055">
        <ele>199</ele>
        <time>2017-06-02T08:28:35Z</time>
      </trkpt>
      <trkpt lat="45.96335" lon="4.78059">
        <ele>202</ele>
        <time>2017-06-02T08:28:36Z</time>
      </trkpt>
      <trkpt lat="45.96341" lon="4.78067">
        <ele>201</ele>
        <time>2017-06-02T08:28:38Z</time>
      </trkpt>
      <trkpt lat="45.96344" lon="4.78071">
        <ele>201</ele>
        <time>2017-06-02T08:28:39Z</time>
      </trkpt>
      <trkpt lat="45.96348" lon="4.78075">
        <ele>201</ele>
        <time>2017-06-02T08:28:40Z</time>
      </trkpt>
      <trkpt lat="45.96351" lon="4.78079">
        <ele>201</ele>
        <time>2017-06-02T08:28:41Z</time>
      </trkpt>
      <trkpt lat="45.96355" lon="4.78084">
        <ele>199</ele>
        <time>2017-06-02T08:28:42Z</time>
      </trkpt>
      <trkpt lat="45.96359" lon="4.78088">
        <ele>199</ele>
        <time>2017-06-02T08:28:43Z</time>
      </trkpt>
      <trkpt lat="45.96363" lon="4.78092">
        <ele>199</ele>
        <time>2017-06-02T08:28:44Z</time>
      </trkpt>
      <trkpt lat="45.96368" lon="4.78097">
        <ele>199</ele>
        <time>2017-06-02T08:28:45Z</time>
      </trkpt>
      <trkpt lat="45.96372" lon="4.78101">
        <ele>199</ele>
        <time>2017-06-02T08:28:46Z</time>
      </trkpt>
      <trkpt lat="45.96376" lon="4.78105">
        <ele>199</ele>
        <time>2017-06-02T08:28:47Z</time>
      </trkpt>
      <trkpt lat="45.9638" lon="4.7811">
        <ele>200</ele>
        <time>2017-06-02T08:28:48Z</time>
      </trkpt>
      <trkpt lat="45.96384" lon="4.78116">
        <ele>199</ele>
        <time>2017-06-02T08:28:49Z</time>
      </trkpt>
      <trkpt lat="45.96388" lon="4.7812">
        <ele>199</ele>
        <time>2017-06-02T08:28:50Z</time>
      </trkpt>
      <trkpt lat="45.96392" lon="4.78125">
        <ele>199</ele>
        <time>2017-06-02T08:28:51Z</time>
      </trkpt>
      <trkpt lat="45.96399" lon="4.78131">
        <ele>199</ele>
        <time>2017-06-02T08:28:53Z</time>
      </trkpt>
      <trkpt lat="45.96403" lon="4.78135">
        <ele>199</ele>
        <time>2017-06-02T08:28:54Z</time>
      </trkpt>
      <trkpt lat="45.96407" lon="4.78139">
        <ele>199</ele>
        <time>2017-06-02T08:28:55Z</time>
      </trkpt>
      <trkpt lat="45.96411" lon="4.78144">
        <ele>199</ele>
        <time>2017-06-02T08:28:56Z</time>
      </trkpt>
      <trkpt lat="45.96418" lon="4.78149">
        <ele>202</ele>
        <time>2017-06-02T08:28:57Z</time>
      </trkpt>
      <trkpt lat="45.96423" lon="4.78153">
        <ele>201</ele>
        <time>2017-06-02T08:28:58Z</time>
      </trkpt>
      <trkpt lat="45.96429" lon="4.78158">
        <ele>201</ele>
        <time>2017-06-02T08:28:59Z</time>
      </trkpt>
      <trkpt lat="45.96434" lon="4.78163">
        <ele>202</ele>
        <time>2017-06-02T08:29:00Z</time>
      </trkpt>
      <trkpt lat="45.96438" lon="4.78168">
        <ele>199</ele>
        <time>2017-06-02T08:29:01Z</time>
      </trkpt>
      <trkpt lat="45.96443" lon="4.78172">
        <ele>199</ele>
        <time>2017-06-02T08:29:02Z</time>
      </trkpt>
      <trkpt lat="45.96448" lon="4.78176">
        <ele>199</ele>
        <time>2017-06-02T08:29:03Z</time>
      </trkpt>
      <trkpt lat="45.96453" lon="4.7818">
        <ele>199</ele>
        <time>2017-06-02T08:29:04Z</time>
      </trkpt>
      <trkpt lat="45.96458" lon="4.78184">
        <ele>200</ele>
        <time>2017-06-02T08:29:05Z</time>
      </trkpt>
      <trkpt lat="45.96462" lon="4.78188">
        <ele>200</ele>
        <time>2017-06-02T08:29:06Z</time>
      </trkpt>
      <trkpt lat="45.96466" lon="4.78191">
        <ele>200</ele>
        <time>2017-06-02T08:29:07Z</time>
      </trkpt>
      <trkpt lat="45.96471" lon="4.78194">
        <ele>200</ele>
        <time>2017-06-02T08:29:08Z</time>
      </trkpt>
      <trkpt lat="45.96475" lon="4.78196">
        <ele>200</ele>
        <time>2017-06-02T08:29:09Z</time>
      </trkpt>
      <trkpt lat="45.9648" lon="4.78198">
        <ele>200</ele>
        <time>2017-06-02T08:29:10Z</time>
      </trkpt>
      <trkpt lat="45.96487" lon="4.78203">
        <ele>200</ele>
        <time>2017-06-02T08:29:12Z</time>
      </trkpt>
      <trkpt lat="45.96491" lon="4.78205">
        <ele>200</ele>
        <time>2017-06-02T08:29:13Z</time>
      </trkpt>
      <trkpt lat="45.96497" lon="4.78211">
        <ele>200</ele>
        <time>2017-06-02T08:29:15Z</time>
      </trkpt>
      <trkpt lat="45.965" lon="4.78215">
        <ele>204</ele>
        <time>2017-06-02T08:29:16Z</time>
      </trkpt>
      <trkpt lat="45.96506" lon="4.78224">
        <ele>204</ele>
        <time>2017-06-02T08:29:18Z</time>
      </trkpt>
      <trkpt lat="45.96509" lon="4.78229">
        <ele>203</ele>
        <time>2017-06-02T08:29:19Z</time>
      </trkpt>
      <trkpt lat="45.96512" lon="4.78235">
        <ele>203</ele>
        <time>2017-06-02T08:29:20Z</time>
      </trkpt>
      <trkpt lat="45.96515" lon="4.78241">
        <ele>202</ele>
        <time>2017-06-02T08:29:21Z</time>
      </trkpt>
      <trkpt lat="45.96518" lon="4.78246">
        <ele>202</ele>
        <time>2017-06-02T08:29:22Z</time>
      </trkpt>
      <trkpt lat="45.96521" lon="4.78252">
        <ele>199</ele>
        <time>2017-06-02T08:29:23Z</time>
      </trkpt>
      <trkpt lat="45.96527" lon="4.78261">
        <ele>200</ele>
        <time>2017-06-02T08:29:25Z</time>
      </trkpt>
      <trkpt lat="45.9653" lon="4.78265">
        <ele>200</ele>
        <time>2017-06-02T08:29:26Z</time>
      </trkpt>
      <trkpt lat="45.96537" lon="4.78274">
        <ele>200</ele>
        <time>2017-06-02T08:29:28Z</time>
      </trkpt>
      <trkpt lat="45.9654" lon="4.78279">
        <ele>200</ele>
        <time>2017-06-02T08:29:29Z</time>
      </trkpt>
      <trkpt lat="45.96543" lon="4.78284">
        <ele>200</ele>
        <time>2017-06-02T08:29:30Z</time>
      </trkpt>
      <trkpt lat="45.96547" lon="4.78289">
        <ele>200</ele>
        <time>2017-06-02T08:29:31Z</time>
      </trkpt>
      <trkpt lat="45.96551" lon="4.78294">
        <ele>200</ele>
        <time>2017-06-02T08:29:32Z</time>
      </trkpt>
      <trkpt lat="45.96555" lon="4.78298">
        <ele>200</ele>
        <time>2017-06-02T08:29:33Z</time>
      </trkpt>
      <trkpt lat="45.9656" lon="4.78303">
        <ele>200</ele>
        <time>2017-06-02T08:29:34Z</time>
      </trkpt>
      <trkpt lat="45.96564" lon="4.78307">
        <ele>200</ele>
        <time>2017-06-02T08:29:35Z</time>
      </trkpt>
      <trkpt lat="45.96568" lon="4.78311">
        <ele>199</ele>
        <time>2017-06-02T08:29:36Z</time>
      </trkpt>
      <trkpt lat="45.96572" lon="4.78315">
        <ele>199</ele>
        <time>2017-06-02T08:29:37Z</time>
      </trkpt>
      <trkpt lat="45.96576" lon="4.78319">
        <ele>199</ele>
        <time>2017-06-02T08:29:38Z</time>
      </trkpt>
      <trkpt lat="45.9658" lon="4.78323">
        <ele>199</ele>
        <time>2017-06-02T08:29:39Z</time>
      </trkpt>
      <trkpt lat="45.96587" lon="4.7833">
        <ele>200</ele>
        <time>2017-06-02T08:29:41Z</time>
      </trkpt>
      <trkpt lat="45.96591" lon="4.78334">
        <ele>199</ele>
        <time>2017-06-02T08:29:42Z</time>
      </trkpt>
      <trkpt lat="45.96598" lon="4.78341">
        <ele>199</ele>
        <time>2017-06-02T08:29:44Z</time>
      </trkpt>
      <trkpt lat="45.96602" lon="4.78344">
        <ele>200</ele>
        <time>2017-06-02T08:29:45Z</time>
      </trkpt>
      <trkpt lat="45.96606" lon="4.78347">
        <ele>200</ele>
        <time>2017-06-02T08:29:46Z</time>
      </trkpt>
      <trkpt lat="45.9661" lon="4.78351">
        <ele>200</ele>
        <time>2017-06-02T08:29:47Z</time>
      </trkpt>
      <trkpt lat="45.96617" lon="4.78357">
        <ele>201</ele>
        <time>2017-06-02T08:29:49Z</time>
      </trkpt>
      <trkpt lat="45.96621" lon="4.7836">
        <ele>201</ele>
        <time>2017-06-02T08:29:50Z</time>
      </trkpt>
      <trkpt lat="45.96625" lon="4.78363">
        <ele>201</ele>
        <time>2017-06-02T08:29:51Z</time>
      </trkpt>
      <trkpt lat="45.96629" lon="4.78367">
        <ele>201</ele>
        <time>2017-06-02T08:29:52Z</time>
      </trkpt>
      <trkpt lat="45.96633" lon="4.7837">
        <ele>201</ele>
        <time>2017-06-02T08:29:53Z</time>
      </trkpt>
      <trkpt lat="45.96637" lon="4.78374">
        <ele>201</ele>
        <time>2017-06-02T08:29:54Z</time>
      </trkpt>
      <trkpt lat="45.96641" lon="4.78379">
        <ele>201</ele>
        <time>2017-06-02T08:29:55Z</time>
      </trkpt>
      <trkpt lat="45.96646" lon="4.78383">
        <ele>201</ele>
        <time>2017-06-02T08:29:56Z</time>
      </trkpt>
      <trkpt lat="45.96651" lon="4.78387">
        <ele>201</ele>
        <time>2017-06-02T08:29:57Z</time>
      </trkpt>
      <trkpt lat="45.96657" lon="4.78392">
        <ele>201</ele>
        <time>2017-06-02T08:29:58Z</time>
      </trkpt>
      <trkpt lat="45.96661" lon="4.78397">
        <ele>201</ele>
        <time>2017-06-02T08:29:59Z</time>
      </trkpt>
      <trkpt lat="45.96666" lon="4.78401">
        <ele>201</ele>
        <time>2017-06-02T08:30:00Z</time>
      </trkpt>
      <trkpt lat="45.96669" lon="4.78405">
        <ele>203</ele>
        <time>2017-06-02T08:30:01Z</time>
      </trkpt>
      <trkpt lat="45.96673" lon="4.78409">
        <ele>203</ele>
        <time>2017-06-02T08:30:02Z</time>
      </trkpt>
      <trkpt lat="45.96677" lon="4.78413">
        <ele>203</ele>
        <time>2017-06-02T08:30:03Z</time>
      </trkpt>
      <trkpt lat="45.9668" lon="4.78417">
        <ele>202</ele>
        <time>2017-06-02T08:30:04Z</time>
      </trkpt>
      <trkpt lat="45.96687" lon="4.78425">
        <ele>202</ele>
        <time>2017-06-02T08:30:06Z</time>
      </trkpt>
      <trkpt lat="45.9669" lon="4.78428">
        <ele>202</ele>
        <time>2017-06-02T08:30:07Z</time>
      </trkpt>
      <trkpt lat="45.96696" lon="4.78433">
        <ele>203</ele>
        <time>2017-06-02T08:30:09Z</time>
      </trkpt>
      <trkpt lat="45.96699" lon="4.78436">
        <ele>203</ele>
        <time>2017-06-02T08:30:10Z</time>
      </trkpt>
      <trkpt lat="45.96705" lon="4.78442">
        <ele>203</ele>
        <time>2017-06-02T08:30:12Z</time>
      </trkpt>
      <trkpt lat="45.96708" lon="4.78446">
        <ele>203</ele>
        <time>2017-06-02T08:30:13Z</time>
      </trkpt>
      <trkpt lat="45.96712" lon="4.7845">
        <ele>203</ele>
        <time>2017-06-02T08:30:14Z</time>
      </trkpt>
      <trkpt lat="45.96715" lon="4.78454">
        <ele>203</ele>
        <time>2017-06-02T08:30:15Z</time>
      </trkpt>
      <trkpt lat="45.9672" lon="4.78458">
        <ele>203</ele>
        <time>2017-06-02T08:30:16Z</time>
      </trkpt>
      <trkpt lat="45.96724" lon="4.78462">
        <ele>203</ele>
        <time>2017-06-02T08:30:17Z</time>
      </trkpt>
      <trkpt lat="45.96729" lon="4.78466">
        <ele>203</ele>
        <time>2017-06-02T08:30:18Z</time>
      </trkpt>
      <trkpt lat="45.96734" lon="4.7847">
        <ele>203</ele>
        <time>2017-06-02T08:30:19Z</time>
      </trkpt>
      <trkpt lat="45.96738" lon="4.78475">
        <ele>203</ele>
        <time>2017-06-02T08:30:20Z</time>
      </trkpt>
      <trkpt lat="45.96743" lon="4.78479">
        <ele>203</ele>
        <time>2017-06-02T08:30:21Z</time>
      </trkpt>
      <trkpt lat="45.96748" lon="4.78483">
        <ele>203</ele>
        <time>2017-06-02T08:30:22Z</time>
      </trkpt>
      <trkpt lat="45.96753" lon="4.78487">
        <ele>204</ele>
        <time>2017-06-02T08:30:23Z</time>
      </trkpt>
      <trkpt lat="45.96757" lon="4.78491">
        <ele>204</ele>
        <time>2017-06-02T08:30:24Z</time>
      </trkpt>
      <trkpt lat="45.96761" lon="4.78497">
        <ele>204</ele>
        <time>2017-06-02T08:30:25Z</time>
      </trkpt>
      <trkpt lat="45.96764" lon="4.78502">
        <ele>203</ele>
        <time>2017-06-02T08:30:26Z</time>
      </trkpt>
      <trkpt lat="45.96768" lon="4.78507">
        <ele>203</ele>
        <time>2017-06-02T08:30:27Z</time>
      </trkpt>
      <trkpt lat="45.96774" lon="4.78515">
        <ele>203</ele>
        <time>2017-06-02T08:30:29Z</time>
      </trkpt>
      <trkpt lat="45.96777" lon="4.78521">
        <ele>203</ele>
        <time>2017-06-02T08:30:30Z</time>
      </trkpt>
      <trkpt lat="45.96781" lon="4.78527">
        <ele>203</ele>
        <time>2017-06-02T08:30:31Z</time>
      </trkpt>
      <trkpt lat="45.96784" lon="4.78531">
        <ele>203</ele>
        <time>2017-06-02T08:30:32Z</time>
      </trkpt>
      <trkpt lat="45.9679" lon="4.78541">
        <ele>203</ele>
        <time>2017-06-02T08:30:34Z</time>
      </trkpt>
      <trkpt lat="45.96793" lon="4.78545">
        <ele>203</ele>
        <time>2017-06-02T08:30:35Z</time>
      </trkpt>
      <trkpt lat="45.96798" lon="4.78555">
        <ele>203</ele>
        <time>2017-06-02T08:30:37Z</time>
      </trkpt>
      <trkpt lat="45.96801" lon="4.7856">
        <ele>203</ele>
        <time>2017-06-02T08:30:38Z</time>
      </trkpt>
      <trkpt lat="45.96807" lon="4.7857">
        <ele>203</ele>
        <time>2017-06-02T08:30:40Z</time>
      </trkpt>
      <trkpt lat="45.96809" lon="4.78574">
        <ele>203</ele>
        <time>2017-06-02T08:30:41Z</time>
      </trkpt>
      <trkpt lat="45.96815" lon="4.78582">
        <ele>203</ele>
        <time>2017-06-02T08:30:43Z</time>
      </trkpt>
      <trkpt lat="45.96818" lon="4.78586">
        <ele>202</ele>
        <time>2017-06-02T08:30:44Z</time>
      </trkpt>
      <trkpt lat="45.96823" lon="4.78595">
        <ele>202</ele>
        <time>2017-06-02T08:30:46Z</time>
      </trkpt>
      <trkpt lat="45.96825" lon="4.78601">
        <ele>202</ele>
        <time>2017-06-02T08:30:47Z</time>
      </trkpt>
      <trkpt lat="45.96826" lon="4.78608">
        <ele>202</ele>
        <time>2017-06-02T08:30:48Z</time>
      </trkpt>
      <trkpt lat="45.96828" lon="4.78614">
        <ele>202</ele>
        <time>2017-06-02T08:30:49Z</time>
      </trkpt>
      <trkpt lat="45.96831" lon="4.7862">
        <ele>201</ele>
        <time>2017-06-02T08:30:50Z</time>
      </trkpt>
      <trkpt lat="45.96833" lon="4.78626">
        <ele>201</ele>
        <time>2017-06-02T08:30:51Z</time>
      </trkpt>
      <trkpt lat="45.96835" lon="4.78632">
        <ele>203</ele>
        <time>2017-06-02T08:30:52Z</time>
      </trkpt>
      <trkpt lat="45.96837" lon="4.78638">
        <ele>203</ele>
        <time>2017-06-02T08:30:53Z</time>
      </trkpt>
      <trkpt lat="45.96839" lon="4.78644">
        <ele>203</ele>
        <time>2017-06-02T08:30:54Z</time>
      </trkpt>
      <trkpt lat="45.96841" lon="4.78649">
        <ele>203</ele>
        <time>2017-06-02T08:30:55Z</time>
      </trkpt>
      <trkpt lat="45.96846" lon="4.78661">
        <ele>202</ele>
        <time>2017-06-02T08:30:57Z</time>
      </trkpt>
      <trkpt lat="45.96848" lon="4.78666">
        <ele>202</ele>
        <time>2017-06-02T08:30:58Z</time>
      </trkpt>
      <trkpt lat="45.96852" lon="4.78676">
        <ele>202</ele>
        <time>2017-06-02T08:31:00Z</time>
      </trkpt>
      <trkpt lat="45.96857" lon="4.78679">
        <ele>202</ele>
        <time>2017-06-02T08:31:01Z</time>
      </trkpt>
      <trkpt lat="45.96859" lon="4.78684">
        <ele>202</ele>
        <time>2017-06-02T08:31:02Z</time>
      </trkpt>
      <trkpt lat="45.96862" lon="4.78689">
        <ele>202</ele>
        <time>2017-06-02T08:31:03Z</time>
      </trkpt>
      <trkpt lat="45.96865" lon="4.78695">
        <ele>202</ele>
        <time>2017-06-02T08:31:04Z</time>
      </trkpt>
      <trkpt lat="45.96868" lon="4.78701">
        <ele>202</ele>
        <time>2017-06-02T08:31:05Z</time>
      </trkpt>
      <trkpt lat="45.96871" lon="4.78706">
        <ele>202</ele>
        <time>2017-06-02T08:31:06Z</time>
      </trkpt>
      <trkpt lat="45.96874" lon="4.78711">
        <ele>202</ele>
        <time>2017-06-02T08:31:07Z</time>
      </trkpt>
      <trkpt lat="45.96878" lon="4.78721">
        <ele>202</ele>
        <time>2017-06-02T08:31:09Z</time>
      </trkpt>
      <trkpt lat="45.96881" lon="4.78725">
        <ele>202</ele>
        <time>2017-06-02T08:31:10Z</time>
      </trkpt>
      <trkpt lat="45.96885" lon="4.78736">
        <ele>202</ele>
        <time>2017-06-02T08:31:12Z</time>
      </trkpt>
      <trkpt lat="45.96888" lon="4.78741">
        <ele>202</ele>
        <time>2017-06-02T08:31:13Z</time>
      </trkpt>
      <trkpt lat="45.96893" lon="4.78752">
        <ele>201</ele>
        <time>2017-06-02T08:31:15Z</time>
      </trkpt>
      <trkpt lat="45.96895" lon="4.78757">
        <ele>201</ele>
        <time>2017-06-02T08:31:16Z</time>
      </trkpt>
      <trkpt lat="45.96897" lon="4.78763">
        <ele>201</ele>
        <time>2017-06-02T08:31:17Z</time>
      </trkpt>
      <trkpt lat="45.969" lon="4.78769">
        <ele>201</ele>
        <time>2017-06-02T08:31:18Z</time>
      </trkpt>
      <trkpt lat="45.96903" lon="4.78774">
        <ele>201</ele>
        <time>2017-06-02T08:31:19Z</time>
      </trkpt>
      <trkpt lat="45.96905" lon="4.78781">
        <ele>201</ele>
        <time>2017-06-02T08:31:20Z</time>
      </trkpt>
      <trkpt lat="45.96907" lon="4.78787">
        <ele>201</ele>
        <time>2017-06-02T08:31:21Z</time>
      </trkpt>
      <trkpt lat="45.9691" lon="4.78792">
        <ele>201</ele>
        <time>2017-06-02T08:31:22Z</time>
      </trkpt>
      <trkpt lat="45.96912" lon="4.78798">
        <ele>201</ele>
        <time>2017-06-02T08:31:23Z</time>
      </trkpt>
      <trkpt lat="45.96915" lon="4.78803">
        <ele>200</ele>
        <time>2017-06-02T08:31:24Z</time>
      </trkpt>
      <trkpt lat="45.96918" lon="4.78809">
        <ele>202</ele>
        <time>2017-06-02T08:31:25Z</time>
      </trkpt>
      <trkpt lat="45.96921" lon="4.78814">
        <ele>202</ele>
        <time>2017-06-02T08:31:26Z</time>
      </trkpt>
      <trkpt lat="45.96925" lon="4.7882">
        <ele>202</ele>
        <time>2017-06-02T08:31:27Z</time>
      </trkpt>
      <trkpt lat="45.96928" lon="4.78825">
        <ele>202</ele>
        <time>2017-06-02T08:31:28Z</time>
      </trkpt>
      <trkpt lat="45.96931" lon="4.7883">
        <ele>202</ele>
        <time>2017-06-02T08:31:29Z</time>
      </trkpt>
      <trkpt lat="45.96934" lon="4.78834">
        <ele>202</ele>
        <time>2017-06-02T08:31:30Z</time>
      </trkpt>
      <trkpt lat="45.9694" lon="4.78842">
        <ele>202</ele>
        <time>2017-06-02T08:31:32Z</time>
      </trkpt>
      <trkpt lat="45.96944" lon="4.78846">
        <ele>202</ele>
        <time>2017-06-02T08:31:33Z</time>
      </trkpt>
      <trkpt lat="45.9695" lon="4.78854">
        <ele>202</ele>
        <time>2017-06-02T08:31:35Z</time>
      </trkpt>
      <trkpt lat="45.96953" lon="4.78858">
        <ele>203</ele>
        <time>2017-06-02T08:31:36Z</time>
      </trkpt>
      <trkpt lat="45.9696" lon="4.78865">
        <ele>203</ele>
        <time>2017-06-02T08:31:38Z</time>
      </trkpt>
      <trkpt lat="45.96964" lon="4.78869">
        <ele>203</ele>
        <time>2017-06-02T08:31:39Z</time>
      </trkpt>
      <trkpt lat="45.96968" lon="4.78873">
        <ele>203</ele>
        <time>2017-06-02T08:31:40Z</time>
      </trkpt>
      <trkpt lat="45.96971" lon="4.78878">
        <ele>203</ele>
        <time>2017-06-02T08:31:41Z</time>
      </trkpt>
      <trkpt lat="45.96975" lon="4.78882">
        <ele>203</ele>
        <time>2017-06-02T08:31:42Z</time>
      </trkpt>
      <trkpt lat="45.96978" lon="4.78887">
        <ele>203</ele>
        <time>2017-06-02T08:31:43Z</time>
      </trkpt>
      <trkpt lat="45.96984" lon="4.78895">
        <ele>203</ele>
        <time>2017-06-02T08:31:45Z</time>
      </trkpt>
      <trkpt lat="45.96988" lon="4.78899">
        <ele>203</ele>
        <time>2017-06-02T08:31:46Z</time>
      </trkpt>
      <trkpt lat="45.96991" lon="4.78903">
        <ele>203</ele>
        <time>2017-06-02T08:31:47Z</time>
      </trkpt>
      <trkpt lat="45.96995" lon="4.78907">
        <ele>204</ele>
        <time>2017-06-02T08:31:48Z</time>
      </trkpt>
      <trkpt lat="45.96998" lon="4.78912">
        <ele>204</ele>
        <time>2017-06-02T08:31:49Z</time>
      </trkpt>
      <trkpt lat="45.97002" lon="4.78916">
        <ele>204</ele>
        <time>2017-06-02T08:31:50Z</time>
      </trkpt>
      <trkpt lat="45.97006" lon="4.78921">
        <ele>204</ele>
        <time>2017-06-02T08:31:51Z</time>
      </trkpt>
      <trkpt lat="45.9701" lon="4.78927">
        <ele>204</ele>
        <time>2017-06-02T08:31:52Z</time>
      </trkpt>
      <trkpt lat="45.97014" lon="4.78932">
        <ele>205</ele>
        <time>2017-06-02T08:31:53Z</time>
      </trkpt>
      <trkpt lat="45.97018" lon="4.78937">
        <ele>205</ele>
        <time>2017-06-02T08:31:54Z</time>
      </trkpt>
      <trkpt lat="45.97021" lon="4.78942">
        <ele>205</ele>
        <time>2017-06-02T08:31:55Z</time>
      </trkpt>
      <trkpt lat="45.97024" lon="4.78947">
        <ele>205</ele>
        <time>2017-06-02T08:31:56Z</time>
      </trkpt>
      <trkpt lat="45.9703" lon="4.78956">
        <ele>205</ele>
        <time>2017-06-02T08:31:58Z</time>
      </trkpt>
      <trkpt lat="45.97033" lon="4.78961">
        <ele>205</ele>
        <time>2017-06-02T08:31:59Z</time>
      </trkpt>
      <trkpt lat="45.97039" lon="4.7897">
        <ele>205</ele>
        <time>2017-06-02T08:32:01Z</time>
      </trkpt>
      <trkpt lat="45.97041" lon="4.78975">
        <ele>205</ele>
        <time>2017-06-02T08:32:02Z</time>
      </trkpt>
      <trkpt lat="45.97045" lon="4.78987">
        <ele>204</ele>
        <time>2017-06-02T08:32:04Z</time>
      </trkpt>
      <trkpt lat="45.97046" lon="4.78992">
        <ele>204</ele>
        <time>2017-06-02T08:32:05Z</time>
      </trkpt>
      <trkpt lat="45.9705" lon="4.79002">
        <ele>203</ele>
        <time>2017-06-02T08:32:07Z</time>
      </trkpt>
      <trkpt lat="45.97051" lon="4.79008">
        <ele>203</ele>
        <time>2017-06-02T08:32:08Z</time>
      </trkpt>
      <trkpt lat="45.97053" lon="4.79014">
        <ele>203</ele>
        <time>2017-06-02T08:32:09Z</time>
      </trkpt>
      <trkpt lat="45.97055" lon="4.7902">
        <ele>203</ele>
        <time>2017-06-02T08:32:10Z</time>
      </trkpt>
      <trkpt lat="45.97057" lon="4.79026">
        <ele>203</ele>
        <time>2017-06-02T08:32:11Z</time>
      </trkpt>
      <trkpt lat="45.97059" lon="4.79032">
        <ele>203</ele>
        <time>2017-06-02T08:32:12Z</time>
      </trkpt>
      <trkpt lat="45.97061" lon="4.79039">
        <ele>203</ele>
        <time>2017-06-02T08:32:13Z</time>
      </trkpt>
      <trkpt lat="45.97063" lon="4.79045">
        <ele>203</ele>
        <time>2017-06-02T08:32:14Z</time>
      </trkpt>
      <trkpt lat="45.97065" lon="4.79051">
        <ele>203</ele>
        <time>2017-06-02T08:32:15Z</time>
      </trkpt>
      <trkpt lat="45.97068" lon="4.79057">
        <ele>203</ele>
        <time>2017-06-02T08:32:16Z</time>
      </trkpt>
      <trkpt lat="45.9707" lon="4.79063">
        <ele>203</ele>
        <time>2017-06-02T08:32:17Z</time>
      </trkpt>
      <trkpt lat="45.97072" lon="4.79071">
        <ele>204</ele>
        <time>2017-06-02T08:32:18Z</time>
      </trkpt>
      <trkpt lat="45.97074" lon="4.79077">
        <ele>204</ele>
        <time>2017-06-02T08:32:19Z</time>
      </trkpt>
      <trkpt lat="45.97076" lon="4.79084">
        <ele>204</ele>
        <time>2017-06-02T08:32:20Z</time>
      </trkpt>
      <trkpt lat="45.97078" lon="4.79091">
        <ele>204</ele>
        <time>2017-06-02T08:32:21Z</time>
      </trkpt>
      <trkpt lat="45.97079" lon="4.79098">
        <ele>204</ele>
        <time>2017-06-02T08:32:22Z</time>
      </trkpt>
      <trkpt lat="45.9708" lon="4.79105">
        <ele>204</ele>
        <time>2017-06-02T08:32:23Z</time>
      </trkpt>
      <trkpt lat="45.97081" lon="4.79112">
        <ele>204</ele>
        <time>2017-06-02T08:32:24Z</time>
      </trkpt>
      <trkpt lat="45.97084" lon="4.79119">
        <ele>206</ele>
        <time>2017-06-02T08:32:25Z</time>
      </trkpt>
      <trkpt lat="45.97086" lon="4.79124">
        <ele>206</ele>
        <time>2017-06-02T08:32:26Z</time>
      </trkpt>
      <trkpt lat="45.97089" lon="4.7913">
        <ele>206</ele>
        <time>2017-06-02T08:32:27Z</time>
      </trkpt>
      <trkpt lat="45.97092" lon="4.79136">
        <ele>206</ele>
        <time>2017-06-02T08:32:28Z</time>
      </trkpt>
      <trkpt lat="45.97095" lon="4.79142">
        <ele>206</ele>
        <time>2017-06-02T08:32:29Z</time>
      </trkpt>
      <trkpt lat="45.97098" lon="4.79147">
        <ele>206</ele>
        <time>2017-06-02T08:32:30Z</time>
      </trkpt>
      <trkpt lat="45.97101" lon="4.79153">
        <ele>206</ele>
        <time>2017-06-02T08:32:31Z</time>
      </trkpt>
      <trkpt lat="45.97105" lon="4.79158">
        <ele>206</ele>
        <time>2017-06-02T08:32:32Z</time>
      </trkpt>
      <trkpt lat="45.97108" lon="4.79165">
        <ele>206</ele>
        <time>2017-06-02T08:32:33Z</time>
      </trkpt>
      <trkpt lat="45.97111" lon="4.79172">
        <ele>205</ele>
        <time>2017-06-02T08:32:34Z</time>
      </trkpt>
      <trkpt lat="45.97114" lon="4.79179">
        <ele>205</ele>
        <time>2017-06-02T08:32:35Z</time>
      </trkpt>
      <trkpt lat="45.97117" lon="4.79186">
        <ele>206</ele>
        <time>2017-06-02T08:32:36Z</time>
      </trkpt>
      <trkpt lat="45.9712" lon="4.79193">
        <ele>206</ele>
        <time>2017-06-02T08:32:37Z</time>
      </trkpt>
      <trkpt lat="45.97124" lon="4.792">
        <ele>206</ele>
        <time>2017-06-02T08:32:38Z</time>
      </trkpt>
      <trkpt lat="45.97127" lon="4.79207">
        <ele>206</ele>
        <time>2017-06-02T08:32:39Z</time>
      </trkpt>
      <trkpt lat="45.9713" lon="4.79214">
        <ele>205</ele>
        <time>2017-06-02T08:32:40Z</time>
      </trkpt>
      <trkpt lat="45.97133" lon="4.79221">
        <ele>205</ele>
        <time>2017-06-02T08:32:41Z</time>
      </trkpt>
      <trkpt lat="45.97135" lon="4.79228">
        <ele>205</ele>
        <time>2017-06-02T08:32:42Z</time>
      </trkpt>
      <trkpt lat="45.97138" lon="4.79235">
        <ele>205</ele>
        <time>2017-06-02T08:32:43Z</time>
      </trkpt>
      <trkpt lat="45.97141" lon="4.79241">
        <ele>205</ele>
        <time>2017-06-02T08:32:44Z</time>
      </trkpt>
      <trkpt lat="45.97144" lon="4.79247">
        <ele>205</ele>
        <time>2017-06-02T08:32:45Z</time>
      </trkpt>
      <trkpt lat="45.97146" lon="4.79252">
        <ele>204</ele>
        <time>2017-06-02T08:32:46Z</time>
      </trkpt>
      <trkpt lat="45.9715" lon="4.79263">
        <ele>204</ele>
        <time>2017-06-02T08:32:48Z</time>
      </trkpt>
      <trkpt lat="45.97151" lon="4.79268">
        <ele>204</ele>
        <time>2017-06-02T08:32:49Z</time>
      </trkpt>
      <trkpt lat="45.97153" lon="4.79273">
        <ele>204</ele>
        <time>2017-06-02T08:32:50Z</time>
      </trkpt>
      <trkpt lat="45.97155" lon="4.79279">
        <ele>204</ele>
        <time>2017-06-02T08:32:51Z</time>
      </trkpt>
      <trkpt lat="45.97158" lon="4.79286">
        <ele>204</ele>
        <time>2017-06-02T08:32:52Z</time>
      </trkpt>
      <trkpt lat="45.9716" lon="4.79293">
        <ele>204</ele>
        <time>2017-06-02T08:32:53Z</time>
      </trkpt>
      <trkpt lat="45.97162" lon="4.793">
        <ele>204</ele>
        <time>2017-06-02T08:32:54Z</time>
      </trkpt>
      <trkpt lat="45.97165" lon="4.79307">
        <ele>204</ele>
        <time>2017-06-02T08:32:55Z</time>
      </trkpt>
      <trkpt lat="45.97168" lon="4.79314">
        <ele>207</ele>
        <time>2017-06-02T08:32:56Z</time>
      </trkpt>
      <trkpt lat="45.97172" lon="4.79322">
        <ele>206</ele>
        <time>2017-06-02T08:32:57Z</time>
      </trkpt>
      <trkpt lat="45.97175" lon="4.7933">
        <ele>206</ele>
        <time>2017-06-02T08:32:58Z</time>
      </trkpt>
      <trkpt lat="45.97178" lon="4.79337">
        <ele>206</ele>
        <time>2017-06-02T08:32:59Z</time>
      </trkpt>
      <trkpt lat="45.97181" lon="4.79344">
        <ele>206</ele>
        <time>2017-06-02T08:33:00Z</time>
      </trkpt>
      <trkpt lat="45.97184" lon="4.79351">
        <ele>207</ele>
        <time>2017-06-02T08:33:01Z</time>
      </trkpt>
      <trkpt lat="45.97187" lon="4.79358">
        <ele>207</ele>
        <time>2017-06-02T08:33:02Z</time>
      </trkpt>
      <trkpt lat="45.9719" lon="4.79364">
        <ele>207</ele>
        <time>2017-06-02T08:33:03Z</time>
      </trkpt>
      <trkpt lat="45.97192" lon="4.79371">
        <ele>207</ele>
        <time>2017-06-02T08:33:04Z</time>
      </trkpt>
      <trkpt lat="45.97195" lon="4.79377">
        <ele>207</ele>
        <time>2017-06-02T08:33:05Z</time>
      </trkpt>
      <trkpt lat="45.97197" lon="4.79383">
        <ele>207</ele>
        <time>2017-06-02T08:33:06Z</time>
      </trkpt>
      <trkpt lat="45.972" lon="4.79389">
        <ele>207</ele>
        <time>2017-06-02T08:33:07Z</time>
      </trkpt>
      <trkpt lat="45.97205" lon="4.79399">
        <ele>208</ele>
        <time>2017-06-02T08:33:09Z</time>
      </trkpt>
      <trkpt lat="45.97207" lon="4.79404">
        <ele>208</ele>
        <time>2017-06-02T08:33:10Z</time>
      </trkpt>
      <trkpt lat="45.97211" lon="4.79415">
        <ele>208</ele>
        <time>2017-06-02T08:33:12Z</time>
      </trkpt>
      <trkpt lat="45.97213" lon="4.7942">
        <ele>208</ele>
        <time>2017-06-02T08:33:13Z</time>
      </trkpt>
      <trkpt lat="45.97217" lon="4.7943">
        <ele>208</ele>
        <time>2017-06-02T08:33:15Z</time>
      </trkpt>
      <trkpt lat="45.97219" lon="4.79434">
        <ele>208</ele>
        <time>2017-06-02T08:33:16Z</time>
      </trkpt>
      <trkpt lat="45.97223" lon="4.79443">
        <ele>209</ele>
        <time>2017-06-02T08:33:18Z</time>
      </trkpt>
      <trkpt lat="45.97225" lon="4.79447">
        <ele>209</ele>
        <time>2017-06-02T08:33:19Z</time>
      </trkpt>
      <trkpt lat="45.97229" lon="4.79458">
        <ele>209</ele>
        <time>2017-06-02T08:33:21Z</time>
      </trkpt>
      <trkpt lat="45.97231" lon="4.79464">
        <ele>209</ele>
        <time>2017-06-02T08:33:22Z</time>
      </trkpt>
      <trkpt lat="45.97232" lon="4.7947">
        <ele>209</ele>
        <time>2017-06-02T08:33:23Z</time>
      </trkpt>
      <trkpt lat="45.97234" lon="4.79476">
        <ele>209</ele>
        <time>2017-06-02T08:33:24Z</time>
      </trkpt>
      <trkpt lat="45.97236" lon="4.79483">
        <ele>209</ele>
        <time>2017-06-02T08:33:25Z</time>
      </trkpt>
      <trkpt lat="45.97237" lon="4.79491">
        <ele>210</ele>
        <time>2017-06-02T08:33:26Z</time>
      </trkpt>
      <trkpt lat="45.97239" lon="4.79498">
        <ele>210</ele>
        <time>2017-06-02T08:33:27Z</time>
      </trkpt>
      <trkpt lat="45.97241" lon="4.79506">
        <ele>210</ele>
        <time>2017-06-02T08:33:28Z</time>
      </trkpt>
      <trkpt lat="45.97242" lon="4.79514">
        <ele>210</ele>
        <time>2017-06-02T08:33:29Z</time>
      </trkpt>
      <trkpt lat="45.97244" lon="4.79522">
        <ele>210</ele>
        <time>2017-06-02T08:33:30Z</time>
      </trkpt>
      <trkpt lat="45.97245" lon="4.79529">
        <ele>210</ele>
        <time>2017-06-02T08:33:31Z</time>
      </trkpt>
      <trkpt lat="45.97246" lon="4.79536">
        <ele>210</ele>
        <time>2017-06-02T08:33:32Z</time>
      </trkpt>
      <trkpt lat="45.97247" lon="4.79543">
        <ele>210</ele>
        <time>2017-06-02T08:33:33Z</time>
      </trkpt>
      <trkpt lat="45.97248" lon="4.7955">
        <ele>210</ele>
        <time>2017-06-02T08:33:34Z</time>
      </trkpt>
      <trkpt lat="45.97249" lon="4.79562">
        <ele>210</ele>
        <time>2017-06-02T08:33:36Z</time>
      </trkpt>
      <trkpt lat="45.97251" lon="4.79569">
        <ele>212</ele>
        <time>2017-06-02T08:33:37Z</time>
      </trkpt>
      <trkpt lat="45.97253" lon="4.79581">
        <ele>211</ele>
        <time>2017-06-02T08:33:39Z</time>
      </trkpt>
      <trkpt lat="45.97253" lon="4.79588">
        <ele>211</ele>
        <time>2017-06-02T08:33:40Z</time>
      </trkpt>
      <trkpt lat="45.97251" lon="4.796">
        <ele>212</ele>
        <time>2017-06-02T08:33:42Z</time>
      </trkpt>
      <trkpt lat="45.9725" lon="4.79606">
        <ele>212</ele>
        <time>2017-06-02T08:33:43Z</time>
      </trkpt>
      <trkpt lat="45.97251" lon="4.79619">
        <ele>213</ele>
        <time>2017-06-02T08:33:45Z</time>
      </trkpt>
      <trkpt lat="45.97251" lon="4.79625">
        <ele>213</ele>
        <time>2017-06-02T08:33:46Z</time>
      </trkpt>
      <trkpt lat="45.97251" lon="4.79632">
        <ele>213</ele>
        <time>2017-06-02T08:33:47Z</time>
      </trkpt>
      <trkpt lat="45.97251" lon="4.79639">
        <ele>212</ele>
        <time>2017-06-02T08:33:48Z</time>
      </trkpt>
      <trkpt lat="45.97252" lon="4.79652">
        <ele>211</ele>
        <time>2017-06-02T08:33:50Z</time>
      </trkpt>
      <trkpt lat="45.97253" lon="4.79658">
        <ele>210</ele>
        <time>2017-06-02T08:33:51Z</time>
      </trkpt>
      <trkpt lat="45.97252" lon="4.79664">
        <ele>209</ele>
        <time>2017-06-02T08:33:52Z</time>
      </trkpt>
      <trkpt lat="45.97252" lon="4.79671">
        <ele>209</ele>
        <time>2017-06-02T08:33:53Z</time>
      </trkpt>
      <trkpt lat="45.97251" lon="4.79678">
        <ele>210</ele>
        <time>2017-06-02T08:33:54Z</time>
      </trkpt>
      <trkpt lat="45.9725" lon="4.79685">
        <ele>208</ele>
        <time>2017-06-02T08:33:55Z</time>
      </trkpt>
      <trkpt lat="45.97249" lon="4.79692">
        <ele>208</ele>
        <time>2017-06-02T08:33:56Z</time>
      </trkpt>
      <trkpt lat="45.97248" lon="4.79699">
        <ele>208</ele>
        <time>2017-06-02T08:33:57Z</time>
      </trkpt>
      <trkpt lat="45.97247" lon="4.79706">
        <ele>208</ele>
        <time>2017-06-02T08:33:58Z</time>
      </trkpt>
      <trkpt lat="45.97246" lon="4.79713">
        <ele>209</ele>
        <time>2017-06-02T08:33:59Z</time>
      </trkpt>
      <trkpt lat="45.97245" lon="4.7972">
        <ele>209</ele>
        <time>2017-06-02T08:34:00Z</time>
      </trkpt>
      <trkpt lat="45.97243" lon="4.79726">
        <ele>209</ele>
        <time>2017-06-02T08:34:01Z</time>
      </trkpt>
      <trkpt lat="45.97242" lon="4.79733">
        <ele>209</ele>
        <time>2017-06-02T08:34:02Z</time>
      </trkpt>
      <trkpt lat="45.97241" lon="4.7974">
        <ele>209</ele>
        <time>2017-06-02T08:34:03Z</time>
      </trkpt>
      <trkpt lat="45.97239" lon="4.79752">
        <ele>209</ele>
        <time>2017-06-02T08:34:05Z</time>
      </trkpt>
      <trkpt lat="45.97239" lon="4.79758">
        <ele>209</ele>
        <time>2017-06-02T08:34:06Z</time>
      </trkpt>
      <trkpt lat="45.97238" lon="4.79769">
        <ele>210</ele>
        <time>2017-06-02T08:34:08Z</time>
      </trkpt>
      <trkpt lat="45.97238" lon="4.79775">
        <ele>210</ele>
        <time>2017-06-02T08:34:09Z</time>
      </trkpt>
      <trkpt lat="45.97237" lon="4.79787">
        <ele>210</ele>
        <time>2017-06-02T08:34:11Z</time>
      </trkpt>
      <trkpt lat="45.97236" lon="4.79794">
        <ele>210</ele>
        <time>2017-06-02T08:34:12Z</time>
      </trkpt>
      <trkpt lat="45.97236" lon="4.79806">
        <ele>210</ele>
        <time>2017-06-02T08:34:14Z</time>
      </trkpt>
      <trkpt lat="45.97236" lon="4.79812">
        <ele>210</ele>
        <time>2017-06-02T08:34:15Z</time>
      </trkpt>
      <trkpt lat="45.97236" lon="4.79824">
        <ele>211</ele>
        <time>2017-06-02T08:34:17Z</time>
      </trkpt>
      <trkpt lat="45.97236" lon="4.7983">
        <ele>211</ele>
        <time>2017-06-02T08:34:18Z</time>
      </trkpt>
      <trkpt lat="45.97237" lon="4.79837">
        <ele>211</ele>
        <time>2017-06-02T08:34:19Z</time>
      </trkpt>
      <trkpt lat="45.97238" lon="4.79844">
        <ele>211</ele>
        <time>2017-06-02T08:34:20Z</time>
      </trkpt>
      <trkpt lat="45.97239" lon="4.79851">
        <ele>211</ele>
        <time>2017-06-02T08:34:21Z</time>
      </trkpt>
      <trkpt lat="45.9724" lon="4.79858">
        <ele>211</ele>
        <time>2017-06-02T08:34:22Z</time>
      </trkpt>
      <trkpt lat="45.97242" lon="4.79864">
        <ele>211</ele>
        <time>2017-06-02T08:34:23Z</time>
      </trkpt>
      <trkpt lat="45.97243" lon="4.79871">
        <ele>211</ele>
        <time>2017-06-02T08:34:24Z</time>
      </trkpt>
      <trkpt lat="45.97246" lon="4.79882">
        <ele>211</ele>
        <time>2017-06-02T08:34:26Z</time>
      </trkpt>
      <trkpt lat="45.97247" lon="4.79887">
        <ele>211</ele>
        <time>2017-06-02T08:34:27Z</time>
      </trkpt>
      <trkpt lat="45.97248" lon="4.79896">
        <ele>211</ele>
        <time>2017-06-02T08:34:29Z</time>
      </trkpt>
      <trkpt lat="45.97249" lon="4.799">
        <ele>211</ele>
        <time>2017-06-02T08:34:30Z</time>
      </trkpt>
      <trkpt lat="45.97251" lon="4.79913">
        <ele>212</ele>
        <time>2017-06-02T08:34:33Z</time>
      </trkpt>
      <trkpt lat="45.9725" lon="4.79915">
        <ele>212</ele>
        <time>2017-06-02T08:34:34Z</time>
      </trkpt>
      <trkpt lat="45.97244" lon="4.79916">
        <ele>212</ele>
        <time>2017-06-02T08:34:36Z</time>
      </trkpt>
      <trkpt lat="45.9724" lon="4.79917">
        <ele>212</ele>
        <time>2017-06-02T08:34:37Z</time>
      </trkpt>
      <trkpt lat="45.97232" lon="4.79919">
        <ele>211</ele>
        <time>2017-06-02T08:34:39Z</time>
      </trkpt>
      <trkpt lat="45.97228" lon="4.79921">
        <ele>211</ele>
        <time>2017-06-02T08:34:40Z</time>
      </trkpt>
      <trkpt lat="45.97224" lon="4.79921">
        <ele>211</ele>
        <time>2017-06-02T08:34:41Z</time>
      </trkpt>
      <trkpt lat="45.97219" lon="4.79922">
        <ele>211</ele>
        <time>2017-06-02T08:34:42Z</time>
      </trkpt>
      <trkpt lat="45.97214" lon="4.79923">
        <ele>211</ele>
        <time>2017-06-02T08:34:43Z</time>
      </trkpt>
      <trkpt lat="45.97209" lon="4.79924">
        <ele>211</ele>
        <time>2017-06-02T08:34:44Z</time>
      </trkpt>
      <trkpt lat="45.97201" lon="4.79924">
        <ele>211</ele>
        <time>2017-06-02T08:34:46Z</time>
      </trkpt>
      <trkpt lat="45.97196" lon="4.79925">
        <ele>211</ele>
        <time>2017-06-02T08:34:47Z</time>
      </trkpt>
      <trkpt lat="45.97188" lon="4.79926">
        <ele>211</ele>
        <time>2017-06-02T08:34:49Z</time>
      </trkpt>
      <trkpt lat="45.97184" lon="4.79927">
        <ele>210</ele>
        <time>2017-06-02T08:34:50Z</time>
      </trkpt>
      <trkpt lat="45.97178" lon="4.79927">
        <ele>210</ele>
        <time>2017-06-02T08:34:52Z</time>
      </trkpt>
      <trkpt lat="45.97174" lon="4.79927">
        <ele>210</ele>
        <time>2017-06-02T08:34:53Z</time>
      </trkpt>
      <trkpt lat="45.97166" lon="4.79928">
        <ele>210</ele>
        <time>2017-06-02T08:34:55Z</time>
      </trkpt>
      <trkpt lat="45.97162" lon="4.79929">
        <ele>210</ele>
        <time>2017-06-02T08:34:56Z</time>
      </trkpt>
      <trkpt lat="45.97153" lon="4.79929">
        <ele>210</ele>
        <time>2017-06-02T08:34:58Z</time>
      </trkpt>
      <trkpt lat="45.97149" lon="4.79929">
        <ele>211</ele>
        <time>2017-06-02T08:34:59Z</time>
      </trkpt>
      <trkpt lat="45.97143" lon="4.7993">
        <ele>211</ele>
        <time>2017-06-02T08:35:00Z</time>
      </trkpt>
      <trkpt lat="45.97138" lon="4.79931">
        <ele>211</ele>
        <time>2017-06-02T08:35:01Z</time>
      </trkpt>
      <trkpt lat="45.97129" lon="4.79934">
        <ele>211</ele>
        <time>2017-06-02T08:35:03Z</time>
      </trkpt>
      <trkpt lat="45.97125" lon="4.79936">
        <ele>211</ele>
        <time>2017-06-02T08:35:04Z</time>
      </trkpt>
      <trkpt lat="45.97118" lon="4.7994">
        <ele>211</ele>
        <time>2017-06-02T08:35:06Z</time>
      </trkpt>
      <trkpt lat="45.97114" lon="4.79941">
        <ele>211</ele>
        <time>2017-06-02T08:35:07Z</time>
      </trkpt>
      <trkpt lat="45.97106" lon="4.79944">
        <ele>211</ele>
        <time>2017-06-02T08:35:09Z</time>
      </trkpt>
      <trkpt lat="45.97102" lon="4.79945">
        <ele>211</ele>
        <time>2017-06-02T08:35:10Z</time>
      </trkpt>
      <trkpt lat="45.97095" lon="4.79949">
        <ele>211</ele>
        <time>2017-06-02T08:35:12Z</time>
      </trkpt>
      <trkpt lat="45.97091" lon="4.79951">
        <ele>211</ele>
        <time>2017-06-02T08:35:13Z</time>
      </trkpt>
      <trkpt lat="45.97084" lon="4.79956">
        <ele>211</ele>
        <time>2017-06-02T08:35:15Z</time>
      </trkpt>
      <trkpt lat="45.97081" lon="4.79957">
        <ele>213</ele>
        <time>2017-06-02T08:35:16Z</time>
      </trkpt>
      <trkpt lat="45.97073" lon="4.79959">
        <ele>213</ele>
        <time>2017-06-02T08:35:18Z</time>
      </trkpt>
      <trkpt lat="45.97069" lon="4.7996">
        <ele>213</ele>
        <time>2017-06-02T08:35:19Z</time>
      </trkpt>
      <trkpt lat="45.9706" lon="4.7996">
        <ele>213</ele>
        <time>2017-06-02T08:35:21Z</time>
      </trkpt>
      <trkpt lat="45.97056" lon="4.7996">
        <ele>213</ele>
        <time>2017-06-02T08:35:22Z</time>
      </trkpt>
      <trkpt lat="45.97048" lon="4.7996">
        <ele>213</ele>
        <time>2017-06-02T08:35:24Z</time>
      </trkpt>
      <trkpt lat="45.97045" lon="4.79959">
        <ele>213</ele>
        <time>2017-06-02T08:35:25Z</time>
      </trkpt>
      <trkpt lat="45.97037" lon="4.79958">
        <ele>213</ele>
        <time>2017-06-02T08:35:27Z</time>
      </trkpt>
      <trkpt lat="45.97034" lon="4.79958">
        <ele>213</ele>
        <time>2017-06-02T08:35:28Z</time>
      </trkpt>
      <trkpt lat="45.97027" lon="4.79958">
        <ele>213</ele>
        <time>2017-06-02T08:35:30Z</time>
      </trkpt>
      <trkpt lat="45.97023" lon="4.79957">
        <ele>213</ele>
        <time>2017-06-02T08:35:31Z</time>
      </trkpt>
      <trkpt lat="45.97015" lon="4.79956">
        <ele>213</ele>
        <time>2017-06-02T08:35:33Z</time>
      </trkpt>
      <trkpt lat="45.97011" lon="4.79954">
        <ele>213</ele>
        <time>2017-06-02T08:35:34Z</time>
      </trkpt>
      <trkpt lat="45.97003" lon="4.79953">
        <ele>213</ele>
        <time>2017-06-02T08:35:36Z</time>
      </trkpt>
      <trkpt lat="45.96998" lon="4.79952">
        <ele>213</ele>
        <time>2017-06-02T08:35:37Z</time>
      </trkpt>
      <trkpt lat="45.96994" lon="4.79952">
        <ele>213</ele>
        <time>2017-06-02T08:35:38Z</time>
      </trkpt>
      <trkpt lat="45.96988" lon="4.79951">
        <ele>213</ele>
        <time>2017-06-02T08:35:39Z</time>
      </trkpt>
      <trkpt lat="45.96984" lon="4.7995">
        <ele>213</ele>
        <time>2017-06-02T08:35:40Z</time>
      </trkpt>
      <trkpt lat="45.96979" lon="4.79949">
        <ele>213</ele>
        <time>2017-06-02T08:35:41Z</time>
      </trkpt>
      <trkpt lat="45.96972" lon="4.79947">
        <ele>213</ele>
        <time>2017-06-02T08:35:43Z</time>
      </trkpt>
      <trkpt lat="45.96967" lon="4.79947">
        <ele>213</ele>
        <time>2017-06-02T08:35:44Z</time>
      </trkpt>
      <trkpt lat="45.96962" lon="4.79946">
        <ele>213</ele>
        <time>2017-06-02T08:35:45Z</time>
      </trkpt>
      <trkpt lat="45.96957" lon="4.79947">
        <ele>213</ele>
        <time>2017-06-02T08:35:46Z</time>
      </trkpt>
      <trkpt lat="45.9695" lon="4.79954">
        <ele>213</ele>
        <time>2017-06-02T08:35:48Z</time>
      </trkpt>
      <trkpt lat="45.96949" lon="4.7996">
        <ele>213</ele>
        <time>2017-06-02T08:35:49Z</time>
      </trkpt>
      <trkpt lat="45.96951" lon="4.79971">
        <ele>213</ele>
        <time>2017-06-02T08:35:51Z</time>
      </trkpt>
      <trkpt lat="45.96954" lon="4.79975">
        <ele>213</ele>
        <time>2017-06-02T08:35:52Z</time>
      </trkpt>
      <trkpt lat="45.96958" lon="4.79984">
        <ele>213</ele>
        <time>2017-06-02T08:35:54Z</time>
      </trkpt>
      <trkpt lat="45.96961" lon="4.79988">
        <ele>213</ele>
        <time>2017-06-02T08:35:55Z</time>
      </trkpt>
      <trkpt lat="45.96966" lon="4.79997">
        <ele>213</ele>
        <time>2017-06-02T08:35:57Z</time>
      </trkpt>
      <trkpt lat="45.96969" lon="4.80002">
        <ele>213</ele>
        <time>2017-06-02T08:35:58Z</time>
      </trkpt>
      <trkpt lat="45.96975" lon="4.80011">
        <ele>214</ele>
        <time>2017-06-02T08:36:00Z</time>
      </trkpt>
      <trkpt lat="45.96978" lon="4.80015">
        <ele>214</ele>
        <time>2017-06-02T08:36:01Z</time>
      </trkpt>
      <trkpt lat="45.96983" lon="4.80025">
        <ele>214</ele>
        <time>2017-06-02T08:36:03Z</time>
      </trkpt>
      <trkpt lat="45.96986" lon="4.80029">
        <ele>214</ele>
        <time>2017-06-02T08:36:04Z</time>
      </trkpt>
      <trkpt lat="45.96991" lon="4.80036">
        <ele>214</ele>
        <time>2017-06-02T08:36:06Z</time>
      </trkpt>
      <trkpt lat="45.96994" lon="4.80039">
        <ele>214</ele>
        <time>2017-06-02T08:36:07Z</time>
      </trkpt>
      <trkpt lat="45.97001" lon="4.80043">
        <ele>214</ele>
        <time>2017-06-02T08:36:09Z</time>
      </trkpt>
      <trkpt lat="45.97005" lon="4.80046">
        <ele>214</ele>
        <time>2017-06-02T08:36:10Z</time>
      </trkpt>
      <trkpt lat="45.97013" lon="4.80051">
        <ele>214</ele>
        <time>2017-06-02T08:36:12Z</time>
      </trkpt>
      <trkpt lat="45.97016" lon="4.80054">
        <ele>214</ele>
        <time>2017-06-02T08:36:13Z</time>
      </trkpt>
      <trkpt lat="45.9702" lon="4.80062">
        <ele>214</ele>
        <time>2017-06-02T08:36:15Z</time>
      </trkpt>
      <trkpt lat="45.9702" lon="4.80066">
        <ele>215</ele>
        <time>2017-06-02T08:36:16Z</time>
      </trkpt>
      <trkpt lat="45.97023" lon="4.80076">
        <ele>215</ele>
        <time>2017-06-02T08:36:18Z</time>
      </trkpt>
      <trkpt lat="45.97024" lon="4.80082">
        <ele>215</ele>
        <time>2017-06-02T08:36:19Z</time>
      </trkpt>
      <trkpt lat="45.97028" lon="4.80091">
        <ele>216</ele>
        <time>2017-06-02T08:36:21Z</time>
      </trkpt>
      <trkpt lat="45.97031" lon="4.80095">
        <ele>216</ele>
        <time>2017-06-02T08:36:22Z</time>
      </trkpt>
      <trkpt lat="45.97036" lon="4.80101">
        <ele>216</ele>
        <time>2017-06-02T08:36:24Z</time>
      </trkpt>
      <trkpt lat="45.97039" lon="4.80105">
        <ele>217</ele>
        <time>2017-06-02T08:36:25Z</time>
      </trkpt>
      <trkpt lat="45.97044" lon="4.80113">
        <ele>217</ele>
        <time>2017-06-02T08:36:27Z</time>
      </trkpt>
      <trkpt lat="45.97047" lon="4.80117">
        <ele>217</ele>
        <time>2017-06-02T08:36:28Z</time>
      </trkpt>
      <trkpt lat="45.97053" lon="4.80123">
        <ele>217</ele>
        <time>2017-06-02T08:36:30Z</time>
      </trkpt>
      <trkpt lat="45.97056" lon="4.80126">
        <ele>217</ele>
        <time>2017-06-02T08:36:31Z</time>
      </trkpt>
      <trkpt lat="45.97061" lon="4.80133">
        <ele>217</ele>
        <time>2017-06-02T08:36:33Z</time>
      </trkpt>
      <trkpt lat="45.97064" lon="4.80137">
        <ele>218</ele>
        <time>2017-06-02T08:36:34Z</time>
      </trkpt>
      <trkpt lat="45.97068" lon="4.80145">
        <ele>218</ele>
        <time>2017-06-02T08:36:36Z</time>
      </trkpt>
      <trkpt lat="45.97071" lon="4.80149">
        <ele>218</ele>
        <time>2017-06-02T08:36:37Z</time>
      </trkpt>
      <trkpt lat="45.97075" lon="4.80157">
        <ele>219</ele>
        <time>2017-06-02T08:36:39Z</time>
      </trkpt>
      <trkpt lat="45.97078" lon="4.8016">
        <ele>219</ele>
        <time>2017-06-02T08:36:40Z</time>
      </trkpt>
      <trkpt lat="45.97083" lon="4.80165">
        <ele>220</ele>
        <time>2017-06-02T08:36:42Z</time>
      </trkpt>
      <trkpt lat="45.97085" lon="4.80168">
        <ele>220</ele>
        <time>2017-06-02T08:36:43Z</time>
      </trkpt>
      <trkpt lat="45.97091" lon="4.80174">
        <ele>220</ele>
        <time>2017-06-02T08:36:45Z</time>
      </trkpt>
      <trkpt lat="45.97093" lon="4.80177">
        <ele>220</ele>
        <time>2017-06-02T08:36:46Z</time>
      </trkpt>
      <trkpt lat="45.97097" lon="4.80184">
        <ele>220</ele>
        <time>2017-06-02T08:36:48Z</time>
      </trkpt>
      <trkpt lat="45.97099" lon="4.80186">
        <ele>220</ele>
        <time>2017-06-02T08:36:49Z</time>
      </trkpt>
      <trkpt lat="45.97105" lon="4.80194">
        <ele>220</ele>
        <time>2017-06-02T08:36:51Z</time>
      </trkpt>
      <trkpt lat="45.97107" lon="4.80199">
        <ele>220</ele>
        <time>2017-06-02T08:36:52Z</time>
      </trkpt>
      <trkpt lat="45.97112" lon="4.80207">
        <ele>220</ele>
        <time>2017-06-02T08:36:54Z</time>
      </trkpt>
      <trkpt lat="45.97114" lon="4.8021">
        <ele>220</ele>
        <time>2017-06-02T08:36:55Z</time>
      </trkpt>
      <trkpt lat="45.97118" lon="4.80217">
        <ele>220</ele>
        <time>2017-06-02T08:36:57Z</time>
      </trkpt>
      <trkpt lat="45.9712" lon="4.8022">
        <ele>220</ele>
        <time>2017-06-02T08:36:58Z</time>
      </trkpt>
      <trkpt lat="45.97125" lon="4.80229">
        <ele>221</ele>
        <time>2017-06-02T08:37:00Z</time>
      </trkpt>
      <trkpt lat="45.97126" lon="4.80233">
        <ele>221</ele>
        <time>2017-06-02T08:37:01Z</time>
      </trkpt>
      <trkpt lat="45.9713" lon="4.80242">
        <ele>220</ele>
        <time>2017-06-02T08:37:03Z</time>
      </trkpt>
      <trkpt lat="45.97132" lon="4.80246">
        <ele>220</ele>
        <time>2017-06-02T08:37:04Z</time>
      </trkpt>
      <trkpt lat="45.97136" lon="4.80256">
        <ele>224</ele>
        <time>2017-06-02T08:37:06Z</time>
      </trkpt>
      <trkpt lat="45.97138" lon="4.80261">
        <ele>223</ele>
        <time>2017-06-02T08:37:07Z</time>
      </trkpt>
      <trkpt lat="45.97142" lon="4.80272">
        <ele>224</ele>
        <time>2017-06-02T08:37:09Z</time>
      </trkpt>
      <trkpt lat="45.97143" lon="4.80277">
        <ele>224</ele>
        <time>2017-06-02T08:37:10Z</time>
      </trkpt>
      <trkpt lat="45.97147" lon="4.80285">
        <ele>224</ele>
        <time>2017-06-02T08:37:12Z</time>
      </trkpt>
      <trkpt lat="45.97148" lon="4.80289">
        <ele>224</ele>
        <time>2017-06-02T08:37:13Z</time>
      </trkpt>
      <trkpt lat="45.97151" lon="4.80297">
        <ele>224</ele>
        <time>2017-06-02T08:37:15Z</time>
      </trkpt>
      <trkpt lat="45.97152" lon="4.803">
        <ele>224</ele>
        <time>2017-06-02T08:37:16Z</time>
      </trkpt>
      <trkpt lat="45.97156" lon="4.80309">
        <ele>224</ele>
        <time>2017-06-02T08:37:18Z</time>
      </trkpt>
      <trkpt lat="45.97157" lon="4.80313">
        <ele>224</ele>
        <time>2017-06-02T08:37:19Z</time>
      </trkpt>
      <trkpt lat="45.9716" lon="4.80322">
        <ele>224</ele>
        <time>2017-06-02T08:37:21Z</time>
      </trkpt>
      <trkpt lat="45.97162" lon="4.80326">
        <ele>224</ele>
        <time>2017-06-02T08:37:22Z</time>
      </trkpt>
      <trkpt lat="45.97164" lon="4.80335">
        <ele>224</ele>
        <time>2017-06-02T08:37:24Z</time>
      </trkpt>
      <trkpt lat="45.97165" lon="4.80338">
        <ele>224</ele>
        <time>2017-06-02T08:37:25Z</time>
      </trkpt>
      <trkpt lat="45.97168" lon="4.80347">
        <ele>222</ele>
        <time>2017-06-02T08:37:27Z</time>
      </trkpt>
      <trkpt lat="45.97169" lon="4.80351">
        <ele>222</ele>
        <time>2017-06-02T08:37:28Z</time>
      </trkpt>
      <trkpt lat="45.97172" lon="4.80359">
        <ele>222</ele>
        <time>2017-06-02T08:37:30Z</time>
      </trkpt>
      <trkpt lat="45.97174" lon="4.80363">
        <ele>222</ele>
        <time>2017-06-02T08:37:31Z</time>
      </trkpt>
      <trkpt lat="45.97177" lon="4.80372">
        <ele>222</ele>
        <time>2017-06-02T08:37:33Z</time>
      </trkpt>
      <trkpt lat="45.97178" lon="4.80377">
        <ele>222</ele>
        <time>2017-06-02T08:37:34Z</time>
      </trkpt>
      <trkpt lat="45.97181" lon="4.80385">
        <ele>222</ele>
        <time>2017-06-02T08:37:36Z</time>
      </trkpt>
      <trkpt lat="45.97182" lon="4.8039">
        <ele>222</ele>
        <time>2017-06-02T08:37:37Z</time>
      </trkpt>
      <trkpt lat="45.97184" lon="4.80399">
        <ele>223</ele>
        <time>2017-06-02T08:37:39Z</time>
      </trkpt>
      <trkpt lat="45.97186" lon="4.80403">
        <ele>223</ele>
        <time>2017-06-02T08:37:40Z</time>
      </trkpt>
      <trkpt lat="45.97189" lon="4.80411">
        <ele>223</ele>
        <time>2017-06-02T08:37:42Z</time>
      </trkpt>
      <trkpt lat="45.9719" lon="4.80415">
        <ele>223</ele>
        <time>2017-06-02T08:37:43Z</time>
      </trkpt>
      <trkpt lat="45.97194" lon="4.80424">
        <ele>224</ele>
        <time>2017-06-02T08:37:45Z</time>
      </trkpt>
      <trkpt lat="45.97195" lon="4.80428">
        <ele>225</ele>
        <time>2017-06-02T08:37:46Z</time>
      </trkpt>
      <trkpt lat="45.97197" lon="4.80438">
        <ele>225</ele>
        <time>2017-06-02T08:37:48Z</time>
      </trkpt>
      <trkpt lat="45.97198" lon="4.80443">
        <ele>225</ele>
        <time>2017-06-02T08:37:49Z</time>
      </trkpt>
      <trkpt lat="45.97201" lon="4.80455">
        <ele>225</ele>
        <time>2017-06-02T08:37:51Z</time>
      </trkpt>
      <trkpt lat="45.97203" lon="4.80461">
        <ele>225</ele>
        <time>2017-06-02T08:37:52Z</time>
      </trkpt>
      <trkpt lat="45.97206" lon="4.80472">
        <ele>225</ele>
        <time>2017-06-02T08:37:54Z</time>
      </trkpt>
      <trkpt lat="45.97208" lon="4.80477">
        <ele>225</ele>
        <time>2017-06-02T08:37:55Z</time>
      </trkpt>
      <trkpt lat="45.97211" lon="4.80488">
        <ele>225</ele>
        <time>2017-06-02T08:37:57Z</time>
      </trkpt>
      <trkpt lat="45.97212" lon="4.80493">
        <ele>225</ele>
        <time>2017-06-02T08:37:58Z</time>
      </trkpt>
      <trkpt lat="45.97215" lon="4.80503">
        <ele>227</ele>
        <time>2017-06-02T08:38:00Z</time>
      </trkpt>
      <trkpt lat="45.97217" lon="4.80508">
        <ele>227</ele>
        <time>2017-06-02T08:38:01Z</time>
      </trkpt>
      <trkpt lat="45.9722" lon="4.80517">
        <ele>227</ele>
        <time>2017-06-02T08:38:03Z</time>
      </trkpt>
      <trkpt lat="45.97221" lon="4.80521">
        <ele>227</ele>
        <time>2017-06-02T08:38:04Z</time>
      </trkpt>
      <trkpt lat="45.97224" lon="4.8053">
        <ele>227</ele>
        <time>2017-06-02T08:38:06Z</time>
      </trkpt>
      <trkpt lat="45.97225" lon="4.80535">
        <ele>228</ele>
        <time>2017-06-02T08:38:07Z</time>
      </trkpt>
      <trkpt lat="45.97228" lon="4.80547">
        <ele>228</ele>
        <time>2017-06-02T08:38:09Z</time>
      </trkpt>
      <trkpt lat="45.97229" lon="4.80553">
        <ele>228</ele>
        <time>2017-06-02T08:38:10Z</time>
      </trkpt>
      <trkpt lat="45.97231" lon="4.8056">
        <ele>228</ele>
        <time>2017-06-02T08:38:11Z</time>
      </trkpt>
      <trkpt lat="45.97232" lon="4.80567">
        <ele>228</ele>
        <time>2017-06-02T08:38:12Z</time>
      </trkpt>
      <trkpt lat="45.97234" lon="4.80578">
        <ele>228</ele>
        <time>2017-06-02T08:38:14Z</time>
      </trkpt>
      <trkpt lat="45.97236" lon="4.80584">
        <ele>228</ele>
        <time>2017-06-02T08:38:15Z</time>
      </trkpt>
      <trkpt lat="45.97238" lon="4.80596">
        <ele>228</ele>
        <time>2017-06-02T08:38:17Z</time>
      </trkpt>
      <trkpt lat="45.97238" lon="4.80602">
        <ele>228</ele>
        <time>2017-06-02T08:38:18Z</time>
      </trkpt>
      <trkpt lat="45.97239" lon="4.80613">
        <ele>229</ele>
        <time>2017-06-02T08:38:20Z</time>
      </trkpt>
      <trkpt lat="45.97239" lon="4.80618">
        <ele>229</ele>
        <time>2017-06-02T08:38:21Z</time>
      </trkpt>
      <trkpt lat="45.97241" lon="4.80629">
        <ele>229</ele>
        <time>2017-06-02T08:38:23Z</time>
      </trkpt>
      <trkpt lat="45.97241" lon="4.80634">
        <ele>229</ele>
        <time>2017-06-02T08:38:24Z</time>
      </trkpt>
      <trkpt lat="45.97242" lon="4.80646">
        <ele>229</ele>
        <time>2017-06-02T08:38:26Z</time>
      </trkpt>
      <trkpt lat="45.97242" lon="4.80652">
        <ele>229</ele>
        <time>2017-06-02T08:38:27Z</time>
      </trkpt>
      <trkpt lat="45.97243" lon="4.80664">
        <ele>228</ele>
        <time>2017-06-02T08:38:29Z</time>
      </trkpt>
      <trkpt lat="45.97244" lon="4.80671">
        <ele>228</ele>
        <time>2017-06-02T08:38:30Z</time>
      </trkpt>
      <trkpt lat="45.97245" lon="4.80677">
        <ele>229</ele>
        <time>2017-06-02T08:38:31Z</time>
      </trkpt>
      <trkpt lat="45.97245" lon="4.80684">
        <ele>229</ele>
        <time>2017-06-02T08:38:32Z</time>
      </trkpt>
      <trkpt lat="45.97244" lon="4.80696">
        <ele>229</ele>
        <time>2017-06-02T08:38:34Z</time>
      </trkpt>
      <trkpt lat="45.97245" lon="4.80702">
        <ele>229</ele>
        <time>2017-06-02T08:38:35Z</time>
      </trkpt>
      <trkpt lat="45.97245" lon="4.80709">
        <ele>229</ele>
        <time>2017-06-02T08:38:36Z</time>
      </trkpt>
      <trkpt lat="45.97245" lon="4.80715">
        <ele>229</ele>
        <time>2017-06-02T08:38:37Z</time>
      </trkpt>
      <trkpt lat="45.97245" lon="4.80722">
        <ele>229</ele>
        <time>2017-06-02T08:38:38Z</time>
      </trkpt>
      <trkpt lat="45.97246" lon="4.80728">
        <ele>229</ele>
        <time>2017-06-02T08:38:39Z</time>
      </trkpt>
      <trkpt lat="45.97246" lon="4.8074">
        <ele>229</ele>
        <time>2017-06-02T08:38:41Z</time>
      </trkpt>
      <trkpt lat="45.97247" lon="4.80746">
        <ele>228</ele>
        <time>2017-06-02T08:38:42Z</time>
      </trkpt>
      <trkpt lat="45.97247" lon="4.80758">
        <ele>228</ele>
        <time>2017-06-02T08:38:44Z</time>
      </trkpt>
      <trkpt lat="45.97247" lon="4.80763">
        <ele>228</ele>
        <time>2017-06-02T08:38:45Z</time>
      </trkpt>
      <trkpt lat="45.97248" lon="4.8077">
        <ele>229</ele>
        <time>2017-06-02T08:38:46Z</time>
      </trkpt>
      <trkpt lat="45.97248" lon="4.80778">
        <ele>229</ele>
        <time>2017-06-02T08:38:47Z</time>
      </trkpt>
      <trkpt lat="45.97248" lon="4.80784">
        <ele>229</ele>
        <time>2017-06-02T08:38:48Z</time>
      </trkpt>
      <trkpt lat="45.97249" lon="4.80792">
        <ele>229</ele>
        <time>2017-06-02T08:38:49Z</time>
      </trkpt>
      <trkpt lat="45.9725" lon="4.80799">
        <ele>228</ele>
        <time>2017-06-02T08:38:50Z</time>
      </trkpt>
      <trkpt lat="45.97251" lon="4.80806">
        <ele>227</ele>
        <time>2017-06-02T08:38:51Z</time>
      </trkpt>
      <trkpt lat="45.97252" lon="4.80812">
        <ele>227</ele>
        <time>2017-06-02T08:38:52Z</time>
      </trkpt>
      <trkpt lat="45.97254" lon="4.80818">
        <ele>227</ele>
        <time>2017-06-02T08:38:53Z</time>
      </trkpt>
      <trkpt lat="45.97255" lon="4.80825">
        <ele>227</ele>
        <time>2017-06-02T08:38:54Z</time>
      </trkpt>
      <trkpt lat="45.97257" lon="4.80831">
        <ele>227</ele>
        <time>2017-06-02T08:38:55Z</time>
      </trkpt>
      <trkpt lat="45.97262" lon="4.80841">
        <ele>227</ele>
        <time>2017-06-02T08:38:57Z</time>
      </trkpt>
      <trkpt lat="45.97265" lon="4.80845">
        <ele>227</ele>
        <time>2017-06-02T08:38:58Z</time>
      </trkpt>
      <trkpt lat="45.97272" lon="4.80852">
        <ele>227</ele>
        <time>2017-06-02T08:39:00Z</time>
      </trkpt>
      <trkpt lat="45.97276" lon="4.80855">
        <ele>227</ele>
        <time>2017-06-02T08:39:01Z</time>
      </trkpt>
      <trkpt lat="45.9728" lon="4.80856">
        <ele>228</ele>
        <time>2017-06-02T08:39:02Z</time>
      </trkpt>
      <trkpt lat="45.97285" lon="4.80858">
        <ele>228</ele>
        <time>2017-06-02T08:39:03Z</time>
      </trkpt>
      <trkpt lat="45.9729" lon="4.80859">
        <ele>228</ele>
        <time>2017-06-02T08:39:04Z</time>
      </trkpt>
      <trkpt lat="45.97295" lon="4.8086">
        <ele>228</ele>
        <time>2017-06-02T08:39:05Z</time>
      </trkpt>
      <trkpt lat="45.97299" lon="4.80861">
        <ele>228</ele>
        <time>2017-06-02T08:39:06Z</time>
      </trkpt>
      <trkpt lat="45.97304" lon="4.80862">
        <ele>228</ele>
        <time>2017-06-02T08:39:07Z</time>
      </trkpt>
      <trkpt lat="45.97312" lon="4.80867">
        <ele>228</ele>
        <time>2017-06-02T08:39:09Z</time>
      </trkpt>
      <trkpt lat="45.97316" lon="4.8087">
        <ele>228</ele>
        <time>2017-06-02T08:39:10Z</time>
      </trkpt>
      <trkpt lat="45.97322" lon="4.80878">
        <ele>228</ele>
        <time>2017-06-02T08:39:12Z</time>
      </trkpt>
      <trkpt lat="45.97325" lon="4.80883">
        <ele>228</ele>
        <time>2017-06-02T08:39:13Z</time>
      </trkpt>
      <trkpt lat="45.97328" lon="4.80887">
        <ele>228</ele>
        <time>2017-06-02T08:39:14Z</time>
      </trkpt>
      <trkpt lat="45.97331" lon="4.80892">
        <ele>229</ele>
        <time>2017-06-02T08:39:15Z</time>
      </trkpt>
      <trkpt lat="45.97333" lon="4.80898">
        <ele>229</ele>
        <time>2017-06-02T08:39:16Z</time>
      </trkpt>
      <trkpt lat="45.97337" lon="4.80903">
        <ele>230</ele>
        <time>2017-06-02T08:39:17Z</time>
      </trkpt>
      <trkpt lat="45.9734" lon="4.80914">
        <ele>230</ele>
        <time>2017-06-02T08:39:19Z</time>
      </trkpt>
      <trkpt lat="45.97341" lon="4.80919">
        <ele>230</ele>
        <time>2017-06-02T08:39:20Z</time>
      </trkpt>
      <trkpt lat="45.97344" lon="4.8093">
        <ele>231</ele>
        <time>2017-06-02T08:39:22Z</time>
      </trkpt>
      <trkpt lat="45.97345" lon="4.80935">
        <ele>231</ele>
        <time>2017-06-02T08:39:23Z</time>
      </trkpt>
      <trkpt lat="45.97348" lon="4.80948">
        <ele>231</ele>
        <time>2017-06-02T08:39:25Z</time>
      </trkpt>
      <trkpt lat="45.97349" lon="4.80954">
        <ele>231</ele>
        <time>2017-06-02T08:39:26Z</time>
      </trkpt>
      <trkpt lat="45.9735" lon="4.80961">
        <ele>231</ele>
        <time>2017-06-02T08:39:27Z</time>
      </trkpt>
      <trkpt lat="45.97352" lon="4.80967">
        <ele>231</ele>
        <time>2017-06-02T08:39:28Z</time>
      </trkpt>
      <trkpt lat="45.97353" lon="4.80978">
        <ele>232</ele>
        <time>2017-06-02T08:39:30Z</time>
      </trkpt>
      <trkpt lat="45.97354" lon="4.80984">
        <ele>232</ele>
        <time>2017-06-02T08:39:31Z</time>
      </trkpt>
      <trkpt lat="45.97358" lon="4.80995">
        <ele>232</ele>
        <time>2017-06-02T08:39:34Z</time>
      </trkpt>
      <trkpt lat="45.97359" lon="4.80999">
        <ele>232</ele>
        <time>2017-06-02T08:39:35Z</time>
      </trkpt>
      <trkpt lat="45.97361" lon="4.81007">
        <ele>233</ele>
        <time>2017-06-02T08:39:37Z</time>
      </trkpt>
      <trkpt lat="45.97361" lon="4.81012">
        <ele>233</ele>
        <time>2017-06-02T08:39:38Z</time>
      </trkpt>
      <trkpt lat="45.97363" lon="4.81023">
        <ele>233</ele>
        <time>2017-06-02T08:39:40Z</time>
      </trkpt>
      <trkpt lat="45.97363" lon="4.81029">
        <ele>233</ele>
        <time>2017-06-02T08:39:41Z</time>
      </trkpt>
      <trkpt lat="45.97366" lon="4.81042">
        <ele>233</ele>
        <time>2017-06-02T08:39:43Z</time>
      </trkpt>
      <trkpt lat="45.97368" lon="4.81047">
        <ele>233</ele>
        <time>2017-06-02T08:39:44Z</time>
      </trkpt>
      <trkpt lat="45.9737" lon="4.81053">
        <ele>233</ele>
        <time>2017-06-02T08:39:45Z</time>
      </trkpt>
      <trkpt lat="45.97372" lon="4.81059">
        <ele>233</ele>
        <time>2017-06-02T08:39:46Z</time>
      </trkpt>
      <trkpt lat="45.97375" lon="4.81071">
        <ele>233</ele>
        <time>2017-06-02T08:39:48Z</time>
      </trkpt>
      <trkpt lat="45.97376" lon="4.81076">
        <ele>234</ele>
        <time>2017-06-02T08:39:49Z</time>
      </trkpt>
      <trkpt lat="45.9738" lon="4.81085">
        <ele>235</ele>
        <time>2017-06-02T08:39:51Z</time>
      </trkpt>
      <trkpt lat="45.97381" lon="4.8109">
        <ele>235</ele>
        <time>2017-06-02T08:39:52Z</time>
      </trkpt>
      <trkpt lat="45.97383" lon="4.81101">
        <ele>235</ele>
        <time>2017-06-02T08:39:54Z</time>
      </trkpt>
      <trkpt lat="45.97384" lon="4.81107">
        <ele>235</ele>
        <time>2017-06-02T08:39:55Z</time>
      </trkpt>
      <trkpt lat="45.97385" lon="4.8112">
        <ele>235</ele>
        <time>2017-06-02T08:39:57Z</time>
      </trkpt>
      <trkpt lat="45.97385" lon="4.81127">
        <ele>235</ele>
        <time>2017-06-02T08:39:58Z</time>
      </trkpt>
      <trkpt lat="45.97386" lon="4.81133">
        <ele>236</ele>
        <time>2017-06-02T08:39:59Z</time>
      </trkpt>
      <trkpt lat="45.97386" lon="4.8114">
        <ele>236</ele>
        <time>2017-06-02T08:40:00Z</time>
      </trkpt>
      <trkpt lat="45.97387" lon="4.81152">
        <ele>236</ele>
        <time>2017-06-02T08:40:02Z</time>
      </trkpt>
      <trkpt lat="45.97387" lon="4.81157">
        <ele>236</ele>
        <time>2017-06-02T08:40:03Z</time>
      </trkpt>
      <trkpt lat="45.97387" lon="4.81168">
        <ele>237</ele>
        <time>2017-06-02T08:40:05Z</time>
      </trkpt>
      <trkpt lat="45.97387" lon="4.81173">
        <ele>237</ele>
        <time>2017-06-02T08:40:06Z</time>
      </trkpt>
      <trkpt lat="45.97387" lon="4.81184">
        <ele>237</ele>
        <time>2017-06-02T08:40:08Z</time>
      </trkpt>
      <trkpt lat="45.97387" lon="4.81189">
        <ele>237</ele>
        <time>2017-06-02T08:40:09Z</time>
      </trkpt>
      <trkpt lat="45.97387" lon="4.81199">
        <ele>237</ele>
        <time>2017-06-02T08:40:11Z</time>
      </trkpt>
      <trkpt lat="45.97388" lon="4.81204">
        <ele>237</ele>
        <time>2017-06-02T08:40:12Z</time>
      </trkpt>
      <trkpt lat="45.97389" lon="4.81214">
        <ele>237</ele>
        <time>2017-06-02T08:40:14Z</time>
      </trkpt>
      <trkpt lat="45.97389" lon="4.81219">
        <ele>237</ele>
        <time>2017-06-02T08:40:15Z</time>
      </trkpt>
      <trkpt lat="45.97388" lon="4.81229">
        <ele>237</ele>
        <time>2017-06-02T08:40:17Z</time>
      </trkpt>
      <trkpt lat="45.97388" lon="4.81235">
        <ele>237</ele>
        <time>2017-06-02T08:40:18Z</time>
      </trkpt>
      <trkpt lat="45.97388" lon="4.81247">
        <ele>237</ele>
        <time>2017-06-02T08:40:20Z</time>
      </trkpt>
      <trkpt lat="45.97388" lon="4.81252">
        <ele>238</ele>
        <time>2017-06-02T08:40:21Z</time>
      </trkpt>
      <trkpt lat="45.97387" lon="4.81261">
        <ele>238</ele>
        <time>2017-06-02T08:40:23Z</time>
      </trkpt>
      <trkpt lat="45.97387" lon="4.81266">
        <ele>238</ele>
        <time>2017-06-02T08:40:24Z</time>
      </trkpt>
      <trkpt lat="45.97386" lon="4.81277">
        <ele>238</ele>
        <time>2017-06-02T08:40:26Z</time>
      </trkpt>
      <trkpt lat="45.97386" lon="4.81283">
        <ele>238</ele>
        <time>2017-06-02T08:40:27Z</time>
      </trkpt>
      <trkpt lat="45.97384" lon="4.81295">
        <ele>238</ele>
        <time>2017-06-02T08:40:29Z</time>
      </trkpt>
      <trkpt lat="45.97382" lon="4.81301">
        <ele>238</ele>
        <time>2017-06-02T08:40:30Z</time>
      </trkpt>
      <trkpt lat="45.9738" lon="4.81307">
        <ele>238</ele>
        <time>2017-06-02T08:40:31Z</time>
      </trkpt>
      <trkpt lat="45.97378" lon="4.81313">
        <ele>238</ele>
        <time>2017-06-02T08:40:32Z</time>
      </trkpt>
      <trkpt lat="45.97377" lon="4.8132">
        <ele>238</ele>
        <time>2017-06-02T08:40:33Z</time>
      </trkpt>
      <trkpt lat="45.97377" lon="4.81326">
        <ele>238</ele>
        <time>2017-06-02T08:40:34Z</time>
      </trkpt>
      <trkpt lat="45.97376" lon="4.81336">
        <ele>239</ele>
        <time>2017-06-02T08:40:36Z</time>
      </trkpt>
      <trkpt lat="45.97375" lon="4.81342">
        <ele>239</ele>
        <time>2017-06-02T08:40:37Z</time>
      </trkpt>
      <trkpt lat="45.97374" lon="4.81351">
        <ele>239</ele>
        <time>2017-06-02T08:40:39Z</time>
      </trkpt>
      <trkpt lat="45.97375" lon="4.81356">
        <ele>239</ele>
        <time>2017-06-02T08:40:40Z</time>
      </trkpt>
      <trkpt lat="45.97377" lon="4.81365">
        <ele>239</ele>
        <time>2017-06-02T08:40:42Z</time>
      </trkpt>
      <trkpt lat="45.97379" lon="4.81371">
        <ele>239</ele>
        <time>2017-06-02T08:40:43Z</time>
      </trkpt>
      <trkpt lat="45.9738" lon="4.81377">
        <ele>239</ele>
        <time>2017-06-02T08:40:44Z</time>
      </trkpt>
      <trkpt lat="45.9738" lon="4.81384">
        <ele>239</ele>
        <time>2017-06-02T08:40:45Z</time>
      </trkpt>
      <trkpt lat="45.97382" lon="4.81394">
        <ele>240</ele>
        <time>2017-06-02T08:40:47Z</time>
      </trkpt>
      <trkpt lat="45.97383" lon="4.81398">
        <ele>240</ele>
        <time>2017-06-02T08:40:48Z</time>
      </trkpt>
      <trkpt lat="45.97386" lon="4.81406">
        <ele>240</ele>
        <time>2017-06-02T08:40:50Z</time>
      </trkpt>
      <trkpt lat="45.97388" lon="4.81412">
        <ele>240</ele>
        <time>2017-06-02T08:40:51Z</time>
      </trkpt>
      <trkpt lat="45.97393" lon="4.8142">
        <ele>241</ele>
        <time>2017-06-02T08:40:53Z</time>
      </trkpt>
      <trkpt lat="45.97394" lon="4.81424">
        <ele>241</ele>
        <time>2017-06-02T08:40:54Z</time>
      </trkpt>
      <trkpt lat="45.97398" lon="4.8143">
        <ele>241</ele>
        <time>2017-06-02T08:40:56Z</time>
      </trkpt>
      <trkpt lat="45.974" lon="4.81434">
        <ele>241</ele>
        <time>2017-06-02T08:40:57Z</time>
      </trkpt>
      <trkpt lat="45.97407" lon="4.81442">
        <ele>241</ele>
        <time>2017-06-02T08:41:00Z</time>
      </trkpt>
      <trkpt lat="45.9741" lon="4.81445">
        <ele>241</ele>
        <time>2017-06-02T08:41:01Z</time>
      </trkpt>
      <trkpt lat="45.97415" lon="4.81453">
        <ele>241</ele>
        <time>2017-06-02T08:41:04Z</time>
      </trkpt>
      <trkpt lat="45.97418" lon="4.81457">
        <ele>243</ele>
        <time>2017-06-02T08:41:05Z</time>
      </trkpt>
      <trkpt lat="45.97422" lon="4.81466">
        <ele>243</ele>
        <time>2017-06-02T08:41:07Z</time>
      </trkpt>
      <trkpt lat="45.97424" lon="4.81472">
        <ele>243</ele>
        <time>2017-06-02T08:41:08Z</time>
      </trkpt>
      <trkpt lat="45.97425" lon="4.81479">
        <ele>243</ele>
        <time>2017-06-02T08:41:09Z</time>
      </trkpt>
      <trkpt lat="45.97426" lon="4.81485">
        <ele>243</ele>
        <time>2017-06-02T08:41:10Z</time>
      </trkpt>
      <trkpt lat="45.97427" lon="4.81492">
        <ele>243</ele>
        <time>2017-06-02T08:41:11Z</time>
      </trkpt>
      <trkpt lat="45.97427" lon="4.81498">
        <ele>243</ele>
        <time>2017-06-02T08:41:12Z</time>
      </trkpt>
      <trkpt lat="45.97428" lon="4.81509">
        <ele>244</ele>
        <time>2017-06-02T08:41:14Z</time>
      </trkpt>
      <trkpt lat="45.97429" lon="4.81514">
        <ele>244</ele>
        <time>2017-06-02T08:41:15Z</time>
      </trkpt>
      <trkpt lat="45.9743" lon="4.81526">
        <ele>245</ele>
        <time>2017-06-02T08:41:18Z</time>
      </trkpt>
      <trkpt lat="45.97431" lon="4.8153">
        <ele>245</ele>
        <time>2017-06-02T08:41:19Z</time>
      </trkpt>
      <trkpt lat="45.97434" lon="4.81537">
        <ele>245</ele>
        <time>2017-06-02T08:41:21Z</time>
      </trkpt>
      <trkpt lat="45.97435" lon="4.81542">
        <ele>246</ele>
        <time>2017-06-02T08:41:22Z</time>
      </trkpt>
      <trkpt lat="45.97434" lon="4.81555">
        <ele>246</ele>
        <time>2017-06-02T08:41:24Z</time>
      </trkpt>
      <trkpt lat="45.97433" lon="4.81561">
        <ele>246</ele>
        <time>2017-06-02T08:41:25Z</time>
      </trkpt>
      <trkpt lat="45.97433" lon="4.81572">
        <ele>246</ele>
        <time>2017-06-02T08:41:27Z</time>
      </trkpt>
      <trkpt lat="45.97433" lon="4.81576">
        <ele>246</ele>
        <time>2017-06-02T08:41:28Z</time>
      </trkpt>
      <trkpt lat="45.97432" lon="4.81587">
        <ele>247</ele>
        <time>2017-06-02T08:41:31Z</time>
      </trkpt>
      <trkpt lat="45.97432" lon="4.81593">
        <ele>247</ele>
        <time>2017-06-02T08:41:32Z</time>
      </trkpt>
      <trkpt lat="45.97431" lon="4.81604">
        <ele>247</ele>
        <time>2017-06-02T08:41:34Z</time>
      </trkpt>
      <trkpt lat="45.97431" lon="4.81609">
        <ele>248</ele>
        <time>2017-06-02T08:41:35Z</time>
      </trkpt>
      <trkpt lat="45.97432" lon="4.81622">
        <ele>248</ele>
        <time>2017-06-02T08:41:37Z</time>
      </trkpt>
      <trkpt lat="45.97431" lon="4.81628">
        <ele>248</ele>
        <time>2017-06-02T08:41:38Z</time>
      </trkpt>
      <trkpt lat="45.97432" lon="4.8164">
        <ele>248</ele>
        <time>2017-06-02T08:41:40Z</time>
      </trkpt>
      <trkpt lat="45.97432" lon="4.81645">
        <ele>248</ele>
        <time>2017-06-02T08:41:41Z</time>
      </trkpt>
      <trkpt lat="45.97432" lon="4.81654">
        <ele>248</ele>
        <time>2017-06-02T08:41:43Z</time>
      </trkpt>
      <trkpt lat="45.97433" lon="4.81659">
        <ele>248</ele>
        <time>2017-06-02T08:41:44Z</time>
      </trkpt>
      <trkpt lat="45.97433" lon="4.8167">
        <ele>249</ele>
        <time>2017-06-02T08:41:46Z</time>
      </trkpt>
      <trkpt lat="45.97432" lon="4.81675">
        <ele>249</ele>
        <time>2017-06-02T08:41:47Z</time>
      </trkpt>
      <trkpt lat="45.97431" lon="4.81685">
        <ele>249</ele>
        <time>2017-06-02T08:41:49Z</time>
      </trkpt>
      <trkpt lat="45.97431" lon="4.81689">
        <ele>249</ele>
        <time>2017-06-02T08:41:50Z</time>
      </trkpt>
      <trkpt lat="45.97431" lon="4.81701">
        <ele>250</ele>
        <time>2017-06-02T08:41:53Z</time>
      </trkpt>
      <trkpt lat="45.97431" lon="4.81705">
        <ele>250</ele>
        <time>2017-06-02T08:41:54Z</time>
      </trkpt>
      <trkpt lat="45.97431" lon="4.81714">
        <ele>250</ele>
        <time>2017-06-02T08:41:56Z</time>
      </trkpt>
      <trkpt lat="45.97431" lon="4.81719">
        <ele>250</ele>
        <time>2017-06-02T08:41:57Z</time>
      </trkpt>
      <trkpt lat="45.97431" lon="4.8173">
        <ele>250</ele>
        <time>2017-06-02T08:41:59Z</time>
      </trkpt>
      <trkpt lat="45.97431" lon="4.81735">
        <ele>250</ele>
        <time>2017-06-02T08:42:00Z</time>
      </trkpt>
      <trkpt lat="45.97431" lon="4.81746">
        <ele>250</ele>
        <time>2017-06-02T08:42:02Z</time>
      </trkpt>
      <trkpt lat="45.9743" lon="4.8175">
        <ele>250</ele>
        <time>2017-06-02T08:42:03Z</time>
      </trkpt>
      <trkpt lat="45.9743" lon="4.81762">
        <ele>251</ele>
        <time>2017-06-02T08:42:06Z</time>
      </trkpt>
      <trkpt lat="45.9743" lon="4.81766">
        <ele>251</ele>
        <time>2017-06-02T08:42:07Z</time>
      </trkpt>
      <trkpt lat="45.9743" lon="4.81775">
        <ele>251</ele>
        <time>2017-06-02T08:42:09Z</time>
      </trkpt>
      <trkpt lat="45.9743" lon="4.8178">
        <ele>251</ele>
        <time>2017-06-02T08:42:10Z</time>
      </trkpt>
      <trkpt lat="45.9743" lon="4.8179">
        <ele>252</ele>
        <time>2017-06-02T08:42:12Z</time>
      </trkpt>
      <trkpt lat="45.9743" lon="4.81796">
        <ele>252</ele>
        <time>2017-06-02T08:42:13Z</time>
      </trkpt>
      <trkpt lat="45.97432" lon="4.81808">
        <ele>252</ele>
        <time>2017-06-02T08:42:16Z</time>
      </trkpt>
      <trkpt lat="45.97432" lon="4.81811">
        <ele>252</ele>
        <time>2017-06-02T08:42:17Z</time>
      </trkpt>
      <trkpt lat="45.97433" lon="4.81823">
        <ele>252</ele>
        <time>2017-06-02T08:42:21Z</time>
      </trkpt>
      <trkpt lat="45.97433" lon="4.81826">
        <ele>252</ele>
        <time>2017-06-02T08:42:22Z</time>
      </trkpt>
      <trkpt lat="45.97434" lon="4.81836">
        <ele>252</ele>
        <time>2017-06-02T08:42:24Z</time>
      </trkpt>
      <trkpt lat="45.97435" lon="4.8184">
        <ele>252</ele>
        <time>2017-06-02T08:42:25Z</time>
      </trkpt>
      <trkpt lat="45.97436" lon="4.8185">
        <ele>253</ele>
        <time>2017-06-02T08:42:27Z</time>
      </trkpt>
      <trkpt lat="45.97437" lon="4.81856">
        <ele>253</ele>
        <time>2017-06-02T08:42:28Z</time>
      </trkpt>
      <trkpt lat="45.97437" lon="4.81866">
        <ele>253</ele>
        <time>2017-06-02T08:42:30Z</time>
      </trkpt>
      <trkpt lat="45.97438" lon="4.81869">
        <ele>253</ele>
        <time>2017-06-02T08:42:31Z</time>
      </trkpt>
      <trkpt lat="45.9744" lon="4.81879">
        <ele>253</ele>
        <time>2017-06-02T08:42:34Z</time>
      </trkpt>
      <trkpt lat="45.9744" lon="4.81882">
        <ele>253</ele>
        <time>2017-06-02T08:42:35Z</time>
      </trkpt>
      <trkpt lat="45.97441" lon="4.81892">
        <ele>253</ele>
        <time>2017-06-02T08:42:38Z</time>
      </trkpt>
      <trkpt lat="45.97442" lon="4.81896">
        <ele>253</ele>
        <time>2017-06-02T08:42:39Z</time>
      </trkpt>
      <trkpt lat="45.97443" lon="4.81906">
        <ele>253</ele>
        <time>2017-06-02T08:42:42Z</time>
      </trkpt>
      <trkpt lat="45.97443" lon="4.8191">
        <ele>253</ele>
        <time>2017-06-02T08:42:43Z</time>
      </trkpt>
      <trkpt lat="45.97444" lon="4.8192">
        <ele>254</ele>
        <time>2017-06-02T08:42:46Z</time>
      </trkpt>
      <trkpt lat="45.97444" lon="4.81924">
        <ele>254</ele>
        <time>2017-06-02T08:42:47Z</time>
      </trkpt>
      <trkpt lat="45.97445" lon="4.81935">
        <ele>255</ele>
        <time>2017-06-02T08:42:50Z</time>
      </trkpt>
      <trkpt lat="45.97445" lon="4.81938">
        <ele>255</ele>
        <time>2017-06-02T08:42:51Z</time>
      </trkpt>
      <trkpt lat="45.97445" lon="4.81948">
        <ele>255</ele>
        <time>2017-06-02T08:42:54Z</time>
      </trkpt>
      <trkpt lat="45.97445" lon="4.81952">
        <ele>255</ele>
        <time>2017-06-02T08:42:55Z</time>
      </trkpt>
      <trkpt lat="45.97446" lon="4.81964">
        <ele>255</ele>
        <time>2017-06-02T08:42:58Z</time>
      </trkpt>
      <trkpt lat="45.97446" lon="4.81967">
        <ele>255</ele>
        <time>2017-06-02T08:42:59Z</time>
      </trkpt>
      <trkpt lat="45.97449" lon="4.81979">
        <ele>255</ele>
        <time>2017-06-02T08:43:03Z</time>
      </trkpt>
      <trkpt lat="45.9745" lon="4.81984">
        <ele>255</ele>
        <time>2017-06-02T08:43:04Z</time>
      </trkpt>
      <trkpt lat="45.97451" lon="4.81994">
        <ele>255</ele>
        <time>2017-06-02T08:43:06Z</time>
      </trkpt>
      <trkpt lat="45.97452" lon="4.81998">
        <ele>255</ele>
        <time>2017-06-02T08:43:07Z</time>
      </trkpt>
      <trkpt lat="45.97452" lon="4.82009">
        <ele>257</ele>
        <time>2017-06-02T08:43:10Z</time>
      </trkpt>
      <trkpt lat="45.97453" lon="4.82012">
        <ele>257</ele>
        <time>2017-06-02T08:43:11Z</time>
      </trkpt>
      <trkpt lat="45.97455" lon="4.8202">
        <ele>257</ele>
        <time>2017-06-02T08:43:13Z</time>
      </trkpt>
      <trkpt lat="45.97455" lon="4.82025">
        <ele>257</ele>
        <time>2017-06-02T08:43:14Z</time>
      </trkpt>
      <trkpt lat="45.97456" lon="4.82035">
        <ele>258</ele>
        <time>2017-06-02T08:43:16Z</time>
      </trkpt>
      <trkpt lat="45.97456" lon="4.82039">
        <ele>258</ele>
        <time>2017-06-02T08:43:17Z</time>
      </trkpt>
      <trkpt lat="45.97457" lon="4.82051">
        <ele>258</ele>
        <time>2017-06-02T08:43:20Z</time>
      </trkpt>
      <trkpt lat="45.97457" lon="4.82056">
        <ele>258</ele>
        <time>2017-06-02T08:43:21Z</time>
      </trkpt>
      <trkpt lat="45.97458" lon="4.82067">
        <ele>258</ele>
        <time>2017-06-02T08:43:24Z</time>
      </trkpt>
      <trkpt lat="45.97458" lon="4.82071">
        <ele>258</ele>
        <time>2017-06-02T08:43:25Z</time>
      </trkpt>
      <trkpt lat="45.97457" lon="4.82081">
        <ele>258</ele>
        <time>2017-06-02T08:43:28Z</time>
      </trkpt>
      <trkpt lat="45.97457" lon="4.82084">
        <ele>260</ele>
        <time>2017-06-02T08:43:29Z</time>
      </trkpt>
      <trkpt lat="45.97454" lon="4.82095">
        <ele>260</ele>
        <time>2017-06-02T08:43:32Z</time>
      </trkpt>
      <trkpt lat="45.97453" lon="4.82098">
        <ele>260</ele>
        <time>2017-06-02T08:43:33Z</time>
      </trkpt>
      <trkpt lat="45.97451" lon="4.82108">
        <ele>260</ele>
        <time>2017-06-02T08:43:36Z</time>
      </trkpt>
      <trkpt lat="45.9745" lon="4.82112">
        <ele>260</ele>
        <time>2017-06-02T08:43:37Z</time>
      </trkpt>
      <trkpt lat="45.97447" lon="4.8212">
        <ele>260</ele>
        <time>2017-06-02T08:43:39Z</time>
      </trkpt>
      <trkpt lat="45.97444" lon="4.82124">
        <ele>260</ele>
        <time>2017-06-02T08:43:40Z</time>
      </trkpt>
      <trkpt lat="45.9744" lon="4.82132">
        <ele>260</ele>
        <time>2017-06-02T08:43:42Z</time>
      </trkpt>
      <trkpt lat="45.97438" lon="4.82136">
        <ele>261</ele>
        <time>2017-06-02T08:43:43Z</time>
      </trkpt>
      <trkpt lat="45.97433" lon="4.82145">
        <ele>261</ele>
        <time>2017-06-02T08:43:46Z</time>
      </trkpt>
      <trkpt lat="45.97431" lon="4.82148">
        <ele>261</ele>
        <time>2017-06-02T08:43:47Z</time>
      </trkpt>
      <trkpt lat="45.97425" lon="4.82155">
        <ele>261</ele>
        <time>2017-06-02T08:43:49Z</time>
      </trkpt>
      <trkpt lat="45.97421" lon="4.82159">
        <ele>261</ele>
        <time>2017-06-02T08:43:50Z</time>
      </trkpt>
      <trkpt lat="45.97415" lon="4.82167">
        <ele>261</ele>
        <time>2017-06-02T08:43:52Z</time>
      </trkpt>
      <trkpt lat="45.97412" lon="4.8217">
        <ele>261</ele>
        <time>2017-06-02T08:43:53Z</time>
      </trkpt>
      <trkpt lat="45.97406" lon="4.82178">
        <ele>262</ele>
        <time>2017-06-02T08:43:56Z</time>
      </trkpt>
      <trkpt lat="45.97405" lon="4.82181">
        <ele>262</ele>
        <time>2017-06-02T08:43:57Z</time>
      </trkpt>
      <trkpt lat="45.97399" lon="4.8219">
        <ele>262</ele>
        <time>2017-06-02T08:44:00Z</time>
      </trkpt>
      <trkpt lat="45.97397" lon="4.82194">
        <ele>262</ele>
        <time>2017-06-02T08:44:01Z</time>
      </trkpt>
      <trkpt lat="45.97393" lon="4.82203">
        <ele>263</ele>
        <time>2017-06-02T08:44:04Z</time>
      </trkpt>
      <trkpt lat="45.97391" lon="4.82206">
        <ele>263</ele>
        <time>2017-06-02T08:44:05Z</time>
      </trkpt>
      <trkpt lat="45.97388" lon="4.82214">
        <ele>263</ele>
        <time>2017-06-02T08:44:07Z</time>
      </trkpt>
      <trkpt lat="45.97387" lon="4.82218">
        <ele>263</ele>
        <time>2017-06-02T08:44:08Z</time>
      </trkpt>
      <trkpt lat="45.97385" lon="4.82228">
        <ele>263</ele>
        <time>2017-06-02T08:44:11Z</time>
      </trkpt>
      <trkpt lat="45.97384" lon="4.82231">
        <ele>263</ele>
        <time>2017-06-02T08:44:12Z</time>
      </trkpt>
      <trkpt lat="45.97383" lon="4.8224">
        <ele>263</ele>
        <time>2017-06-02T08:44:15Z</time>
      </trkpt>
      <trkpt lat="45.97382" lon="4.82245">
        <ele>263</ele>
        <time>2017-06-02T08:44:16Z</time>
      </trkpt>
      <trkpt lat="45.97382" lon="4.82255">
        <ele>263</ele>
        <time>2017-06-02T08:44:18Z</time>
      </trkpt>
      <trkpt lat="45.97381" lon="4.82261">
        <ele>263</ele>
        <time>2017-06-02T08:44:19Z</time>
      </trkpt>
      <trkpt lat="45.97381" lon="4.82267">
        <ele>263</ele>
        <time>2017-06-02T08:44:20Z</time>
      </trkpt>
      <trkpt lat="45.97381" lon="4.82274">
        <ele>263</ele>
        <time>2017-06-02T08:44:21Z</time>
      </trkpt>
      <trkpt lat="45.9738" lon="4.82286">
        <ele>263</ele>
        <time>2017-06-02T08:44:23Z</time>
      </trkpt>
      <trkpt lat="45.97379" lon="4.82291">
        <ele>263</ele>
        <time>2017-06-02T08:44:24Z</time>
      </trkpt>
      <trkpt lat="45.97379" lon="4.82302">
        <ele>263</ele>
        <time>2017-06-02T08:44:26Z</time>
      </trkpt>
      <trkpt lat="45.97379" lon="4.82307">
        <ele>263</ele>
        <time>2017-06-02T08:44:27Z</time>
      </trkpt>
      <trkpt lat="45.97378" lon="4.82316">
        <ele>263</ele>
        <time>2017-06-02T08:44:29Z</time>
      </trkpt>
      <trkpt lat="45.97378" lon="4.82321">
        <ele>263</ele>
        <time>2017-06-02T08:44:30Z</time>
      </trkpt>
      <trkpt lat="45.97377" lon="4.82332">
        <ele>263</ele>
        <time>2017-06-02T08:44:33Z</time>
      </trkpt>
      <trkpt lat="45.97377" lon="4.82336">
        <ele>263</ele>
        <time>2017-06-02T08:44:34Z</time>
      </trkpt>
      <trkpt lat="45.97378" lon="4.82347">
        <ele>263</ele>
        <time>2017-06-02T08:44:37Z</time>
      </trkpt>
      <trkpt lat="45.97378" lon="4.82351">
        <ele>263</ele>
        <time>2017-06-02T08:44:38Z</time>
      </trkpt>
      <trkpt lat="45.97377" lon="4.8236">
        <ele>263</ele>
        <time>2017-06-02T08:44:40Z</time>
      </trkpt>
      <trkpt lat="45.97377" lon="4.82365">
        <ele>263</ele>
        <time>2017-06-02T08:44:41Z</time>
      </trkpt>
      <trkpt lat="45.97377" lon="4.82376">
        <ele>263</ele>
        <time>2017-06-02T08:44:43Z</time>
      </trkpt>
      <trkpt lat="45.97377" lon="4.82382">
        <ele>263</ele>
        <time>2017-06-02T08:44:44Z</time>
      </trkpt>
      <trkpt lat="45.97377" lon="4.82393">
        <ele>263</ele>
        <time>2017-06-02T08:44:46Z</time>
      </trkpt>
      <trkpt lat="45.97377" lon="4.82398">
        <ele>263</ele>
        <time>2017-06-02T08:44:47Z</time>
      </trkpt>
      <trkpt lat="45.97377" lon="4.82409">
        <ele>263</ele>
        <time>2017-06-02T08:44:49Z</time>
      </trkpt>
      <trkpt lat="45.97377" lon="4.82414">
        <ele>263</ele>
        <time>2017-06-02T08:44:50Z</time>
      </trkpt>
      <trkpt lat="45.97375" lon="4.82426">
        <ele>262</ele>
        <time>2017-06-02T08:44:52Z</time>
      </trkpt>
      <trkpt lat="45.97375" lon="4.82433">
        <ele>262</ele>
        <time>2017-06-02T08:44:53Z</time>
      </trkpt>
      <trkpt lat="45.97375" lon="4.8244">
        <ele>262</ele>
        <time>2017-06-02T08:44:54Z</time>
      </trkpt>
      <trkpt lat="45.97375" lon="4.82447">
        <ele>262</ele>
        <time>2017-06-02T08:44:55Z</time>
      </trkpt>
      <trkpt lat="45.97376" lon="4.82453">
        <ele>262</ele>
        <time>2017-06-02T08:44:56Z</time>
      </trkpt>
      <trkpt lat="45.97376" lon="4.8246">
        <ele>262</ele>
        <time>2017-06-02T08:44:57Z</time>
      </trkpt>
      <trkpt lat="45.97376" lon="4.82466">
        <ele>262</ele>
        <time>2017-06-02T08:44:58Z</time>
      </trkpt>
      <trkpt lat="45.97376" lon="4.82473">
        <ele>262</ele>
        <time>2017-06-02T08:44:59Z</time>
      </trkpt>
      <trkpt lat="45.97377" lon="4.82479">
        <ele>262</ele>
        <time>2017-06-02T08:45:00Z</time>
      </trkpt>
      <trkpt lat="45.97377" lon="4.82486">
        <ele>262</ele>
        <time>2017-06-02T08:45:01Z</time>
      </trkpt>
      <trkpt lat="45.97379" lon="4.82498">
        <ele>262</ele>
        <time>2017-06-02T08:45:03Z</time>
      </trkpt>
      <trkpt lat="45.9738" lon="4.82504">
        <ele>262</ele>
        <time>2017-06-02T08:45:04Z</time>
      </trkpt>
      <trkpt lat="45.97381" lon="4.82516">
        <ele>262</ele>
        <time>2017-06-02T08:45:06Z</time>
      </trkpt>
      <trkpt lat="45.97381" lon="4.82522">
        <ele>262</ele>
        <time>2017-06-02T08:45:07Z</time>
      </trkpt>
      <trkpt lat="45.97381" lon="4.82534">
        <ele>262</ele>
        <time>2017-06-02T08:45:09Z</time>
      </trkpt>
      <trkpt lat="45.97382" lon="4.8254">
        <ele>262</ele>
        <time>2017-06-02T08:45:10Z</time>
      </trkpt>
      <trkpt lat="45.97382" lon="4.82546">
        <ele>262</ele>
        <time>2017-06-02T08:45:11Z</time>
      </trkpt>
      <trkpt lat="45.97383" lon="4.82553">
        <ele>262</ele>
        <time>2017-06-02T08:45:12Z</time>
      </trkpt>
      <trkpt lat="45.97384" lon="4.8256">
        <ele>262</ele>
        <time>2017-06-02T08:45:13Z</time>
      </trkpt>
      <trkpt lat="45.97385" lon="4.82567">
        <ele>262</ele>
        <time>2017-06-02T08:45:14Z</time>
      </trkpt>
      <trkpt lat="45.97386" lon="4.82573">
        <ele>262</ele>
        <time>2017-06-02T08:45:15Z</time>
      </trkpt>
      <trkpt lat="45.97387" lon="4.8258">
        <ele>262</ele>
        <time>2017-06-02T08:45:16Z</time>
      </trkpt>
      <trkpt lat="45.97389" lon="4.82592">
        <ele>262</ele>
        <time>2017-06-02T08:45:18Z</time>
      </trkpt>
      <trkpt lat="45.9739" lon="4.82598">
        <ele>262</ele>
        <time>2017-06-02T08:45:19Z</time>
      </trkpt>
      <trkpt lat="45.97391" lon="4.8261">
        <ele>262</ele>
        <time>2017-06-02T08:45:21Z</time>
      </trkpt>
      <trkpt lat="45.97392" lon="4.82616">
        <ele>262</ele>
        <time>2017-06-02T08:45:22Z</time>
      </trkpt>
      <trkpt lat="45.97394" lon="4.82628">
        <ele>262</ele>
        <time>2017-06-02T08:45:24Z</time>
      </trkpt>
      <trkpt lat="45.97395" lon="4.82635">
        <ele>262</ele>
        <time>2017-06-02T08:45:25Z</time>
      </trkpt>
      <trkpt lat="45.97396" lon="4.82642">
        <ele>262</ele>
        <time>2017-06-02T08:45:26Z</time>
      </trkpt>
      <trkpt lat="45.97397" lon="4.82648">
        <ele>262</ele>
        <time>2017-06-02T08:45:27Z</time>
      </trkpt>
      <trkpt lat="45.97398" lon="4.82655">
        <ele>262</ele>
        <time>2017-06-02T08:45:28Z</time>
      </trkpt>
      <trkpt lat="45.97398" lon="4.82662">
        <ele>262</ele>
        <time>2017-06-02T08:45:29Z</time>
      </trkpt>
      <trkpt lat="45.974" lon="4.82673">
        <ele>263</ele>
        <time>2017-06-02T08:45:31Z</time>
      </trkpt>
      <trkpt lat="45.974" lon="4.82679">
        <ele>263</ele>
        <time>2017-06-02T08:45:32Z</time>
      </trkpt>
      <trkpt lat="45.97401" lon="4.82686">
        <ele>263</ele>
        <time>2017-06-02T08:45:33Z</time>
      </trkpt>
      <trkpt lat="45.97402" lon="4.82693">
        <ele>262</ele>
        <time>2017-06-02T08:45:34Z</time>
      </trkpt>
      <trkpt lat="45.97403" lon="4.827">
        <ele>262</ele>
        <time>2017-06-02T08:45:35Z</time>
      </trkpt>
      <trkpt lat="45.97405" lon="4.82707">
        <ele>262</ele>
        <time>2017-06-02T08:45:36Z</time>
      </trkpt>
      <trkpt lat="45.97406" lon="4.82714">
        <ele>263</ele>
        <time>2017-06-02T08:45:37Z</time>
      </trkpt>
      <trkpt lat="45.97407" lon="4.82721">
        <ele>263</ele>
        <time>2017-06-02T08:45:38Z</time>
      </trkpt>
      <trkpt lat="45.97408" lon="4.82727">
        <ele>263</ele>
        <time>2017-06-02T08:45:39Z</time>
      </trkpt>
      <trkpt lat="45.97409" lon="4.82734">
        <ele>263</ele>
        <time>2017-06-02T08:45:40Z</time>
      </trkpt>
      <trkpt lat="45.97411" lon="4.82745">
        <ele>263</ele>
        <time>2017-06-02T08:45:42Z</time>
      </trkpt>
      <trkpt lat="45.97412" lon="4.82751">
        <ele>263</ele>
        <time>2017-06-02T08:45:43Z</time>
      </trkpt>
      <trkpt lat="45.97414" lon="4.82762">
        <ele>263</ele>
        <time>2017-06-02T08:45:45Z</time>
      </trkpt>
      <trkpt lat="45.97415" lon="4.82769">
        <ele>263</ele>
        <time>2017-06-02T08:45:46Z</time>
      </trkpt>
      <trkpt lat="45.97416" lon="4.82776">
        <ele>264</ele>
        <time>2017-06-02T08:45:47Z</time>
      </trkpt>
      <trkpt lat="45.97418" lon="4.82783">
        <ele>265</ele>
        <time>2017-06-02T08:45:48Z</time>
      </trkpt>
      <trkpt lat="45.9742" lon="4.82791">
        <ele>265</ele>
        <time>2017-06-02T08:45:49Z</time>
      </trkpt>
      <trkpt lat="45.97421" lon="4.82797">
        <ele>265</ele>
        <time>2017-06-02T08:45:50Z</time>
      </trkpt>
      <trkpt lat="45.97422" lon="4.82809">
        <ele>265</ele>
        <time>2017-06-02T08:45:52Z</time>
      </trkpt>
      <trkpt lat="45.97423" lon="4.82814">
        <ele>265</ele>
        <time>2017-06-02T08:45:53Z</time>
      </trkpt>
      <trkpt lat="45.97425" lon="4.82825">
        <ele>266</ele>
        <time>2017-06-02T08:45:55Z</time>
      </trkpt>
      <trkpt lat="45.97426" lon="4.82831">
        <ele>266</ele>
        <time>2017-06-02T08:45:56Z</time>
      </trkpt>
      <trkpt lat="45.97427" lon="4.82838">
        <ele>266</ele>
        <time>2017-06-02T08:45:57Z</time>
      </trkpt>
      <trkpt lat="45.97428" lon="4.82845">
        <ele>267</ele>
        <time>2017-06-02T08:45:58Z</time>
      </trkpt>
      <trkpt lat="45.9743" lon="4.82852">
        <ele>267</ele>
        <time>2017-06-02T08:45:59Z</time>
      </trkpt>
      <trkpt lat="45.97432" lon="4.8286">
        <ele>267</ele>
        <time>2017-06-02T08:46:00Z</time>
      </trkpt>
      <trkpt lat="45.97433" lon="4.82867">
        <ele>267</ele>
        <time>2017-06-02T08:46:01Z</time>
      </trkpt>
      <trkpt lat="45.97434" lon="4.82873">
        <ele>267</ele>
        <time>2017-06-02T08:46:02Z</time>
      </trkpt>
      <trkpt lat="45.97435" lon="4.82885">
        <ele>267</ele>
        <time>2017-06-02T08:46:04Z</time>
      </trkpt>
      <trkpt lat="45.97436" lon="4.8289">
        <ele>267</ele>
        <time>2017-06-02T08:46:05Z</time>
      </trkpt>
      <trkpt lat="45.97438" lon="4.82901">
        <ele>267</ele>
        <time>2017-06-02T08:46:07Z</time>
      </trkpt>
      <trkpt lat="45.97439" lon="4.82907">
        <ele>267</ele>
        <time>2017-06-02T08:46:08Z</time>
      </trkpt>
      <trkpt lat="45.9744" lon="4.82914">
        <ele>267</ele>
        <time>2017-06-02T08:46:09Z</time>
      </trkpt>
      <trkpt lat="45.97441" lon="4.82921">
        <ele>268</ele>
        <time>2017-06-02T08:46:10Z</time>
      </trkpt>
      <trkpt lat="45.97442" lon="4.82928">
        <ele>268</ele>
        <time>2017-06-02T08:46:11Z</time>
      </trkpt>
      <trkpt lat="45.97443" lon="4.82935">
        <ele>268</ele>
        <time>2017-06-02T08:46:12Z</time>
      </trkpt>
      <trkpt lat="45.97444" lon="4.82943">
        <ele>269</ele>
        <time>2017-06-02T08:46:13Z</time>
      </trkpt>
      <trkpt lat="45.97445" lon="4.8295">
        <ele>269</ele>
        <time>2017-06-02T08:46:14Z</time>
      </trkpt>
      <trkpt lat="45.97446" lon="4.82961">
        <ele>269</ele>
        <time>2017-06-02T08:46:16Z</time>
      </trkpt>
      <trkpt lat="45.97447" lon="4.82967">
        <ele>269</ele>
        <time>2017-06-02T08:46:17Z</time>
      </trkpt>
      <trkpt lat="45.97449" lon="4.82975">
        <ele>269</ele>
        <time>2017-06-02T08:46:19Z</time>
      </trkpt>
      <trkpt lat="45.97449" lon="4.82979">
        <ele>269</ele>
        <time>2017-06-02T08:46:20Z</time>
      </trkpt>
      <trkpt lat="45.97451" lon="4.82989">
        <ele>269</ele>
        <time>2017-06-02T08:46:22Z</time>
      </trkpt>
      <trkpt lat="45.97453" lon="4.82994">
        <ele>269</ele>
        <time>2017-06-02T08:46:23Z</time>
      </trkpt>
      <trkpt lat="45.97455" lon="4.83">
        <ele>270</ele>
        <time>2017-06-02T08:46:24Z</time>
      </trkpt>
      <trkpt lat="45.97457" lon="4.83006">
        <ele>270</ele>
        <time>2017-06-02T08:46:25Z</time>
      </trkpt>
      <trkpt lat="45.97459" lon="4.83012">
        <ele>270</ele>
        <time>2017-06-02T08:46:26Z</time>
      </trkpt>
      <trkpt lat="45.9746" lon="4.83019">
        <ele>270</ele>
        <time>2017-06-02T08:46:27Z</time>
      </trkpt>
      <trkpt lat="45.97462" lon="4.83025">
        <ele>270</ele>
        <time>2017-06-02T08:46:28Z</time>
      </trkpt>
      <trkpt lat="45.97463" lon="4.83032">
        <ele>270</ele>
        <time>2017-06-02T08:46:29Z</time>
      </trkpt>
      <trkpt lat="45.97466" lon="4.83042">
        <ele>271</ele>
        <time>2017-06-02T08:46:31Z</time>
      </trkpt>
      <trkpt lat="45.97467" lon="4.83046">
        <ele>271</ele>
        <time>2017-06-02T08:46:32Z</time>
      </trkpt>
      <trkpt lat="45.9747" lon="4.83054">
        <ele>271</ele>
        <time>2017-06-02T08:46:34Z</time>
      </trkpt>
      <trkpt lat="45.97471" lon="4.83058">
        <ele>271</ele>
        <time>2017-06-02T08:46:35Z</time>
      </trkpt>
      <trkpt lat="45.97474" lon="4.83068">
        <ele>271</ele>
        <time>2017-06-02T08:46:37Z</time>
      </trkpt>
      <trkpt lat="45.97476" lon="4.83074">
        <ele>271</ele>
        <time>2017-06-02T08:46:38Z</time>
      </trkpt>
      <trkpt lat="45.97478" lon="4.8308">
        <ele>271</ele>
        <time>2017-06-02T08:46:39Z</time>
      </trkpt>
      <trkpt lat="45.9748" lon="4.83087">
        <ele>272</ele>
        <time>2017-06-02T08:46:40Z</time>
      </trkpt>
      <trkpt lat="45.97481" lon="4.83093">
        <ele>272</ele>
        <time>2017-06-02T08:46:41Z</time>
      </trkpt>
      <trkpt lat="45.97483" lon="4.83099">
        <ele>272</ele>
        <time>2017-06-02T08:46:42Z</time>
      </trkpt>
      <trkpt lat="45.97486" lon="4.83109">
        <ele>272</ele>
        <time>2017-06-02T08:46:44Z</time>
      </trkpt>
      <trkpt lat="45.97487" lon="4.83113">
        <ele>272</ele>
        <time>2017-06-02T08:46:45Z</time>
      </trkpt>
      <trkpt lat="45.9749" lon="4.83125">
        <ele>273</ele>
        <time>2017-06-02T08:46:48Z</time>
      </trkpt>
      <trkpt lat="45.97492" lon="4.83129">
        <ele>273</ele>
        <time>2017-06-02T08:46:49Z</time>
      </trkpt>
      <trkpt lat="45.97495" lon="4.83139">
        <ele>273</ele>
        <time>2017-06-02T08:46:51Z</time>
      </trkpt>
      <trkpt lat="45.97497" lon="4.83145">
        <ele>273</ele>
        <time>2017-06-02T08:46:52Z</time>
      </trkpt>
      <trkpt lat="45.97498" lon="4.83152">
        <ele>273</ele>
        <time>2017-06-02T08:46:53Z</time>
      </trkpt>
      <trkpt lat="45.975" lon="4.83158">
        <ele>274</ele>
        <time>2017-06-02T08:46:54Z</time>
      </trkpt>
      <trkpt lat="45.97504" lon="4.83169">
        <ele>274</ele>
        <time>2017-06-02T08:46:56Z</time>
      </trkpt>
      <trkpt lat="45.97505" lon="4.83174">
        <ele>274</ele>
        <time>2017-06-02T08:46:57Z</time>
      </trkpt>
      <trkpt lat="45.97509" lon="4.83183">
        <ele>275</ele>
        <time>2017-06-02T08:46:59Z</time>
      </trkpt>
      <trkpt lat="45.97511" lon="4.83187">
        <ele>275</ele>
        <time>2017-06-02T08:47:00Z</time>
      </trkpt>
      <trkpt lat="45.97513" lon="4.83195">
        <ele>275</ele>
        <time>2017-06-02T08:47:02Z</time>
      </trkpt>
      <trkpt lat="45.97514" lon="4.83199">
        <ele>275</ele>
        <time>2017-06-02T08:47:03Z</time>
      </trkpt>
      <trkpt lat="45.97516" lon="4.83208">
        <ele>275</ele>
        <time>2017-06-02T08:47:05Z</time>
      </trkpt>
      <trkpt lat="45.97518" lon="4.83213">
        <ele>275</ele>
        <time>2017-06-02T08:47:06Z</time>
      </trkpt>
      <trkpt lat="45.97521" lon="4.83222">
        <ele>275</ele>
        <time>2017-06-02T08:47:08Z</time>
      </trkpt>
      <trkpt lat="45.97522" lon="4.83226">
        <ele>275</ele>
        <time>2017-06-02T08:47:09Z</time>
      </trkpt>
      <trkpt lat="45.97525" lon="4.83234">
        <ele>275</ele>
        <time>2017-06-02T08:47:11Z</time>
      </trkpt>
      <trkpt lat="45.97526" lon="4.83239">
        <ele>275</ele>
        <time>2017-06-02T08:47:12Z</time>
      </trkpt>
      <trkpt lat="45.97529" lon="4.83247">
        <ele>275</ele>
        <time>2017-06-02T08:47:14Z</time>
      </trkpt>
      <trkpt lat="45.9753" lon="4.83252">
        <ele>276</ele>
        <time>2017-06-02T08:47:15Z</time>
      </trkpt>
      <trkpt lat="45.97531" lon="4.83264">
        <ele>276</ele>
        <time>2017-06-02T08:47:17Z</time>
      </trkpt>
      <trkpt lat="45.97532" lon="4.83271">
        <ele>276</ele>
        <time>2017-06-02T08:47:18Z</time>
      </trkpt>
      <trkpt lat="45.97533" lon="4.83277">
        <ele>276</ele>
        <time>2017-06-02T08:47:19Z</time>
      </trkpt>
      <trkpt lat="45.97533" lon="4.83284">
        <ele>276</ele>
        <time>2017-06-02T08:47:20Z</time>
      </trkpt>
      <trkpt lat="45.97534" lon="4.83295">
        <ele>276</ele>
        <time>2017-06-02T08:47:22Z</time>
      </trkpt>
      <trkpt lat="45.97534" lon="4.833">
        <ele>276</ele>
        <time>2017-06-02T08:47:23Z</time>
      </trkpt>
      <trkpt lat="45.97535" lon="4.83312">
        <ele>276</ele>
        <time>2017-06-02T08:47:26Z</time>
      </trkpt>
      <trkpt lat="45.97535" lon="4.83317">
        <ele>276</ele>
        <time>2017-06-02T08:47:27Z</time>
      </trkpt>
      <trkpt lat="45.97535" lon="4.83328">
        <ele>276</ele>
        <time>2017-06-02T08:47:29Z</time>
      </trkpt>
      <trkpt lat="45.97535" lon="4.83334">
        <ele>277</ele>
        <time>2017-06-02T08:47:30Z</time>
      </trkpt>
      <trkpt lat="45.97536" lon="4.83346">
        <ele>277</ele>
        <time>2017-06-02T08:47:32Z</time>
      </trkpt>
      <trkpt lat="45.97537" lon="4.83352">
        <ele>277</ele>
        <time>2017-06-02T08:47:33Z</time>
      </trkpt>
      <trkpt lat="45.97538" lon="4.83363">
        <ele>277</ele>
        <time>2017-06-02T08:47:35Z</time>
      </trkpt>
      <trkpt lat="45.97538" lon="4.83368">
        <ele>277</ele>
        <time>2017-06-02T08:47:36Z</time>
      </trkpt>
      <trkpt lat="45.97539" lon="4.8338">
        <ele>277</ele>
        <time>2017-06-02T08:47:39Z</time>
      </trkpt>
      <trkpt lat="45.97538" lon="4.83384">
        <ele>277</ele>
        <time>2017-06-02T08:47:40Z</time>
      </trkpt>
      <trkpt lat="45.97539" lon="4.83396">
        <ele>277</ele>
        <time>2017-06-02T08:47:43Z</time>
      </trkpt>
      <trkpt lat="45.97539" lon="4.834">
        <ele>277</ele>
        <time>2017-06-02T08:47:44Z</time>
      </trkpt>
      <trkpt lat="45.97539" lon="4.83412">
        <ele>277</ele>
        <time>2017-06-02T08:47:47Z</time>
      </trkpt>
      <trkpt lat="45.97539" lon="4.83417">
        <ele>276</ele>
        <time>2017-06-02T08:47:48Z</time>
      </trkpt>
      <trkpt lat="45.97539" lon="4.83428">
        <ele>276</ele>
        <time>2017-06-02T08:47:50Z</time>
      </trkpt>
      <trkpt lat="45.97539" lon="4.83434">
        <ele>276</ele>
        <time>2017-06-02T08:47:51Z</time>
      </trkpt>
      <trkpt lat="45.97539" lon="4.83445">
        <ele>276</ele>
        <time>2017-06-02T08:47:53Z</time>
      </trkpt>
      <trkpt lat="45.97539" lon="4.83451">
        <ele>276</ele>
        <time>2017-06-02T08:47:54Z</time>
      </trkpt>
      <trkpt lat="45.97539" lon="4.83462">
        <ele>276</ele>
        <time>2017-06-02T08:47:56Z</time>
      </trkpt>
      <trkpt lat="45.97539" lon="4.83467">
        <ele>276</ele>
        <time>2017-06-02T08:47:57Z</time>
      </trkpt>
      <trkpt lat="45.97538" lon="4.83478">
        <ele>276</ele>
        <time>2017-06-02T08:47:59Z</time>
      </trkpt>
      <trkpt lat="45.97538" lon="4.83483">
        <ele>276</ele>
        <time>2017-06-02T08:48:00Z</time>
      </trkpt>
      <trkpt lat="45.97538" lon="4.83495">
        <ele>276</ele>
        <time>2017-06-02T08:48:02Z</time>
      </trkpt>
      <trkpt lat="45.97538" lon="4.83501">
        <ele>276</ele>
        <time>2017-06-02T08:48:03Z</time>
      </trkpt>
      <trkpt lat="45.97537" lon="4.83511">
        <ele>276</ele>
        <time>2017-06-02T08:48:05Z</time>
      </trkpt>
      <trkpt lat="45.97537" lon="4.83516">
        <ele>276</ele>
        <time>2017-06-02T08:48:06Z</time>
      </trkpt>
      <trkpt lat="45.97537" lon="4.83525">
        <ele>276</ele>
        <time>2017-06-02T08:48:08Z</time>
      </trkpt>
      <trkpt lat="45.97537" lon="4.8353">
        <ele>276</ele>
        <time>2017-06-02T08:48:09Z</time>
      </trkpt>
      <trkpt lat="45.97536" lon="4.8354">
        <ele>276</ele>
        <time>2017-06-02T08:48:11Z</time>
      </trkpt>
      <trkpt lat="45.97537" lon="4.83545">
        <ele>276</ele>
        <time>2017-06-02T08:48:12Z</time>
      </trkpt>
      <trkpt lat="45.97536" lon="4.83556">
        <ele>276</ele>
        <time>2017-06-02T08:48:14Z</time>
      </trkpt>
      <trkpt lat="45.97536" lon="4.83562">
        <ele>276</ele>
        <time>2017-06-02T08:48:15Z</time>
      </trkpt>
      <trkpt lat="45.97536" lon="4.83571">
        <ele>276</ele>
        <time>2017-06-02T08:48:17Z</time>
      </trkpt>
      <trkpt lat="45.97535" lon="4.83577">
        <ele>276</ele>
        <time>2017-06-02T08:48:18Z</time>
      </trkpt>
      <trkpt lat="45.97534" lon="4.83588">
        <ele>277</ele>
        <time>2017-06-02T08:48:20Z</time>
      </trkpt>
      <trkpt lat="45.97534" lon="4.83595">
        <ele>277</ele>
        <time>2017-06-02T08:48:21Z</time>
      </trkpt>
      <trkpt lat="45.97534" lon="4.83602">
        <ele>277</ele>
        <time>2017-06-02T08:48:22Z</time>
      </trkpt>
      <trkpt lat="45.97534" lon="4.8361">
        <ele>277</ele>
        <time>2017-06-02T08:48:23Z</time>
      </trkpt>
      <trkpt lat="45.97534" lon="4.83617">
        <ele>277</ele>
        <time>2017-06-02T08:48:24Z</time>
      </trkpt>
      <trkpt lat="45.97534" lon="4.83625">
        <ele>277</ele>
        <time>2017-06-02T08:48:25Z</time>
      </trkpt>
      <trkpt lat="45.97534" lon="4.83632">
        <ele>277</ele>
        <time>2017-06-02T08:48:26Z</time>
      </trkpt>
      <trkpt lat="45.97534" lon="4.83639">
        <ele>277</ele>
        <time>2017-06-02T08:48:27Z</time>
      </trkpt>
      <trkpt lat="45.97534" lon="4.83645">
        <ele>277</ele>
        <time>2017-06-02T08:48:28Z</time>
      </trkpt>
      <trkpt lat="45.97534" lon="4.83652">
        <ele>277</ele>
        <time>2017-06-02T08:48:29Z</time>
      </trkpt>
      <trkpt lat="45.97534" lon="4.83659">
        <ele>277</ele>
        <time>2017-06-02T08:48:30Z</time>
      </trkpt>
      <trkpt lat="45.97535" lon="4.83665">
        <ele>277</ele>
        <time>2017-06-02T08:48:31Z</time>
      </trkpt>
      <trkpt lat="45.97535" lon="4.83672">
        <ele>278</ele>
        <time>2017-06-02T08:48:32Z</time>
      </trkpt>
      <trkpt lat="45.97536" lon="4.83679">
        <ele>278</ele>
        <time>2017-06-02T08:48:33Z</time>
      </trkpt>
      <trkpt lat="45.97536" lon="4.83686">
        <ele>278</ele>
        <time>2017-06-02T08:48:34Z</time>
      </trkpt>
      <trkpt lat="45.97536" lon="4.83693">
        <ele>278</ele>
        <time>2017-06-02T08:48:35Z</time>
      </trkpt>
      <trkpt lat="45.97537" lon="4.837">
        <ele>278</ele>
        <time>2017-06-02T08:48:36Z</time>
      </trkpt>
      <trkpt lat="45.97538" lon="4.83706">
        <ele>278</ele>
        <time>2017-06-02T08:48:37Z</time>
      </trkpt>
      <trkpt lat="45.9754" lon="4.83717">
        <ele>278</ele>
        <time>2017-06-02T08:48:39Z</time>
      </trkpt>
      <trkpt lat="45.9754" lon="4.83723">
        <ele>278</ele>
        <time>2017-06-02T08:48:40Z</time>
      </trkpt>
      <trkpt lat="45.9754" lon="4.83729">
        <ele>278</ele>
        <time>2017-06-02T08:48:41Z</time>
      </trkpt>
      <trkpt lat="45.97541" lon="4.83736">
        <ele>278</ele>
        <time>2017-06-02T08:48:42Z</time>
      </trkpt>
      <trkpt lat="45.97541" lon="4.83743">
        <ele>278</ele>
        <time>2017-06-02T08:48:43Z</time>
      </trkpt>
      <trkpt lat="45.97542" lon="4.83751">
        <ele>279</ele>
        <time>2017-06-02T08:48:44Z</time>
      </trkpt>
      <trkpt lat="45.97543" lon="4.83759">
        <ele>278</ele>
        <time>2017-06-02T08:48:45Z</time>
      </trkpt>
      <trkpt lat="45.97543" lon="4.83766">
        <ele>278</ele>
        <time>2017-06-02T08:48:46Z</time>
      </trkpt>
      <trkpt lat="45.97544" lon="4.83774">
        <ele>278</ele>
        <time>2017-06-02T08:48:47Z</time>
      </trkpt>
      <trkpt lat="45.97544" lon="4.83781">
        <ele>278</ele>
        <time>2017-06-02T08:48:48Z</time>
      </trkpt>
      <trkpt lat="45.97544" lon="4.83788">
        <ele>278</ele>
        <time>2017-06-02T08:48:49Z</time>
      </trkpt>
      <trkpt lat="45.97544" lon="4.83794">
        <ele>278</ele>
        <time>2017-06-02T08:48:50Z</time>
      </trkpt>
      <trkpt lat="45.97544" lon="4.83801">
        <ele>278</ele>
        <time>2017-06-02T08:48:51Z</time>
      </trkpt>
      <trkpt lat="45.97543" lon="4.83807">
        <ele>278</ele>
        <time>2017-06-02T08:48:52Z</time>
      </trkpt>
      <trkpt lat="45.97542" lon="4.8382">
        <ele>278</ele>
        <time>2017-06-02T08:48:54Z</time>
      </trkpt>
      <trkpt lat="45.97542" lon="4.83826">
        <ele>278</ele>
        <time>2017-06-02T08:48:55Z</time>
      </trkpt>
      <trkpt lat="45.97541" lon="4.83838">
        <ele>278</ele>
        <time>2017-06-02T08:48:57Z</time>
      </trkpt>
      <trkpt lat="45.9754" lon="4.83844">
        <ele>278</ele>
        <time>2017-06-02T08:48:58Z</time>
      </trkpt>
      <trkpt lat="45.97539" lon="4.83856">
        <ele>278</ele>
        <time>2017-06-02T08:49:00Z</time>
      </trkpt>
      <trkpt lat="45.97538" lon="4.83861">
        <ele>278</ele>
        <time>2017-06-02T08:49:01Z</time>
      </trkpt>
      <trkpt lat="45.97536" lon="4.83873">
        <ele>278</ele>
        <time>2017-06-02T08:49:03Z</time>
      </trkpt>
      <trkpt lat="45.97534" lon="4.83878">
        <ele>278</ele>
        <time>2017-06-02T08:49:04Z</time>
      </trkpt>
      <trkpt lat="45.97533" lon="4.83884">
        <ele>278</ele>
        <time>2017-06-02T08:49:05Z</time>
      </trkpt>
      <trkpt lat="45.97532" lon="4.83891">
        <ele>278</ele>
        <time>2017-06-02T08:49:06Z</time>
      </trkpt>
      <trkpt lat="45.97531" lon="4.83898">
        <ele>278</ele>
        <time>2017-06-02T08:49:07Z</time>
      </trkpt>
      <trkpt lat="45.9753" lon="4.83905">
        <ele>278</ele>
        <time>2017-06-02T08:49:08Z</time>
      </trkpt>
      <trkpt lat="45.97529" lon="4.83912">
        <ele>277</ele>
        <time>2017-06-02T08:49:09Z</time>
      </trkpt>
      <trkpt lat="45.97527" lon="4.83918">
        <ele>277</ele>
        <time>2017-06-02T08:49:10Z</time>
      </trkpt>
      <trkpt lat="45.97525" lon="4.8393">
        <ele>277</ele>
        <time>2017-06-02T08:49:12Z</time>
      </trkpt>
      <trkpt lat="45.97523" lon="4.83935">
        <ele>277</ele>
        <time>2017-06-02T08:49:13Z</time>
      </trkpt>
      <trkpt lat="45.9752" lon="4.83947">
        <ele>277</ele>
        <time>2017-06-02T08:49:15Z</time>
      </trkpt>
      <trkpt lat="45.97519" lon="4.83953">
        <ele>277</ele>
        <time>2017-06-02T08:49:16Z</time>
      </trkpt>
      <trkpt lat="45.97518" lon="4.8396">
        <ele>277</ele>
        <time>2017-06-02T08:49:17Z</time>
      </trkpt>
      <trkpt lat="45.97516" lon="4.83966">
        <ele>277</ele>
        <time>2017-06-02T08:49:18Z</time>
      </trkpt>
      <trkpt lat="45.97515" lon="4.83973">
        <ele>277</ele>
        <time>2017-06-02T08:49:19Z</time>
      </trkpt>
      <trkpt lat="45.97513" lon="4.8398">
        <ele>277</ele>
        <time>2017-06-02T08:49:20Z</time>
      </trkpt>
      <trkpt lat="45.97512" lon="4.83987">
        <ele>277</ele>
        <time>2017-06-02T08:49:21Z</time>
      </trkpt>
      <trkpt lat="45.9751" lon="4.83994">
        <ele>277</ele>
        <time>2017-06-02T08:49:22Z</time>
      </trkpt>
      <trkpt lat="45.97509" lon="4.84001">
        <ele>277</ele>
        <time>2017-06-02T08:49:23Z</time>
      </trkpt>
      <trkpt lat="45.97507" lon="4.84008">
        <ele>277</ele>
        <time>2017-06-02T08:49:24Z</time>
      </trkpt>
      <trkpt lat="45.97506" lon="4.84015">
        <ele>277</ele>
        <time>2017-06-02T08:49:25Z</time>
      </trkpt>
      <trkpt lat="45.97505" lon="4.84022">
        <ele>277</ele>
        <time>2017-06-02T08:49:26Z</time>
      </trkpt>
      <trkpt lat="45.97502" lon="4.84034">
        <ele>277</ele>
        <time>2017-06-02T08:49:28Z</time>
      </trkpt>
      <trkpt lat="45.97501" lon="4.84039">
        <ele>277</ele>
        <time>2017-06-02T08:49:29Z</time>
      </trkpt>
      <trkpt lat="45.97499" lon="4.8405">
        <ele>278</ele>
        <time>2017-06-02T08:49:31Z</time>
      </trkpt>
      <trkpt lat="45.97498" lon="4.84056">
        <ele>278</ele>
        <time>2017-06-02T08:49:32Z</time>
      </trkpt>
      <trkpt lat="45.97497" lon="4.84063">
        <ele>278</ele>
        <time>2017-06-02T08:49:33Z</time>
      </trkpt>
      <trkpt lat="45.97495" lon="4.8407">
        <ele>278</ele>
        <time>2017-06-02T08:49:34Z</time>
      </trkpt>
      <trkpt lat="45.97494" lon="4.84077">
        <ele>278</ele>
        <time>2017-06-02T08:49:35Z</time>
      </trkpt>
      <trkpt lat="45.97492" lon="4.84085">
        <ele>278</ele>
        <time>2017-06-02T08:49:36Z</time>
      </trkpt>
      <trkpt lat="45.97491" lon="4.84093">
        <ele>279</ele>
        <time>2017-06-02T08:49:37Z</time>
      </trkpt>
      <trkpt lat="45.97489" lon="4.841">
        <ele>279</ele>
        <time>2017-06-02T08:49:38Z</time>
      </trkpt>
      <trkpt lat="45.97487" lon="4.84107">
        <ele>279</ele>
        <time>2017-06-02T08:49:39Z</time>
      </trkpt>
      <trkpt lat="45.97486" lon="4.84114">
        <ele>279</ele>
        <time>2017-06-02T08:49:40Z</time>
      </trkpt>
      <trkpt lat="45.97483" lon="4.84126">
        <ele>279</ele>
        <time>2017-06-02T08:49:42Z</time>
      </trkpt>
      <trkpt lat="45.97482" lon="4.84132">
        <ele>279</ele>
        <time>2017-06-02T08:49:43Z</time>
      </trkpt>
      <trkpt lat="45.97481" lon="4.84143">
        <ele>279</ele>
        <time>2017-06-02T08:49:45Z</time>
      </trkpt>
      <trkpt lat="45.9748" lon="4.84148">
        <ele>279</ele>
        <time>2017-06-02T08:49:46Z</time>
      </trkpt>
      <trkpt lat="45.97478" lon="4.84158">
        <ele>279</ele>
        <time>2017-06-02T08:49:48Z</time>
      </trkpt>
      <trkpt lat="45.97478" lon="4.84164">
        <ele>279</ele>
        <time>2017-06-02T08:49:49Z</time>
      </trkpt>
      <trkpt lat="45.97477" lon="4.8417">
        <ele>279</ele>
        <time>2017-06-02T08:49:50Z</time>
      </trkpt>
      <trkpt lat="45.97476" lon="4.84177">
        <ele>279</ele>
        <time>2017-06-02T08:49:51Z</time>
      </trkpt>
      <trkpt lat="45.97474" lon="4.84184">
        <ele>279</ele>
        <time>2017-06-02T08:49:52Z</time>
      </trkpt>
      <trkpt lat="45.97473" lon="4.84192">
        <ele>279</ele>
        <time>2017-06-02T08:49:53Z</time>
      </trkpt>
      <trkpt lat="45.97472" lon="4.842">
        <ele>279</ele>
        <time>2017-06-02T08:49:54Z</time>
      </trkpt>
      <trkpt lat="45.97471" lon="4.84208">
        <ele>279</ele>
        <time>2017-06-02T08:49:55Z</time>
      </trkpt>
      <trkpt lat="45.9747" lon="4.84215">
        <ele>279</ele>
        <time>2017-06-02T08:49:56Z</time>
      </trkpt>
      <trkpt lat="45.9747" lon="4.84222">
        <ele>279</ele>
        <time>2017-06-02T08:49:57Z</time>
      </trkpt>
      <trkpt lat="45.97469" lon="4.84229">
        <ele>279</ele>
        <time>2017-06-02T08:49:58Z</time>
      </trkpt>
      <trkpt lat="45.97468" lon="4.84235">
        <ele>279</ele>
        <time>2017-06-02T08:49:59Z</time>
      </trkpt>
      <trkpt lat="45.97467" lon="4.84247">
        <ele>279</ele>
        <time>2017-06-02T08:50:01Z</time>
      </trkpt>
      <trkpt lat="45.97466" lon="4.84253">
        <ele>278</ele>
        <time>2017-06-02T08:50:02Z</time>
      </trkpt>
      <trkpt lat="45.97464" lon="4.84264">
        <ele>278</ele>
        <time>2017-06-02T08:50:04Z</time>
      </trkpt>
      <trkpt lat="45.97463" lon="4.84269">
        <ele>278</ele>
        <time>2017-06-02T08:50:05Z</time>
      </trkpt>
      <trkpt lat="45.97462" lon="4.84279">
        <ele>278</ele>
        <time>2017-06-02T08:50:07Z</time>
      </trkpt>
      <trkpt lat="45.97462" lon="4.84286">
        <ele>278</ele>
        <time>2017-06-02T08:50:08Z</time>
      </trkpt>
      <trkpt lat="45.97461" lon="4.84293">
        <ele>278</ele>
        <time>2017-06-02T08:50:09Z</time>
      </trkpt>
      <trkpt lat="45.9746" lon="4.84301">
        <ele>278</ele>
        <time>2017-06-02T08:50:10Z</time>
      </trkpt>
      <trkpt lat="45.97459" lon="4.84309">
        <ele>278</ele>
        <time>2017-06-02T08:50:11Z</time>
      </trkpt>
      <trkpt lat="45.97458" lon="4.84317">
        <ele>278</ele>
        <time>2017-06-02T08:50:12Z</time>
      </trkpt>
      <trkpt lat="45.97456" lon="4.84325">
        <ele>278</ele>
        <time>2017-06-02T08:50:13Z</time>
      </trkpt>
      <trkpt lat="45.97455" lon="4.84333">
        <ele>278</ele>
        <time>2017-06-02T08:50:14Z</time>
      </trkpt>
      <trkpt lat="45.97454" lon="4.8434">
        <ele>277</ele>
        <time>2017-06-02T08:50:15Z</time>
      </trkpt>
      <trkpt lat="45.97454" lon="4.84347">
        <ele>277</ele>
        <time>2017-06-02T08:50:16Z</time>
      </trkpt>
      <trkpt lat="45.97453" lon="4.84354">
        <ele>277</ele>
        <time>2017-06-02T08:50:17Z</time>
      </trkpt>
      <trkpt lat="45.97452" lon="4.84361">
        <ele>277</ele>
        <time>2017-06-02T08:50:18Z</time>
      </trkpt>
      <trkpt lat="45.97451" lon="4.84367">
        <ele>278</ele>
        <time>2017-06-02T08:50:19Z</time>
      </trkpt>
      <trkpt lat="45.97449" lon="4.84374">
        <ele>278</ele>
        <time>2017-06-02T08:50:20Z</time>
      </trkpt>
      <trkpt lat="45.97449" lon="4.84381">
        <ele>278</ele>
        <time>2017-06-02T08:50:21Z</time>
      </trkpt>
      <trkpt lat="45.97448" lon="4.84388">
        <ele>278</ele>
        <time>2017-06-02T08:50:22Z</time>
      </trkpt>
      <trkpt lat="45.97446" lon="4.844">
        <ele>278</ele>
        <time>2017-06-02T08:50:24Z</time>
      </trkpt>
      <trkpt lat="45.97446" lon="4.84406">
        <ele>278</ele>
        <time>2017-06-02T08:50:25Z</time>
      </trkpt>
      <trkpt lat="45.97444" lon="4.84419">
        <ele>278</ele>
        <time>2017-06-02T08:50:27Z</time>
      </trkpt>
      <trkpt lat="45.97444" lon="4.84425">
        <ele>278</ele>
        <time>2017-06-02T08:50:28Z</time>
      </trkpt>
      <trkpt lat="45.97443" lon="4.84432">
        <ele>278</ele>
        <time>2017-06-02T08:50:29Z</time>
      </trkpt>
      <trkpt lat="45.97442" lon="4.8444">
        <ele>278</ele>
        <time>2017-06-02T08:50:30Z</time>
      </trkpt>
      <trkpt lat="45.97441" lon="4.84447">
        <ele>278</ele>
        <time>2017-06-02T08:50:31Z</time>
      </trkpt>
      <trkpt lat="45.9744" lon="4.84455">
        <ele>278</ele>
        <time>2017-06-02T08:50:32Z</time>
      </trkpt>
      <trkpt lat="45.97439" lon="4.84463">
        <ele>277</ele>
        <time>2017-06-02T08:50:33Z</time>
      </trkpt>
      <trkpt lat="45.97438" lon="4.84471">
        <ele>277</ele>
        <time>2017-06-02T08:50:34Z</time>
      </trkpt>
      <trkpt lat="45.97437" lon="4.84479">
        <ele>277</ele>
        <time>2017-06-02T08:50:35Z</time>
      </trkpt>
      <trkpt lat="45.97436" lon="4.84487">
        <ele>277</ele>
        <time>2017-06-02T08:50:36Z</time>
      </trkpt>
      <trkpt lat="45.97436" lon="4.84494">
        <ele>278</ele>
        <time>2017-06-02T08:50:37Z</time>
      </trkpt>
      <trkpt lat="45.97435" lon="4.84501">
        <ele>277</ele>
        <time>2017-06-02T08:50:38Z</time>
      </trkpt>
      <trkpt lat="45.97434" lon="4.84508">
        <ele>277</ele>
        <time>2017-06-02T08:50:39Z</time>
      </trkpt>
      <trkpt lat="45.97433" lon="4.84515">
        <ele>277</ele>
        <time>2017-06-02T08:50:40Z</time>
      </trkpt>
      <trkpt lat="45.97432" lon="4.84521">
        <ele>277</ele>
        <time>2017-06-02T08:50:41Z</time>
      </trkpt>
      <trkpt lat="45.97431" lon="4.84528">
        <ele>277</ele>
        <time>2017-06-02T08:50:42Z</time>
      </trkpt>
      <trkpt lat="45.9743" lon="4.8454">
        <ele>277</ele>
        <time>2017-06-02T08:50:44Z</time>
      </trkpt>
      <trkpt lat="45.97429" lon="4.84546">
        <ele>277</ele>
        <time>2017-06-02T08:50:45Z</time>
      </trkpt>
      <trkpt lat="45.97427" lon="4.84559">
        <ele>277</ele>
        <time>2017-06-02T08:50:47Z</time>
      </trkpt>
      <trkpt lat="45.97425" lon="4.84565">
        <ele>277</ele>
        <time>2017-06-02T08:50:48Z</time>
      </trkpt>
      <trkpt lat="45.97424" lon="4.84572">
        <ele>277</ele>
        <time>2017-06-02T08:50:49Z</time>
      </trkpt>
      <trkpt lat="45.97423" lon="4.84579">
        <ele>277</ele>
        <time>2017-06-02T08:50:50Z</time>
      </trkpt>
      <trkpt lat="45.97422" lon="4.84587">
        <ele>277</ele>
        <time>2017-06-02T08:50:51Z</time>
      </trkpt>
      <trkpt lat="45.97421" lon="4.84595">
        <ele>277</ele>
        <time>2017-06-02T08:50:52Z</time>
      </trkpt>
      <trkpt lat="45.9742" lon="4.84602">
        <ele>277</ele>
        <time>2017-06-02T08:50:53Z</time>
      </trkpt>
      <trkpt lat="45.97419" lon="4.84609">
        <ele>276</ele>
        <time>2017-06-02T08:50:54Z</time>
      </trkpt>
      <trkpt lat="45.97418" lon="4.84615">
        <ele>276</ele>
        <time>2017-06-02T08:50:55Z</time>
      </trkpt>
      <trkpt lat="45.97417" lon="4.84622">
        <ele>278</ele>
        <time>2017-06-02T08:50:56Z</time>
      </trkpt>
      <trkpt lat="45.97416" lon="4.84628">
        <ele>278</ele>
        <time>2017-06-02T08:50:57Z</time>
      </trkpt>
      <trkpt lat="45.97414" lon="4.84634">
        <ele>278</ele>
        <time>2017-06-02T08:50:58Z</time>
      </trkpt>
      <trkpt lat="45.97412" lon="4.84646">
        <ele>278</ele>
        <time>2017-06-02T08:51:00Z</time>
      </trkpt>
      <trkpt lat="45.97411" lon="4.84652">
        <ele>277</ele>
        <time>2017-06-02T08:51:01Z</time>
      </trkpt>
      <trkpt lat="45.97408" lon="4.84663">
        <ele>277</ele>
        <time>2017-06-02T08:51:03Z</time>
      </trkpt>
      <trkpt lat="45.97407" lon="4.84669">
        <ele>277</ele>
        <time>2017-06-02T08:51:04Z</time>
      </trkpt>
      <trkpt lat="45.97404" lon="4.8468">
        <ele>278</ele>
        <time>2017-06-02T08:51:06Z</time>
      </trkpt>
      <trkpt lat="45.97402" lon="4.84687">
        <ele>278</ele>
        <time>2017-06-02T08:51:07Z</time>
      </trkpt>
      <trkpt lat="45.974" lon="4.84693">
        <ele>278</ele>
        <time>2017-06-02T08:51:08Z</time>
      </trkpt>
      <trkpt lat="45.97398" lon="4.84699">
        <ele>278</ele>
        <time>2017-06-02T08:51:09Z</time>
      </trkpt>
      <trkpt lat="45.97395" lon="4.84705">
        <ele>278</ele>
        <time>2017-06-02T08:51:10Z</time>
      </trkpt>
      <trkpt lat="45.97393" lon="4.84711">
        <ele>278</ele>
        <time>2017-06-02T08:51:11Z</time>
      </trkpt>
      <trkpt lat="45.97391" lon="4.84718">
        <ele>278</ele>
        <time>2017-06-02T08:51:12Z</time>
      </trkpt>
      <trkpt lat="45.97389" lon="4.84724">
        <ele>278</ele>
        <time>2017-06-02T08:51:13Z</time>
      </trkpt>
      <trkpt lat="45.97385" lon="4.84735">
        <ele>278</ele>
        <time>2017-06-02T08:51:15Z</time>
      </trkpt>
      <trkpt lat="45.97382" lon="4.8474">
        <ele>278</ele>
        <time>2017-06-02T08:51:16Z</time>
      </trkpt>
      <trkpt lat="45.9738" lon="4.84745">
        <ele>278</ele>
        <time>2017-06-02T08:51:17Z</time>
      </trkpt>
      <trkpt lat="45.97378" lon="4.84752">
        <ele>278</ele>
        <time>2017-06-02T08:51:18Z</time>
      </trkpt>
      <trkpt lat="45.97375" lon="4.84759">
        <ele>278</ele>
        <time>2017-06-02T08:51:19Z</time>
      </trkpt>
      <trkpt lat="45.97372" lon="4.84766">
        <ele>278</ele>
        <time>2017-06-02T08:51:20Z</time>
      </trkpt>
      <trkpt lat="45.97369" lon="4.84773">
        <ele>278</ele>
        <time>2017-06-02T08:51:21Z</time>
      </trkpt>
      <trkpt lat="45.97365" lon="4.8478">
        <ele>278</ele>
        <time>2017-06-02T08:51:22Z</time>
      </trkpt>
      <trkpt lat="45.97363" lon="4.84787">
        <ele>278</ele>
        <time>2017-06-02T08:51:23Z</time>
      </trkpt>
      <trkpt lat="45.9736" lon="4.84794">
        <ele>278</ele>
        <time>2017-06-02T08:51:24Z</time>
      </trkpt>
      <trkpt lat="45.97358" lon="4.848">
        <ele>278</ele>
        <time>2017-06-02T08:51:25Z</time>
      </trkpt>
      <trkpt lat="45.97355" lon="4.84807">
        <ele>278</ele>
        <time>2017-06-02T08:51:26Z</time>
      </trkpt>
      <trkpt lat="45.97352" lon="4.84814">
        <ele>278</ele>
        <time>2017-06-02T08:51:27Z</time>
      </trkpt>
      <trkpt lat="45.9735" lon="4.84822">
        <ele>278</ele>
        <time>2017-06-02T08:51:28Z</time>
      </trkpt>
      <trkpt lat="45.97347" lon="4.84829">
        <ele>278</ele>
        <time>2017-06-02T08:51:29Z</time>
      </trkpt>
      <trkpt lat="45.97343" lon="4.84837">
        <ele>277</ele>
        <time>2017-06-02T08:51:30Z</time>
      </trkpt>
      <trkpt lat="45.97341" lon="4.84845">
        <ele>277</ele>
        <time>2017-06-02T08:51:31Z</time>
      </trkpt>
      <trkpt lat="45.97338" lon="4.84852">
        <ele>277</ele>
        <time>2017-06-02T08:51:32Z</time>
      </trkpt>
      <trkpt lat="45.97334" lon="4.84858">
        <ele>277</ele>
        <time>2017-06-02T08:51:33Z</time>
      </trkpt>
      <trkpt lat="45.97331" lon="4.84864">
        <ele>278</ele>
        <time>2017-06-02T08:51:34Z</time>
      </trkpt>
      <trkpt lat="45.97327" lon="4.8487">
        <ele>278</ele>
        <time>2017-06-02T08:51:35Z</time>
      </trkpt>
      <trkpt lat="45.97324" lon="4.84875">
        <ele>278</ele>
        <time>2017-06-02T08:51:36Z</time>
      </trkpt>
      <trkpt lat="45.97321" lon="4.84881">
        <ele>278</ele>
        <time>2017-06-02T08:51:37Z</time>
      </trkpt>
      <trkpt lat="45.97318" lon="4.84886">
        <ele>278</ele>
        <time>2017-06-02T08:51:38Z</time>
      </trkpt>
      <trkpt lat="45.97312" lon="4.84895">
        <ele>278</ele>
        <time>2017-06-02T08:51:40Z</time>
      </trkpt>
      <trkpt lat="45.97309" lon="4.849">
        <ele>278</ele>
        <time>2017-06-02T08:51:41Z</time>
      </trkpt>
      <trkpt lat="45.97306" lon="4.84905">
        <ele>278</ele>
        <time>2017-06-02T08:51:42Z</time>
      </trkpt>
      <trkpt lat="45.97303" lon="4.84911">
        <ele>278</ele>
        <time>2017-06-02T08:51:43Z</time>
      </trkpt>
      <trkpt lat="45.97299" lon="4.84916">
        <ele>278</ele>
        <time>2017-06-02T08:51:44Z</time>
      </trkpt>
      <trkpt lat="45.97295" lon="4.84922">
        <ele>278</ele>
        <time>2017-06-02T08:51:45Z</time>
      </trkpt>
      <trkpt lat="45.97291" lon="4.84929">
        <ele>278</ele>
        <time>2017-06-02T08:51:46Z</time>
      </trkpt>
      <trkpt lat="45.97288" lon="4.84936">
        <ele>278</ele>
        <time>2017-06-02T08:51:47Z</time>
      </trkpt>
      <trkpt lat="45.97284" lon="4.84942">
        <ele>278</ele>
        <time>2017-06-02T08:51:48Z</time>
      </trkpt>
      <trkpt lat="45.9728" lon="4.84947">
        <ele>278</ele>
        <time>2017-06-02T08:51:49Z</time>
      </trkpt>
      <trkpt lat="45.97277" lon="4.84954">
        <ele>278</ele>
        <time>2017-06-02T08:51:50Z</time>
      </trkpt>
      <trkpt lat="45.97274" lon="4.8496">
        <ele>279</ele>
        <time>2017-06-02T08:51:51Z</time>
      </trkpt>
      <trkpt lat="45.97271" lon="4.84965">
        <ele>279</ele>
        <time>2017-06-02T08:51:52Z</time>
      </trkpt>
      <trkpt lat="45.97268" lon="4.84971">
        <ele>279</ele>
        <time>2017-06-02T08:51:53Z</time>
      </trkpt>
      <trkpt lat="45.97263" lon="4.84982">
        <ele>279</ele>
        <time>2017-06-02T08:51:55Z</time>
      </trkpt>
      <trkpt lat="45.97261" lon="4.84987">
        <ele>279</ele>
        <time>2017-06-02T08:51:56Z</time>
      </trkpt>
      <trkpt lat="45.97258" lon="4.84993">
        <ele>279</ele>
        <time>2017-06-02T08:51:57Z</time>
      </trkpt>
      <trkpt lat="45.97256" lon="4.84999">
        <ele>279</ele>
        <time>2017-06-02T08:51:58Z</time>
      </trkpt>
      <trkpt lat="45.97253" lon="4.85006">
        <ele>279</ele>
        <time>2017-06-02T08:51:59Z</time>
      </trkpt>
      <trkpt lat="45.9725" lon="4.85013">
        <ele>279</ele>
        <time>2017-06-02T08:52:00Z</time>
      </trkpt>
      <trkpt lat="45.97247" lon="4.8502">
        <ele>279</ele>
        <time>2017-06-02T08:52:01Z</time>
      </trkpt>
      <trkpt lat="45.97244" lon="4.85026">
        <ele>279</ele>
        <time>2017-06-02T08:52:02Z</time>
      </trkpt>
      <trkpt lat="45.97241" lon="4.85032">
        <ele>279</ele>
        <time>2017-06-02T08:52:03Z</time>
      </trkpt>
      <trkpt lat="45.97239" lon="4.85038">
        <ele>279</ele>
        <time>2017-06-02T08:52:04Z</time>
      </trkpt>
      <trkpt lat="45.97233" lon="4.85048">
        <ele>279</ele>
        <time>2017-06-02T08:52:06Z</time>
      </trkpt>
      <trkpt lat="45.97231" lon="4.85053">
        <ele>279</ele>
        <time>2017-06-02T08:52:07Z</time>
      </trkpt>
      <trkpt lat="45.97226" lon="4.85062">
        <ele>279</ele>
        <time>2017-06-02T08:52:09Z</time>
      </trkpt>
      <trkpt lat="45.97224" lon="4.85067">
        <ele>278</ele>
        <time>2017-06-02T08:52:10Z</time>
      </trkpt>
      <trkpt lat="45.97221" lon="4.85073">
        <ele>278</ele>
        <time>2017-06-02T08:52:11Z</time>
      </trkpt>
      <trkpt lat="45.97219" lon="4.85079">
        <ele>278</ele>
        <time>2017-06-02T08:52:12Z</time>
      </trkpt>
      <trkpt lat="45.97217" lon="4.85085">
        <ele>278</ele>
        <time>2017-06-02T08:52:13Z</time>
      </trkpt>
      <trkpt lat="45.97214" lon="4.85091">
        <ele>278</ele>
        <time>2017-06-02T08:52:14Z</time>
      </trkpt>
      <trkpt lat="45.9721" lon="4.85098">
        <ele>278</ele>
        <time>2017-06-02T08:52:15Z</time>
      </trkpt>
      <trkpt lat="45.97207" lon="4.85105">
        <ele>278</ele>
        <time>2017-06-02T08:52:16Z</time>
      </trkpt>
      <trkpt lat="45.97204" lon="4.85112">
        <ele>278</ele>
        <time>2017-06-02T08:52:17Z</time>
      </trkpt>
      <trkpt lat="45.97201" lon="4.85118">
        <ele>278</ele>
        <time>2017-06-02T08:52:18Z</time>
      </trkpt>
      <trkpt lat="45.97198" lon="4.85123">
        <ele>278</ele>
        <time>2017-06-02T08:52:19Z</time>
      </trkpt>
      <trkpt lat="45.97196" lon="4.85129">
        <ele>278</ele>
        <time>2017-06-02T08:52:20Z</time>
      </trkpt>
      <trkpt lat="45.97191" lon="4.8514">
        <ele>278</ele>
        <time>2017-06-02T08:52:22Z</time>
      </trkpt>
      <trkpt lat="45.97189" lon="4.85145">
        <ele>278</ele>
        <time>2017-06-02T08:52:23Z</time>
      </trkpt>
      <trkpt lat="45.97184" lon="4.85153">
        <ele>278</ele>
        <time>2017-06-02T08:52:25Z</time>
      </trkpt>
      <trkpt lat="45.97182" lon="4.85158">
        <ele>278</ele>
        <time>2017-06-02T08:52:26Z</time>
      </trkpt>
      <trkpt lat="45.97179" lon="4.85163">
        <ele>278</ele>
        <time>2017-06-02T08:52:27Z</time>
      </trkpt>
      <trkpt lat="45.97177" lon="4.85169">
        <ele>278</ele>
        <time>2017-06-02T08:52:28Z</time>
      </trkpt>
      <trkpt lat="45.97174" lon="4.85176">
        <ele>278</ele>
        <time>2017-06-02T08:52:29Z</time>
      </trkpt>
      <trkpt lat="45.97171" lon="4.85182">
        <ele>278</ele>
        <time>2017-06-02T08:52:30Z</time>
      </trkpt>
      <trkpt lat="45.97168" lon="4.85188">
        <ele>278</ele>
        <time>2017-06-02T08:52:31Z</time>
      </trkpt>
      <trkpt lat="45.97164" lon="4.85195">
        <ele>279</ele>
        <time>2017-06-02T08:52:32Z</time>
      </trkpt>
      <trkpt lat="45.97161" lon="4.85202">
        <ele>279</ele>
        <time>2017-06-02T08:52:33Z</time>
      </trkpt>
      <trkpt lat="45.97157" lon="4.85208">
        <ele>279</ele>
        <time>2017-06-02T08:52:34Z</time>
      </trkpt>
      <trkpt lat="45.97154" lon="4.85214">
        <ele>279</ele>
        <time>2017-06-02T08:52:35Z</time>
      </trkpt>
      <trkpt lat="45.97152" lon="4.8522">
        <ele>279</ele>
        <time>2017-06-02T08:52:36Z</time>
      </trkpt>
      <trkpt lat="45.97149" lon="4.85226">
        <ele>279</ele>
        <time>2017-06-02T08:52:37Z</time>
      </trkpt>
      <trkpt lat="45.97147" lon="4.85232">
        <ele>279</ele>
        <time>2017-06-02T08:52:38Z</time>
      </trkpt>
      <trkpt lat="45.97142" lon="4.85242">
        <ele>279</ele>
        <time>2017-06-02T08:52:40Z</time>
      </trkpt>
      <trkpt lat="45.9714" lon="4.85247">
        <ele>279</ele>
        <time>2017-06-02T08:52:41Z</time>
      </trkpt>
      <trkpt lat="45.97136" lon="4.85255">
        <ele>279</ele>
        <time>2017-06-02T08:52:43Z</time>
      </trkpt>
      <trkpt lat="45.97134" lon="4.85258">
        <ele>279</ele>
        <time>2017-06-02T08:52:44Z</time>
      </trkpt>
      <trkpt lat="45.9713" lon="4.85266">
        <ele>279</ele>
        <time>2017-06-02T08:52:46Z</time>
      </trkpt>
      <trkpt lat="45.97127" lon="4.8527">
        <ele>279</ele>
        <time>2017-06-02T08:52:47Z</time>
      </trkpt>
      <trkpt lat="45.97123" lon="4.85281">
        <ele>280</ele>
        <time>2017-06-02T08:52:49Z</time>
      </trkpt>
      <trkpt lat="45.9712" lon="4.85287">
        <ele>280</ele>
        <time>2017-06-02T08:52:50Z</time>
      </trkpt>
      <trkpt lat="45.97118" lon="4.85293">
        <ele>280</ele>
        <time>2017-06-02T08:52:51Z</time>
      </trkpt>
      <trkpt lat="45.97115" lon="4.853">
        <ele>280</ele>
        <time>2017-06-02T08:52:52Z</time>
      </trkpt>
      <trkpt lat="45.97112" lon="4.85307">
        <ele>280</ele>
        <time>2017-06-02T08:52:53Z</time>
      </trkpt>
      <trkpt lat="45.97109" lon="4.85313">
        <ele>280</ele>
        <time>2017-06-02T08:52:54Z</time>
      </trkpt>
      <trkpt lat="45.97106" lon="4.8532">
        <ele>280</ele>
        <time>2017-06-02T08:52:55Z</time>
      </trkpt>
      <trkpt lat="45.97103" lon="4.85327">
        <ele>280</ele>
        <time>2017-06-02T08:52:56Z</time>
      </trkpt>
      <trkpt lat="45.97101" lon="4.85333">
        <ele>280</ele>
        <time>2017-06-02T08:52:57Z</time>
      </trkpt>
      <trkpt lat="45.97099" lon="4.85339">
        <ele>280</ele>
        <time>2017-06-02T08:52:58Z</time>
      </trkpt>
      <trkpt lat="45.97095" lon="4.8535">
        <ele>280</ele>
        <time>2017-06-02T08:53:00Z</time>
      </trkpt>
      <trkpt lat="45.97093" lon="4.85355">
        <ele>280</ele>
        <time>2017-06-02T08:53:01Z</time>
      </trkpt>
      <trkpt lat="45.9709" lon="4.85365">
        <ele>280</ele>
        <time>2017-06-02T08:53:03Z</time>
      </trkpt>
      <trkpt lat="45.97088" lon="4.8537">
        <ele>280</ele>
        <time>2017-06-02T08:53:04Z</time>
      </trkpt>
      <trkpt lat="45.97086" lon="4.8538">
        <ele>280</ele>
        <time>2017-06-02T08:53:06Z</time>
      </trkpt>
      <trkpt lat="45.97085" lon="4.85385">
        <ele>280</ele>
        <time>2017-06-02T08:53:07Z</time>
      </trkpt>
      <trkpt lat="45.97082" lon="4.85397">
        <ele>281</ele>
        <time>2017-06-02T08:53:09Z</time>
      </trkpt>
      <trkpt lat="45.9708" lon="4.85403">
        <ele>281</ele>
        <time>2017-06-02T08:53:10Z</time>
      </trkpt>
      <trkpt lat="45.97078" lon="4.8541">
        <ele>280</ele>
        <time>2017-06-02T08:53:11Z</time>
      </trkpt>
      <trkpt lat="45.97075" lon="4.85416">
        <ele>280</ele>
        <time>2017-06-02T08:53:12Z</time>
      </trkpt>
      <trkpt lat="45.97073" lon="4.85423">
        <ele>281</ele>
        <time>2017-06-02T08:53:13Z</time>
      </trkpt>
      <trkpt lat="45.9707" lon="4.85431">
        <ele>281</ele>
        <time>2017-06-02T08:53:14Z</time>
      </trkpt>
      <trkpt lat="45.97068" lon="4.85437">
        <ele>281</ele>
        <time>2017-06-02T08:53:15Z</time>
      </trkpt>
      <trkpt lat="45.97066" lon="4.85443">
        <ele>281</ele>
        <time>2017-06-02T08:53:16Z</time>
      </trkpt>
      <trkpt lat="45.97064" lon="4.85449">
        <ele>281</ele>
        <time>2017-06-02T08:53:17Z</time>
      </trkpt>
      <trkpt lat="45.97062" lon="4.85454">
        <ele>281</ele>
        <time>2017-06-02T08:53:18Z</time>
      </trkpt>
      <trkpt lat="45.97058" lon="4.85465">
        <ele>281</ele>
        <time>2017-06-02T08:53:20Z</time>
      </trkpt>
      <trkpt lat="45.97057" lon="4.8547">
        <ele>281</ele>
        <time>2017-06-02T08:53:21Z</time>
      </trkpt>
      <trkpt lat="45.97054" lon="4.85479">
        <ele>281</ele>
        <time>2017-06-02T08:53:23Z</time>
      </trkpt>
      <trkpt lat="45.97053" lon="4.85483">
        <ele>281</ele>
        <time>2017-06-02T08:53:24Z</time>
      </trkpt>
      <trkpt lat="45.9705" lon="4.85492">
        <ele>281</ele>
        <time>2017-06-02T08:53:26Z</time>
      </trkpt>
      <trkpt lat="45.97048" lon="4.85496">
        <ele>281</ele>
        <time>2017-06-02T08:53:27Z</time>
      </trkpt>
      <trkpt lat="45.97044" lon="4.85507">
        <ele>282</ele>
        <time>2017-06-02T08:53:30Z</time>
      </trkpt>
      <trkpt lat="45.97043" lon="4.85511">
        <ele>282</ele>
        <time>2017-06-02T08:53:31Z</time>
      </trkpt>
      <trkpt lat="45.97039" lon="4.85522">
        <ele>282</ele>
        <time>2017-06-02T08:53:33Z</time>
      </trkpt>
      <trkpt lat="45.97037" lon="4.85527">
        <ele>282</ele>
        <time>2017-06-02T08:53:34Z</time>
      </trkpt>
      <trkpt lat="45.97035" lon="4.85533">
        <ele>282</ele>
        <time>2017-06-02T08:53:35Z</time>
      </trkpt>
      <trkpt lat="45.97033" lon="4.8554">
        <ele>282</ele>
        <time>2017-06-02T08:53:36Z</time>
      </trkpt>
      <trkpt lat="45.97031" lon="4.85547">
        <ele>283</ele>
        <time>2017-06-02T08:53:37Z</time>
      </trkpt>
      <trkpt lat="45.97029" lon="4.85554">
        <ele>283</ele>
        <time>2017-06-02T08:53:38Z</time>
      </trkpt>
      <trkpt lat="45.97027" lon="4.85562">
        <ele>283</ele>
        <time>2017-06-02T08:53:39Z</time>
      </trkpt>
      <trkpt lat="45.97025" lon="4.85569">
        <ele>283</ele>
        <time>2017-06-02T08:53:40Z</time>
      </trkpt>
      <trkpt lat="45.97023" lon="4.85576">
        <ele>283</ele>
        <time>2017-06-02T08:53:41Z</time>
      </trkpt>
      <trkpt lat="45.97021" lon="4.85583">
        <ele>283</ele>
        <time>2017-06-02T08:53:42Z</time>
      </trkpt>
      <trkpt lat="45.97018" lon="4.85594">
        <ele>284</ele>
        <time>2017-06-02T08:53:44Z</time>
      </trkpt>
      <trkpt lat="45.97017" lon="4.85599">
        <ele>284</ele>
        <time>2017-06-02T08:53:45Z</time>
      </trkpt>
      <trkpt lat="45.97014" lon="4.85608">
        <ele>284</ele>
        <time>2017-06-02T08:53:47Z</time>
      </trkpt>
      <trkpt lat="45.97012" lon="4.85612">
        <ele>284</ele>
        <time>2017-06-02T08:53:48Z</time>
      </trkpt>
      <trkpt lat="45.97009" lon="4.85622">
        <ele>284</ele>
        <time>2017-06-02T08:53:50Z</time>
      </trkpt>
      <trkpt lat="45.97008" lon="4.85629">
        <ele>284</ele>
        <time>2017-06-02T08:53:51Z</time>
      </trkpt>
      <trkpt lat="45.97007" lon="4.85635">
        <ele>284</ele>
        <time>2017-06-02T08:53:52Z</time>
      </trkpt>
      <trkpt lat="45.97005" lon="4.85641">
        <ele>284</ele>
        <time>2017-06-02T08:53:53Z</time>
      </trkpt>
      <trkpt lat="45.97003" lon="4.85648">
        <ele>285</ele>
        <time>2017-06-02T08:53:54Z</time>
      </trkpt>
      <trkpt lat="45.97001" lon="4.85655">
        <ele>285</ele>
        <time>2017-06-02T08:53:55Z</time>
      </trkpt>
      <trkpt lat="45.96999" lon="4.85662">
        <ele>286</ele>
        <time>2017-06-02T08:53:56Z</time>
      </trkpt>
      <trkpt lat="45.96997" lon="4.85669">
        <ele>286</ele>
        <time>2017-06-02T08:53:57Z</time>
      </trkpt>
      <trkpt lat="45.96994" lon="4.8568">
        <ele>286</ele>
        <time>2017-06-02T08:53:59Z</time>
      </trkpt>
      <trkpt lat="45.96993" lon="4.85686">
        <ele>285</ele>
        <time>2017-06-02T08:54:00Z</time>
      </trkpt>
      <trkpt lat="45.9699" lon="4.85696">
        <ele>285</ele>
        <time>2017-06-02T08:54:02Z</time>
      </trkpt>
      <trkpt lat="45.96989" lon="4.85701">
        <ele>285</ele>
        <time>2017-06-02T08:54:03Z</time>
      </trkpt>
      <trkpt lat="45.96987" lon="4.8571">
        <ele>285</ele>
        <time>2017-06-02T08:54:05Z</time>
      </trkpt>
      <trkpt lat="45.96985" lon="4.85715">
        <ele>285</ele>
        <time>2017-06-02T08:54:06Z</time>
      </trkpt>
      <trkpt lat="45.96982" lon="4.85724">
        <ele>285</ele>
        <time>2017-06-02T08:54:08Z</time>
      </trkpt>
      <trkpt lat="45.96981" lon="4.85729">
        <ele>285</ele>
        <time>2017-06-02T08:54:09Z</time>
      </trkpt>
      <trkpt lat="45.96978" lon="4.85741">
        <ele>285</ele>
        <time>2017-06-02T08:54:11Z</time>
      </trkpt>
      <trkpt lat="45.96976" lon="4.85748">
        <ele>285</ele>
        <time>2017-06-02T08:54:12Z</time>
      </trkpt>
      <trkpt lat="45.96975" lon="4.85754">
        <ele>285</ele>
        <time>2017-06-02T08:54:13Z</time>
      </trkpt>
      <trkpt lat="45.96973" lon="4.8576">
        <ele>285</ele>
        <time>2017-06-02T08:54:14Z</time>
      </trkpt>
      <trkpt lat="45.9697" lon="4.85772">
        <ele>285</ele>
        <time>2017-06-02T08:54:16Z</time>
      </trkpt>
      <trkpt lat="45.96969" lon="4.85778">
        <ele>285</ele>
        <time>2017-06-02T08:54:17Z</time>
      </trkpt>
      <trkpt lat="45.96966" lon="4.85788">
        <ele>285</ele>
        <time>2017-06-02T08:54:19Z</time>
      </trkpt>
      <trkpt lat="45.96965" lon="4.85793">
        <ele>285</ele>
        <time>2017-06-02T08:54:20Z</time>
      </trkpt>
      <trkpt lat="45.96962" lon="4.85803">
        <ele>285</ele>
        <time>2017-06-02T08:54:22Z</time>
      </trkpt>
      <trkpt lat="45.96961" lon="4.85808">
        <ele>285</ele>
        <time>2017-06-02T08:54:23Z</time>
      </trkpt>
      <trkpt lat="45.96958" lon="4.85818">
        <ele>285</ele>
        <time>2017-06-02T08:54:25Z</time>
      </trkpt>
      <trkpt lat="45.96957" lon="4.85823">
        <ele>285</ele>
        <time>2017-06-02T08:54:26Z</time>
      </trkpt>
      <trkpt lat="45.96955" lon="4.85832">
        <ele>285</ele>
        <time>2017-06-02T08:54:28Z</time>
      </trkpt>
      <trkpt lat="45.96954" lon="4.85836">
        <ele>285</ele>
        <time>2017-06-02T08:54:29Z</time>
      </trkpt>
      <trkpt lat="45.96952" lon="4.85847">
        <ele>285</ele>
        <time>2017-06-02T08:54:31Z</time>
      </trkpt>
      <trkpt lat="45.9695" lon="4.85853">
        <ele>285</ele>
        <time>2017-06-02T08:54:32Z</time>
      </trkpt>
      <trkpt lat="45.96949" lon="4.8586">
        <ele>285</ele>
        <time>2017-06-02T08:54:33Z</time>
      </trkpt>
      <trkpt lat="45.96947" lon="4.85867">
        <ele>285</ele>
        <time>2017-06-02T08:54:34Z</time>
      </trkpt>
      <trkpt lat="45.96945" lon="4.85875">
        <ele>285</ele>
        <time>2017-06-02T08:54:35Z</time>
      </trkpt>
      <trkpt lat="45.96943" lon="4.85882">
        <ele>285</ele>
        <time>2017-06-02T08:54:36Z</time>
      </trkpt>
      <trkpt lat="45.96941" lon="4.85889">
        <ele>285</ele>
        <time>2017-06-02T08:54:37Z</time>
      </trkpt>
      <trkpt lat="45.96939" lon="4.85895">
        <ele>285</ele>
        <time>2017-06-02T08:54:38Z</time>
      </trkpt>
      <trkpt lat="45.96935" lon="4.85907">
        <ele>286</ele>
        <time>2017-06-02T08:54:40Z</time>
      </trkpt>
      <trkpt lat="45.96933" lon="4.85912">
        <ele>286</ele>
        <time>2017-06-02T08:54:41Z</time>
      </trkpt>
      <trkpt lat="45.96931" lon="4.85922">
        <ele>286</ele>
        <time>2017-06-02T08:54:43Z</time>
      </trkpt>
      <trkpt lat="45.9693" lon="4.85927">
        <ele>286</ele>
        <time>2017-06-02T08:54:44Z</time>
      </trkpt>
      <trkpt lat="45.96927" lon="4.85936">
        <ele>286</ele>
        <time>2017-06-02T08:54:46Z</time>
      </trkpt>
      <trkpt lat="45.96926" lon="4.85941">
        <ele>286</ele>
        <time>2017-06-02T08:54:47Z</time>
      </trkpt>
      <trkpt lat="45.96923" lon="4.8595">
        <ele>287</ele>
        <time>2017-06-02T08:54:49Z</time>
      </trkpt>
      <trkpt lat="45.96921" lon="4.85955">
        <ele>287</ele>
        <time>2017-06-02T08:54:50Z</time>
      </trkpt>
      <trkpt lat="45.96918" lon="4.85967">
        <ele>287</ele>
        <time>2017-06-02T08:54:52Z</time>
      </trkpt>
      <trkpt lat="45.96917" lon="4.85973">
        <ele>287</ele>
        <time>2017-06-02T08:54:53Z</time>
      </trkpt>
      <trkpt lat="45.96915" lon="4.85983">
        <ele>288</ele>
        <time>2017-06-02T08:54:55Z</time>
      </trkpt>
      <trkpt lat="45.96914" lon="4.85988">
        <ele>288</ele>
        <time>2017-06-02T08:54:56Z</time>
      </trkpt>
      <trkpt lat="45.96912" lon="4.85997">
        <ele>288</ele>
        <time>2017-06-02T08:54:58Z</time>
      </trkpt>
      <trkpt lat="45.96911" lon="4.86003">
        <ele>288</ele>
        <time>2017-06-02T08:54:59Z</time>
      </trkpt>
      <trkpt lat="45.9691" lon="4.86009">
        <ele>288</ele>
        <time>2017-06-02T08:55:00Z</time>
      </trkpt>
      <trkpt lat="45.9691" lon="4.86016">
        <ele>289</ele>
        <time>2017-06-02T08:55:01Z</time>
      </trkpt>
      <trkpt lat="45.96909" lon="4.86023">
        <ele>289</ele>
        <time>2017-06-02T08:55:02Z</time>
      </trkpt>
      <trkpt lat="45.96908" lon="4.8603">
        <ele>289</ele>
        <time>2017-06-02T08:55:03Z</time>
      </trkpt>
      <trkpt lat="45.96907" lon="4.86038">
        <ele>289</ele>
        <time>2017-06-02T08:55:04Z</time>
      </trkpt>
      <trkpt lat="45.96906" lon="4.86046">
        <ele>289</ele>
        <time>2017-06-02T08:55:05Z</time>
      </trkpt>
      <trkpt lat="45.96905" lon="4.86053">
        <ele>289</ele>
        <time>2017-06-02T08:55:06Z</time>
      </trkpt>
      <trkpt lat="45.96904" lon="4.86061">
        <ele>288</ele>
        <time>2017-06-02T08:55:07Z</time>
      </trkpt>
      <trkpt lat="45.96903" lon="4.86068">
        <ele>288</ele>
        <time>2017-06-02T08:55:08Z</time>
      </trkpt>
      <trkpt lat="45.96903" lon="4.86075">
        <ele>288</ele>
        <time>2017-06-02T08:55:09Z</time>
      </trkpt>
      <trkpt lat="45.96901" lon="4.86087">
        <ele>288</ele>
        <time>2017-06-02T08:55:11Z</time>
      </trkpt>
      <trkpt lat="45.96901" lon="4.86092">
        <ele>288</ele>
        <time>2017-06-02T08:55:12Z</time>
      </trkpt>
      <trkpt lat="45.969" lon="4.86103">
        <ele>289</ele>
        <time>2017-06-02T08:55:14Z</time>
      </trkpt>
      <trkpt lat="45.969" lon="4.86108">
        <ele>289</ele>
        <time>2017-06-02T08:55:15Z</time>
      </trkpt>
      <trkpt lat="45.96899" lon="4.86118">
        <ele>289</ele>
        <time>2017-06-02T08:55:17Z</time>
      </trkpt>
      <trkpt lat="45.96898" lon="4.86123">
        <ele>289</ele>
        <time>2017-06-02T08:55:18Z</time>
      </trkpt>
      <trkpt lat="45.96896" lon="4.86135">
        <ele>289</ele>
        <time>2017-06-02T08:55:20Z</time>
      </trkpt>
      <trkpt lat="45.96895" lon="4.86141">
        <ele>289</ele>
        <time>2017-06-02T08:55:21Z</time>
      </trkpt>
      <trkpt lat="45.96893" lon="4.86148">
        <ele>289</ele>
        <time>2017-06-02T08:55:22Z</time>
      </trkpt>
      <trkpt lat="45.96892" lon="4.86155">
        <ele>289</ele>
        <time>2017-06-02T08:55:23Z</time>
      </trkpt>
      <trkpt lat="45.96892" lon="4.86163">
        <ele>289</ele>
        <time>2017-06-02T08:55:24Z</time>
      </trkpt>
      <trkpt lat="45.96891" lon="4.8617">
        <ele>289</ele>
        <time>2017-06-02T08:55:25Z</time>
      </trkpt>
      <trkpt lat="45.9689" lon="4.86178">
        <ele>289</ele>
        <time>2017-06-02T08:55:26Z</time>
      </trkpt>
      <trkpt lat="45.96889" lon="4.86184">
        <ele>289</ele>
        <time>2017-06-02T08:55:27Z</time>
      </trkpt>
      <trkpt lat="45.96888" lon="4.86196">
        <ele>289</ele>
        <time>2017-06-02T08:55:29Z</time>
      </trkpt>
      <trkpt lat="45.96887" lon="4.86201">
        <ele>289</ele>
        <time>2017-06-02T08:55:30Z</time>
      </trkpt>
      <trkpt lat="45.96885" lon="4.8621">
        <ele>289</ele>
        <time>2017-06-02T08:55:32Z</time>
      </trkpt>
      <trkpt lat="45.96885" lon="4.86214">
        <ele>289</ele>
        <time>2017-06-02T08:55:33Z</time>
      </trkpt>
      <trkpt lat="45.96884" lon="4.86224">
        <ele>289</ele>
        <time>2017-06-02T08:55:35Z</time>
      </trkpt>
      <trkpt lat="45.96883" lon="4.86229">
        <ele>289</ele>
        <time>2017-06-02T08:55:36Z</time>
      </trkpt>
      <trkpt lat="45.96881" lon="4.8624">
        <ele>289</ele>
        <time>2017-06-02T08:55:38Z</time>
      </trkpt>
      <trkpt lat="45.9688" lon="4.86246">
        <ele>289</ele>
        <time>2017-06-02T08:55:39Z</time>
      </trkpt>
      <trkpt lat="45.96879" lon="4.86258">
        <ele>288</ele>
        <time>2017-06-02T08:55:41Z</time>
      </trkpt>
      <trkpt lat="45.96878" lon="4.86263">
        <ele>288</ele>
        <time>2017-06-02T08:55:42Z</time>
      </trkpt>
      <trkpt lat="45.96876" lon="4.86273">
        <ele>289</ele>
        <time>2017-06-02T08:55:44Z</time>
      </trkpt>
      <trkpt lat="45.96876" lon="4.86278">
        <ele>289</ele>
        <time>2017-06-02T08:55:45Z</time>
      </trkpt>
      <trkpt lat="45.96875" lon="4.86287">
        <ele>289</ele>
        <time>2017-06-02T08:55:47Z</time>
      </trkpt>
      <trkpt lat="45.96874" lon="4.86293">
        <ele>289</ele>
        <time>2017-06-02T08:55:48Z</time>
      </trkpt>
      <trkpt lat="45.96872" lon="4.86304">
        <ele>289</ele>
        <time>2017-06-02T08:55:50Z</time>
      </trkpt>
      <trkpt lat="45.96871" lon="4.8631">
        <ele>289</ele>
        <time>2017-06-02T08:55:51Z</time>
      </trkpt>
      <trkpt lat="45.96869" lon="4.86322">
        <ele>289</ele>
        <time>2017-06-02T08:55:53Z</time>
      </trkpt>
      <trkpt lat="45.96868" lon="4.86328">
        <ele>289</ele>
        <time>2017-06-02T08:55:54Z</time>
      </trkpt>
      <trkpt lat="45.96867" lon="4.86335">
        <ele>290</ele>
        <time>2017-06-02T08:55:55Z</time>
      </trkpt>
      <trkpt lat="45.96867" lon="4.86341">
        <ele>290</ele>
        <time>2017-06-02T08:55:56Z</time>
      </trkpt>
      <trkpt lat="45.96866" lon="4.86347">
        <ele>290</ele>
        <time>2017-06-02T08:55:57Z</time>
      </trkpt>
      <trkpt lat="45.96865" lon="4.86354">
        <ele>290</ele>
        <time>2017-06-02T08:55:58Z</time>
      </trkpt>
      <trkpt lat="45.96864" lon="4.8636">
        <ele>290</ele>
        <time>2017-06-02T08:55:59Z</time>
      </trkpt>
      <trkpt lat="45.96863" lon="4.86366">
        <ele>290</ele>
        <time>2017-06-02T08:56:00Z</time>
      </trkpt>
      <trkpt lat="45.96861" lon="4.86379">
        <ele>290</ele>
        <time>2017-06-02T08:56:02Z</time>
      </trkpt>
      <trkpt lat="45.9686" lon="4.86384">
        <ele>290</ele>
        <time>2017-06-02T08:56:03Z</time>
      </trkpt>
      <trkpt lat="45.96859" lon="4.86396">
        <ele>290</ele>
        <time>2017-06-02T08:56:05Z</time>
      </trkpt>
      <trkpt lat="45.96858" lon="4.86403">
        <ele>290</ele>
        <time>2017-06-02T08:56:06Z</time>
      </trkpt>
      <trkpt lat="45.96857" lon="4.86409">
        <ele>291</ele>
        <time>2017-06-02T08:56:07Z</time>
      </trkpt>
      <trkpt lat="45.96855" lon="4.86416">
        <ele>291</ele>
        <time>2017-06-02T08:56:08Z</time>
      </trkpt>
      <trkpt lat="45.96854" lon="4.86422">
        <ele>290</ele>
        <time>2017-06-02T08:56:09Z</time>
      </trkpt>
      <trkpt lat="45.96853" lon="4.86429">
        <ele>290</ele>
        <time>2017-06-02T08:56:10Z</time>
      </trkpt>
      <trkpt lat="45.96852" lon="4.86435">
        <ele>290</ele>
        <time>2017-06-02T08:56:11Z</time>
      </trkpt>
      <trkpt lat="45.96851" lon="4.86442">
        <ele>290</ele>
        <time>2017-06-02T08:56:12Z</time>
      </trkpt>
      <trkpt lat="45.96848" lon="4.86453">
        <ele>289</ele>
        <time>2017-06-02T08:56:14Z</time>
      </trkpt>
      <trkpt lat="45.96846" lon="4.86459">
        <ele>289</ele>
        <time>2017-06-02T08:56:15Z</time>
      </trkpt>
      <trkpt lat="45.96843" lon="4.8647">
        <ele>289</ele>
        <time>2017-06-02T08:56:17Z</time>
      </trkpt>
      <trkpt lat="45.96841" lon="4.86475">
        <ele>289</ele>
        <time>2017-06-02T08:56:18Z</time>
      </trkpt>
      <trkpt lat="45.96839" lon="4.8648">
        <ele>289</ele>
        <time>2017-06-02T08:56:19Z</time>
      </trkpt>
      <trkpt lat="45.96837" lon="4.86486">
        <ele>289</ele>
        <time>2017-06-02T08:56:20Z</time>
      </trkpt>
      <trkpt lat="45.96835" lon="4.86492">
        <ele>289</ele>
        <time>2017-06-02T08:56:21Z</time>
      </trkpt>
      <trkpt lat="45.96833" lon="4.86498">
        <ele>289</ele>
        <time>2017-06-02T08:56:22Z</time>
      </trkpt>
      <trkpt lat="45.9683" lon="4.86504">
        <ele>289</ele>
        <time>2017-06-02T08:56:23Z</time>
      </trkpt>
      <trkpt lat="45.96828" lon="4.86511">
        <ele>289</ele>
        <time>2017-06-02T08:56:24Z</time>
      </trkpt>
      <trkpt lat="45.96825" lon="4.86517">
        <ele>289</ele>
        <time>2017-06-02T08:56:25Z</time>
      </trkpt>
      <trkpt lat="45.96821" lon="4.86524">
        <ele>289</ele>
        <time>2017-06-02T08:56:26Z</time>
      </trkpt>
      <trkpt lat="45.96818" lon="4.8653">
        <ele>290</ele>
        <time>2017-06-02T08:56:27Z</time>
      </trkpt>
      <trkpt lat="45.96814" lon="4.86536">
        <ele>290</ele>
        <time>2017-06-02T08:56:28Z</time>
      </trkpt>
      <trkpt lat="45.96811" lon="4.86543">
        <ele>290</ele>
        <time>2017-06-02T08:56:29Z</time>
      </trkpt>
      <trkpt lat="45.96807" lon="4.86549">
        <ele>290</ele>
        <time>2017-06-02T08:56:30Z</time>
      </trkpt>
      <trkpt lat="45.96804" lon="4.86555">
        <ele>290</ele>
        <time>2017-06-02T08:56:31Z</time>
      </trkpt>
      <trkpt lat="45.968" lon="4.86561">
        <ele>290</ele>
        <time>2017-06-02T08:56:32Z</time>
      </trkpt>
      <trkpt lat="45.96797" lon="4.86567">
        <ele>290</ele>
        <time>2017-06-02T08:56:33Z</time>
      </trkpt>
      <trkpt lat="45.96793" lon="4.86572">
        <ele>290</ele>
        <time>2017-06-02T08:56:34Z</time>
      </trkpt>
      <trkpt lat="45.9679" lon="4.86577">
        <ele>290</ele>
        <time>2017-06-02T08:56:35Z</time>
      </trkpt>
      <trkpt lat="45.96787" lon="4.86581">
        <ele>290</ele>
        <time>2017-06-02T08:56:36Z</time>
      </trkpt>
      <trkpt lat="45.9678" lon="4.8659">
        <ele>289</ele>
        <time>2017-06-02T08:56:38Z</time>
      </trkpt>
      <trkpt lat="45.96778" lon="4.86595">
        <ele>289</ele>
        <time>2017-06-02T08:56:39Z</time>
      </trkpt>
      <trkpt lat="45.96775" lon="4.866">
        <ele>289</ele>
        <time>2017-06-02T08:56:40Z</time>
      </trkpt>
      <trkpt lat="45.96772" lon="4.86605">
        <ele>289</ele>
        <time>2017-06-02T08:56:41Z</time>
      </trkpt>
      <trkpt lat="45.96769" lon="4.8661">
        <ele>289</ele>
        <time>2017-06-02T08:56:42Z</time>
      </trkpt>
      <trkpt lat="45.96766" lon="4.86615">
        <ele>289</ele>
        <time>2017-06-02T08:56:43Z</time>
      </trkpt>
      <trkpt lat="45.96762" lon="4.8662">
        <ele>289</ele>
        <time>2017-06-02T08:56:44Z</time>
      </trkpt>
      <trkpt lat="45.9676" lon="4.86625">
        <ele>289</ele>
        <time>2017-06-02T08:56:45Z</time>
      </trkpt>
      <trkpt lat="45.96754" lon="4.86635">
        <ele>290</ele>
        <time>2017-06-02T08:56:47Z</time>
      </trkpt>
      <trkpt lat="45.96751" lon="4.8664">
        <ele>290</ele>
        <time>2017-06-02T08:56:48Z</time>
      </trkpt>
      <trkpt lat="45.96748" lon="4.86645">
        <ele>290</ele>
        <time>2017-06-02T08:56:49Z</time>
      </trkpt>
      <trkpt lat="45.96745" lon="4.8665">
        <ele>290</ele>
        <time>2017-06-02T08:56:50Z</time>
      </trkpt>
      <trkpt lat="45.96742" lon="4.86656">
        <ele>290</ele>
        <time>2017-06-02T08:56:51Z</time>
      </trkpt>
      <trkpt lat="45.96739" lon="4.86662">
        <ele>290</ele>
        <time>2017-06-02T08:56:52Z</time>
      </trkpt>
      <trkpt lat="45.96736" lon="4.86667">
        <ele>290</ele>
        <time>2017-06-02T08:56:53Z</time>
      </trkpt>
      <trkpt lat="45.96732" lon="4.86673">
        <ele>290</ele>
        <time>2017-06-02T08:56:54Z</time>
      </trkpt>
      <trkpt lat="45.96729" lon="4.86678">
        <ele>289</ele>
        <time>2017-06-02T08:56:55Z</time>
      </trkpt>
      <trkpt lat="45.96726" lon="4.86683">
        <ele>289</ele>
        <time>2017-06-02T08:56:56Z</time>
      </trkpt>
      <trkpt lat="45.96723" lon="4.86689">
        <ele>289</ele>
        <time>2017-06-02T08:56:57Z</time>
      </trkpt>
      <trkpt lat="45.96719" lon="4.86694">
        <ele>289</ele>
        <time>2017-06-02T08:56:58Z</time>
      </trkpt>
      <trkpt lat="45.96716" lon="4.867">
        <ele>289</ele>
        <time>2017-06-02T08:56:59Z</time>
      </trkpt>
      <trkpt lat="45.96713" lon="4.86706">
        <ele>289</ele>
        <time>2017-06-02T08:57:00Z</time>
      </trkpt>
      <trkpt lat="45.9671" lon="4.86711">
        <ele>289</ele>
        <time>2017-06-02T08:57:01Z</time>
      </trkpt>
      <trkpt lat="45.96707" lon="4.86717">
        <ele>289</ele>
        <time>2017-06-02T08:57:02Z</time>
      </trkpt>
      <trkpt lat="45.96703" lon="4.86722">
        <ele>289</ele>
        <time>2017-06-02T08:57:03Z</time>
      </trkpt>
      <trkpt lat="45.967" lon="4.86727">
        <ele>289</ele>
        <time>2017-06-02T08:57:04Z</time>
      </trkpt>
      <trkpt lat="45.96696" lon="4.86732">
        <ele>289</ele>
        <time>2017-06-02T08:57:05Z</time>
      </trkpt>
      <trkpt lat="45.96693" lon="4.86738">
        <ele>289</ele>
        <time>2017-06-02T08:57:06Z</time>
      </trkpt>
      <trkpt lat="45.9669" lon="4.86743">
        <ele>289</ele>
        <time>2017-06-02T08:57:07Z</time>
      </trkpt>
      <trkpt lat="45.96687" lon="4.86749">
        <ele>289</ele>
        <time>2017-06-02T08:57:08Z</time>
      </trkpt>
      <trkpt lat="45.96684" lon="4.86754">
        <ele>289</ele>
        <time>2017-06-02T08:57:09Z</time>
      </trkpt>
      <trkpt lat="45.96681" lon="4.86758">
        <ele>289</ele>
        <time>2017-06-02T08:57:10Z</time>
      </trkpt>
      <trkpt lat="45.96678" lon="4.86764">
        <ele>289</ele>
        <time>2017-06-02T08:57:11Z</time>
      </trkpt>
      <trkpt lat="45.96675" lon="4.86769">
        <ele>289</ele>
        <time>2017-06-02T08:57:12Z</time>
      </trkpt>
      <trkpt lat="45.96669" lon="4.86778">
        <ele>289</ele>
        <time>2017-06-02T08:57:14Z</time>
      </trkpt>
      <trkpt lat="45.96666" lon="4.86783">
        <ele>288</ele>
        <time>2017-06-02T08:57:15Z</time>
      </trkpt>
      <trkpt lat="45.96663" lon="4.86788">
        <ele>288</ele>
        <time>2017-06-02T08:57:16Z</time>
      </trkpt>
      <trkpt lat="45.9666" lon="4.86793">
        <ele>288</ele>
        <time>2017-06-02T08:57:17Z</time>
      </trkpt>
      <trkpt lat="45.96657" lon="4.86798">
        <ele>288</ele>
        <time>2017-06-02T08:57:18Z</time>
      </trkpt>
      <trkpt lat="45.96653" lon="4.86804">
        <ele>288</ele>
        <time>2017-06-02T08:57:19Z</time>
      </trkpt>
      <trkpt lat="45.96649" lon="4.8681">
        <ele>288</ele>
        <time>2017-06-02T08:57:20Z</time>
      </trkpt>
      <trkpt lat="45.96645" lon="4.86817">
        <ele>288</ele>
        <time>2017-06-02T08:57:21Z</time>
      </trkpt>
      <trkpt lat="45.96641" lon="4.86823">
        <ele>288</ele>
        <time>2017-06-02T08:57:22Z</time>
      </trkpt>
      <trkpt lat="45.96637" lon="4.8683">
        <ele>288</ele>
        <time>2017-06-02T08:57:23Z</time>
      </trkpt>
      <trkpt lat="45.96632" lon="4.86838">
        <ele>287</ele>
        <time>2017-06-02T08:57:24Z</time>
      </trkpt>
      <trkpt lat="45.96628" lon="4.86845">
        <ele>287</ele>
        <time>2017-06-02T08:57:25Z</time>
      </trkpt>
      <trkpt lat="45.96624" lon="4.86851">
        <ele>287</ele>
        <time>2017-06-02T08:57:26Z</time>
      </trkpt>
      <trkpt lat="45.9662" lon="4.86858">
        <ele>287</ele>
        <time>2017-06-02T08:57:27Z</time>
      </trkpt>
      <trkpt lat="45.96616" lon="4.86864">
        <ele>287</ele>
        <time>2017-06-02T08:57:28Z</time>
      </trkpt>
      <trkpt lat="45.96611" lon="4.8687">
        <ele>287</ele>
        <time>2017-06-02T08:57:29Z</time>
      </trkpt>
      <trkpt lat="45.96607" lon="4.86876">
        <ele>287</ele>
        <time>2017-06-02T08:57:30Z</time>
      </trkpt>
      <trkpt lat="45.96603" lon="4.86883">
        <ele>287</ele>
        <time>2017-06-02T08:57:31Z</time>
      </trkpt>
      <trkpt lat="45.96599" lon="4.8689">
        <ele>286</ele>
        <time>2017-06-02T08:57:32Z</time>
      </trkpt>
      <trkpt lat="45.96594" lon="4.86896">
        <ele>286</ele>
        <time>2017-06-02T08:57:33Z</time>
      </trkpt>
      <trkpt lat="45.96589" lon="4.86902">
        <ele>286</ele>
        <time>2017-06-02T08:57:34Z</time>
      </trkpt>
      <trkpt lat="45.96585" lon="4.86908">
        <ele>286</ele>
        <time>2017-06-02T08:57:35Z</time>
      </trkpt>
      <trkpt lat="45.96581" lon="4.86914">
        <ele>285</ele>
        <time>2017-06-02T08:57:36Z</time>
      </trkpt>
      <trkpt lat="45.96577" lon="4.86921">
        <ele>284</ele>
        <time>2017-06-02T08:57:37Z</time>
      </trkpt>
      <trkpt lat="45.96573" lon="4.86927">
        <ele>284</ele>
        <time>2017-06-02T08:57:38Z</time>
      </trkpt>
      <trkpt lat="45.96568" lon="4.86934">
        <ele>284</ele>
        <time>2017-06-02T08:57:39Z</time>
      </trkpt>
      <trkpt lat="45.96564" lon="4.8694">
        <ele>284</ele>
        <time>2017-06-02T08:57:40Z</time>
      </trkpt>
      <trkpt lat="45.9656" lon="4.86947">
        <ele>283</ele>
        <time>2017-06-02T08:57:41Z</time>
      </trkpt>
      <trkpt lat="45.96556" lon="4.86954">
        <ele>283</ele>
        <time>2017-06-02T08:57:42Z</time>
      </trkpt>
      <trkpt lat="45.96551" lon="4.86961">
        <ele>283</ele>
        <time>2017-06-02T08:57:43Z</time>
      </trkpt>
      <trkpt lat="45.96547" lon="4.86967">
        <ele>283</ele>
        <time>2017-06-02T08:57:44Z</time>
      </trkpt>
      <trkpt lat="45.96543" lon="4.86972">
        <ele>283</ele>
        <time>2017-06-02T08:57:45Z</time>
      </trkpt>
      <trkpt lat="45.96538" lon="4.8698">
        <ele>283</ele>
        <time>2017-06-02T08:57:47Z</time>
      </trkpt>
      <trkpt lat="45.96537" lon="4.86983">
        <ele>283</ele>
        <time>2017-06-02T08:57:48Z</time>
      </trkpt>
      <trkpt lat="45.96535" lon="4.86993">
        <ele>283</ele>
        <time>2017-06-02T08:57:50Z</time>
      </trkpt>
      <trkpt lat="45.96534" lon="4.86997">
        <ele>283</ele>
        <time>2017-06-02T08:57:51Z</time>
      </trkpt>
      <trkpt lat="45.96534" lon="4.87009">
        <ele>283</ele>
        <time>2017-06-02T08:57:54Z</time>
      </trkpt>
      <trkpt lat="45.96534" lon="4.87012">
        <ele>283</ele>
        <time>2017-06-02T08:57:55Z</time>
      </trkpt>
      <trkpt lat="45.96537" lon="4.87017">
        <ele>283</ele>
        <time>2017-06-02T08:57:58Z</time>
      </trkpt>
      <trkpt lat="45.96538" lon="4.87018">
        <ele>283</ele>
        <time>2017-06-02T08:57:59Z</time>
      </trkpt>
      <trkpt lat="45.96541" lon="4.87021">
        <ele>283</ele>
        <time>2017-06-02T08:58:08Z</time>
      </trkpt>
      <trkpt lat="45.96542" lon="4.87021">
        <ele>283</ele>
        <time>2017-06-02T08:58:09Z</time>
      </trkpt>
      <trkpt lat="45.96533" lon="4.87022">
        <ele>283</ele>
        <time>2017-06-02T09:01:45Z</time>
      </trkpt>
      <trkpt lat="45.96533" lon="4.87022">
        <ele>283</ele>
        <time>2017-06-02T09:01:46Z</time>
      </trkpt>
      <trkpt lat="45.9654" lon="4.87025">
        <ele>283</ele>
        <time>2017-06-02T09:02:12Z</time>
      </trkpt>
      <trkpt lat="45.96542" lon="4.87026">
        <ele>283</ele>
        <time>2017-06-02T09:02:13Z</time>
      </trkpt>
      <trkpt lat="45.9655" lon="4.87027">
        <ele>283</ele>
        <time>2017-06-02T09:02:50Z</time>
      </trkpt>
      <trkpt lat="45.96551" lon="4.87029">
        <ele>283</ele>
        <time>2017-06-02T09:02:51Z</time>
      </trkpt>
      <trkpt lat="45.96554" lon="4.8704">
        <ele>283</ele>
        <time>2017-06-02T09:02:56Z</time>
      </trkpt>
      <trkpt lat="45.96555" lon="4.87044">
        <ele>283</ele>
        <time>2017-06-02T09:02:57Z</time>
      </trkpt>
      <trkpt lat="45.96555" lon="4.87054">
        <ele>283</ele>
        <time>2017-06-02T09:03:00Z</time>
      </trkpt>
      <trkpt lat="45.96556" lon="4.87058">
        <ele>283</ele>
        <time>2017-06-02T09:03:01Z</time>
      </trkpt>
      <trkpt lat="45.96555" lon="4.87069">
        <ele>283</ele>
        <time>2017-06-02T09:03:05Z</time>
      </trkpt>
      <trkpt lat="45.96554" lon="4.87071">
        <ele>283</ele>
        <time>2017-06-02T09:03:06Z</time>
      </trkpt>
      <trkpt lat="45.96547" lon="4.87074">
        <ele>283</ele>
        <time>2017-06-02T09:03:11Z</time>
      </trkpt>
      <trkpt lat="45.96545" lon="4.87075">
        <ele>283</ele>
        <time>2017-06-02T09:03:12Z</time>
      </trkpt>
      <trkpt lat="45.96537" lon="4.87069">
        <ele>283</ele>
        <time>2017-06-02T09:03:17Z</time>
      </trkpt>
      <trkpt lat="45.96536" lon="4.87067">
        <ele>283</ele>
        <time>2017-06-02T09:03:18Z</time>
      </trkpt>
      <trkpt lat="45.96529" lon="4.87063">
        <ele>283</ele>
        <time>2017-06-02T09:03:21Z</time>
      </trkpt>
      <trkpt lat="45.96527" lon="4.8706">
        <ele>283</ele>
        <time>2017-06-02T09:03:22Z</time>
      </trkpt>
      <trkpt lat="45.96523" lon="4.87049">
        <ele>283</ele>
        <time>2017-06-02T09:03:25Z</time>
      </trkpt>
      <trkpt lat="45.96522" lon="4.87045">
        <ele>283</ele>
        <time>2017-06-02T09:03:26Z</time>
      </trkpt>
      <trkpt lat="45.96516" lon="4.87038">
        <ele>283</ele>
        <time>2017-06-02T09:03:29Z</time>
      </trkpt>
      <trkpt lat="45.96513" lon="4.87037">
        <ele>283</ele>
        <time>2017-06-02T09:03:30Z</time>
      </trkpt>
      <trkpt lat="45.96507" lon="4.8704">
        <ele>282</ele>
        <time>2017-06-02T09:03:32Z</time>
      </trkpt>
      <trkpt lat="45.96504" lon="4.87043">
        <ele>282</ele>
        <time>2017-06-02T09:03:33Z</time>
      </trkpt>
      <trkpt lat="45.96498" lon="4.87049">
        <ele>281</ele>
        <time>2017-06-02T09:03:35Z</time>
      </trkpt>
      <trkpt lat="45.96495" lon="4.87053">
        <ele>281</ele>
        <time>2017-06-02T09:03:36Z</time>
      </trkpt>
      <trkpt lat="45.96489" lon="4.87062">
        <ele>282</ele>
        <time>2017-06-02T09:03:38Z</time>
      </trkpt>
      <trkpt lat="45.96485" lon="4.87066">
        <ele>282</ele>
        <time>2017-06-02T09:03:39Z</time>
      </trkpt>
      <trkpt lat="45.96481" lon="4.87071">
        <ele>282</ele>
        <time>2017-06-02T09:03:40Z</time>
      </trkpt>
      <trkpt lat="45.96478" lon="4.87076">
        <ele>282</ele>
        <time>2017-06-02T09:03:41Z</time>
      </trkpt>
      <trkpt lat="45.96475" lon="4.87081">
        <ele>281</ele>
        <time>2017-06-02T09:03:42Z</time>
      </trkpt>
      <trkpt lat="45.96471" lon="4.87085">
        <ele>282</ele>
        <time>2017-06-02T09:03:43Z</time>
      </trkpt>
      <trkpt lat="45.96467" lon="4.8709">
        <ele>282</ele>
        <time>2017-06-02T09:03:44Z</time>
      </trkpt>
      <trkpt lat="45.96464" lon="4.87094">
        <ele>282</ele>
        <time>2017-06-02T09:03:45Z</time>
      </trkpt>
      <trkpt lat="45.96461" lon="4.87098">
        <ele>282</ele>
        <time>2017-06-02T09:03:46Z</time>
      </trkpt>
      <trkpt lat="45.96457" lon="4.87102">
        <ele>281</ele>
        <time>2017-06-02T09:03:47Z</time>
      </trkpt>
      <trkpt lat="45.96451" lon="4.87111">
        <ele>281</ele>
        <time>2017-06-02T09:03:49Z</time>
      </trkpt>
      <trkpt lat="45.96448" lon="4.87115">
        <ele>281</ele>
        <time>2017-06-02T09:03:50Z</time>
      </trkpt>
      <trkpt lat="45.96442" lon="4.87123">
        <ele>281</ele>
        <time>2017-06-02T09:03:52Z</time>
      </trkpt>
      <trkpt lat="45.96439" lon="4.87127">
        <ele>281</ele>
        <time>2017-06-02T09:03:53Z</time>
      </trkpt>
      <trkpt lat="45.96435" lon="4.87131">
        <ele>281</ele>
        <time>2017-06-02T09:03:54Z</time>
      </trkpt>
      <trkpt lat="45.96432" lon="4.87136">
        <ele>281</ele>
        <time>2017-06-02T09:03:55Z</time>
      </trkpt>
      <trkpt lat="45.96428" lon="4.8714">
        <ele>281</ele>
        <time>2017-06-02T09:03:56Z</time>
      </trkpt>
      <trkpt lat="45.96424" lon="4.87145">
        <ele>281</ele>
        <time>2017-06-02T09:03:57Z</time>
      </trkpt>
      <trkpt lat="45.96421" lon="4.87149">
        <ele>281</ele>
        <time>2017-06-02T09:03:58Z</time>
      </trkpt>
      <trkpt lat="45.96417" lon="4.87154">
        <ele>281</ele>
        <time>2017-06-02T09:03:59Z</time>
      </trkpt>
      <trkpt lat="45.96413" lon="4.87158">
        <ele>281</ele>
        <time>2017-06-02T09:04:00Z</time>
      </trkpt>
      <trkpt lat="45.9641" lon="4.87162">
        <ele>281</ele>
        <time>2017-06-02T09:04:01Z</time>
      </trkpt>
      <trkpt lat="45.96404" lon="4.8717">
        <ele>281</ele>
        <time>2017-06-02T09:04:03Z</time>
      </trkpt>
      <trkpt lat="45.96401" lon="4.87173">
        <ele>281</ele>
        <time>2017-06-02T09:04:04Z</time>
      </trkpt>
      <trkpt lat="45.96395" lon="4.87181">
        <ele>282</ele>
        <time>2017-06-02T09:04:06Z</time>
      </trkpt>
      <trkpt lat="45.96392" lon="4.87186">
        <ele>282</ele>
        <time>2017-06-02T09:04:07Z</time>
      </trkpt>
      <trkpt lat="45.96388" lon="4.8719">
        <ele>282</ele>
        <time>2017-06-02T09:04:08Z</time>
      </trkpt>
      <trkpt lat="45.96384" lon="4.87195">
        <ele>282</ele>
        <time>2017-06-02T09:04:09Z</time>
      </trkpt>
      <trkpt lat="45.9638" lon="4.87201">
        <ele>282</ele>
        <time>2017-06-02T09:04:10Z</time>
      </trkpt>
      <trkpt lat="45.96377" lon="4.87206">
        <ele>282</ele>
        <time>2017-06-02T09:04:11Z</time>
      </trkpt>
      <trkpt lat="45.96373" lon="4.87212">
        <ele>282</ele>
        <time>2017-06-02T09:04:12Z</time>
      </trkpt>
      <trkpt lat="45.96369" lon="4.87217">
        <ele>282</ele>
        <time>2017-06-02T09:04:13Z</time>
      </trkpt>
      <trkpt lat="45.96365" lon="4.87223">
        <ele>282</ele>
        <time>2017-06-02T09:04:14Z</time>
      </trkpt>
      <trkpt lat="45.96361" lon="4.87228">
        <ele>282</ele>
        <time>2017-06-02T09:04:15Z</time>
      </trkpt>
      <trkpt lat="45.96355" lon="4.87236">
        <ele>282</ele>
        <time>2017-06-02T09:04:17Z</time>
      </trkpt>
      <trkpt lat="45.96352" lon="4.8724">
        <ele>282</ele>
        <time>2017-06-02T09:04:18Z</time>
      </trkpt>
      <trkpt lat="45.96347" lon="4.87248">
        <ele>283</ele>
        <time>2017-06-02T09:04:20Z</time>
      </trkpt>
      <trkpt lat="45.96344" lon="4.87252">
        <ele>283</ele>
        <time>2017-06-02T09:04:21Z</time>
      </trkpt>
      <trkpt lat="45.96341" lon="4.87256">
        <ele>283</ele>
        <time>2017-06-02T09:04:22Z</time>
      </trkpt>
      <trkpt lat="45.96337" lon="4.87261">
        <ele>283</ele>
        <time>2017-06-02T09:04:23Z</time>
      </trkpt>
      <trkpt lat="45.96334" lon="4.87265">
        <ele>283</ele>
        <time>2017-06-02T09:04:24Z</time>
      </trkpt>
      <trkpt lat="45.9633" lon="4.8727">
        <ele>283</ele>
        <time>2017-06-02T09:04:25Z</time>
      </trkpt>
      <trkpt lat="45.96326" lon="4.87275">
        <ele>283</ele>
        <time>2017-06-02T09:04:26Z</time>
      </trkpt>
      <trkpt lat="45.96322" lon="4.87281">
        <ele>283</ele>
        <time>2017-06-02T09:04:27Z</time>
      </trkpt>
      <trkpt lat="45.96318" lon="4.87287">
        <ele>283</ele>
        <time>2017-06-02T09:04:28Z</time>
      </trkpt>
      <trkpt lat="45.96313" lon="4.87293">
        <ele>283</ele>
        <time>2017-06-02T09:04:29Z</time>
      </trkpt>
      <trkpt lat="45.96309" lon="4.87299">
        <ele>283</ele>
        <time>2017-06-02T09:04:30Z</time>
      </trkpt>
      <trkpt lat="45.96304" lon="4.87305">
        <ele>283</ele>
        <time>2017-06-02T09:04:31Z</time>
      </trkpt>
      <trkpt lat="45.963" lon="4.8731">
        <ele>283</ele>
        <time>2017-06-02T09:04:32Z</time>
      </trkpt>
      <trkpt lat="45.96296" lon="4.87315">
        <ele>283</ele>
        <time>2017-06-02T09:04:33Z</time>
      </trkpt>
      <trkpt lat="45.96293" lon="4.8732">
        <ele>283</ele>
        <time>2017-06-02T09:04:34Z</time>
      </trkpt>
      <trkpt lat="45.96289" lon="4.87325">
        <ele>283</ele>
        <time>2017-06-02T09:04:35Z</time>
      </trkpt>
      <trkpt lat="45.96283" lon="4.87334">
        <ele>284</ele>
        <time>2017-06-02T09:04:37Z</time>
      </trkpt>
      <trkpt lat="45.9628" lon="4.87337">
        <ele>284</ele>
        <time>2017-06-02T09:04:38Z</time>
      </trkpt>
      <trkpt lat="45.96274" lon="4.87344">
        <ele>283</ele>
        <time>2017-06-02T09:04:40Z</time>
      </trkpt>
      <trkpt lat="45.96272" lon="4.87348">
        <ele>283</ele>
        <time>2017-06-02T09:04:41Z</time>
      </trkpt>
      <trkpt lat="45.96266" lon="4.87355">
        <ele>283</ele>
        <time>2017-06-02T09:04:43Z</time>
      </trkpt>
      <trkpt lat="45.96263" lon="4.87359">
        <ele>283</ele>
        <time>2017-06-02T09:04:44Z</time>
      </trkpt>
      <trkpt lat="45.96257" lon="4.87366">
        <ele>283</ele>
        <time>2017-06-02T09:04:46Z</time>
      </trkpt>
      <trkpt lat="45.96254" lon="4.87369">
        <ele>283</ele>
        <time>2017-06-02T09:04:47Z</time>
      </trkpt>
      <trkpt lat="45.96248" lon="4.87377">
        <ele>283</ele>
        <time>2017-06-02T09:04:49Z</time>
      </trkpt>
      <trkpt lat="45.96245" lon="4.8738">
        <ele>283</ele>
        <time>2017-06-02T09:04:50Z</time>
      </trkpt>
      <trkpt lat="45.96238" lon="4.87387">
        <ele>283</ele>
        <time>2017-06-02T09:04:52Z</time>
      </trkpt>
      <trkpt lat="45.96236" lon="4.8739">
        <ele>283</ele>
        <time>2017-06-02T09:04:53Z</time>
      </trkpt>
      <trkpt lat="45.96229" lon="4.87397">
        <ele>283</ele>
        <time>2017-06-02T09:04:55Z</time>
      </trkpt>
      <trkpt lat="45.96226" lon="4.87401">
        <ele>283</ele>
        <time>2017-06-02T09:04:56Z</time>
      </trkpt>
      <trkpt lat="45.96222" lon="4.87405">
        <ele>283</ele>
        <time>2017-06-02T09:04:57Z</time>
      </trkpt>
      <trkpt lat="45.96218" lon="4.8741">
        <ele>283</ele>
        <time>2017-06-02T09:04:58Z</time>
      </trkpt>
      <trkpt lat="45.96214" lon="4.87415">
        <ele>283</ele>
        <time>2017-06-02T09:04:59Z</time>
      </trkpt>
      <trkpt lat="45.96209" lon="4.87421">
        <ele>284</ele>
        <time>2017-06-02T09:05:00Z</time>
      </trkpt>
      <trkpt lat="45.96205" lon="4.87426">
        <ele>284</ele>
        <time>2017-06-02T09:05:01Z</time>
      </trkpt>
      <trkpt lat="45.962" lon="4.87432">
        <ele>284</ele>
        <time>2017-06-02T09:05:02Z</time>
      </trkpt>
      <trkpt lat="45.96195" lon="4.87437">
        <ele>284</ele>
        <time>2017-06-02T09:05:03Z</time>
      </trkpt>
      <trkpt lat="45.9619" lon="4.87442">
        <ele>284</ele>
        <time>2017-06-02T09:05:04Z</time>
      </trkpt>
      <trkpt lat="45.96186" lon="4.87447">
        <ele>284</ele>
        <time>2017-06-02T09:05:05Z</time>
      </trkpt>
      <trkpt lat="45.96183" lon="4.87452">
        <ele>284</ele>
        <time>2017-06-02T09:05:06Z</time>
      </trkpt>
      <trkpt lat="45.96179" lon="4.87456">
        <ele>284</ele>
        <time>2017-06-02T09:05:07Z</time>
      </trkpt>
      <trkpt lat="45.96175" lon="4.8746">
        <ele>284</ele>
        <time>2017-06-02T09:05:08Z</time>
      </trkpt>
      <trkpt lat="45.96169" lon="4.87467">
        <ele>284</ele>
        <time>2017-06-02T09:05:10Z</time>
      </trkpt>
      <trkpt lat="45.96166" lon="4.87471">
        <ele>285</ele>
        <time>2017-06-02T09:05:11Z</time>
      </trkpt>
      <trkpt lat="45.96159" lon="4.87479">
        <ele>285</ele>
        <time>2017-06-02T09:05:13Z</time>
      </trkpt>
      <trkpt lat="45.96155" lon="4.87483">
        <ele>285</ele>
        <time>2017-06-02T09:05:14Z</time>
      </trkpt>
      <trkpt lat="45.96151" lon="4.87487">
        <ele>285</ele>
        <time>2017-06-02T09:05:15Z</time>
      </trkpt>
      <trkpt lat="45.96147" lon="4.87491">
        <ele>285</ele>
        <time>2017-06-02T09:05:16Z</time>
      </trkpt>
      <trkpt lat="45.96143" lon="4.87496">
        <ele>285</ele>
        <time>2017-06-02T09:05:17Z</time>
      </trkpt>
      <trkpt lat="45.96139" lon="4.87501">
        <ele>286</ele>
        <time>2017-06-02T09:05:18Z</time>
      </trkpt>
      <trkpt lat="45.96135" lon="4.87506">
        <ele>286</ele>
        <time>2017-06-02T09:05:19Z</time>
      </trkpt>
      <trkpt lat="45.96131" lon="4.87511">
        <ele>286</ele>
        <time>2017-06-02T09:05:20Z</time>
      </trkpt>
      <trkpt lat="45.96126" lon="4.87516">
        <ele>286</ele>
        <time>2017-06-02T09:05:21Z</time>
      </trkpt>
      <trkpt lat="45.96123" lon="4.87521">
        <ele>286</ele>
        <time>2017-06-02T09:05:22Z</time>
      </trkpt>
      <trkpt lat="45.96116" lon="4.87529">
        <ele>287</ele>
        <time>2017-06-02T09:05:24Z</time>
      </trkpt>
      <trkpt lat="45.96113" lon="4.87532">
        <ele>287</ele>
        <time>2017-06-02T09:05:25Z</time>
      </trkpt>
      <trkpt lat="45.96107" lon="4.87539">
        <ele>287</ele>
        <time>2017-06-02T09:05:27Z</time>
      </trkpt>
      <trkpt lat="45.96104" lon="4.87542">
        <ele>287</ele>
        <time>2017-06-02T09:05:28Z</time>
      </trkpt>
      <trkpt lat="45.96101" lon="4.87546">
        <ele>287</ele>
        <time>2017-06-02T09:05:29Z</time>
      </trkpt>
      <trkpt lat="45.96097" lon="4.87551">
        <ele>287</ele>
        <time>2017-06-02T09:05:30Z</time>
      </trkpt>
      <trkpt lat="45.96094" lon="4.87555">
        <ele>287</ele>
        <time>2017-06-02T09:05:31Z</time>
      </trkpt>
      <trkpt lat="45.9609" lon="4.87559">
        <ele>287</ele>
        <time>2017-06-02T09:05:32Z</time>
      </trkpt>
      <trkpt lat="45.96086" lon="4.87564">
        <ele>287</ele>
        <time>2017-06-02T09:05:33Z</time>
      </trkpt>
      <trkpt lat="45.96081" lon="4.87568">
        <ele>288</ele>
        <time>2017-06-02T09:05:34Z</time>
      </trkpt>
      <trkpt lat="45.96077" lon="4.87572">
        <ele>288</ele>
        <time>2017-06-02T09:05:35Z</time>
      </trkpt>
      <trkpt lat="45.96073" lon="4.87576">
        <ele>288</ele>
        <time>2017-06-02T09:05:36Z</time>
      </trkpt>
      <trkpt lat="45.96069" lon="4.87581">
        <ele>288</ele>
        <time>2017-06-02T09:05:37Z</time>
      </trkpt>
      <trkpt lat="45.96065" lon="4.87585">
        <ele>288</ele>
        <time>2017-06-02T09:05:38Z</time>
      </trkpt>
      <trkpt lat="45.96059" lon="4.87593">
        <ele>288</ele>
        <time>2017-06-02T09:05:40Z</time>
      </trkpt>
      <trkpt lat="45.96056" lon="4.87596">
        <ele>288</ele>
        <time>2017-06-02T09:05:41Z</time>
      </trkpt>
      <trkpt lat="45.96051" lon="4.87603">
        <ele>289</ele>
        <time>2017-06-02T09:05:43Z</time>
      </trkpt>
      <trkpt lat="45.96048" lon="4.87606">
        <ele>289</ele>
        <time>2017-06-02T09:05:44Z</time>
      </trkpt>
      <trkpt lat="45.96043" lon="4.87613">
        <ele>289</ele>
        <time>2017-06-02T09:05:46Z</time>
      </trkpt>
      <trkpt lat="45.9604" lon="4.87615">
        <ele>289</ele>
        <time>2017-06-02T09:05:47Z</time>
      </trkpt>
      <trkpt lat="45.96033" lon="4.87622">
        <ele>289</ele>
        <time>2017-06-02T09:05:49Z</time>
      </trkpt>
      <trkpt lat="45.9603" lon="4.87625">
        <ele>289</ele>
        <time>2017-06-02T09:05:50Z</time>
      </trkpt>
      <trkpt lat="45.96024" lon="4.87632">
        <ele>289</ele>
        <time>2017-06-02T09:05:52Z</time>
      </trkpt>
      <trkpt lat="45.96021" lon="4.87636">
        <ele>289</ele>
        <time>2017-06-02T09:05:53Z</time>
      </trkpt>
      <trkpt lat="45.96016" lon="4.87643">
        <ele>289</ele>
        <time>2017-06-02T09:05:55Z</time>
      </trkpt>
      <trkpt lat="45.96013" lon="4.87646">
        <ele>289</ele>
        <time>2017-06-02T09:05:56Z</time>
      </trkpt>
      <trkpt lat="45.96006" lon="4.87654">
        <ele>289</ele>
        <time>2017-06-02T09:05:58Z</time>
      </trkpt>
      <trkpt lat="45.96003" lon="4.87657">
        <ele>290</ele>
        <time>2017-06-02T09:05:59Z</time>
      </trkpt>
      <trkpt lat="45.95996" lon="4.87665">
        <ele>290</ele>
        <time>2017-06-02T09:06:01Z</time>
      </trkpt>
      <trkpt lat="45.95992" lon="4.87669">
        <ele>290</ele>
        <time>2017-06-02T09:06:02Z</time>
      </trkpt>
      <trkpt lat="45.95989" lon="4.87673">
        <ele>289</ele>
        <time>2017-06-02T09:06:03Z</time>
      </trkpt>
      <trkpt lat="45.95985" lon="4.87676">
        <ele>289</ele>
        <time>2017-06-02T09:06:04Z</time>
      </trkpt>
      <trkpt lat="45.95978" lon="4.87683">
        <ele>289</ele>
        <time>2017-06-02T09:06:06Z</time>
      </trkpt>
      <trkpt lat="45.95975" lon="4.87687">
        <ele>289</ele>
        <time>2017-06-02T09:06:07Z</time>
      </trkpt>
      <trkpt lat="45.9597" lon="4.87693">
        <ele>289</ele>
        <time>2017-06-02T09:06:09Z</time>
      </trkpt>
      <trkpt lat="45.95968" lon="4.87696">
        <ele>289</ele>
        <time>2017-06-02T09:06:10Z</time>
      </trkpt>
      <trkpt lat="45.95962" lon="4.87702">
        <ele>289</ele>
        <time>2017-06-02T09:06:12Z</time>
      </trkpt>
      <trkpt lat="45.9596" lon="4.87705">
        <ele>289</ele>
        <time>2017-06-02T09:06:13Z</time>
      </trkpt>
      <trkpt lat="45.95955" lon="4.87712">
        <ele>289</ele>
        <time>2017-06-02T09:06:15Z</time>
      </trkpt>
      <trkpt lat="45.95953" lon="4.87716">
        <ele>289</ele>
        <time>2017-06-02T09:06:16Z</time>
      </trkpt>
      <trkpt lat="45.95947" lon="4.87724">
        <ele>289</ele>
        <time>2017-06-02T09:06:18Z</time>
      </trkpt>
      <trkpt lat="45.95944" lon="4.87729">
        <ele>289</ele>
        <time>2017-06-02T09:06:19Z</time>
      </trkpt>
      <trkpt lat="45.95941" lon="4.87733">
        <ele>289</ele>
        <time>2017-06-02T09:06:20Z</time>
      </trkpt>
      <trkpt lat="45.95937" lon="4.87738">
        <ele>288</ele>
        <time>2017-06-02T09:06:21Z</time>
      </trkpt>
      <trkpt lat="45.95934" lon="4.87743">
        <ele>288</ele>
        <time>2017-06-02T09:06:22Z</time>
      </trkpt>
      <trkpt lat="45.95931" lon="4.87749">
        <ele>288</ele>
        <time>2017-06-02T09:06:23Z</time>
      </trkpt>
      <trkpt lat="45.95927" lon="4.87755">
        <ele>288</ele>
        <time>2017-06-02T09:06:24Z</time>
      </trkpt>
      <trkpt lat="45.95924" lon="4.8776">
        <ele>288</ele>
        <time>2017-06-02T09:06:25Z</time>
      </trkpt>
      <trkpt lat="45.9592" lon="4.87765">
        <ele>288</ele>
        <time>2017-06-02T09:06:26Z</time>
      </trkpt>
      <trkpt lat="45.95917" lon="4.87769">
        <ele>289</ele>
        <time>2017-06-02T09:06:27Z</time>
      </trkpt>
      <trkpt lat="45.95914" lon="4.87774">
        <ele>288</ele>
        <time>2017-06-02T09:06:28Z</time>
      </trkpt>
      <trkpt lat="45.9591" lon="4.87778">
        <ele>288</ele>
        <time>2017-06-02T09:06:29Z</time>
      </trkpt>
      <trkpt lat="45.95904" lon="4.87788">
        <ele>288</ele>
        <time>2017-06-02T09:06:31Z</time>
      </trkpt>
      <trkpt lat="45.95901" lon="4.87793">
        <ele>288</ele>
        <time>2017-06-02T09:06:32Z</time>
      </trkpt>
      <trkpt lat="45.95896" lon="4.87803">
        <ele>288</ele>
        <time>2017-06-02T09:06:34Z</time>
      </trkpt>
      <trkpt lat="45.95893" lon="4.87808">
        <ele>288</ele>
        <time>2017-06-02T09:06:35Z</time>
      </trkpt>
      <trkpt lat="45.9589" lon="4.87813">
        <ele>288</ele>
        <time>2017-06-02T09:06:36Z</time>
      </trkpt>
      <trkpt lat="45.95886" lon="4.87817">
        <ele>288</ele>
        <time>2017-06-02T09:06:37Z</time>
      </trkpt>
      <trkpt lat="45.95882" lon="4.87821">
        <ele>288</ele>
        <time>2017-06-02T09:06:38Z</time>
      </trkpt>
      <trkpt lat="45.95878" lon="4.87825">
        <ele>288</ele>
        <time>2017-06-02T09:06:39Z</time>
      </trkpt>
      <trkpt lat="45.95874" lon="4.87828">
        <ele>288</ele>
        <time>2017-06-02T09:06:40Z</time>
      </trkpt>
      <trkpt lat="45.9587" lon="4.87831">
        <ele>288</ele>
        <time>2017-06-02T09:06:41Z</time>
      </trkpt>
      <trkpt lat="45.95863" lon="4.87835">
        <ele>289</ele>
        <time>2017-06-02T09:06:43Z</time>
      </trkpt>
      <trkpt lat="45.95859" lon="4.87836">
        <ele>289</ele>
        <time>2017-06-02T09:06:44Z</time>
      </trkpt>
      <trkpt lat="45.95851" lon="4.87839">
        <ele>289</ele>
        <time>2017-06-02T09:06:46Z</time>
      </trkpt>
      <trkpt lat="45.95848" lon="4.8784">
        <ele>288</ele>
        <time>2017-06-02T09:06:47Z</time>
      </trkpt>
      <trkpt lat="45.95841" lon="4.87841">
        <ele>288</ele>
        <time>2017-06-02T09:06:49Z</time>
      </trkpt>
      <trkpt lat="45.95838" lon="4.87842">
        <ele>288</ele>
        <time>2017-06-02T09:06:50Z</time>
      </trkpt>
      <trkpt lat="45.95829" lon="4.87845">
        <ele>287</ele>
        <time>2017-06-02T09:06:52Z</time>
      </trkpt>
      <trkpt lat="45.95825" lon="4.8785">
        <ele>287</ele>
        <time>2017-06-02T09:06:53Z</time>
      </trkpt>
      <trkpt lat="45.95821" lon="4.87856">
        <ele>287</ele>
        <time>2017-06-02T09:06:54Z</time>
      </trkpt>
      <trkpt lat="45.95817" lon="4.87861">
        <ele>287</ele>
        <time>2017-06-02T09:06:55Z</time>
      </trkpt>
      <trkpt lat="45.95812" lon="4.87867">
        <ele>287</ele>
        <time>2017-06-02T09:06:56Z</time>
      </trkpt>
      <trkpt lat="45.95807" lon="4.87872">
        <ele>287</ele>
        <time>2017-06-02T09:06:57Z</time>
      </trkpt>
      <trkpt lat="45.95802" lon="4.87877">
        <ele>287</ele>
        <time>2017-06-02T09:06:58Z</time>
      </trkpt>
      <trkpt lat="45.95797" lon="4.87881">
        <ele>286</ele>
        <time>2017-06-02T09:06:59Z</time>
      </trkpt>
      <trkpt lat="45.95793" lon="4.87885">
        <ele>286</ele>
        <time>2017-06-02T09:07:00Z</time>
      </trkpt>
      <trkpt lat="45.95787" lon="4.87889">
        <ele>286</ele>
        <time>2017-06-02T09:07:01Z</time>
      </trkpt>
      <trkpt lat="45.95782" lon="4.87893">
        <ele>286</ele>
        <time>2017-06-02T09:07:02Z</time>
      </trkpt>
      <trkpt lat="45.95776" lon="4.87897">
        <ele>286</ele>
        <time>2017-06-02T09:07:03Z</time>
      </trkpt>
      <trkpt lat="45.95771" lon="4.87901">
        <ele>286</ele>
        <time>2017-06-02T09:07:04Z</time>
      </trkpt>
      <trkpt lat="45.95765" lon="4.87905">
        <ele>286</ele>
        <time>2017-06-02T09:07:05Z</time>
      </trkpt>
      <trkpt lat="45.95759" lon="4.87909">
        <ele>285</ele>
        <time>2017-06-02T09:07:06Z</time>
      </trkpt>
      <trkpt lat="45.95753" lon="4.87913">
        <ele>285</ele>
        <time>2017-06-02T09:07:07Z</time>
      </trkpt>
      <trkpt lat="45.95747" lon="4.87917">
        <ele>285</ele>
        <time>2017-06-02T09:07:08Z</time>
      </trkpt>
      <trkpt lat="45.95741" lon="4.87922">
        <ele>284</ele>
        <time>2017-06-02T09:07:09Z</time>
      </trkpt>
      <trkpt lat="45.95735" lon="4.87927">
        <ele>284</ele>
        <time>2017-06-02T09:07:10Z</time>
      </trkpt>
      <trkpt lat="45.95729" lon="4.87932">
        <ele>283</ele>
        <time>2017-06-02T09:07:11Z</time>
      </trkpt>
      <trkpt lat="45.95723" lon="4.87937">
        <ele>283</ele>
        <time>2017-06-02T09:07:12Z</time>
      </trkpt>
      <trkpt lat="45.95717" lon="4.87943">
        <ele>283</ele>
        <time>2017-06-02T09:07:13Z</time>
      </trkpt>
      <trkpt lat="45.95711" lon="4.87949">
        <ele>283</ele>
        <time>2017-06-02T09:07:14Z</time>
      </trkpt>
      <trkpt lat="45.95704" lon="4.87955">
        <ele>283</ele>
        <time>2017-06-02T09:07:15Z</time>
      </trkpt>
      <trkpt lat="45.95698" lon="4.87961">
        <ele>282</ele>
        <time>2017-06-02T09:07:16Z</time>
      </trkpt>
      <trkpt lat="45.95691" lon="4.87968">
        <ele>282</ele>
        <time>2017-06-02T09:07:17Z</time>
      </trkpt>
      <trkpt lat="45.95685" lon="4.87974">
        <ele>282</ele>
        <time>2017-06-02T09:07:18Z</time>
      </trkpt>
      <trkpt lat="45.95678" lon="4.87981">
        <ele>282</ele>
        <time>2017-06-02T09:07:19Z</time>
      </trkpt>
      <trkpt lat="45.95671" lon="4.87988">
        <ele>282</ele>
        <time>2017-06-02T09:07:20Z</time>
      </trkpt>
      <trkpt lat="45.95665" lon="4.87995">
        <ele>280</ele>
        <time>2017-06-02T09:07:21Z</time>
      </trkpt>
      <trkpt lat="45.95657" lon="4.88002">
        <ele>280</ele>
        <time>2017-06-02T09:07:22Z</time>
      </trkpt>
      <trkpt lat="45.9565" lon="4.88009">
        <ele>280</ele>
        <time>2017-06-02T09:07:23Z</time>
      </trkpt>
      <trkpt lat="45.95643" lon="4.88015">
        <ele>279</ele>
        <time>2017-06-02T09:07:24Z</time>
      </trkpt>
      <trkpt lat="45.95636" lon="4.88022">
        <ele>279</ele>
        <time>2017-06-02T09:07:25Z</time>
      </trkpt>
      <trkpt lat="45.95629" lon="4.88028">
        <ele>279</ele>
        <time>2017-06-02T09:07:26Z</time>
      </trkpt>
      <trkpt lat="45.95622" lon="4.88035">
        <ele>278</ele>
        <time>2017-06-02T09:07:27Z</time>
      </trkpt>
      <trkpt lat="45.95615" lon="4.88041">
        <ele>278</ele>
        <time>2017-06-02T09:07:28Z</time>
      </trkpt>
      <trkpt lat="45.95608" lon="4.88047">
        <ele>278</ele>
        <time>2017-06-02T09:07:29Z</time>
      </trkpt>
      <trkpt lat="45.95602" lon="4.88053">
        <ele>278</ele>
        <time>2017-06-02T09:07:30Z</time>
      </trkpt>
      <trkpt lat="45.95595" lon="4.88059">
        <ele>278</ele>
        <time>2017-06-02T09:07:31Z</time>
      </trkpt>
      <trkpt lat="45.95588" lon="4.88065">
        <ele>278</ele>
        <time>2017-06-02T09:07:32Z</time>
      </trkpt>
      <trkpt lat="45.95582" lon="4.8807">
        <ele>276</ele>
        <time>2017-06-02T09:07:33Z</time>
      </trkpt>
      <trkpt lat="45.95575" lon="4.88075">
        <ele>277</ele>
        <time>2017-06-02T09:07:34Z</time>
      </trkpt>
      <trkpt lat="45.95569" lon="4.8808">
        <ele>276</ele>
        <time>2017-06-02T09:07:35Z</time>
      </trkpt>
      <trkpt lat="45.95562" lon="4.88084">
        <ele>277</ele>
        <time>2017-06-02T09:07:36Z</time>
      </trkpt>
      <trkpt lat="45.95556" lon="4.88087">
        <ele>277</ele>
        <time>2017-06-02T09:07:37Z</time>
      </trkpt>
      <trkpt lat="45.95549" lon="4.88091">
        <ele>277</ele>
        <time>2017-06-02T09:07:38Z</time>
      </trkpt>
      <trkpt lat="45.95542" lon="4.88094">
        <ele>277</ele>
        <time>2017-06-02T09:07:39Z</time>
      </trkpt>
      <trkpt lat="45.95536" lon="4.88097">
        <ele>277</ele>
        <time>2017-06-02T09:07:40Z</time>
      </trkpt>
      <trkpt lat="45.9553" lon="4.881">
        <ele>277</ele>
        <time>2017-06-02T09:07:41Z</time>
      </trkpt>
      <trkpt lat="45.95523" lon="4.88103">
        <ele>277</ele>
        <time>2017-06-02T09:07:42Z</time>
      </trkpt>
      <trkpt lat="45.95517" lon="4.88106">
        <ele>276</ele>
        <time>2017-06-02T09:07:43Z</time>
      </trkpt>
      <trkpt lat="45.95511" lon="4.88109">
        <ele>276</ele>
        <time>2017-06-02T09:07:44Z</time>
      </trkpt>
      <trkpt lat="45.95505" lon="4.88111">
        <ele>276</ele>
        <time>2017-06-02T09:07:45Z</time>
      </trkpt>
      <trkpt lat="45.95499" lon="4.88113">
        <ele>276</ele>
        <time>2017-06-02T09:07:46Z</time>
      </trkpt>
      <trkpt lat="45.95492" lon="4.88116">
        <ele>276</ele>
        <time>2017-06-02T09:07:47Z</time>
      </trkpt>
      <trkpt lat="45.95486" lon="4.88119">
        <ele>276</ele>
        <time>2017-06-02T09:07:48Z</time>
      </trkpt>
      <trkpt lat="45.9548" lon="4.88121">
        <ele>276</ele>
        <time>2017-06-02T09:07:49Z</time>
      </trkpt>
      <trkpt lat="45.95474" lon="4.88124">
        <ele>276</ele>
        <time>2017-06-02T09:07:50Z</time>
      </trkpt>
      <trkpt lat="45.95468" lon="4.88126">
        <ele>276</ele>
        <time>2017-06-02T09:07:51Z</time>
      </trkpt>
      <trkpt lat="45.95462" lon="4.88129">
        <ele>276</ele>
        <time>2017-06-02T09:07:52Z</time>
      </trkpt>
      <trkpt lat="45.95456" lon="4.88132">
        <ele>276</ele>
        <time>2017-06-02T09:07:53Z</time>
      </trkpt>
      <trkpt lat="45.9545" lon="4.88135">
        <ele>276</ele>
        <time>2017-06-02T09:07:54Z</time>
      </trkpt>
      <trkpt lat="45.95444" lon="4.88138">
        <ele>276</ele>
        <time>2017-06-02T09:07:55Z</time>
      </trkpt>
      <trkpt lat="45.95438" lon="4.88141">
        <ele>276</ele>
        <time>2017-06-02T09:07:56Z</time>
      </trkpt>
      <trkpt lat="45.95431" lon="4.88144">
        <ele>276</ele>
        <time>2017-06-02T09:07:57Z</time>
      </trkpt>
      <trkpt lat="45.95425" lon="4.88147">
        <ele>276</ele>
        <time>2017-06-02T09:07:58Z</time>
      </trkpt>
      <trkpt lat="45.95419" lon="4.8815">
        <ele>276</ele>
        <time>2017-06-02T09:07:59Z</time>
      </trkpt>
      <trkpt lat="45.95414" lon="4.88153">
        <ele>276</ele>
        <time>2017-06-02T09:08:00Z</time>
      </trkpt>
      <trkpt lat="45.95408" lon="4.88155">
        <ele>276</ele>
        <time>2017-06-02T09:08:01Z</time>
      </trkpt>
      <trkpt lat="45.95402" lon="4.88157">
        <ele>276</ele>
        <time>2017-06-02T09:08:02Z</time>
      </trkpt>
      <trkpt lat="45.95397" lon="4.88159">
        <ele>276</ele>
        <time>2017-06-02T09:08:03Z</time>
      </trkpt>
      <trkpt lat="45.95391" lon="4.88162">
        <ele>276</ele>
        <time>2017-06-02T09:08:04Z</time>
      </trkpt>
      <trkpt lat="45.95386" lon="4.88164">
        <ele>276</ele>
        <time>2017-06-02T09:08:05Z</time>
      </trkpt>
      <trkpt lat="45.95381" lon="4.88166">
        <ele>276</ele>
        <time>2017-06-02T09:08:06Z</time>
      </trkpt>
      <trkpt lat="45.95376" lon="4.88167">
        <ele>278</ele>
        <time>2017-06-02T09:08:07Z</time>
      </trkpt>
      <trkpt lat="45.95371" lon="4.8817">
        <ele>278</ele>
        <time>2017-06-02T09:08:08Z</time>
      </trkpt>
      <trkpt lat="45.95366" lon="4.8817">
        <ele>278</ele>
        <time>2017-06-02T09:08:09Z</time>
      </trkpt>
      <trkpt lat="45.9536" lon="4.88171">
        <ele>278</ele>
        <time>2017-06-02T09:08:10Z</time>
      </trkpt>
      <trkpt lat="45.95355" lon="4.88171">
        <ele>278</ele>
        <time>2017-06-02T09:08:11Z</time>
      </trkpt>
      <trkpt lat="45.9535" lon="4.88172">
        <ele>278</ele>
        <time>2017-06-02T09:08:12Z</time>
      </trkpt>
      <trkpt lat="45.95344" lon="4.88172">
        <ele>278</ele>
        <time>2017-06-02T09:08:13Z</time>
      </trkpt>
      <trkpt lat="45.95338" lon="4.88173">
        <ele>278</ele>
        <time>2017-06-02T09:08:14Z</time>
      </trkpt>
      <trkpt lat="45.95332" lon="4.88173">
        <ele>279</ele>
        <time>2017-06-02T09:08:15Z</time>
      </trkpt>
      <trkpt lat="45.95326" lon="4.88173">
        <ele>279</ele>
        <time>2017-06-02T09:08:16Z</time>
      </trkpt>
      <trkpt lat="45.9532" lon="4.88173">
        <ele>280</ele>
        <time>2017-06-02T09:08:17Z</time>
      </trkpt>
      <trkpt lat="45.95314" lon="4.88172">
        <ele>280</ele>
        <time>2017-06-02T09:08:18Z</time>
      </trkpt>
      <trkpt lat="45.95308" lon="4.88172">
        <ele>280</ele>
        <time>2017-06-02T09:08:19Z</time>
      </trkpt>
      <trkpt lat="45.95302" lon="4.88172">
        <ele>281</ele>
        <time>2017-06-02T09:08:20Z</time>
      </trkpt>
      <trkpt lat="45.95295" lon="4.88171">
        <ele>281</ele>
        <time>2017-06-02T09:08:21Z</time>
      </trkpt>
      <trkpt lat="45.95289" lon="4.88171">
        <ele>281</ele>
        <time>2017-06-02T09:08:22Z</time>
      </trkpt>
      <trkpt lat="45.95283" lon="4.88171">
        <ele>281</ele>
        <time>2017-06-02T09:08:23Z</time>
      </trkpt>
      <trkpt lat="45.95277" lon="4.88171">
        <ele>281</ele>
        <time>2017-06-02T09:08:24Z</time>
      </trkpt>
      <trkpt lat="45.95271" lon="4.8817">
        <ele>281</ele>
        <time>2017-06-02T09:08:25Z</time>
      </trkpt>
      <trkpt lat="45.95265" lon="4.88169">
        <ele>281</ele>
        <time>2017-06-02T09:08:26Z</time>
      </trkpt>
      <trkpt lat="45.95261" lon="4.88169">
        <ele>281</ele>
        <time>2017-06-02T09:08:27Z</time>
      </trkpt>
      <trkpt lat="45.95252" lon="4.88169">
        <ele>281</ele>
        <time>2017-06-02T09:08:29Z</time>
      </trkpt>
      <trkpt lat="45.95247" lon="4.88169">
        <ele>282</ele>
        <time>2017-06-02T09:08:30Z</time>
      </trkpt>
      <trkpt lat="45.95243" lon="4.88169">
        <ele>282</ele>
        <time>2017-06-02T09:08:31Z</time>
      </trkpt>
      <trkpt lat="45.95238" lon="4.88169">
        <ele>283</ele>
        <time>2017-06-02T09:08:32Z</time>
      </trkpt>
      <trkpt lat="45.95233" lon="4.8817">
        <ele>283</ele>
        <time>2017-06-02T09:08:33Z</time>
      </trkpt>
      <trkpt lat="45.95228" lon="4.8817">
        <ele>283</ele>
        <time>2017-06-02T09:08:34Z</time>
      </trkpt>
      <trkpt lat="45.95223" lon="4.8817">
        <ele>284</ele>
        <time>2017-06-02T09:08:35Z</time>
      </trkpt>
      <trkpt lat="45.95218" lon="4.8817">
        <ele>284</ele>
        <time>2017-06-02T09:08:36Z</time>
      </trkpt>
      <trkpt lat="45.95212" lon="4.88171">
        <ele>284</ele>
        <time>2017-06-02T09:08:37Z</time>
      </trkpt>
      <trkpt lat="45.95207" lon="4.88171">
        <ele>284</ele>
        <time>2017-06-02T09:08:38Z</time>
      </trkpt>
      <trkpt lat="45.95202" lon="4.88172">
        <ele>285</ele>
        <time>2017-06-02T09:08:39Z</time>
      </trkpt>
      <trkpt lat="45.95197" lon="4.88173">
        <ele>285</ele>
        <time>2017-06-02T09:08:40Z</time>
      </trkpt>
      <trkpt lat="45.95192" lon="4.88174">
        <ele>285</ele>
        <time>2017-06-02T09:08:41Z</time>
      </trkpt>
      <trkpt lat="45.95187" lon="4.88174">
        <ele>285</ele>
        <time>2017-06-02T09:08:42Z</time>
      </trkpt>
      <trkpt lat="45.9518" lon="4.88176">
        <ele>285</ele>
        <time>2017-06-02T09:08:44Z</time>
      </trkpt>
      <trkpt lat="45.95177" lon="4.88175">
        <ele>285</ele>
        <time>2017-06-02T09:08:45Z</time>
      </trkpt>
      <trkpt lat="45.95171" lon="4.88173">
        <ele>285</ele>
        <time>2017-06-02T09:08:47Z</time>
      </trkpt>
      <trkpt lat="45.95169" lon="4.8817">
        <ele>285</ele>
        <time>2017-06-02T09:08:48Z</time>
      </trkpt>
      <trkpt lat="45.95167" lon="4.88162">
        <ele>284</ele>
        <time>2017-06-02T09:08:50Z</time>
      </trkpt>
      <trkpt lat="45.95168" lon="4.88157">
        <ele>284</ele>
        <time>2017-06-02T09:08:51Z</time>
      </trkpt>
      <trkpt lat="45.95171" lon="4.88148">
        <ele>283</ele>
        <time>2017-06-02T09:08:53Z</time>
      </trkpt>
      <trkpt lat="45.95173" lon="4.88142">
        <ele>283</ele>
        <time>2017-06-02T09:08:54Z</time>
      </trkpt>
      <trkpt lat="45.95176" lon="4.88131">
        <ele>282</ele>
        <time>2017-06-02T09:08:56Z</time>
      </trkpt>
      <trkpt lat="45.95178" lon="4.88126">
        <ele>282</ele>
        <time>2017-06-02T09:08:57Z</time>
      </trkpt>
      <trkpt lat="45.95181" lon="4.88114">
        <ele>282</ele>
        <time>2017-06-02T09:08:59Z</time>
      </trkpt>
      <trkpt lat="45.95182" lon="4.88108">
        <ele>282</ele>
        <time>2017-06-02T09:09:00Z</time>
      </trkpt>
      <trkpt lat="45.95184" lon="4.88096">
        <ele>282</ele>
        <time>2017-06-02T09:09:02Z</time>
      </trkpt>
      <trkpt lat="45.95185" lon="4.88089">
        <ele>282</ele>
        <time>2017-06-02T09:09:03Z</time>
      </trkpt>
      <trkpt lat="45.95186" lon="4.88083">
        <ele>281</ele>
        <time>2017-06-02T09:09:04Z</time>
      </trkpt>
      <trkpt lat="45.95187" lon="4.88076">
        <ele>281</ele>
        <time>2017-06-02T09:09:05Z</time>
      </trkpt>
      <trkpt lat="45.95189" lon="4.8807">
        <ele>281</ele>
        <time>2017-06-02T09:09:06Z</time>
      </trkpt>
      <trkpt lat="45.95192" lon="4.88063">
        <ele>281</ele>
        <time>2017-06-02T09:09:07Z</time>
      </trkpt>
      <trkpt lat="45.95194" lon="4.88056">
        <ele>281</ele>
        <time>2017-06-02T09:09:08Z</time>
      </trkpt>
      <trkpt lat="45.95197" lon="4.88049">
        <ele>281</ele>
        <time>2017-06-02T09:09:09Z</time>
      </trkpt>
      <trkpt lat="45.952" lon="4.88042">
        <ele>281</ele>
        <time>2017-06-02T09:09:10Z</time>
      </trkpt>
      <trkpt lat="45.95203" lon="4.88036">
        <ele>281</ele>
        <time>2017-06-02T09:09:11Z</time>
      </trkpt>
      <trkpt lat="45.95206" lon="4.88031">
        <ele>281</ele>
        <time>2017-06-02T09:09:12Z</time>
      </trkpt>
      <trkpt lat="45.9521" lon="4.88027">
        <ele>281</ele>
        <time>2017-06-02T09:09:13Z</time>
      </trkpt>
      <trkpt lat="45.95213" lon="4.88022">
        <ele>281</ele>
        <time>2017-06-02T09:09:14Z</time>
      </trkpt>
      <trkpt lat="45.95217" lon="4.88017">
        <ele>281</ele>
        <time>2017-06-02T09:09:15Z</time>
      </trkpt>
      <trkpt lat="45.9522" lon="4.88012">
        <ele>281</ele>
        <time>2017-06-02T09:09:16Z</time>
      </trkpt>
      <trkpt lat="45.95224" lon="4.88007">
        <ele>281</ele>
        <time>2017-06-02T09:09:17Z</time>
      </trkpt>
      <trkpt lat="45.95227" lon="4.88002">
        <ele>281</ele>
        <time>2017-06-02T09:09:18Z</time>
      </trkpt>
      <trkpt lat="45.95231" lon="4.87996">
        <ele>281</ele>
        <time>2017-06-02T09:09:19Z</time>
      </trkpt>
      <trkpt lat="45.95235" lon="4.87992">
        <ele>281</ele>
        <time>2017-06-02T09:09:20Z</time>
      </trkpt>
      <trkpt lat="45.95239" lon="4.87986">
        <ele>281</ele>
        <time>2017-06-02T09:09:21Z</time>
      </trkpt>
      <trkpt lat="45.95243" lon="4.87981">
        <ele>281</ele>
        <time>2017-06-02T09:09:22Z</time>
      </trkpt>
      <trkpt lat="45.95246" lon="4.87976">
        <ele>282</ele>
        <time>2017-06-02T09:09:23Z</time>
      </trkpt>
      <trkpt lat="45.95249" lon="4.87972">
        <ele>282</ele>
        <time>2017-06-02T09:09:24Z</time>
      </trkpt>
      <trkpt lat="45.95252" lon="4.87967">
        <ele>280</ele>
        <time>2017-06-02T09:09:25Z</time>
      </trkpt>
      <trkpt lat="45.95255" lon="4.87961">
        <ele>280</ele>
        <time>2017-06-02T09:09:26Z</time>
      </trkpt>
      <trkpt lat="45.95258" lon="4.87955">
        <ele>280</ele>
        <time>2017-06-02T09:09:27Z</time>
      </trkpt>
      <trkpt lat="45.9526" lon="4.87948">
        <ele>280</ele>
        <time>2017-06-02T09:09:28Z</time>
      </trkpt>
      <trkpt lat="45.95262" lon="4.87941">
        <ele>280</ele>
        <time>2017-06-02T09:09:29Z</time>
      </trkpt>
      <trkpt lat="45.95263" lon="4.87933">
        <ele>281</ele>
        <time>2017-06-02T09:09:30Z</time>
      </trkpt>
      <trkpt lat="45.95263" lon="4.87925">
        <ele>281</ele>
        <time>2017-06-02T09:09:31Z</time>
      </trkpt>
      <trkpt lat="45.95263" lon="4.87917">
        <ele>281</ele>
        <time>2017-06-02T09:09:32Z</time>
      </trkpt>
      <trkpt lat="45.95263" lon="4.87909">
        <ele>281</ele>
        <time>2017-06-02T09:09:33Z</time>
      </trkpt>
      <trkpt lat="45.95263" lon="4.87901">
        <ele>281</ele>
        <time>2017-06-02T09:09:34Z</time>
      </trkpt>
      <trkpt lat="45.95262" lon="4.87893">
        <ele>281</ele>
        <time>2017-06-02T09:09:35Z</time>
      </trkpt>
      <trkpt lat="45.9526" lon="4.87885">
        <ele>281</ele>
        <time>2017-06-02T09:09:36Z</time>
      </trkpt>
      <trkpt lat="45.95258" lon="4.87878">
        <ele>281</ele>
        <time>2017-06-02T09:09:37Z</time>
      </trkpt>
      <trkpt lat="45.95257" lon="4.87872">
        <ele>281</ele>
        <time>2017-06-02T09:09:38Z</time>
      </trkpt>
      <trkpt lat="45.95255" lon="4.87865">
        <ele>281</ele>
        <time>2017-06-02T09:09:39Z</time>
      </trkpt>
      <trkpt lat="45.95254" lon="4.87859">
        <ele>281</ele>
        <time>2017-06-02T09:09:40Z</time>
      </trkpt>
      <trkpt lat="45.95253" lon="4.87852">
        <ele>281</ele>
        <time>2017-06-02T09:09:41Z</time>
      </trkpt>
      <trkpt lat="45.95253" lon="4.87845">
        <ele>281</ele>
        <time>2017-06-02T09:09:42Z</time>
      </trkpt>
      <trkpt lat="45.95251" lon="4.87839">
        <ele>282</ele>
        <time>2017-06-02T09:09:43Z</time>
      </trkpt>
      <trkpt lat="45.95251" lon="4.87832">
        <ele>282</ele>
        <time>2017-06-02T09:09:44Z</time>
      </trkpt>
      <trkpt lat="45.9525" lon="4.87825">
        <ele>282</ele>
        <time>2017-06-02T09:09:45Z</time>
      </trkpt>
      <trkpt lat="45.95249" lon="4.87818">
        <ele>282</ele>
        <time>2017-06-02T09:09:46Z</time>
      </trkpt>
      <trkpt lat="45.95248" lon="4.8781">
        <ele>282</ele>
        <time>2017-06-02T09:09:47Z</time>
      </trkpt>
      <trkpt lat="45.95247" lon="4.87802">
        <ele>282</ele>
        <time>2017-06-02T09:09:48Z</time>
      </trkpt>
      <trkpt lat="45.95247" lon="4.87794">
        <ele>282</ele>
        <time>2017-06-02T09:09:49Z</time>
      </trkpt>
      <trkpt lat="45.95246" lon="4.87786">
        <ele>282</ele>
        <time>2017-06-02T09:09:50Z</time>
      </trkpt>
      <trkpt lat="45.95245" lon="4.87779">
        <ele>282</ele>
        <time>2017-06-02T09:09:51Z</time>
      </trkpt>
      <trkpt lat="45.95243" lon="4.87771">
        <ele>282</ele>
        <time>2017-06-02T09:09:52Z</time>
      </trkpt>
      <trkpt lat="45.95242" lon="4.87763">
        <ele>281</ele>
        <time>2017-06-02T09:09:53Z</time>
      </trkpt>
      <trkpt lat="45.9524" lon="4.87755">
        <ele>281</ele>
        <time>2017-06-02T09:09:54Z</time>
      </trkpt>
      <trkpt lat="45.95238" lon="4.87747">
        <ele>280</ele>
        <time>2017-06-02T09:09:55Z</time>
      </trkpt>
      <trkpt lat="45.95237" lon="4.8774">
        <ele>280</ele>
        <time>2017-06-02T09:09:56Z</time>
      </trkpt>
      <trkpt lat="45.95236" lon="4.87732">
        <ele>280</ele>
        <time>2017-06-02T09:09:57Z</time>
      </trkpt>
      <trkpt lat="45.95234" lon="4.87726">
        <ele>280</ele>
        <time>2017-06-02T09:09:58Z</time>
      </trkpt>
      <trkpt lat="45.95233" lon="4.87718">
        <ele>279</ele>
        <time>2017-06-02T09:09:59Z</time>
      </trkpt>
      <trkpt lat="45.95231" lon="4.8771">
        <ele>279</ele>
        <time>2017-06-02T09:10:00Z</time>
      </trkpt>
      <trkpt lat="45.9523" lon="4.87701">
        <ele>279</ele>
        <time>2017-06-02T09:10:01Z</time>
      </trkpt>
      <trkpt lat="45.95229" lon="4.87692">
        <ele>279</ele>
        <time>2017-06-02T09:10:02Z</time>
      </trkpt>
      <trkpt lat="45.95228" lon="4.87683">
        <ele>278</ele>
        <time>2017-06-02T09:10:03Z</time>
      </trkpt>
      <trkpt lat="45.95227" lon="4.87674">
        <ele>278</ele>
        <time>2017-06-02T09:10:04Z</time>
      </trkpt>
      <trkpt lat="45.95227" lon="4.87664">
        <ele>276</ele>
        <time>2017-06-02T09:10:05Z</time>
      </trkpt>
      <trkpt lat="45.95226" lon="4.87653">
        <ele>276</ele>
        <time>2017-06-02T09:10:06Z</time>
      </trkpt>
      <trkpt lat="45.95225" lon="4.87643">
        <ele>276</ele>
        <time>2017-06-02T09:10:07Z</time>
      </trkpt>
      <trkpt lat="45.95223" lon="4.87632">
        <ele>276</ele>
        <time>2017-06-02T09:10:08Z</time>
      </trkpt>
      <trkpt lat="45.95222" lon="4.87621">
        <ele>276</ele>
        <time>2017-06-02T09:10:09Z</time>
      </trkpt>
      <trkpt lat="45.9522" lon="4.8761">
        <ele>276</ele>
        <time>2017-06-02T09:10:10Z</time>
      </trkpt>
      <trkpt lat="45.9522" lon="4.87599">
        <ele>276</ele>
        <time>2017-06-02T09:10:11Z</time>
      </trkpt>
      <trkpt lat="45.9522" lon="4.87587">
        <ele>276</ele>
        <time>2017-06-02T09:10:12Z</time>
      </trkpt>
      <trkpt lat="45.95219" lon="4.87575">
        <ele>274</ele>
        <time>2017-06-02T09:10:13Z</time>
      </trkpt>
      <trkpt lat="45.95219" lon="4.87562">
        <ele>274</ele>
        <time>2017-06-02T09:10:14Z</time>
      </trkpt>
      <trkpt lat="45.95217" lon="4.87549">
        <ele>274</ele>
        <time>2017-06-02T09:10:15Z</time>
      </trkpt>
      <trkpt lat="45.95216" lon="4.87537">
        <ele>274</ele>
        <time>2017-06-02T09:10:16Z</time>
      </trkpt>
      <trkpt lat="45.95213" lon="4.87524">
        <ele>273</ele>
        <time>2017-06-02T09:10:17Z</time>
      </trkpt>
      <trkpt lat="45.95211" lon="4.87512">
        <ele>273</ele>
        <time>2017-06-02T09:10:18Z</time>
      </trkpt>
      <trkpt lat="45.95208" lon="4.87501">
        <ele>273</ele>
        <time>2017-06-02T09:10:19Z</time>
      </trkpt>
      <trkpt lat="45.95204" lon="4.87489">
        <ele>272</ele>
        <time>2017-06-02T09:10:20Z</time>
      </trkpt>
      <trkpt lat="45.95201" lon="4.87478">
        <ele>272</ele>
        <time>2017-06-02T09:10:21Z</time>
      </trkpt>
      <trkpt lat="45.95198" lon="4.87467">
        <ele>272</ele>
        <time>2017-06-02T09:10:22Z</time>
      </trkpt>
      <trkpt lat="45.95195" lon="4.87456">
        <ele>272</ele>
        <time>2017-06-02T09:10:23Z</time>
      </trkpt>
      <trkpt lat="45.95192" lon="4.87446">
        <ele>272</ele>
        <time>2017-06-02T09:10:24Z</time>
      </trkpt>
      <trkpt lat="45.9519" lon="4.87435">
        <ele>272</ele>
        <time>2017-06-02T09:10:25Z</time>
      </trkpt>
      <trkpt lat="45.95187" lon="4.87425">
        <ele>271</ele>
        <time>2017-06-02T09:10:26Z</time>
      </trkpt>
      <trkpt lat="45.95185" lon="4.87416">
        <ele>271</ele>
        <time>2017-06-02T09:10:27Z</time>
      </trkpt>
      <trkpt lat="45.95183" lon="4.87407">
        <ele>271</ele>
        <time>2017-06-02T09:10:28Z</time>
      </trkpt>
      <trkpt lat="45.95181" lon="4.87399">
        <ele>271</ele>
        <time>2017-06-02T09:10:29Z</time>
      </trkpt>
      <trkpt lat="45.9518" lon="4.87391">
        <ele>271</ele>
        <time>2017-06-02T09:10:30Z</time>
      </trkpt>
      <trkpt lat="45.95178" lon="4.87383">
        <ele>271</ele>
        <time>2017-06-02T09:10:31Z</time>
      </trkpt>
      <trkpt lat="45.95177" lon="4.87375">
        <ele>271</ele>
        <time>2017-06-02T09:10:32Z</time>
      </trkpt>
      <trkpt lat="45.95175" lon="4.87367">
        <ele>271</ele>
        <time>2017-06-02T09:10:33Z</time>
      </trkpt>
      <trkpt lat="45.95172" lon="4.87359">
        <ele>271</ele>
        <time>2017-06-02T09:10:34Z</time>
      </trkpt>
      <trkpt lat="45.9517" lon="4.87352">
        <ele>271</ele>
        <time>2017-06-02T09:10:35Z</time>
      </trkpt>
      <trkpt lat="45.95168" lon="4.87345">
        <ele>271</ele>
        <time>2017-06-02T09:10:36Z</time>
      </trkpt>
      <trkpt lat="45.95165" lon="4.87338">
        <ele>271</ele>
        <time>2017-06-02T09:10:37Z</time>
      </trkpt>
      <trkpt lat="45.95163" lon="4.8733">
        <ele>272</ele>
        <time>2017-06-02T09:10:38Z</time>
      </trkpt>
      <trkpt lat="45.95162" lon="4.87322">
        <ele>272</ele>
        <time>2017-06-02T09:10:39Z</time>
      </trkpt>
      <trkpt lat="45.9516" lon="4.87314">
        <ele>273</ele>
        <time>2017-06-02T09:10:40Z</time>
      </trkpt>
      <trkpt lat="45.95158" lon="4.87305">
        <ele>273</ele>
        <time>2017-06-02T09:10:41Z</time>
      </trkpt>
      <trkpt lat="45.95157" lon="4.87296">
        <ele>274</ele>
        <time>2017-06-02T09:10:42Z</time>
      </trkpt>
      <trkpt lat="45.95155" lon="4.87287">
        <ele>274</ele>
        <time>2017-06-02T09:10:43Z</time>
      </trkpt>
      <trkpt lat="45.95153" lon="4.87278">
        <ele>274</ele>
        <time>2017-06-02T09:10:44Z</time>
      </trkpt>
      <trkpt lat="45.95152" lon="4.87269">
        <ele>274</ele>
        <time>2017-06-02T09:10:45Z</time>
      </trkpt>
      <trkpt lat="45.9515" lon="4.87261">
        <ele>274</ele>
        <time>2017-06-02T09:10:46Z</time>
      </trkpt>
      <trkpt lat="45.95148" lon="4.87252">
        <ele>274</ele>
        <time>2017-06-02T09:10:47Z</time>
      </trkpt>
      <trkpt lat="45.95146" lon="4.87243">
        <ele>275</ele>
        <time>2017-06-02T09:10:48Z</time>
      </trkpt>
      <trkpt lat="45.95144" lon="4.87234">
        <ele>275</ele>
        <time>2017-06-02T09:10:49Z</time>
      </trkpt>
      <trkpt lat="45.95142" lon="4.87225">
        <ele>276</ele>
        <time>2017-06-02T09:10:50Z</time>
      </trkpt>
      <trkpt lat="45.95139" lon="4.87216">
        <ele>276</ele>
        <time>2017-06-02T09:10:51Z</time>
      </trkpt>
      <trkpt lat="45.95136" lon="4.87207">
        <ele>276</ele>
        <time>2017-06-02T09:10:52Z</time>
      </trkpt>
      <trkpt lat="45.95134" lon="4.87198">
        <ele>276</ele>
        <time>2017-06-02T09:10:53Z</time>
      </trkpt>
      <trkpt lat="45.95132" lon="4.8719">
        <ele>276</ele>
        <time>2017-06-02T09:10:54Z</time>
      </trkpt>
      <trkpt lat="45.9513" lon="4.87181">
        <ele>276</ele>
        <time>2017-06-02T09:10:55Z</time>
      </trkpt>
      <trkpt lat="45.95128" lon="4.87172">
        <ele>276</ele>
        <time>2017-06-02T09:10:56Z</time>
      </trkpt>
      <trkpt lat="45.95126" lon="4.87164">
        <ele>276</ele>
        <time>2017-06-02T09:10:57Z</time>
      </trkpt>
      <trkpt lat="45.95124" lon="4.87155">
        <ele>276</ele>
        <time>2017-06-02T09:10:58Z</time>
      </trkpt>
      <trkpt lat="45.95121" lon="4.87146">
        <ele>276</ele>
        <time>2017-06-02T09:10:59Z</time>
      </trkpt>
      <trkpt lat="45.95119" lon="4.87138">
        <ele>276</ele>
        <time>2017-06-02T09:11:00Z</time>
      </trkpt>
      <trkpt lat="45.95117" lon="4.87129">
        <ele>276</ele>
        <time>2017-06-02T09:11:01Z</time>
      </trkpt>
      <trkpt lat="45.95115" lon="4.87121">
        <ele>277</ele>
        <time>2017-06-02T09:11:02Z</time>
      </trkpt>
      <trkpt lat="45.95113" lon="4.87113">
        <ele>277</ele>
        <time>2017-06-02T09:11:03Z</time>
      </trkpt>
      <trkpt lat="45.95111" lon="4.87106">
        <ele>277</ele>
        <time>2017-06-02T09:11:04Z</time>
      </trkpt>
      <trkpt lat="45.95109" lon="4.87099">
        <ele>277</ele>
        <time>2017-06-02T09:11:05Z</time>
      </trkpt>
      <trkpt lat="45.95106" lon="4.87093">
        <ele>277</ele>
        <time>2017-06-02T09:11:06Z</time>
      </trkpt>
      <trkpt lat="45.95103" lon="4.87088">
        <ele>277</ele>
        <time>2017-06-02T09:11:07Z</time>
      </trkpt>
      <trkpt lat="45.951" lon="4.87076">
        <ele>277</ele>
        <time>2017-06-02T09:11:09Z</time>
      </trkpt>
      <trkpt lat="45.95098" lon="4.8707">
        <ele>277</ele>
        <time>2017-06-02T09:11:10Z</time>
      </trkpt>
      <trkpt lat="45.95093" lon="4.8706">
        <ele>277</ele>
        <time>2017-06-02T09:11:12Z</time>
      </trkpt>
      <trkpt lat="45.95091" lon="4.87056">
        <ele>277</ele>
        <time>2017-06-02T09:11:13Z</time>
      </trkpt>
      <trkpt lat="45.95086" lon="4.87046">
        <ele>277</ele>
        <time>2017-06-02T09:11:15Z</time>
      </trkpt>
      <trkpt lat="45.95083" lon="4.87041">
        <ele>277</ele>
        <time>2017-06-02T09:11:16Z</time>
      </trkpt>
      <trkpt lat="45.95081" lon="4.87035">
        <ele>277</ele>
        <time>2017-06-02T09:11:17Z</time>
      </trkpt>
      <trkpt lat="45.95078" lon="4.8703">
        <ele>277</ele>
        <time>2017-06-02T09:11:18Z</time>
      </trkpt>
      <trkpt lat="45.95076" lon="4.87024">
        <ele>277</ele>
        <time>2017-06-02T09:11:19Z</time>
      </trkpt>
      <trkpt lat="45.95073" lon="4.87018">
        <ele>277</ele>
        <time>2017-06-02T09:11:20Z</time>
      </trkpt>
      <trkpt lat="45.9507" lon="4.87013">
        <ele>277</ele>
        <time>2017-06-02T09:11:21Z</time>
      </trkpt>
      <trkpt lat="45.95067" lon="4.87007">
        <ele>277</ele>
        <time>2017-06-02T09:11:22Z</time>
      </trkpt>
      <trkpt lat="45.95065" lon="4.87001">
        <ele>277</ele>
        <time>2017-06-02T09:11:23Z</time>
      </trkpt>
      <trkpt lat="45.95062" lon="4.86994">
        <ele>276</ele>
        <time>2017-06-02T09:11:24Z</time>
      </trkpt>
      <trkpt lat="45.95059" lon="4.86988">
        <ele>276</ele>
        <time>2017-06-02T09:11:25Z</time>
      </trkpt>
      <trkpt lat="45.95056" lon="4.86981">
        <ele>276</ele>
        <time>2017-06-02T09:11:26Z</time>
      </trkpt>
      <trkpt lat="45.95054" lon="4.86975">
        <ele>276</ele>
        <time>2017-06-02T09:11:27Z</time>
      </trkpt>
      <trkpt lat="45.95051" lon="4.86968">
        <ele>276</ele>
        <time>2017-06-02T09:11:28Z</time>
      </trkpt>
      <trkpt lat="45.95049" lon="4.86961">
        <ele>276</ele>
        <time>2017-06-02T09:11:29Z</time>
      </trkpt>
      <trkpt lat="45.95047" lon="4.86955">
        <ele>276</ele>
        <time>2017-06-02T09:11:30Z</time>
      </trkpt>
      <trkpt lat="45.95044" lon="4.86948">
        <ele>276</ele>
        <time>2017-06-02T09:11:31Z</time>
      </trkpt>
      <trkpt lat="45.95042" lon="4.86941">
        <ele>276</ele>
        <time>2017-06-02T09:11:32Z</time>
      </trkpt>
      <trkpt lat="45.95039" lon="4.86933">
        <ele>276</ele>
        <time>2017-06-02T09:11:33Z</time>
      </trkpt>
      <trkpt lat="45.95037" lon="4.86925">
        <ele>276</ele>
        <time>2017-06-02T09:11:34Z</time>
      </trkpt>
      <trkpt lat="45.95035" lon="4.86918">
        <ele>276</ele>
        <time>2017-06-02T09:11:35Z</time>
      </trkpt>
      <trkpt lat="45.95032" lon="4.86909">
        <ele>275</ele>
        <time>2017-06-02T09:11:36Z</time>
      </trkpt>
      <trkpt lat="45.95029" lon="4.86901">
        <ele>275</ele>
        <time>2017-06-02T09:11:37Z</time>
      </trkpt>
      <trkpt lat="45.95027" lon="4.86893">
        <ele>275</ele>
        <time>2017-06-02T09:11:38Z</time>
      </trkpt>
      <trkpt lat="45.95025" lon="4.86886">
        <ele>275</ele>
        <time>2017-06-02T09:11:39Z</time>
      </trkpt>
      <trkpt lat="45.95023" lon="4.86878">
        <ele>275</ele>
        <time>2017-06-02T09:11:40Z</time>
      </trkpt>
      <trkpt lat="45.9502" lon="4.86871">
        <ele>275</ele>
        <time>2017-06-02T09:11:41Z</time>
      </trkpt>
      <trkpt lat="45.95017" lon="4.86864">
        <ele>275</ele>
        <time>2017-06-02T09:11:42Z</time>
      </trkpt>
      <trkpt lat="45.95015" lon="4.86858">
        <ele>275</ele>
        <time>2017-06-02T09:11:43Z</time>
      </trkpt>
      <trkpt lat="45.95012" lon="4.86852">
        <ele>275</ele>
        <time>2017-06-02T09:11:44Z</time>
      </trkpt>
      <trkpt lat="45.9501" lon="4.86845">
        <ele>276</ele>
        <time>2017-06-02T09:11:45Z</time>
      </trkpt>
      <trkpt lat="45.95008" lon="4.86838">
        <ele>276</ele>
        <time>2017-06-02T09:11:46Z</time>
      </trkpt>
      <trkpt lat="45.95005" lon="4.86832">
        <ele>276</ele>
        <time>2017-06-02T09:11:47Z</time>
      </trkpt>
      <trkpt lat="45.95003" lon="4.86824">
        <ele>275</ele>
        <time>2017-06-02T09:11:48Z</time>
      </trkpt>
      <trkpt lat="45.94999" lon="4.86817">
        <ele>276</ele>
        <time>2017-06-02T09:11:49Z</time>
      </trkpt>
      <trkpt lat="45.94996" lon="4.86809">
        <ele>276</ele>
        <time>2017-06-02T09:11:50Z</time>
      </trkpt>
      <trkpt lat="45.94993" lon="4.86802">
        <ele>276</ele>
        <time>2017-06-02T09:11:51Z</time>
      </trkpt>
      <trkpt lat="45.94989" lon="4.86795">
        <ele>276</ele>
        <time>2017-06-02T09:11:52Z</time>
      </trkpt>
      <trkpt lat="45.94984" lon="4.86788">
        <ele>275</ele>
        <time>2017-06-02T09:11:53Z</time>
      </trkpt>
      <trkpt lat="45.9498" lon="4.86782">
        <ele>275</ele>
        <time>2017-06-02T09:11:54Z</time>
      </trkpt>
      <trkpt lat="45.94976" lon="4.86775">
        <ele>275</ele>
        <time>2017-06-02T09:11:55Z</time>
      </trkpt>
      <trkpt lat="45.94973" lon="4.86769">
        <ele>275</ele>
        <time>2017-06-02T09:11:56Z</time>
      </trkpt>
      <trkpt lat="45.9497" lon="4.86762">
        <ele>275</ele>
        <time>2017-06-02T09:11:57Z</time>
      </trkpt>
      <trkpt lat="45.94967" lon="4.86756">
        <ele>275</ele>
        <time>2017-06-02T09:11:58Z</time>
      </trkpt>
      <trkpt lat="45.94964" lon="4.86749">
        <ele>275</ele>
        <time>2017-06-02T09:11:59Z</time>
      </trkpt>
      <trkpt lat="45.94961" lon="4.86743">
        <ele>275</ele>
        <time>2017-06-02T09:12:00Z</time>
      </trkpt>
      <trkpt lat="45.94958" lon="4.86738">
        <ele>275</ele>
        <time>2017-06-02T09:12:01Z</time>
      </trkpt>
      <trkpt lat="45.94955" lon="4.86732">
        <ele>275</ele>
        <time>2017-06-02T09:12:02Z</time>
      </trkpt>
      <trkpt lat="45.94953" lon="4.86726">
        <ele>275</ele>
        <time>2017-06-02T09:12:03Z</time>
      </trkpt>
      <trkpt lat="45.94951" lon="4.8672">
        <ele>275</ele>
        <time>2017-06-02T09:12:04Z</time>
      </trkpt>
      <trkpt lat="45.94948" lon="4.86708">
        <ele>275</ele>
        <time>2017-06-02T09:12:06Z</time>
      </trkpt>
      <trkpt lat="45.94947" lon="4.86702">
        <ele>275</ele>
        <time>2017-06-02T09:12:07Z</time>
      </trkpt>
      <trkpt lat="45.94944" lon="4.8669">
        <ele>276</ele>
        <time>2017-06-02T09:12:09Z</time>
      </trkpt>
      <trkpt lat="45.94943" lon="4.86683">
        <ele>276</ele>
        <time>2017-06-02T09:12:10Z</time>
      </trkpt>
      <trkpt lat="45.94942" lon="4.86676">
        <ele>276</ele>
        <time>2017-06-02T09:12:11Z</time>
      </trkpt>
      <trkpt lat="45.94942" lon="4.86669">
        <ele>276</ele>
        <time>2017-06-02T09:12:12Z</time>
      </trkpt>
      <trkpt lat="45.94943" lon="4.86662">
        <ele>276</ele>
        <time>2017-06-02T09:12:13Z</time>
      </trkpt>
      <trkpt lat="45.94944" lon="4.86656">
        <ele>276</ele>
        <time>2017-06-02T09:12:14Z</time>
      </trkpt>
      <trkpt lat="45.94946" lon="4.8665">
        <ele>276</ele>
        <time>2017-06-02T09:12:15Z</time>
      </trkpt>
      <trkpt lat="45.94949" lon="4.86644">
        <ele>276</ele>
        <time>2017-06-02T09:12:16Z</time>
      </trkpt>
      <trkpt lat="45.94953" lon="4.86639">
        <ele>276</ele>
        <time>2017-06-02T09:12:17Z</time>
      </trkpt>
      <trkpt lat="45.94955" lon="4.86634">
        <ele>276</ele>
        <time>2017-06-02T09:12:18Z</time>
      </trkpt>
      <trkpt lat="45.94962" lon="4.86626">
        <ele>275</ele>
        <time>2017-06-02T09:12:20Z</time>
      </trkpt>
      <trkpt lat="45.94967" lon="4.86623">
        <ele>275</ele>
        <time>2017-06-02T09:12:21Z</time>
      </trkpt>
      <trkpt lat="45.94971" lon="4.86621">
        <ele>275</ele>
        <time>2017-06-02T09:12:22Z</time>
      </trkpt>
      <trkpt lat="45.94976" lon="4.86619">
        <ele>275</ele>
        <time>2017-06-02T09:12:23Z</time>
      </trkpt>
      <trkpt lat="45.94981" lon="4.86618">
        <ele>275</ele>
        <time>2017-06-02T09:12:24Z</time>
      </trkpt>
      <trkpt lat="45.94986" lon="4.86617">
        <ele>275</ele>
        <time>2017-06-02T09:12:25Z</time>
      </trkpt>
      <trkpt lat="45.94991" lon="4.86617">
        <ele>275</ele>
        <time>2017-06-02T09:12:26Z</time>
      </trkpt>
      <trkpt lat="45.94997" lon="4.86617">
        <ele>275</ele>
        <time>2017-06-02T09:12:27Z</time>
      </trkpt>
      <trkpt lat="45.95003" lon="4.86617">
        <ele>273</ele>
        <time>2017-06-02T09:12:28Z</time>
      </trkpt>
      <trkpt lat="45.95009" lon="4.86616">
        <ele>273</ele>
        <time>2017-06-02T09:12:29Z</time>
      </trkpt>
      <trkpt lat="45.95015" lon="4.86614">
        <ele>273</ele>
        <time>2017-06-02T09:12:30Z</time>
      </trkpt>
      <trkpt lat="45.95021" lon="4.86613">
        <ele>273</ele>
        <time>2017-06-02T09:12:31Z</time>
      </trkpt>
      <trkpt lat="45.95027" lon="4.86611">
        <ele>273</ele>
        <time>2017-06-02T09:12:32Z</time>
      </trkpt>
      <trkpt lat="45.95034" lon="4.86609">
        <ele>273</ele>
        <time>2017-06-02T09:12:33Z</time>
      </trkpt>
      <trkpt lat="45.95041" lon="4.86608">
        <ele>273</ele>
        <time>2017-06-02T09:12:34Z</time>
      </trkpt>
      <trkpt lat="45.95048" lon="4.86606">
        <ele>272</ele>
        <time>2017-06-02T09:12:35Z</time>
      </trkpt>
      <trkpt lat="45.95055" lon="4.86604">
        <ele>272</ele>
        <time>2017-06-02T09:12:36Z</time>
      </trkpt>
      <trkpt lat="45.95063" lon="4.86603">
        <ele>272</ele>
        <time>2017-06-02T09:12:37Z</time>
      </trkpt>
      <trkpt lat="45.9507" lon="4.866">
        <ele>272</ele>
        <time>2017-06-02T09:12:38Z</time>
      </trkpt>
      <trkpt lat="45.95078" lon="4.86598">
        <ele>272</ele>
        <time>2017-06-02T09:12:39Z</time>
      </trkpt>
      <trkpt lat="45.95085" lon="4.86596">
        <ele>271</ele>
        <time>2017-06-02T09:12:40Z</time>
      </trkpt>
      <trkpt lat="45.95093" lon="4.86594">
        <ele>271</ele>
        <time>2017-06-02T09:12:41Z</time>
      </trkpt>
      <trkpt lat="45.95101" lon="4.86592">
        <ele>271</ele>
        <time>2017-06-02T09:12:42Z</time>
      </trkpt>
      <trkpt lat="45.9511" lon="4.8659">
        <ele>271</ele>
        <time>2017-06-02T09:12:43Z</time>
      </trkpt>
      <trkpt lat="45.95119" lon="4.86589">
        <ele>270</ele>
        <time>2017-06-02T09:12:44Z</time>
      </trkpt>
      <trkpt lat="45.95127" lon="4.86588">
        <ele>270</ele>
        <time>2017-06-02T09:12:45Z</time>
      </trkpt>
      <trkpt lat="45.95136" lon="4.86587">
        <ele>270</ele>
        <time>2017-06-02T09:12:46Z</time>
      </trkpt>
      <trkpt lat="45.95145" lon="4.86585">
        <ele>270</ele>
        <time>2017-06-02T09:12:47Z</time>
      </trkpt>
      <trkpt lat="45.95154" lon="4.86583">
        <ele>269</ele>
        <time>2017-06-02T09:12:48Z</time>
      </trkpt>
      <trkpt lat="45.95163" lon="4.86582">
        <ele>269</ele>
        <time>2017-06-02T09:12:49Z</time>
      </trkpt>
      <trkpt lat="45.95172" lon="4.86581">
        <ele>269</ele>
        <time>2017-06-02T09:12:50Z</time>
      </trkpt>
      <trkpt lat="45.95181" lon="4.86582">
        <ele>269</ele>
        <time>2017-06-02T09:12:51Z</time>
      </trkpt>
      <trkpt lat="45.9519" lon="4.86582">
        <ele>269</ele>
        <time>2017-06-02T09:12:52Z</time>
      </trkpt>
      <trkpt lat="45.95199" lon="4.86583">
        <ele>268</ele>
        <time>2017-06-02T09:12:53Z</time>
      </trkpt>
      <trkpt lat="45.95207" lon="4.86583">
        <ele>268</ele>
        <time>2017-06-02T09:12:54Z</time>
      </trkpt>
      <trkpt lat="45.95216" lon="4.86584">
        <ele>269</ele>
        <time>2017-06-02T09:12:55Z</time>
      </trkpt>
      <trkpt lat="45.95223" lon="4.86585">
        <ele>269</ele>
        <time>2017-06-02T09:12:56Z</time>
      </trkpt>
      <trkpt lat="45.9523" lon="4.86587">
        <ele>269</ele>
        <time>2017-06-02T09:12:57Z</time>
      </trkpt>
      <trkpt lat="45.95237" lon="4.86588">
        <ele>269</ele>
        <time>2017-06-02T09:12:58Z</time>
      </trkpt>
      <trkpt lat="45.95242" lon="4.86589">
        <ele>268</ele>
        <time>2017-06-02T09:12:59Z</time>
      </trkpt>
      <trkpt lat="45.95251" lon="4.86588">
        <ele>268</ele>
        <time>2017-06-02T09:13:01Z</time>
      </trkpt>
      <trkpt lat="45.95254" lon="4.86586">
        <ele>268</ele>
        <time>2017-06-02T09:13:02Z</time>
      </trkpt>
      <trkpt lat="45.95261" lon="4.86583">
        <ele>268</ele>
        <time>2017-06-02T09:13:05Z</time>
      </trkpt>
      <trkpt lat="45.95263" lon="4.86582">
        <ele>267</ele>
        <time>2017-06-02T09:13:06Z</time>
      </trkpt>
      <trkpt lat="45.95265" lon="4.8657">
        <ele>267</ele>
        <time>2017-06-02T09:13:10Z</time>
      </trkpt>
      <trkpt lat="45.95263" lon="4.86564">
        <ele>267</ele>
        <time>2017-06-02T09:13:11Z</time>
      </trkpt>
      <trkpt lat="45.95257" lon="4.86556">
        <ele>267</ele>
        <time>2017-06-02T09:13:13Z</time>
      </trkpt>
      <trkpt lat="45.95253" lon="4.86552">
        <ele>267</ele>
        <time>2017-06-02T09:13:14Z</time>
      </trkpt>
      <trkpt lat="45.95248" lon="4.86547">
        <ele>268</ele>
        <time>2017-06-02T09:13:15Z</time>
      </trkpt>
      <trkpt lat="45.95244" lon="4.86542">
        <ele>268</ele>
        <time>2017-06-02T09:13:16Z</time>
      </trkpt>
      <trkpt lat="45.9524" lon="4.86537">
        <ele>268</ele>
        <time>2017-06-02T09:13:17Z</time>
      </trkpt>
      <trkpt lat="45.95236" lon="4.8653">
        <ele>268</ele>
        <time>2017-06-02T09:13:18Z</time>
      </trkpt>
      <trkpt lat="45.95231" lon="4.86523">
        <ele>268</ele>
        <time>2017-06-02T09:13:19Z</time>
      </trkpt>
      <trkpt lat="45.95225" lon="4.86518">
        <ele>268</ele>
        <time>2017-06-02T09:13:20Z</time>
      </trkpt>
      <trkpt lat="45.95221" lon="4.86512">
        <ele>268</ele>
        <time>2017-06-02T09:13:21Z</time>
      </trkpt>
      <trkpt lat="45.95217" lon="4.86507">
        <ele>268</ele>
        <time>2017-06-02T09:13:22Z</time>
      </trkpt>
      <trkpt lat="45.95213" lon="4.86503">
        <ele>268</ele>
        <time>2017-06-02T09:13:23Z</time>
      </trkpt>
      <trkpt lat="45.95209" lon="4.86499">
        <ele>268</ele>
        <time>2017-06-02T09:13:24Z</time>
      </trkpt>
      <trkpt lat="45.95202" lon="4.86493">
        <ele>268</ele>
        <time>2017-06-02T09:13:26Z</time>
      </trkpt>
      <trkpt lat="45.95198" lon="4.86489">
        <ele>268</ele>
        <time>2017-06-02T09:13:27Z</time>
      </trkpt>
      <trkpt lat="45.95195" lon="4.86485">
        <ele>268</ele>
        <time>2017-06-02T09:13:28Z</time>
      </trkpt>
      <trkpt lat="45.95191" lon="4.86481">
        <ele>268</ele>
        <time>2017-06-02T09:13:29Z</time>
      </trkpt>
      <trkpt lat="45.95188" lon="4.86477">
        <ele>268</ele>
        <time>2017-06-02T09:13:30Z</time>
      </trkpt>
      <trkpt lat="45.95184" lon="4.86473">
        <ele>268</ele>
        <time>2017-06-02T09:13:31Z</time>
      </trkpt>
      <trkpt lat="45.9518" lon="4.86468">
        <ele>268</ele>
        <time>2017-06-02T09:13:32Z</time>
      </trkpt>
      <trkpt lat="45.95176" lon="4.86464">
        <ele>268</ele>
        <time>2017-06-02T09:13:33Z</time>
      </trkpt>
      <trkpt lat="45.95173" lon="4.8646">
        <ele>268</ele>
        <time>2017-06-02T09:13:34Z</time>
      </trkpt>
      <trkpt lat="45.9517" lon="4.86455">
        <ele>268</ele>
        <time>2017-06-02T09:13:35Z</time>
      </trkpt>
      <trkpt lat="45.95166" lon="4.8645">
        <ele>269</ele>
        <time>2017-06-02T09:13:36Z</time>
      </trkpt>
      <trkpt lat="45.95163" lon="4.86445">
        <ele>269</ele>
        <time>2017-06-02T09:13:37Z</time>
      </trkpt>
      <trkpt lat="45.95159" lon="4.8644">
        <ele>268</ele>
        <time>2017-06-02T09:13:38Z</time>
      </trkpt>
      <trkpt lat="45.95155" lon="4.86435">
        <ele>268</ele>
        <time>2017-06-02T09:13:39Z</time>
      </trkpt>
      <trkpt lat="45.95151" lon="4.86431">
        <ele>268</ele>
        <time>2017-06-02T09:13:40Z</time>
      </trkpt>
      <trkpt lat="45.95148" lon="4.86426">
        <ele>268</ele>
        <time>2017-06-02T09:13:41Z</time>
      </trkpt>
      <trkpt lat="45.95142" lon="4.86418">
        <ele>268</ele>
        <time>2017-06-02T09:13:43Z</time>
      </trkpt>
      <trkpt lat="45.95138" lon="4.86414">
        <ele>268</ele>
        <time>2017-06-02T09:13:44Z</time>
      </trkpt>
      <trkpt lat="45.95132" lon="4.86406">
        <ele>268</ele>
        <time>2017-06-02T09:13:46Z</time>
      </trkpt>
      <trkpt lat="45.9513" lon="4.86402">
        <ele>268</ele>
        <time>2017-06-02T09:13:47Z</time>
      </trkpt>
      <trkpt lat="45.95124" lon="4.86394">
        <ele>269</ele>
        <time>2017-06-02T09:13:49Z</time>
      </trkpt>
      <trkpt lat="45.95121" lon="4.8639">
        <ele>269</ele>
        <time>2017-06-02T09:13:50Z</time>
      </trkpt>
      <trkpt lat="45.95114" lon="4.86383">
        <ele>269</ele>
        <time>2017-06-02T09:13:52Z</time>
      </trkpt>
      <trkpt lat="45.95111" lon="4.86379">
        <ele>269</ele>
        <time>2017-06-02T09:13:53Z</time>
      </trkpt>
      <trkpt lat="45.95105" lon="4.86372">
        <ele>269</ele>
        <time>2017-06-02T09:13:55Z</time>
      </trkpt>
      <trkpt lat="45.95103" lon="4.86368">
        <ele>269</ele>
        <time>2017-06-02T09:13:56Z</time>
      </trkpt>
      <trkpt lat="45.95096" lon="4.8636">
        <ele>269</ele>
        <time>2017-06-02T09:13:58Z</time>
      </trkpt>
      <trkpt lat="45.95093" lon="4.86355">
        <ele>269</ele>
        <time>2017-06-02T09:13:59Z</time>
      </trkpt>
      <trkpt lat="45.9509" lon="4.8635">
        <ele>269</ele>
        <time>2017-06-02T09:14:00Z</time>
      </trkpt>
      <trkpt lat="45.95086" lon="4.86345">
        <ele>269</ele>
        <time>2017-06-02T09:14:01Z</time>
      </trkpt>
      <trkpt lat="45.95081" lon="4.8634">
        <ele>270</ele>
        <time>2017-06-02T09:14:02Z</time>
      </trkpt>
      <trkpt lat="45.95077" lon="4.86335">
        <ele>270</ele>
        <time>2017-06-02T09:14:03Z</time>
      </trkpt>
      <trkpt lat="45.95072" lon="4.8633">
        <ele>270</ele>
        <time>2017-06-02T09:14:04Z</time>
      </trkpt>
      <trkpt lat="45.95068" lon="4.86325">
        <ele>270</ele>
        <time>2017-06-02T09:14:05Z</time>
      </trkpt>
      <trkpt lat="45.95064" lon="4.8632">
        <ele>270</ele>
        <time>2017-06-02T09:14:06Z</time>
      </trkpt>
      <trkpt lat="45.9506" lon="4.86316">
        <ele>270</ele>
        <time>2017-06-02T09:14:07Z</time>
      </trkpt>
      <trkpt lat="45.95054" lon="4.86307">
        <ele>271</ele>
        <time>2017-06-02T09:14:09Z</time>
      </trkpt>
      <trkpt lat="45.95051" lon="4.86304">
        <ele>271</ele>
        <time>2017-06-02T09:14:10Z</time>
      </trkpt>
      <trkpt lat="45.95046" lon="4.86298">
        <ele>271</ele>
        <time>2017-06-02T09:14:12Z</time>
      </trkpt>
      <trkpt lat="45.95044" lon="4.86295">
        <ele>271</ele>
        <time>2017-06-02T09:14:13Z</time>
      </trkpt>
      <trkpt lat="45.95039" lon="4.86289">
        <ele>271</ele>
        <time>2017-06-02T09:14:15Z</time>
      </trkpt>
      <trkpt lat="45.95035" lon="4.86285">
        <ele>271</ele>
        <time>2017-06-02T09:14:16Z</time>
      </trkpt>
      <trkpt lat="45.95029" lon="4.86278">
        <ele>271</ele>
        <time>2017-06-02T09:14:18Z</time>
      </trkpt>
      <trkpt lat="45.95025" lon="4.86273">
        <ele>271</ele>
        <time>2017-06-02T09:14:19Z</time>
      </trkpt>
      <trkpt lat="45.95019" lon="4.86265">
        <ele>271</ele>
        <time>2017-06-02T09:14:21Z</time>
      </trkpt>
      <trkpt lat="45.95016" lon="4.86261">
        <ele>271</ele>
        <time>2017-06-02T09:14:22Z</time>
      </trkpt>
      <trkpt lat="45.95011" lon="4.86254">
        <ele>272</ele>
        <time>2017-06-02T09:14:24Z</time>
      </trkpt>
      <trkpt lat="45.95008" lon="4.86251">
        <ele>272</ele>
        <time>2017-06-02T09:14:25Z</time>
      </trkpt>
      <trkpt lat="45.95003" lon="4.86246">
        <ele>272</ele>
        <time>2017-06-02T09:14:27Z</time>
      </trkpt>
      <trkpt lat="45.95" lon="4.86242">
        <ele>272</ele>
        <time>2017-06-02T09:14:28Z</time>
      </trkpt>
      <trkpt lat="45.94994" lon="4.86233">
        <ele>272</ele>
        <time>2017-06-02T09:14:30Z</time>
      </trkpt>
      <trkpt lat="45.94991" lon="4.86228">
        <ele>272</ele>
        <time>2017-06-02T09:14:31Z</time>
      </trkpt>
      <trkpt lat="45.94988" lon="4.86223">
        <ele>272</ele>
        <time>2017-06-02T09:14:32Z</time>
      </trkpt>
      <trkpt lat="45.94985" lon="4.86219">
        <ele>272</ele>
        <time>2017-06-02T09:14:33Z</time>
      </trkpt>
      <trkpt lat="45.94981" lon="4.86214">
        <ele>272</ele>
        <time>2017-06-02T09:14:34Z</time>
      </trkpt>
      <trkpt lat="45.94977" lon="4.8621">
        <ele>272</ele>
        <time>2017-06-02T09:14:35Z</time>
      </trkpt>
      <trkpt lat="45.9497" lon="4.86202">
        <ele>272</ele>
        <time>2017-06-02T09:14:37Z</time>
      </trkpt>
      <trkpt lat="45.94967" lon="4.86198">
        <ele>272</ele>
        <time>2017-06-02T09:14:38Z</time>
      </trkpt>
      <trkpt lat="45.94961" lon="4.86191">
        <ele>272</ele>
        <time>2017-06-02T09:14:40Z</time>
      </trkpt>
      <trkpt lat="45.94959" lon="4.86188">
        <ele>272</ele>
        <time>2017-06-02T09:14:41Z</time>
      </trkpt>
      <trkpt lat="45.94953" lon="4.86182">
        <ele>273</ele>
        <time>2017-06-02T09:14:43Z</time>
      </trkpt>
      <trkpt lat="45.94951" lon="4.86178">
        <ele>273</ele>
        <time>2017-06-02T09:14:44Z</time>
      </trkpt>
      <trkpt lat="45.94945" lon="4.86173">
        <ele>273</ele>
        <time>2017-06-02T09:14:46Z</time>
      </trkpt>
      <trkpt lat="45.94943" lon="4.8617">
        <ele>273</ele>
        <time>2017-06-02T09:14:47Z</time>
      </trkpt>
      <trkpt lat="45.94937" lon="4.86163">
        <ele>273</ele>
        <time>2017-06-02T09:14:49Z</time>
      </trkpt>
      <trkpt lat="45.94933" lon="4.86158">
        <ele>273</ele>
        <time>2017-06-02T09:14:50Z</time>
      </trkpt>
      <trkpt lat="45.9493" lon="4.86153">
        <ele>273</ele>
        <time>2017-06-02T09:14:51Z</time>
      </trkpt>
      <trkpt lat="45.94927" lon="4.86147">
        <ele>273</ele>
        <time>2017-06-02T09:14:52Z</time>
      </trkpt>
      <trkpt lat="45.94923" lon="4.86141">
        <ele>273</ele>
        <time>2017-06-02T09:14:53Z</time>
      </trkpt>
      <trkpt lat="45.9492" lon="4.86136">
        <ele>273</ele>
        <time>2017-06-02T09:14:54Z</time>
      </trkpt>
      <trkpt lat="45.94916" lon="4.8613">
        <ele>274</ele>
        <time>2017-06-02T09:14:55Z</time>
      </trkpt>
      <trkpt lat="45.94914" lon="4.86125">
        <ele>274</ele>
        <time>2017-06-02T09:14:56Z</time>
      </trkpt>
      <trkpt lat="45.9491" lon="4.86115">
        <ele>274</ele>
        <time>2017-06-02T09:14:58Z</time>
      </trkpt>
      <trkpt lat="45.94908" lon="4.8611">
        <ele>274</ele>
        <time>2017-06-02T09:14:59Z</time>
      </trkpt>
      <trkpt lat="45.94904" lon="4.86099">
        <ele>274</ele>
        <time>2017-06-02T09:15:02Z</time>
      </trkpt>
      <trkpt lat="45.94903" lon="4.86096">
        <ele>274</ele>
        <time>2017-06-02T09:15:03Z</time>
      </trkpt>
      <trkpt lat="45.94899" lon="4.86086">
        <ele>274</ele>
        <time>2017-06-02T09:15:06Z</time>
      </trkpt>
      <trkpt lat="45.94897" lon="4.86081">
        <ele>274</ele>
        <time>2017-06-02T09:15:07Z</time>
      </trkpt>
      <trkpt lat="45.94893" lon="4.8607">
        <ele>274</ele>
        <time>2017-06-02T09:15:09Z</time>
      </trkpt>
      <trkpt lat="45.94891" lon="4.86064">
        <ele>274</ele>
        <time>2017-06-02T09:15:10Z</time>
      </trkpt>
      <trkpt lat="45.94889" lon="4.86057">
        <ele>274</ele>
        <time>2017-06-02T09:15:11Z</time>
      </trkpt>
      <trkpt lat="45.94887" lon="4.8605">
        <ele>274</ele>
        <time>2017-06-02T09:15:12Z</time>
      </trkpt>
      <trkpt lat="45.94885" lon="4.86042">
        <ele>274</ele>
        <time>2017-06-02T09:15:13Z</time>
      </trkpt>
      <trkpt lat="45.94883" lon="4.86036">
        <ele>274</ele>
        <time>2017-06-02T09:15:14Z</time>
      </trkpt>
      <trkpt lat="45.94882" lon="4.86029">
        <ele>274</ele>
        <time>2017-06-02T09:15:15Z</time>
      </trkpt>
      <trkpt lat="45.9488" lon="4.86023">
        <ele>274</ele>
        <time>2017-06-02T09:15:16Z</time>
      </trkpt>
      <trkpt lat="45.94876" lon="4.86011">
        <ele>274</ele>
        <time>2017-06-02T09:15:18Z</time>
      </trkpt>
      <trkpt lat="45.94874" lon="4.86006">
        <ele>274</ele>
        <time>2017-06-02T09:15:19Z</time>
      </trkpt>
      <trkpt lat="45.94871" lon="4.85996">
        <ele>275</ele>
        <time>2017-06-02T09:15:21Z</time>
      </trkpt>
      <trkpt lat="45.9487" lon="4.8599">
        <ele>275</ele>
        <time>2017-06-02T09:15:22Z</time>
      </trkpt>
      <trkpt lat="45.94867" lon="4.8598">
        <ele>275</ele>
        <time>2017-06-02T09:15:24Z</time>
      </trkpt>
      <trkpt lat="45.94866" lon="4.85975">
        <ele>275</ele>
        <time>2017-06-02T09:15:25Z</time>
      </trkpt>
      <trkpt lat="45.94863" lon="4.85965">
        <ele>275</ele>
        <time>2017-06-02T09:15:27Z</time>
      </trkpt>
      <trkpt lat="45.94861" lon="4.8596">
        <ele>275</ele>
        <time>2017-06-02T09:15:28Z</time>
      </trkpt>
      <trkpt lat="45.94859" lon="4.85949">
        <ele>275</ele>
        <time>2017-06-02T09:15:30Z</time>
      </trkpt>
      <trkpt lat="45.94857" lon="4.85944">
        <ele>275</ele>
        <time>2017-06-02T09:15:31Z</time>
      </trkpt>
      <trkpt lat="45.94854" lon="4.85934">
        <ele>275</ele>
        <time>2017-06-02T09:15:33Z</time>
      </trkpt>
      <trkpt lat="45.94853" lon="4.85929">
        <ele>275</ele>
        <time>2017-06-02T09:15:34Z</time>
      </trkpt>
      <trkpt lat="45.9485" lon="4.85918">
        <ele>275</ele>
        <time>2017-06-02T09:15:36Z</time>
      </trkpt>
      <trkpt lat="45.94849" lon="4.85913">
        <ele>275</ele>
        <time>2017-06-02T09:15:37Z</time>
      </trkpt>
      <trkpt lat="45.94846" lon="4.85904">
        <ele>276</ele>
        <time>2017-06-02T09:15:39Z</time>
      </trkpt>
      <trkpt lat="45.94845" lon="4.85898">
        <ele>276</ele>
        <time>2017-06-02T09:15:40Z</time>
      </trkpt>
      <trkpt lat="45.94844" lon="4.85892">
        <ele>276</ele>
        <time>2017-06-02T09:15:41Z</time>
      </trkpt>
      <trkpt lat="45.94842" lon="4.85886">
        <ele>276</ele>
        <time>2017-06-02T09:15:42Z</time>
      </trkpt>
      <trkpt lat="45.9484" lon="4.8588">
        <ele>276</ele>
        <time>2017-06-02T09:15:43Z</time>
      </trkpt>
      <trkpt lat="45.94839" lon="4.85874">
        <ele>276</ele>
        <time>2017-06-02T09:15:44Z</time>
      </trkpt>
      <trkpt lat="45.94837" lon="4.85867">
        <ele>276</ele>
        <time>2017-06-02T09:15:45Z</time>
      </trkpt>
      <trkpt lat="45.94836" lon="4.85859">
        <ele>276</ele>
        <time>2017-06-02T09:15:46Z</time>
      </trkpt>
      <trkpt lat="45.94834" lon="4.85851">
        <ele>276</ele>
        <time>2017-06-02T09:15:47Z</time>
      </trkpt>
      <trkpt lat="45.94832" lon="4.85844">
        <ele>277</ele>
        <time>2017-06-02T09:15:48Z</time>
      </trkpt>
      <trkpt lat="45.9483" lon="4.85837">
        <ele>277</ele>
        <time>2017-06-02T09:15:49Z</time>
      </trkpt>
      <trkpt lat="45.94829" lon="4.85831">
        <ele>277</ele>
        <time>2017-06-02T09:15:50Z</time>
      </trkpt>
      <trkpt lat="45.94825" lon="4.85819">
        <ele>278</ele>
        <time>2017-06-02T09:15:52Z</time>
      </trkpt>
      <trkpt lat="45.94823" lon="4.85814">
        <ele>278</ele>
        <time>2017-06-02T09:15:53Z</time>
      </trkpt>
      <trkpt lat="45.9482" lon="4.85804">
        <ele>278</ele>
        <time>2017-06-02T09:15:55Z</time>
      </trkpt>
      <trkpt lat="45.94819" lon="4.85799">
        <ele>278</ele>
        <time>2017-06-02T09:15:56Z</time>
      </trkpt>
      <trkpt lat="45.94816" lon="4.85789">
        <ele>278</ele>
        <time>2017-06-02T09:15:58Z</time>
      </trkpt>
      <trkpt lat="45.94815" lon="4.85784">
        <ele>278</ele>
        <time>2017-06-02T09:15:59Z</time>
      </trkpt>
      <trkpt lat="45.94812" lon="4.85775">
        <ele>278</ele>
        <time>2017-06-02T09:16:01Z</time>
      </trkpt>
      <trkpt lat="45.94811" lon="4.85769">
        <ele>278</ele>
        <time>2017-06-02T09:16:02Z</time>
      </trkpt>
      <trkpt lat="45.94808" lon="4.85758">
        <ele>278</ele>
        <time>2017-06-02T09:16:04Z</time>
      </trkpt>
      <trkpt lat="45.94806" lon="4.85751">
        <ele>278</ele>
        <time>2017-06-02T09:16:05Z</time>
      </trkpt>
      <trkpt lat="45.94805" lon="4.85744">
        <ele>279</ele>
        <time>2017-06-02T09:16:06Z</time>
      </trkpt>
      <trkpt lat="45.94803" lon="4.85737">
        <ele>280</ele>
        <time>2017-06-02T09:16:07Z</time>
      </trkpt>
      <trkpt lat="45.94801" lon="4.8573">
        <ele>280</ele>
        <time>2017-06-02T09:16:08Z</time>
      </trkpt>
      <trkpt lat="45.948" lon="4.85724">
        <ele>280</ele>
        <time>2017-06-02T09:16:09Z</time>
      </trkpt>
      <trkpt lat="45.94797" lon="4.85713">
        <ele>280</ele>
        <time>2017-06-02T09:16:11Z</time>
      </trkpt>
      <trkpt lat="45.94797" lon="4.85707">
        <ele>280</ele>
        <time>2017-06-02T09:16:12Z</time>
      </trkpt>
      <trkpt lat="45.94794" lon="4.85698">
        <ele>280</ele>
        <time>2017-06-02T09:16:14Z</time>
      </trkpt>
      <trkpt lat="45.94793" lon="4.85693">
        <ele>280</ele>
        <time>2017-06-02T09:16:15Z</time>
      </trkpt>
      <trkpt lat="45.9479" lon="4.85685">
        <ele>280</ele>
        <time>2017-06-02T09:16:17Z</time>
      </trkpt>
      <trkpt lat="45.94789" lon="4.85681">
        <ele>280</ele>
        <time>2017-06-02T09:16:18Z</time>
      </trkpt>
      <trkpt lat="45.94786" lon="4.85671">
        <ele>280</ele>
        <time>2017-06-02T09:16:20Z</time>
      </trkpt>
      <trkpt lat="45.94785" lon="4.85665">
        <ele>281</ele>
        <time>2017-06-02T09:16:21Z</time>
      </trkpt>
      <trkpt lat="45.94783" lon="4.85659">
        <ele>281</ele>
        <time>2017-06-02T09:16:22Z</time>
      </trkpt>
      <trkpt lat="45.94782" lon="4.85653">
        <ele>281</ele>
        <time>2017-06-02T09:16:23Z</time>
      </trkpt>
      <trkpt lat="45.94779" lon="4.85641">
        <ele>281</ele>
        <time>2017-06-02T09:16:25Z</time>
      </trkpt>
      <trkpt lat="45.94777" lon="4.85635">
        <ele>281</ele>
        <time>2017-06-02T09:16:26Z</time>
      </trkpt>
      <trkpt lat="45.94775" lon="4.85629">
        <ele>280</ele>
        <time>2017-06-02T09:16:27Z</time>
      </trkpt>
      <trkpt lat="45.94773" lon="4.85622">
        <ele>280</ele>
        <time>2017-06-02T09:16:28Z</time>
      </trkpt>
      <trkpt lat="45.94771" lon="4.85616">
        <ele>280</ele>
        <time>2017-06-02T09:16:29Z</time>
      </trkpt>
      <trkpt lat="45.9477" lon="4.85609">
        <ele>280</ele>
        <time>2017-06-02T09:16:30Z</time>
      </trkpt>
      <trkpt lat="45.94768" lon="4.85601">
        <ele>280</ele>
        <time>2017-06-02T09:16:31Z</time>
      </trkpt>
      <trkpt lat="45.94767" lon="4.85594">
        <ele>280</ele>
        <time>2017-06-02T09:16:32Z</time>
      </trkpt>
      <trkpt lat="45.94765" lon="4.85586">
        <ele>280</ele>
        <time>2017-06-02T09:16:33Z</time>
      </trkpt>
      <trkpt lat="45.94763" lon="4.85577">
        <ele>279</ele>
        <time>2017-06-02T09:16:34Z</time>
      </trkpt>
      <trkpt lat="45.94762" lon="4.85568">
        <ele>279</ele>
        <time>2017-06-02T09:16:35Z</time>
      </trkpt>
      <trkpt lat="45.9476" lon="4.85559">
        <ele>278</ele>
        <time>2017-06-02T09:16:36Z</time>
      </trkpt>
      <trkpt lat="45.94758" lon="4.8555">
        <ele>278</ele>
        <time>2017-06-02T09:16:37Z</time>
      </trkpt>
      <trkpt lat="45.94756" lon="4.8554">
        <ele>278</ele>
        <time>2017-06-02T09:16:38Z</time>
      </trkpt>
      <trkpt lat="45.94755" lon="4.8553">
        <ele>278</ele>
        <time>2017-06-02T09:16:39Z</time>
      </trkpt>
      <trkpt lat="45.94753" lon="4.85519">
        <ele>277</ele>
        <time>2017-06-02T09:16:40Z</time>
      </trkpt>
      <trkpt lat="45.94751" lon="4.85508">
        <ele>277</ele>
        <time>2017-06-02T09:16:41Z</time>
      </trkpt>
      <trkpt lat="45.9475" lon="4.85497">
        <ele>276</ele>
        <time>2017-06-02T09:16:42Z</time>
      </trkpt>
      <trkpt lat="45.94749" lon="4.85486">
        <ele>275</ele>
        <time>2017-06-02T09:16:43Z</time>
      </trkpt>
      <trkpt lat="45.94747" lon="4.85474">
        <ele>274</ele>
        <time>2017-06-02T09:16:44Z</time>
      </trkpt>
      <trkpt lat="45.94746" lon="4.85462">
        <ele>274</ele>
        <time>2017-06-02T09:16:45Z</time>
      </trkpt>
      <trkpt lat="45.94744" lon="4.8545">
        <ele>274</ele>
        <time>2017-06-02T09:16:46Z</time>
      </trkpt>
      <trkpt lat="45.94743" lon="4.85437">
        <ele>274</ele>
        <time>2017-06-02T09:16:47Z</time>
      </trkpt>
      <trkpt lat="45.94742" lon="4.85425">
        <ele>273</ele>
        <time>2017-06-02T09:16:48Z</time>
      </trkpt>
      <trkpt lat="45.9474" lon="4.85413">
        <ele>272</ele>
        <time>2017-06-02T09:16:49Z</time>
      </trkpt>
      <trkpt lat="45.94739" lon="4.85401">
        <ele>272</ele>
        <time>2017-06-02T09:16:50Z</time>
      </trkpt>
      <trkpt lat="45.94738" lon="4.8539">
        <ele>272</ele>
        <time>2017-06-02T09:16:51Z</time>
      </trkpt>
      <trkpt lat="45.94737" lon="4.85378">
        <ele>271</ele>
        <time>2017-06-02T09:16:52Z</time>
      </trkpt>
      <trkpt lat="45.94736" lon="4.85367">
        <ele>271</ele>
        <time>2017-06-02T09:16:53Z</time>
      </trkpt>
      <trkpt lat="45.94735" lon="4.85355">
        <ele>271</ele>
        <time>2017-06-02T09:16:54Z</time>
      </trkpt>
      <trkpt lat="45.94734" lon="4.85344">
        <ele>271</ele>
        <time>2017-06-02T09:16:55Z</time>
      </trkpt>
      <trkpt lat="45.94733" lon="4.85333">
        <ele>270</ele>
        <time>2017-06-02T09:16:56Z</time>
      </trkpt>
      <trkpt lat="45.94732" lon="4.85323">
        <ele>270</ele>
        <time>2017-06-02T09:16:57Z</time>
      </trkpt>
      <trkpt lat="45.94731" lon="4.85313">
        <ele>270</ele>
        <time>2017-06-02T09:16:58Z</time>
      </trkpt>
      <trkpt lat="45.9473" lon="4.85303">
        <ele>270</ele>
        <time>2017-06-02T09:16:59Z</time>
      </trkpt>
      <trkpt lat="45.94729" lon="4.85293">
        <ele>270</ele>
        <time>2017-06-02T09:17:00Z</time>
      </trkpt>
      <trkpt lat="45.94728" lon="4.85283">
        <ele>269</ele>
        <time>2017-06-02T09:17:01Z</time>
      </trkpt>
      <trkpt lat="45.94727" lon="4.85274">
        <ele>269</ele>
        <time>2017-06-02T09:17:02Z</time>
      </trkpt>
      <trkpt lat="45.94725" lon="4.85265">
        <ele>269</ele>
        <time>2017-06-02T09:17:03Z</time>
      </trkpt>
      <trkpt lat="45.94724" lon="4.85256">
        <ele>269</ele>
        <time>2017-06-02T09:17:04Z</time>
      </trkpt>
      <trkpt lat="45.94723" lon="4.85247">
        <ele>269</ele>
        <time>2017-06-02T09:17:05Z</time>
      </trkpt>
      <trkpt lat="45.94722" lon="4.85239">
        <ele>269</ele>
        <time>2017-06-02T09:17:06Z</time>
      </trkpt>
      <trkpt lat="45.94721" lon="4.8523">
        <ele>269</ele>
        <time>2017-06-02T09:17:07Z</time>
      </trkpt>
      <trkpt lat="45.9472" lon="4.85222">
        <ele>269</ele>
        <time>2017-06-02T09:17:08Z</time>
      </trkpt>
      <trkpt lat="45.94719" lon="4.85213">
        <ele>269</ele>
        <time>2017-06-02T09:17:09Z</time>
      </trkpt>
      <trkpt lat="45.94718" lon="4.85205">
        <ele>269</ele>
        <time>2017-06-02T09:17:10Z</time>
      </trkpt>
      <trkpt lat="45.94718" lon="4.85198">
        <ele>269</ele>
        <time>2017-06-02T09:17:11Z</time>
      </trkpt>
      <trkpt lat="45.94717" lon="4.8519">
        <ele>269</ele>
        <time>2017-06-02T09:17:12Z</time>
      </trkpt>
      <trkpt lat="45.94716" lon="4.85182">
        <ele>269</ele>
        <time>2017-06-02T09:17:13Z</time>
      </trkpt>
      <trkpt lat="45.94715" lon="4.85173">
        <ele>269</ele>
        <time>2017-06-02T09:17:14Z</time>
      </trkpt>
      <trkpt lat="45.94715" lon="4.85165">
        <ele>269</ele>
        <time>2017-06-02T09:17:15Z</time>
      </trkpt>
      <trkpt lat="45.94714" lon="4.85156">
        <ele>269</ele>
        <time>2017-06-02T09:17:16Z</time>
      </trkpt>
      <trkpt lat="45.94713" lon="4.85147">
        <ele>269</ele>
        <time>2017-06-02T09:17:17Z</time>
      </trkpt>
      <trkpt lat="45.94712" lon="4.85138">
        <ele>269</ele>
        <time>2017-06-02T09:17:18Z</time>
      </trkpt>
      <trkpt lat="45.94711" lon="4.85129">
        <ele>269</ele>
        <time>2017-06-02T09:17:19Z</time>
      </trkpt>
      <trkpt lat="45.9471" lon="4.8512">
        <ele>269</ele>
        <time>2017-06-02T09:17:20Z</time>
      </trkpt>
      <trkpt lat="45.94709" lon="4.85111">
        <ele>269</ele>
        <time>2017-06-02T09:17:21Z</time>
      </trkpt>
      <trkpt lat="45.94708" lon="4.85101">
        <ele>269</ele>
        <time>2017-06-02T09:17:22Z</time>
      </trkpt>
      <trkpt lat="45.94707" lon="4.85092">
        <ele>269</ele>
        <time>2017-06-02T09:17:23Z</time>
      </trkpt>
      <trkpt lat="45.94706" lon="4.85082">
        <ele>269</ele>
        <time>2017-06-02T09:17:24Z</time>
      </trkpt>
      <trkpt lat="45.94705" lon="4.85073">
        <ele>269</ele>
        <time>2017-06-02T09:17:25Z</time>
      </trkpt>
      <trkpt lat="45.94704" lon="4.85063">
        <ele>269</ele>
        <time>2017-06-02T09:17:26Z</time>
      </trkpt>
      <trkpt lat="45.94703" lon="4.85054">
        <ele>269</ele>
        <time>2017-06-02T09:17:27Z</time>
      </trkpt>
      <trkpt lat="45.94702" lon="4.85045">
        <ele>269</ele>
        <time>2017-06-02T09:17:28Z</time>
      </trkpt>
      <trkpt lat="45.94701" lon="4.85036">
        <ele>269</ele>
        <time>2017-06-02T09:17:29Z</time>
      </trkpt>
      <trkpt lat="45.947" lon="4.85028">
        <ele>269</ele>
        <time>2017-06-02T09:17:30Z</time>
      </trkpt>
      <trkpt lat="45.94699" lon="4.85019">
        <ele>269</ele>
        <time>2017-06-02T09:17:31Z</time>
      </trkpt>
      <trkpt lat="45.94698" lon="4.85011">
        <ele>269</ele>
        <time>2017-06-02T09:17:32Z</time>
      </trkpt>
      <trkpt lat="45.94697" lon="4.85003">
        <ele>269</ele>
        <time>2017-06-02T09:17:33Z</time>
      </trkpt>
      <trkpt lat="45.94696" lon="4.84995">
        <ele>269</ele>
        <time>2017-06-02T09:17:34Z</time>
      </trkpt>
      <trkpt lat="45.94695" lon="4.84986">
        <ele>269</ele>
        <time>2017-06-02T09:17:35Z</time>
      </trkpt>
      <trkpt lat="45.94694" lon="4.84977">
        <ele>269</ele>
        <time>2017-06-02T09:17:36Z</time>
      </trkpt>
      <trkpt lat="45.94693" lon="4.84968">
        <ele>269</ele>
        <time>2017-06-02T09:17:37Z</time>
      </trkpt>
      <trkpt lat="45.94692" lon="4.84959">
        <ele>269</ele>
        <time>2017-06-02T09:17:38Z</time>
      </trkpt>
      <trkpt lat="45.94691" lon="4.8495">
        <ele>269</ele>
        <time>2017-06-02T09:17:39Z</time>
      </trkpt>
      <trkpt lat="45.9469" lon="4.8494">
        <ele>269</ele>
        <time>2017-06-02T09:17:40Z</time>
      </trkpt>
      <trkpt lat="45.94689" lon="4.8493">
        <ele>269</ele>
        <time>2017-06-02T09:17:41Z</time>
      </trkpt>
      <trkpt lat="45.94688" lon="4.84921">
        <ele>269</ele>
        <time>2017-06-02T09:17:42Z</time>
      </trkpt>
      <trkpt lat="45.94687" lon="4.84911">
        <ele>269</ele>
        <time>2017-06-02T09:17:43Z</time>
      </trkpt>
      <trkpt lat="45.94686" lon="4.84902">
        <ele>269</ele>
        <time>2017-06-02T09:17:44Z</time>
      </trkpt>
      <trkpt lat="45.94685" lon="4.84893">
        <ele>268</ele>
        <time>2017-06-02T09:17:45Z</time>
      </trkpt>
      <trkpt lat="45.94684" lon="4.84884">
        <ele>268</ele>
        <time>2017-06-02T09:17:46Z</time>
      </trkpt>
      <trkpt lat="45.94683" lon="4.84875">
        <ele>268</ele>
        <time>2017-06-02T09:17:47Z</time>
      </trkpt>
      <trkpt lat="45.94683" lon="4.84867">
        <ele>268</ele>
        <time>2017-06-02T09:17:48Z</time>
      </trkpt>
      <trkpt lat="45.94682" lon="4.84858">
        <ele>268</ele>
        <time>2017-06-02T09:17:49Z</time>
      </trkpt>
      <trkpt lat="45.94681" lon="4.8485">
        <ele>268</ele>
        <time>2017-06-02T09:17:50Z</time>
      </trkpt>
      <trkpt lat="45.94681" lon="4.84842">
        <ele>268</ele>
        <time>2017-06-02T09:17:51Z</time>
      </trkpt>
      <trkpt lat="45.9468" lon="4.84834">
        <ele>268</ele>
        <time>2017-06-02T09:17:52Z</time>
      </trkpt>
      <trkpt lat="45.94679" lon="4.84826">
        <ele>268</ele>
        <time>2017-06-02T09:17:53Z</time>
      </trkpt>
      <trkpt lat="45.94679" lon="4.84818">
        <ele>268</ele>
        <time>2017-06-02T09:17:54Z</time>
      </trkpt>
      <trkpt lat="45.94678" lon="4.8481">
        <ele>268</ele>
        <time>2017-06-02T09:17:55Z</time>
      </trkpt>
      <trkpt lat="45.94678" lon="4.84801">
        <ele>268</ele>
        <time>2017-06-02T09:17:56Z</time>
      </trkpt>
      <trkpt lat="45.94677" lon="4.84792">
        <ele>268</ele>
        <time>2017-06-02T09:17:57Z</time>
      </trkpt>
      <trkpt lat="45.94676" lon="4.84782">
        <ele>269</ele>
        <time>2017-06-02T09:17:58Z</time>
      </trkpt>
      <trkpt lat="45.94676" lon="4.84773">
        <ele>269</ele>
        <time>2017-06-02T09:17:59Z</time>
      </trkpt>
      <trkpt lat="45.94676" lon="4.84762">
        <ele>269</ele>
        <time>2017-06-02T09:18:00Z</time>
      </trkpt>
      <trkpt lat="45.94675" lon="4.84753">
        <ele>269</ele>
        <time>2017-06-02T09:18:01Z</time>
      </trkpt>
      <trkpt lat="45.94674" lon="4.84743">
        <ele>269</ele>
        <time>2017-06-02T09:18:02Z</time>
      </trkpt>
      <trkpt lat="45.94674" lon="4.84734">
        <ele>269</ele>
        <time>2017-06-02T09:18:03Z</time>
      </trkpt>
      <trkpt lat="45.94673" lon="4.84725">
        <ele>269</ele>
        <time>2017-06-02T09:18:04Z</time>
      </trkpt>
      <trkpt lat="45.94673" lon="4.84716">
        <ele>269</ele>
        <time>2017-06-02T09:18:05Z</time>
      </trkpt>
      <trkpt lat="45.94673" lon="4.84707">
        <ele>269</ele>
        <time>2017-06-02T09:18:06Z</time>
      </trkpt>
      <trkpt lat="45.94672" lon="4.84698">
        <ele>269</ele>
        <time>2017-06-02T09:18:07Z</time>
      </trkpt>
      <trkpt lat="45.94672" lon="4.84689">
        <ele>269</ele>
        <time>2017-06-02T09:18:08Z</time>
      </trkpt>
      <trkpt lat="45.94671" lon="4.84681">
        <ele>269</ele>
        <time>2017-06-02T09:18:09Z</time>
      </trkpt>
      <trkpt lat="45.94671" lon="4.84673">
        <ele>269</ele>
        <time>2017-06-02T09:18:10Z</time>
      </trkpt>
      <trkpt lat="45.9467" lon="4.84664">
        <ele>269</ele>
        <time>2017-06-02T09:18:11Z</time>
      </trkpt>
      <trkpt lat="45.9467" lon="4.84656">
        <ele>268</ele>
        <time>2017-06-02T09:18:12Z</time>
      </trkpt>
      <trkpt lat="45.9467" lon="4.84648">
        <ele>268</ele>
        <time>2017-06-02T09:18:13Z</time>
      </trkpt>
      <trkpt lat="45.9467" lon="4.84639">
        <ele>268</ele>
        <time>2017-06-02T09:18:14Z</time>
      </trkpt>
      <trkpt lat="45.94669" lon="4.84631">
        <ele>268</ele>
        <time>2017-06-02T09:18:15Z</time>
      </trkpt>
      <trkpt lat="45.94669" lon="4.84624">
        <ele>268</ele>
        <time>2017-06-02T09:18:16Z</time>
      </trkpt>
      <trkpt lat="45.94669" lon="4.84616">
        <ele>268</ele>
        <time>2017-06-02T09:18:17Z</time>
      </trkpt>
      <trkpt lat="45.94669" lon="4.84608">
        <ele>268</ele>
        <time>2017-06-02T09:18:18Z</time>
      </trkpt>
      <trkpt lat="45.94669" lon="4.846">
        <ele>268</ele>
        <time>2017-06-02T09:18:19Z</time>
      </trkpt>
      <trkpt lat="45.94669" lon="4.84591">
        <ele>268</ele>
        <time>2017-06-02T09:18:20Z</time>
      </trkpt>
      <trkpt lat="45.94668" lon="4.84582">
        <ele>268</ele>
        <time>2017-06-02T09:18:21Z</time>
      </trkpt>
      <trkpt lat="45.94668" lon="4.84573">
        <ele>268</ele>
        <time>2017-06-02T09:18:22Z</time>
      </trkpt>
      <trkpt lat="45.94668" lon="4.84563">
        <ele>268</ele>
        <time>2017-06-02T09:18:23Z</time>
      </trkpt>
      <trkpt lat="45.94667" lon="4.84553">
        <ele>268</ele>
        <time>2017-06-02T09:18:24Z</time>
      </trkpt>
      <trkpt lat="45.94666" lon="4.84543">
        <ele>268</ele>
        <time>2017-06-02T09:18:25Z</time>
      </trkpt>
      <trkpt lat="45.94665" lon="4.84533">
        <ele>268</ele>
        <time>2017-06-02T09:18:26Z</time>
      </trkpt>
      <trkpt lat="45.94664" lon="4.84523">
        <ele>268</ele>
        <time>2017-06-02T09:18:27Z</time>
      </trkpt>
      <trkpt lat="45.94663" lon="4.84514">
        <ele>268</ele>
        <time>2017-06-02T09:18:28Z</time>
      </trkpt>
      <trkpt lat="45.94662" lon="4.84505">
        <ele>268</ele>
        <time>2017-06-02T09:18:29Z</time>
      </trkpt>
      <trkpt lat="45.9466" lon="4.84496">
        <ele>268</ele>
        <time>2017-06-02T09:18:30Z</time>
      </trkpt>
      <trkpt lat="45.94659" lon="4.84488">
        <ele>268</ele>
        <time>2017-06-02T09:18:31Z</time>
      </trkpt>
      <trkpt lat="45.94659" lon="4.8448">
        <ele>268</ele>
        <time>2017-06-02T09:18:32Z</time>
      </trkpt>
      <trkpt lat="45.94658" lon="4.84472">
        <ele>268</ele>
        <time>2017-06-02T09:18:33Z</time>
      </trkpt>
      <trkpt lat="45.94657" lon="4.84464">
        <ele>268</ele>
        <time>2017-06-02T09:18:34Z</time>
      </trkpt>
      <trkpt lat="45.94657" lon="4.84457">
        <ele>268</ele>
        <time>2017-06-02T09:18:35Z</time>
      </trkpt>
      <trkpt lat="45.94656" lon="4.8445">
        <ele>268</ele>
        <time>2017-06-02T09:18:36Z</time>
      </trkpt>
      <trkpt lat="45.94655" lon="4.84443">
        <ele>268</ele>
        <time>2017-06-02T09:18:37Z</time>
      </trkpt>
      <trkpt lat="45.94655" lon="4.84436">
        <ele>268</ele>
        <time>2017-06-02T09:18:38Z</time>
      </trkpt>
      <trkpt lat="45.94654" lon="4.8443">
        <ele>268</ele>
        <time>2017-06-02T09:18:39Z</time>
      </trkpt>
      <trkpt lat="45.94653" lon="4.84423">
        <ele>268</ele>
        <time>2017-06-02T09:18:40Z</time>
      </trkpt>
      <trkpt lat="45.94652" lon="4.84416">
        <ele>268</ele>
        <time>2017-06-02T09:18:41Z</time>
      </trkpt>
      <trkpt lat="45.94651" lon="4.84409">
        <ele>268</ele>
        <time>2017-06-02T09:18:42Z</time>
      </trkpt>
      <trkpt lat="45.9465" lon="4.84403">
        <ele>268</ele>
        <time>2017-06-02T09:18:43Z</time>
      </trkpt>
      <trkpt lat="45.9465" lon="4.84396">
        <ele>268</ele>
        <time>2017-06-02T09:18:44Z</time>
      </trkpt>
      <trkpt lat="45.94649" lon="4.8439">
        <ele>268</ele>
        <time>2017-06-02T09:18:45Z</time>
      </trkpt>
      <trkpt lat="45.94648" lon="4.84383">
        <ele>268</ele>
        <time>2017-06-02T09:18:46Z</time>
      </trkpt>
      <trkpt lat="45.94647" lon="4.84376">
        <ele>268</ele>
        <time>2017-06-02T09:18:47Z</time>
      </trkpt>
      <trkpt lat="45.94647" lon="4.84368">
        <ele>268</ele>
        <time>2017-06-02T09:18:48Z</time>
      </trkpt>
      <trkpt lat="45.94646" lon="4.84359">
        <ele>268</ele>
        <time>2017-06-02T09:18:49Z</time>
      </trkpt>
      <trkpt lat="45.94645" lon="4.8435">
        <ele>268</ele>
        <time>2017-06-02T09:18:50Z</time>
      </trkpt>
      <trkpt lat="45.94644" lon="4.84341">
        <ele>268</ele>
        <time>2017-06-02T09:18:51Z</time>
      </trkpt>
      <trkpt lat="45.94642" lon="4.84332">
        <ele>268</ele>
        <time>2017-06-02T09:18:52Z</time>
      </trkpt>
      <trkpt lat="45.94641" lon="4.84322">
        <ele>269</ele>
        <time>2017-06-02T09:18:53Z</time>
      </trkpt>
      <trkpt lat="45.94639" lon="4.84311">
        <ele>269</ele>
        <time>2017-06-02T09:18:54Z</time>
      </trkpt>
      <trkpt lat="45.94638" lon="4.84301">
        <ele>269</ele>
        <time>2017-06-02T09:18:55Z</time>
      </trkpt>
      <trkpt lat="45.94636" lon="4.8429">
        <ele>269</ele>
        <time>2017-06-02T09:18:56Z</time>
      </trkpt>
      <trkpt lat="45.94635" lon="4.8428">
        <ele>269</ele>
        <time>2017-06-02T09:18:57Z</time>
      </trkpt>
      <trkpt lat="45.94634" lon="4.8427">
        <ele>269</ele>
        <time>2017-06-02T09:18:58Z</time>
      </trkpt>
      <trkpt lat="45.94633" lon="4.84261">
        <ele>269</ele>
        <time>2017-06-02T09:18:59Z</time>
      </trkpt>
      <trkpt lat="45.94632" lon="4.84251">
        <ele>269</ele>
        <time>2017-06-02T09:19:00Z</time>
      </trkpt>
      <trkpt lat="45.94631" lon="4.84242">
        <ele>269</ele>
        <time>2017-06-02T09:19:01Z</time>
      </trkpt>
      <trkpt lat="45.9463" lon="4.84234">
        <ele>269</ele>
        <time>2017-06-02T09:19:02Z</time>
      </trkpt>
      <trkpt lat="45.94628" lon="4.84225">
        <ele>269</ele>
        <time>2017-06-02T09:19:03Z</time>
      </trkpt>
      <trkpt lat="45.94627" lon="4.84216">
        <ele>269</ele>
        <time>2017-06-02T09:19:04Z</time>
      </trkpt>
      <trkpt lat="45.94625" lon="4.84208">
        <ele>269</ele>
        <time>2017-06-02T09:19:05Z</time>
      </trkpt>
      <trkpt lat="45.94624" lon="4.842">
        <ele>269</ele>
        <time>2017-06-02T09:19:06Z</time>
      </trkpt>
      <trkpt lat="45.94623" lon="4.84192">
        <ele>269</ele>
        <time>2017-06-02T09:19:07Z</time>
      </trkpt>
      <trkpt lat="45.94622" lon="4.84184">
        <ele>269</ele>
        <time>2017-06-02T09:19:08Z</time>
      </trkpt>
      <trkpt lat="45.94621" lon="4.84176">
        <ele>269</ele>
        <time>2017-06-02T09:19:09Z</time>
      </trkpt>
      <trkpt lat="45.9462" lon="4.84169">
        <ele>269</ele>
        <time>2017-06-02T09:19:10Z</time>
      </trkpt>
      <trkpt lat="45.94619" lon="4.84161">
        <ele>269</ele>
        <time>2017-06-02T09:19:11Z</time>
      </trkpt>
      <trkpt lat="45.94618" lon="4.84154">
        <ele>269</ele>
        <time>2017-06-02T09:19:12Z</time>
      </trkpt>
      <trkpt lat="45.94617" lon="4.84146">
        <ele>269</ele>
        <time>2017-06-02T09:19:13Z</time>
      </trkpt>
      <trkpt lat="45.94615" lon="4.84138">
        <ele>269</ele>
        <time>2017-06-02T09:19:14Z</time>
      </trkpt>
      <trkpt lat="45.94614" lon="4.8413">
        <ele>269</ele>
        <time>2017-06-02T09:19:15Z</time>
      </trkpt>
      <trkpt lat="45.94613" lon="4.84122">
        <ele>269</ele>
        <time>2017-06-02T09:19:16Z</time>
      </trkpt>
      <trkpt lat="45.94611" lon="4.84113">
        <ele>269</ele>
        <time>2017-06-02T09:19:17Z</time>
      </trkpt>
      <trkpt lat="45.94609" lon="4.84103">
        <ele>269</ele>
        <time>2017-06-02T09:19:18Z</time>
      </trkpt>
      <trkpt lat="45.94607" lon="4.84094">
        <ele>269</ele>
        <time>2017-06-02T09:19:19Z</time>
      </trkpt>
      <trkpt lat="45.94605" lon="4.84084">
        <ele>269</ele>
        <time>2017-06-02T09:19:20Z</time>
      </trkpt>
      <trkpt lat="45.94604" lon="4.84073">
        <ele>269</ele>
        <time>2017-06-02T09:19:21Z</time>
      </trkpt>
      <trkpt lat="45.94602" lon="4.84063">
        <ele>269</ele>
        <time>2017-06-02T09:19:22Z</time>
      </trkpt>
      <trkpt lat="45.94601" lon="4.84053">
        <ele>269</ele>
        <time>2017-06-02T09:19:23Z</time>
      </trkpt>
      <trkpt lat="45.94599" lon="4.84044">
        <ele>269</ele>
        <time>2017-06-02T09:19:24Z</time>
      </trkpt>
      <trkpt lat="45.94597" lon="4.84035">
        <ele>269</ele>
        <time>2017-06-02T09:19:25Z</time>
      </trkpt>
      <trkpt lat="45.94596" lon="4.84026">
        <ele>269</ele>
        <time>2017-06-02T09:19:26Z</time>
      </trkpt>
      <trkpt lat="45.94595" lon="4.84017">
        <ele>269</ele>
        <time>2017-06-02T09:19:27Z</time>
      </trkpt>
      <trkpt lat="45.94594" lon="4.84008">
        <ele>269</ele>
        <time>2017-06-02T09:19:28Z</time>
      </trkpt>
      <trkpt lat="45.94592" lon="4.84">
        <ele>269</ele>
        <time>2017-06-02T09:19:29Z</time>
      </trkpt>
      <trkpt lat="45.94591" lon="4.83991">
        <ele>269</ele>
        <time>2017-06-02T09:19:30Z</time>
      </trkpt>
      <trkpt lat="45.9459" lon="4.83983">
        <ele>268</ele>
        <time>2017-06-02T09:19:31Z</time>
      </trkpt>
      <trkpt lat="45.94589" lon="4.83975">
        <ele>268</ele>
        <time>2017-06-02T09:19:32Z</time>
      </trkpt>
      <trkpt lat="45.94587" lon="4.83966">
        <ele>268</ele>
        <time>2017-06-02T09:19:33Z</time>
      </trkpt>
      <trkpt lat="45.94586" lon="4.83958">
        <ele>268</ele>
        <time>2017-06-02T09:19:34Z</time>
      </trkpt>
      <trkpt lat="45.94585" lon="4.83949">
        <ele>268</ele>
        <time>2017-06-02T09:19:35Z</time>
      </trkpt>
      <trkpt lat="45.94584" lon="4.83939">
        <ele>268</ele>
        <time>2017-06-02T09:19:36Z</time>
      </trkpt>
      <trkpt lat="45.94582" lon="4.83929">
        <ele>268</ele>
        <time>2017-06-02T09:19:37Z</time>
      </trkpt>
      <trkpt lat="45.9458" lon="4.8392">
        <ele>268</ele>
        <time>2017-06-02T09:19:38Z</time>
      </trkpt>
      <trkpt lat="45.94579" lon="4.8391">
        <ele>268</ele>
        <time>2017-06-02T09:19:39Z</time>
      </trkpt>
      <trkpt lat="45.94577" lon="4.83899">
        <ele>268</ele>
        <time>2017-06-02T09:19:40Z</time>
      </trkpt>
      <trkpt lat="45.94575" lon="4.83889">
        <ele>267</ele>
        <time>2017-06-02T09:19:41Z</time>
      </trkpt>
      <trkpt lat="45.94573" lon="4.83878">
        <ele>267</ele>
        <time>2017-06-02T09:19:42Z</time>
      </trkpt>
      <trkpt lat="45.94571" lon="4.83867">
        <ele>267</ele>
        <time>2017-06-02T09:19:43Z</time>
      </trkpt>
      <trkpt lat="45.94569" lon="4.83855">
        <ele>266</ele>
        <time>2017-06-02T09:19:44Z</time>
      </trkpt>
      <trkpt lat="45.94567" lon="4.83844">
        <ele>266</ele>
        <time>2017-06-02T09:19:45Z</time>
      </trkpt>
      <trkpt lat="45.94565" lon="4.83832">
        <ele>265</ele>
        <time>2017-06-02T09:19:46Z</time>
      </trkpt>
      <trkpt lat="45.94563" lon="4.8382">
        <ele>264</ele>
        <time>2017-06-02T09:19:47Z</time>
      </trkpt>
      <trkpt lat="45.94561" lon="4.83808">
        <ele>264</ele>
        <time>2017-06-02T09:19:48Z</time>
      </trkpt>
      <trkpt lat="45.94559" lon="4.83796">
        <ele>264</ele>
        <time>2017-06-02T09:19:49Z</time>
      </trkpt>
      <trkpt lat="45.94558" lon="4.83784">
        <ele>264</ele>
        <time>2017-06-02T09:19:50Z</time>
      </trkpt>
      <trkpt lat="45.94556" lon="4.83773">
        <ele>264</ele>
        <time>2017-06-02T09:19:51Z</time>
      </trkpt>
      <trkpt lat="45.94554" lon="4.83761">
        <ele>263</ele>
        <time>2017-06-02T09:19:52Z</time>
      </trkpt>
      <trkpt lat="45.94553" lon="4.8375">
        <ele>262</ele>
        <time>2017-06-02T09:19:53Z</time>
      </trkpt>
      <trkpt lat="45.94551" lon="4.83739">
        <ele>262</ele>
        <time>2017-06-02T09:19:54Z</time>
      </trkpt>
      <trkpt lat="45.9455" lon="4.83728">
        <ele>262</ele>
        <time>2017-06-02T09:19:55Z</time>
      </trkpt>
      <trkpt lat="45.94548" lon="4.83717">
        <ele>262</ele>
        <time>2017-06-02T09:19:56Z</time>
      </trkpt>
      <trkpt lat="45.94546" lon="4.83706">
        <ele>262</ele>
        <time>2017-06-02T09:19:57Z</time>
      </trkpt>
      <trkpt lat="45.94545" lon="4.83696">
        <ele>262</ele>
        <time>2017-06-02T09:19:58Z</time>
      </trkpt>
      <trkpt lat="45.94543" lon="4.83685">
        <ele>262</ele>
        <time>2017-06-02T09:19:59Z</time>
      </trkpt>
      <trkpt lat="45.94542" lon="4.83675">
        <ele>262</ele>
        <time>2017-06-02T09:20:00Z</time>
      </trkpt>
      <trkpt lat="45.9454" lon="4.83665">
        <ele>261</ele>
        <time>2017-06-02T09:20:01Z</time>
      </trkpt>
      <trkpt lat="45.94539" lon="4.83655">
        <ele>261</ele>
        <time>2017-06-02T09:20:02Z</time>
      </trkpt>
      <trkpt lat="45.94537" lon="4.83645">
        <ele>261</ele>
        <time>2017-06-02T09:20:03Z</time>
      </trkpt>
      <trkpt lat="45.94536" lon="4.83636">
        <ele>261</ele>
        <time>2017-06-02T09:20:04Z</time>
      </trkpt>
      <trkpt lat="45.94535" lon="4.83628">
        <ele>261</ele>
        <time>2017-06-02T09:20:05Z</time>
      </trkpt>
      <trkpt lat="45.94534" lon="4.8362">
        <ele>261</ele>
        <time>2017-06-02T09:20:06Z</time>
      </trkpt>
      <trkpt lat="45.94533" lon="4.83612">
        <ele>261</ele>
        <time>2017-06-02T09:20:07Z</time>
      </trkpt>
      <trkpt lat="45.94531" lon="4.83604">
        <ele>261</ele>
        <time>2017-06-02T09:20:08Z</time>
      </trkpt>
      <trkpt lat="45.94529" lon="4.83597">
        <ele>261</ele>
        <time>2017-06-02T09:20:09Z</time>
      </trkpt>
      <trkpt lat="45.94527" lon="4.83589">
        <ele>261</ele>
        <time>2017-06-02T09:20:10Z</time>
      </trkpt>
      <trkpt lat="45.94525" lon="4.83582">
        <ele>261</ele>
        <time>2017-06-02T09:20:11Z</time>
      </trkpt>
      <trkpt lat="45.94522" lon="4.83574">
        <ele>261</ele>
        <time>2017-06-02T09:20:12Z</time>
      </trkpt>
      <trkpt lat="45.94519" lon="4.83566">
        <ele>261</ele>
        <time>2017-06-02T09:20:13Z</time>
      </trkpt>
      <trkpt lat="45.94516" lon="4.83559">
        <ele>261</ele>
        <time>2017-06-02T09:20:14Z</time>
      </trkpt>
      <trkpt lat="45.94513" lon="4.83553">
        <ele>261</ele>
        <time>2017-06-02T09:20:15Z</time>
      </trkpt>
      <trkpt lat="45.94509" lon="4.83547">
        <ele>261</ele>
        <time>2017-06-02T09:20:16Z</time>
      </trkpt>
      <trkpt lat="45.94506" lon="4.83541">
        <ele>262</ele>
        <time>2017-06-02T09:20:17Z</time>
      </trkpt>
      <trkpt lat="45.94503" lon="4.83535">
        <ele>262</ele>
        <time>2017-06-02T09:20:18Z</time>
      </trkpt>
      <trkpt lat="45.945" lon="4.83528">
        <ele>262</ele>
        <time>2017-06-02T09:20:19Z</time>
      </trkpt>
      <trkpt lat="45.94496" lon="4.83522">
        <ele>262</ele>
        <time>2017-06-02T09:20:20Z</time>
      </trkpt>
      <trkpt lat="45.94492" lon="4.83516">
        <ele>262</ele>
        <time>2017-06-02T09:20:21Z</time>
      </trkpt>
      <trkpt lat="45.94488" lon="4.83509">
        <ele>262</ele>
        <time>2017-06-02T09:20:22Z</time>
      </trkpt>
      <trkpt lat="45.94483" lon="4.83502">
        <ele>262</ele>
        <time>2017-06-02T09:20:23Z</time>
      </trkpt>
      <trkpt lat="45.94479" lon="4.83495">
        <ele>263</ele>
        <time>2017-06-02T09:20:24Z</time>
      </trkpt>
      <trkpt lat="45.94474" lon="4.83488">
        <ele>263</ele>
        <time>2017-06-02T09:20:25Z</time>
      </trkpt>
      <trkpt lat="45.9447" lon="4.8348">
        <ele>263</ele>
        <time>2017-06-02T09:20:26Z</time>
      </trkpt>
      <trkpt lat="45.94465" lon="4.83472">
        <ele>263</ele>
        <time>2017-06-02T09:20:27Z</time>
      </trkpt>
      <trkpt lat="45.94461" lon="4.83464">
        <ele>263</ele>
        <time>2017-06-02T09:20:28Z</time>
      </trkpt>
      <trkpt lat="45.94457" lon="4.83457">
        <ele>263</ele>
        <time>2017-06-02T09:20:29Z</time>
      </trkpt>
      <trkpt lat="45.94453" lon="4.8345">
        <ele>263</ele>
        <time>2017-06-02T09:20:30Z</time>
      </trkpt>
      <trkpt lat="45.9445" lon="4.83443">
        <ele>263</ele>
        <time>2017-06-02T09:20:31Z</time>
      </trkpt>
      <trkpt lat="45.94446" lon="4.83437">
        <ele>263</ele>
        <time>2017-06-02T09:20:32Z</time>
      </trkpt>
      <trkpt lat="45.94443" lon="4.8343">
        <ele>263</ele>
        <time>2017-06-02T09:20:33Z</time>
      </trkpt>
      <trkpt lat="45.9444" lon="4.83424">
        <ele>264</ele>
        <time>2017-06-02T09:20:34Z</time>
      </trkpt>
      <trkpt lat="45.94437" lon="4.83419">
        <ele>264</ele>
        <time>2017-06-02T09:20:35Z</time>
      </trkpt>
      <trkpt lat="45.94434" lon="4.83413">
        <ele>264</ele>
        <time>2017-06-02T09:20:36Z</time>
      </trkpt>
      <trkpt lat="45.94432" lon="4.83408">
        <ele>264</ele>
        <time>2017-06-02T09:20:37Z</time>
      </trkpt>
      <trkpt lat="45.94429" lon="4.83402">
        <ele>264</ele>
        <time>2017-06-02T09:20:38Z</time>
      </trkpt>
      <trkpt lat="45.94426" lon="4.83396">
        <ele>264</ele>
        <time>2017-06-02T09:20:39Z</time>
      </trkpt>
      <trkpt lat="45.94423" lon="4.83389">
        <ele>264</ele>
        <time>2017-06-02T09:20:40Z</time>
      </trkpt>
      <trkpt lat="45.9442" lon="4.83382">
        <ele>264</ele>
        <time>2017-06-02T09:20:41Z</time>
      </trkpt>
      <trkpt lat="45.94416" lon="4.83375">
        <ele>264</ele>
        <time>2017-06-02T09:20:42Z</time>
      </trkpt>
      <trkpt lat="45.94413" lon="4.83367">
        <ele>264</ele>
        <time>2017-06-02T09:20:43Z</time>
      </trkpt>
      <trkpt lat="45.94409" lon="4.8336">
        <ele>264</ele>
        <time>2017-06-02T09:20:44Z</time>
      </trkpt>
      <trkpt lat="45.94405" lon="4.83352">
        <ele>263</ele>
        <time>2017-06-02T09:20:45Z</time>
      </trkpt>
      <trkpt lat="45.94402" lon="4.83343">
        <ele>263</ele>
        <time>2017-06-02T09:20:46Z</time>
      </trkpt>
      <trkpt lat="45.94398" lon="4.83335">
        <ele>263</ele>
        <time>2017-06-02T09:20:47Z</time>
      </trkpt>
      <trkpt lat="45.94396" lon="4.83327">
        <ele>264</ele>
        <time>2017-06-02T09:20:48Z</time>
      </trkpt>
      <trkpt lat="45.94393" lon="4.83319">
        <ele>264</ele>
        <time>2017-06-02T09:20:49Z</time>
      </trkpt>
      <trkpt lat="45.94391" lon="4.83312">
        <ele>264</ele>
        <time>2017-06-02T09:20:50Z</time>
      </trkpt>
      <trkpt lat="45.94389" lon="4.83305">
        <ele>264</ele>
        <time>2017-06-02T09:20:51Z</time>
      </trkpt>
      <trkpt lat="45.94386" lon="4.83298">
        <ele>264</ele>
        <time>2017-06-02T09:20:52Z</time>
      </trkpt>
      <trkpt lat="45.94384" lon="4.83291">
        <ele>264</ele>
        <time>2017-06-02T09:20:53Z</time>
      </trkpt>
      <trkpt lat="45.94382" lon="4.83285">
        <ele>264</ele>
        <time>2017-06-02T09:20:54Z</time>
      </trkpt>
      <trkpt lat="45.94379" lon="4.83273">
        <ele>264</ele>
        <time>2017-06-02T09:20:56Z</time>
      </trkpt>
      <trkpt lat="45.94377" lon="4.83268">
        <ele>264</ele>
        <time>2017-06-02T09:20:57Z</time>
      </trkpt>
      <trkpt lat="45.94374" lon="4.83258">
        <ele>265</ele>
        <time>2017-06-02T09:20:59Z</time>
      </trkpt>
      <trkpt lat="45.94372" lon="4.83253">
        <ele>265</ele>
        <time>2017-06-02T09:21:00Z</time>
      </trkpt>
      <trkpt lat="45.9437" lon="4.83247">
        <ele>265</ele>
        <time>2017-06-02T09:21:01Z</time>
      </trkpt>
      <trkpt lat="45.94368" lon="4.83241">
        <ele>265</ele>
        <time>2017-06-02T09:21:02Z</time>
      </trkpt>
      <trkpt lat="45.94365" lon="4.83234">
        <ele>266</ele>
        <time>2017-06-02T09:21:03Z</time>
      </trkpt>
      <trkpt lat="45.94362" lon="4.83227">
        <ele>266</ele>
        <time>2017-06-02T09:21:04Z</time>
      </trkpt>
      <trkpt lat="45.9436" lon="4.8322">
        <ele>266</ele>
        <time>2017-06-02T09:21:05Z</time>
      </trkpt>
      <trkpt lat="45.94358" lon="4.83213">
        <ele>266</ele>
        <time>2017-06-02T09:21:06Z</time>
      </trkpt>
      <trkpt lat="45.94356" lon="4.83206">
        <ele>266</ele>
        <time>2017-06-02T09:21:07Z</time>
      </trkpt>
      <trkpt lat="45.94353" lon="4.83198">
        <ele>266</ele>
        <time>2017-06-02T09:21:08Z</time>
      </trkpt>
      <trkpt lat="45.9435" lon="4.8319">
        <ele>266</ele>
        <time>2017-06-02T09:21:09Z</time>
      </trkpt>
      <trkpt lat="45.94347" lon="4.83183">
        <ele>266</ele>
        <time>2017-06-02T09:21:10Z</time>
      </trkpt>
      <trkpt lat="45.94345" lon="4.83177">
        <ele>266</ele>
        <time>2017-06-02T09:21:11Z</time>
      </trkpt>
      <trkpt lat="45.94343" lon="4.8317">
        <ele>266</ele>
        <time>2017-06-02T09:21:12Z</time>
      </trkpt>
      <trkpt lat="45.94341" lon="4.83164">
        <ele>266</ele>
        <time>2017-06-02T09:21:13Z</time>
      </trkpt>
      <trkpt lat="45.94339" lon="4.83158">
        <ele>266</ele>
        <time>2017-06-02T09:21:14Z</time>
      </trkpt>
      <trkpt lat="45.94334" lon="4.83148">
        <ele>266</ele>
        <time>2017-06-02T09:21:16Z</time>
      </trkpt>
      <trkpt lat="45.94332" lon="4.83143">
        <ele>266</ele>
        <time>2017-06-02T09:21:17Z</time>
      </trkpt>
      <trkpt lat="45.94329" lon="4.83133">
        <ele>266</ele>
        <time>2017-06-02T09:21:19Z</time>
      </trkpt>
      <trkpt lat="45.94328" lon="4.83128">
        <ele>266</ele>
        <time>2017-06-02T09:21:20Z</time>
      </trkpt>
      <trkpt lat="45.94324" lon="4.83119">
        <ele>266</ele>
        <time>2017-06-02T09:21:22Z</time>
      </trkpt>
      <trkpt lat="45.94323" lon="4.83114">
        <ele>266</ele>
        <time>2017-06-02T09:21:23Z</time>
      </trkpt>
      <trkpt lat="45.9432" lon="4.83105">
        <ele>266</ele>
        <time>2017-06-02T09:21:25Z</time>
      </trkpt>
      <trkpt lat="45.94319" lon="4.831">
        <ele>266</ele>
        <time>2017-06-02T09:21:26Z</time>
      </trkpt>
      <trkpt lat="45.94316" lon="4.83091">
        <ele>266</ele>
        <time>2017-06-02T09:21:28Z</time>
      </trkpt>
      <trkpt lat="45.94314" lon="4.83086">
        <ele>266</ele>
        <time>2017-06-02T09:21:29Z</time>
      </trkpt>
      <trkpt lat="45.94311" lon="4.83074">
        <ele>266</ele>
        <time>2017-06-02T09:21:31Z</time>
      </trkpt>
      <trkpt lat="45.94309" lon="4.83067">
        <ele>266</ele>
        <time>2017-06-02T09:21:32Z</time>
      </trkpt>
      <trkpt lat="45.94308" lon="4.8306">
        <ele>266</ele>
        <time>2017-06-02T09:21:33Z</time>
      </trkpt>
      <trkpt lat="45.94306" lon="4.83052">
        <ele>266</ele>
        <time>2017-06-02T09:21:34Z</time>
      </trkpt>
      <trkpt lat="45.94304" lon="4.83044">
        <ele>266</ele>
        <time>2017-06-02T09:21:35Z</time>
      </trkpt>
      <trkpt lat="45.94302" lon="4.83037">
        <ele>266</ele>
        <time>2017-06-02T09:21:36Z</time>
      </trkpt>
      <trkpt lat="45.94301" lon="4.8303">
        <ele>266</ele>
        <time>2017-06-02T09:21:37Z</time>
      </trkpt>
      <trkpt lat="45.94301" lon="4.83022">
        <ele>266</ele>
        <time>2017-06-02T09:21:38Z</time>
      </trkpt>
      <trkpt lat="45.943" lon="4.83015">
        <ele>266</ele>
        <time>2017-06-02T09:21:39Z</time>
      </trkpt>
      <trkpt lat="45.94298" lon="4.83008">
        <ele>266</ele>
        <time>2017-06-02T09:21:40Z</time>
      </trkpt>
      <trkpt lat="45.94297" lon="4.83001">
        <ele>266</ele>
        <time>2017-06-02T09:21:41Z</time>
      </trkpt>
      <trkpt lat="45.94296" lon="4.82994">
        <ele>265</ele>
        <time>2017-06-02T09:21:42Z</time>
      </trkpt>
      <trkpt lat="45.94295" lon="4.82987">
        <ele>265</ele>
        <time>2017-06-02T09:21:43Z</time>
      </trkpt>
      <trkpt lat="45.94293" lon="4.82981">
        <ele>265</ele>
        <time>2017-06-02T09:21:44Z</time>
      </trkpt>
      <trkpt lat="45.94289" lon="4.8297">
        <ele>265</ele>
        <time>2017-06-02T09:21:46Z</time>
      </trkpt>
      <trkpt lat="45.94287" lon="4.82965">
        <ele>265</ele>
        <time>2017-06-02T09:21:47Z</time>
      </trkpt>
      <trkpt lat="45.94284" lon="4.82953">
        <ele>265</ele>
        <time>2017-06-02T09:21:49Z</time>
      </trkpt>
      <trkpt lat="45.94284" lon="4.82946">
        <ele>265</ele>
        <time>2017-06-02T09:21:50Z</time>
      </trkpt>
      <trkpt lat="45.94285" lon="4.82938">
        <ele>265</ele>
        <time>2017-06-02T09:21:51Z</time>
      </trkpt>
      <trkpt lat="45.94287" lon="4.8293">
        <ele>265</ele>
        <time>2017-06-02T09:21:52Z</time>
      </trkpt>
      <trkpt lat="45.94288" lon="4.82921">
        <ele>265</ele>
        <time>2017-06-02T09:21:53Z</time>
      </trkpt>
      <trkpt lat="45.94289" lon="4.82911">
        <ele>265</ele>
        <time>2017-06-02T09:21:54Z</time>
      </trkpt>
      <trkpt lat="45.9429" lon="4.82902">
        <ele>265</ele>
        <time>2017-06-02T09:21:55Z</time>
      </trkpt>
      <trkpt lat="45.94291" lon="4.82893">
        <ele>265</ele>
        <time>2017-06-02T09:21:56Z</time>
      </trkpt>
      <trkpt lat="45.94292" lon="4.82884">
        <ele>265</ele>
        <time>2017-06-02T09:21:57Z</time>
      </trkpt>
      <trkpt lat="45.94293" lon="4.82876">
        <ele>265</ele>
        <time>2017-06-02T09:21:58Z</time>
      </trkpt>
      <trkpt lat="45.94293" lon="4.82867">
        <ele>265</ele>
        <time>2017-06-02T09:21:59Z</time>
      </trkpt>
      <trkpt lat="45.94293" lon="4.82858">
        <ele>265</ele>
        <time>2017-06-02T09:22:00Z</time>
      </trkpt>
      <trkpt lat="45.94293" lon="4.82849">
        <ele>265</ele>
        <time>2017-06-02T09:22:01Z</time>
      </trkpt>
      <trkpt lat="45.94293" lon="4.82841">
        <ele>265</ele>
        <time>2017-06-02T09:22:02Z</time>
      </trkpt>
      <trkpt lat="45.94293" lon="4.82832">
        <ele>265</ele>
        <time>2017-06-02T09:22:03Z</time>
      </trkpt>
      <trkpt lat="45.94293" lon="4.82823">
        <ele>265</ele>
        <time>2017-06-02T09:22:04Z</time>
      </trkpt>
      <trkpt lat="45.94293" lon="4.82815">
        <ele>265</ele>
        <time>2017-06-02T09:22:05Z</time>
      </trkpt>
      <trkpt lat="45.94293" lon="4.82806">
        <ele>265</ele>
        <time>2017-06-02T09:22:06Z</time>
      </trkpt>
      <trkpt lat="45.94293" lon="4.82799">
        <ele>265</ele>
        <time>2017-06-02T09:22:07Z</time>
      </trkpt>
      <trkpt lat="45.94293" lon="4.82791">
        <ele>265</ele>
        <time>2017-06-02T09:22:08Z</time>
      </trkpt>
      <trkpt lat="45.94293" lon="4.82783">
        <ele>265</ele>
        <time>2017-06-02T09:22:09Z</time>
      </trkpt>
      <trkpt lat="45.94293" lon="4.82775">
        <ele>265</ele>
        <time>2017-06-02T09:22:10Z</time>
      </trkpt>
      <trkpt lat="45.94294" lon="4.82767">
        <ele>265</ele>
        <time>2017-06-02T09:22:11Z</time>
      </trkpt>
      <trkpt lat="45.94294" lon="4.82759">
        <ele>265</ele>
        <time>2017-06-02T09:22:12Z</time>
      </trkpt>
      <trkpt lat="45.94294" lon="4.82751">
        <ele>265</ele>
        <time>2017-06-02T09:22:13Z</time>
      </trkpt>
      <trkpt lat="45.94294" lon="4.82743">
        <ele>265</ele>
        <time>2017-06-02T09:22:14Z</time>
      </trkpt>
      <trkpt lat="45.94295" lon="4.82736">
        <ele>265</ele>
        <time>2017-06-02T09:22:15Z</time>
      </trkpt>
      <trkpt lat="45.94295" lon="4.82728">
        <ele>265</ele>
        <time>2017-06-02T09:22:16Z</time>
      </trkpt>
      <trkpt lat="45.94295" lon="4.8272">
        <ele>265</ele>
        <time>2017-06-02T09:22:17Z</time>
      </trkpt>
      <trkpt lat="45.94295" lon="4.82712">
        <ele>265</ele>
        <time>2017-06-02T09:22:18Z</time>
      </trkpt>
      <trkpt lat="45.94295" lon="4.82703">
        <ele>265</ele>
        <time>2017-06-02T09:22:19Z</time>
      </trkpt>
      <trkpt lat="45.94295" lon="4.82694">
        <ele>265</ele>
        <time>2017-06-02T09:22:20Z</time>
      </trkpt>
      <trkpt lat="45.94295" lon="4.82685">
        <ele>265</ele>
        <time>2017-06-02T09:22:21Z</time>
      </trkpt>
      <trkpt lat="45.94295" lon="4.82675">
        <ele>265</ele>
        <time>2017-06-02T09:22:22Z</time>
      </trkpt>
      <trkpt lat="45.94296" lon="4.82666">
        <ele>265</ele>
        <time>2017-06-02T09:22:23Z</time>
      </trkpt>
      <trkpt lat="45.94296" lon="4.82658">
        <ele>265</ele>
        <time>2017-06-02T09:22:24Z</time>
      </trkpt>
      <trkpt lat="45.94296" lon="4.82649">
        <ele>265</ele>
        <time>2017-06-02T09:22:25Z</time>
      </trkpt>
      <trkpt lat="45.94296" lon="4.8264">
        <ele>265</ele>
        <time>2017-06-02T09:22:26Z</time>
      </trkpt>
      <trkpt lat="45.94296" lon="4.82631">
        <ele>265</ele>
        <time>2017-06-02T09:22:27Z</time>
      </trkpt>
      <trkpt lat="45.94295" lon="4.82623">
        <ele>265</ele>
        <time>2017-06-02T09:22:28Z</time>
      </trkpt>
      <trkpt lat="45.94296" lon="4.82614">
        <ele>265</ele>
        <time>2017-06-02T09:22:29Z</time>
      </trkpt>
      <trkpt lat="45.94296" lon="4.82606">
        <ele>265</ele>
        <time>2017-06-02T09:22:30Z</time>
      </trkpt>
      <trkpt lat="45.94297" lon="4.82598">
        <ele>265</ele>
        <time>2017-06-02T09:22:31Z</time>
      </trkpt>
      <trkpt lat="45.94297" lon="4.82589">
        <ele>265</ele>
        <time>2017-06-02T09:22:32Z</time>
      </trkpt>
      <trkpt lat="45.94297" lon="4.82581">
        <ele>264</ele>
        <time>2017-06-02T09:22:33Z</time>
      </trkpt>
      <trkpt lat="45.94297" lon="4.82573">
        <ele>264</ele>
        <time>2017-06-02T09:22:34Z</time>
      </trkpt>
      <trkpt lat="45.94297" lon="4.82566">
        <ele>264</ele>
        <time>2017-06-02T09:22:35Z</time>
      </trkpt>
      <trkpt lat="45.94297" lon="4.82558">
        <ele>264</ele>
        <time>2017-06-02T09:22:36Z</time>
      </trkpt>
      <trkpt lat="45.94297" lon="4.8255">
        <ele>264</ele>
        <time>2017-06-02T09:22:37Z</time>
      </trkpt>
      <trkpt lat="45.94297" lon="4.82542">
        <ele>264</ele>
        <time>2017-06-02T09:22:38Z</time>
      </trkpt>
      <trkpt lat="45.94297" lon="4.82534">
        <ele>264</ele>
        <time>2017-06-02T09:22:39Z</time>
      </trkpt>
      <trkpt lat="45.94297" lon="4.82526">
        <ele>264</ele>
        <time>2017-06-02T09:22:40Z</time>
      </trkpt>
      <trkpt lat="45.94298" lon="4.82518">
        <ele>264</ele>
        <time>2017-06-02T09:22:41Z</time>
      </trkpt>
      <trkpt lat="45.94298" lon="4.8251">
        <ele>264</ele>
        <time>2017-06-02T09:22:42Z</time>
      </trkpt>
      <trkpt lat="45.94298" lon="4.82501">
        <ele>264</ele>
        <time>2017-06-02T09:22:43Z</time>
      </trkpt>
      <trkpt lat="45.94298" lon="4.82493">
        <ele>264</ele>
        <time>2017-06-02T09:22:44Z</time>
      </trkpt>
      <trkpt lat="45.94298" lon="4.82484">
        <ele>264</ele>
        <time>2017-06-02T09:22:45Z</time>
      </trkpt>
      <trkpt lat="45.94297" lon="4.82476">
        <ele>264</ele>
        <time>2017-06-02T09:22:46Z</time>
      </trkpt>
      <trkpt lat="45.94297" lon="4.82467">
        <ele>264</ele>
        <time>2017-06-02T09:22:47Z</time>
      </trkpt>
      <trkpt lat="45.94296" lon="4.82458">
        <ele>264</ele>
        <time>2017-06-02T09:22:48Z</time>
      </trkpt>
      <trkpt lat="45.94296" lon="4.82449">
        <ele>264</ele>
        <time>2017-06-02T09:22:49Z</time>
      </trkpt>
      <trkpt lat="45.94295" lon="4.82441">
        <ele>264</ele>
        <time>2017-06-02T09:22:50Z</time>
      </trkpt>
      <trkpt lat="45.94295" lon="4.82432">
        <ele>264</ele>
        <time>2017-06-02T09:22:51Z</time>
      </trkpt>
      <trkpt lat="45.94294" lon="4.82423">
        <ele>264</ele>
        <time>2017-06-02T09:22:52Z</time>
      </trkpt>
      <trkpt lat="45.94294" lon="4.82414">
        <ele>264</ele>
        <time>2017-06-02T09:22:53Z</time>
      </trkpt>
      <trkpt lat="45.94293" lon="4.82405">
        <ele>264</ele>
        <time>2017-06-02T09:22:54Z</time>
      </trkpt>
      <trkpt lat="45.94293" lon="4.82395">
        <ele>264</ele>
        <time>2017-06-02T09:22:55Z</time>
      </trkpt>
      <trkpt lat="45.94293" lon="4.82385">
        <ele>264</ele>
        <time>2017-06-02T09:22:56Z</time>
      </trkpt>
      <trkpt lat="45.94292" lon="4.82375">
        <ele>264</ele>
        <time>2017-06-02T09:22:57Z</time>
      </trkpt>
      <trkpt lat="45.94291" lon="4.82366">
        <ele>264</ele>
        <time>2017-06-02T09:22:58Z</time>
      </trkpt>
      <trkpt lat="45.94291" lon="4.82356">
        <ele>264</ele>
        <time>2017-06-02T09:22:59Z</time>
      </trkpt>
      <trkpt lat="45.9429" lon="4.82347">
        <ele>264</ele>
        <time>2017-06-02T09:23:00Z</time>
      </trkpt>
      <trkpt lat="45.9429" lon="4.82337">
        <ele>264</ele>
        <time>2017-06-02T09:23:01Z</time>
      </trkpt>
      <trkpt lat="45.94289" lon="4.82328">
        <ele>265</ele>
        <time>2017-06-02T09:23:02Z</time>
      </trkpt>
      <trkpt lat="45.94289" lon="4.82319">
        <ele>265</ele>
        <time>2017-06-02T09:23:03Z</time>
      </trkpt>
      <trkpt lat="45.94288" lon="4.82309">
        <ele>265</ele>
        <time>2017-06-02T09:23:04Z</time>
      </trkpt>
      <trkpt lat="45.94288" lon="4.823">
        <ele>265</ele>
        <time>2017-06-02T09:23:05Z</time>
      </trkpt>
      <trkpt lat="45.94288" lon="4.82291">
        <ele>265</ele>
        <time>2017-06-02T09:23:06Z</time>
      </trkpt>
      <trkpt lat="45.94287" lon="4.82282">
        <ele>265</ele>
        <time>2017-06-02T09:23:07Z</time>
      </trkpt>
      <trkpt lat="45.94287" lon="4.82273">
        <ele>265</ele>
        <time>2017-06-02T09:23:08Z</time>
      </trkpt>
      <trkpt lat="45.94286" lon="4.82264">
        <ele>265</ele>
        <time>2017-06-02T09:23:09Z</time>
      </trkpt>
      <trkpt lat="45.94286" lon="4.82256">
        <ele>265</ele>
        <time>2017-06-02T09:23:10Z</time>
      </trkpt>
      <trkpt lat="45.94285" lon="4.82247">
        <ele>264</ele>
        <time>2017-06-02T09:23:11Z</time>
      </trkpt>
      <trkpt lat="45.94285" lon="4.82239">
        <ele>264</ele>
        <time>2017-06-02T09:23:12Z</time>
      </trkpt>
      <trkpt lat="45.94285" lon="4.8223">
        <ele>264</ele>
        <time>2017-06-02T09:23:13Z</time>
      </trkpt>
      <trkpt lat="45.94284" lon="4.82221">
        <ele>264</ele>
        <time>2017-06-02T09:23:14Z</time>
      </trkpt>
      <trkpt lat="45.94284" lon="4.82213">
        <ele>264</ele>
        <time>2017-06-02T09:23:15Z</time>
      </trkpt>
      <trkpt lat="45.94283" lon="4.82204">
        <ele>264</ele>
        <time>2017-06-02T09:23:16Z</time>
      </trkpt>
      <trkpt lat="45.94281" lon="4.82195">
        <ele>264</ele>
        <time>2017-06-02T09:23:17Z</time>
      </trkpt>
      <trkpt lat="45.9428" lon="4.82186">
        <ele>264</ele>
        <time>2017-06-02T09:23:18Z</time>
      </trkpt>
      <trkpt lat="45.94278" lon="4.82178">
        <ele>264</ele>
        <time>2017-06-02T09:23:19Z</time>
      </trkpt>
      <trkpt lat="45.94276" lon="4.82171">
        <ele>264</ele>
        <time>2017-06-02T09:23:20Z</time>
      </trkpt>
      <trkpt lat="45.94274" lon="4.82163">
        <ele>263</ele>
        <time>2017-06-02T09:23:21Z</time>
      </trkpt>
      <trkpt lat="45.94273" lon="4.82154">
        <ele>263</ele>
        <time>2017-06-02T09:23:22Z</time>
      </trkpt>
      <trkpt lat="45.94272" lon="4.82146">
        <ele>263</ele>
        <time>2017-06-02T09:23:23Z</time>
      </trkpt>
      <trkpt lat="45.9427" lon="4.82137">
        <ele>263</ele>
        <time>2017-06-02T09:23:24Z</time>
      </trkpt>
      <trkpt lat="45.94269" lon="4.82129">
        <ele>263</ele>
        <time>2017-06-02T09:23:25Z</time>
      </trkpt>
      <trkpt lat="45.94268" lon="4.82121">
        <ele>263</ele>
        <time>2017-06-02T09:23:26Z</time>
      </trkpt>
      <trkpt lat="45.94267" lon="4.82114">
        <ele>263</ele>
        <time>2017-06-02T09:23:27Z</time>
      </trkpt>
      <trkpt lat="45.94265" lon="4.82106">
        <ele>263</ele>
        <time>2017-06-02T09:23:28Z</time>
      </trkpt>
      <trkpt lat="45.94264" lon="4.82099">
        <ele>262</ele>
        <time>2017-06-02T09:23:29Z</time>
      </trkpt>
      <trkpt lat="45.94262" lon="4.82091">
        <ele>262</ele>
        <time>2017-06-02T09:23:30Z</time>
      </trkpt>
      <trkpt lat="45.94261" lon="4.82084">
        <ele>262</ele>
        <time>2017-06-02T09:23:31Z</time>
      </trkpt>
      <trkpt lat="45.94259" lon="4.82076">
        <ele>262</ele>
        <time>2017-06-02T09:23:32Z</time>
      </trkpt>
      <trkpt lat="45.94258" lon="4.82069">
        <ele>262</ele>
        <time>2017-06-02T09:23:33Z</time>
      </trkpt>
      <trkpt lat="45.94257" lon="4.82062">
        <ele>262</ele>
        <time>2017-06-02T09:23:34Z</time>
      </trkpt>
      <trkpt lat="45.94256" lon="4.82055">
        <ele>262</ele>
        <time>2017-06-02T09:23:35Z</time>
      </trkpt>
      <trkpt lat="45.94254" lon="4.82048">
        <ele>262</ele>
        <time>2017-06-02T09:23:36Z</time>
      </trkpt>
      <trkpt lat="45.94253" lon="4.8204">
        <ele>262</ele>
        <time>2017-06-02T09:23:37Z</time>
      </trkpt>
      <trkpt lat="45.94251" lon="4.82032">
        <ele>262</ele>
        <time>2017-06-02T09:23:38Z</time>
      </trkpt>
      <trkpt lat="45.9425" lon="4.82023">
        <ele>263</ele>
        <time>2017-06-02T09:23:39Z</time>
      </trkpt>
      <trkpt lat="45.94248" lon="4.82013">
        <ele>263</ele>
        <time>2017-06-02T09:23:40Z</time>
      </trkpt>
      <trkpt lat="45.94246" lon="4.82003">
        <ele>262</ele>
        <time>2017-06-02T09:23:41Z</time>
      </trkpt>
      <trkpt lat="45.94244" lon="4.81993">
        <ele>263</ele>
        <time>2017-06-02T09:23:42Z</time>
      </trkpt>
      <trkpt lat="45.94241" lon="4.81983">
        <ele>263</ele>
        <time>2017-06-02T09:23:43Z</time>
      </trkpt>
      <trkpt lat="45.94239" lon="4.81973">
        <ele>263</ele>
        <time>2017-06-02T09:23:44Z</time>
      </trkpt>
      <trkpt lat="45.94237" lon="4.81964">
        <ele>264</ele>
        <time>2017-06-02T09:23:45Z</time>
      </trkpt>
      <trkpt lat="45.94236" lon="4.81955">
        <ele>264</ele>
        <time>2017-06-02T09:23:46Z</time>
      </trkpt>
      <trkpt lat="45.94234" lon="4.81946">
        <ele>264</ele>
        <time>2017-06-02T09:23:47Z</time>
      </trkpt>
      <trkpt lat="45.94232" lon="4.81937">
        <ele>264</ele>
        <time>2017-06-02T09:23:48Z</time>
      </trkpt>
      <trkpt lat="45.9423" lon="4.81929">
        <ele>263</ele>
        <time>2017-06-02T09:23:49Z</time>
      </trkpt>
      <trkpt lat="45.94228" lon="4.8192">
        <ele>263</ele>
        <time>2017-06-02T09:23:50Z</time>
      </trkpt>
      <trkpt lat="45.94227" lon="4.81912">
        <ele>264</ele>
        <time>2017-06-02T09:23:51Z</time>
      </trkpt>
      <trkpt lat="45.94225" lon="4.81904">
        <ele>264</ele>
        <time>2017-06-02T09:23:52Z</time>
      </trkpt>
      <trkpt lat="45.94224" lon="4.81896">
        <ele>264</ele>
        <time>2017-06-02T09:23:53Z</time>
      </trkpt>
      <trkpt lat="45.94222" lon="4.81889">
        <ele>265</ele>
        <time>2017-06-02T09:23:54Z</time>
      </trkpt>
      <trkpt lat="45.94221" lon="4.81881">
        <ele>265</ele>
        <time>2017-06-02T09:23:55Z</time>
      </trkpt>
      <trkpt lat="45.94219" lon="4.81874">
        <ele>265</ele>
        <time>2017-06-02T09:23:56Z</time>
      </trkpt>
      <trkpt lat="45.94218" lon="4.81867">
        <ele>265</ele>
        <time>2017-06-02T09:23:57Z</time>
      </trkpt>
      <trkpt lat="45.94216" lon="4.8186">
        <ele>265</ele>
        <time>2017-06-02T09:23:58Z</time>
      </trkpt>
      <trkpt lat="45.94215" lon="4.81853">
        <ele>265</ele>
        <time>2017-06-02T09:23:59Z</time>
      </trkpt>
      <trkpt lat="45.94213" lon="4.81846">
        <ele>265</ele>
        <time>2017-06-02T09:24:00Z</time>
      </trkpt>
      <trkpt lat="45.94211" lon="4.81839">
        <ele>265</ele>
        <time>2017-06-02T09:24:01Z</time>
      </trkpt>
      <trkpt lat="45.94209" lon="4.81832">
        <ele>266</ele>
        <time>2017-06-02T09:24:02Z</time>
      </trkpt>
      <trkpt lat="45.94208" lon="4.81825">
        <ele>266</ele>
        <time>2017-06-02T09:24:03Z</time>
      </trkpt>
      <trkpt lat="45.94206" lon="4.81817">
        <ele>266</ele>
        <time>2017-06-02T09:24:04Z</time>
      </trkpt>
      <trkpt lat="45.94206" lon="4.81809">
        <ele>266</ele>
        <time>2017-06-02T09:24:05Z</time>
      </trkpt>
      <trkpt lat="45.94206" lon="4.81801">
        <ele>266</ele>
        <time>2017-06-02T09:24:06Z</time>
      </trkpt>
      <trkpt lat="45.94207" lon="4.81794">
        <ele>266</ele>
        <time>2017-06-02T09:24:07Z</time>
      </trkpt>
      <trkpt lat="45.94209" lon="4.81787">
        <ele>265</ele>
        <time>2017-06-02T09:24:08Z</time>
      </trkpt>
      <trkpt lat="45.9421" lon="4.8178">
        <ele>265</ele>
        <time>2017-06-02T09:24:09Z</time>
      </trkpt>
      <trkpt lat="45.94211" lon="4.81773">
        <ele>265</ele>
        <time>2017-06-02T09:24:10Z</time>
      </trkpt>
      <trkpt lat="45.94213" lon="4.81766">
        <ele>265</ele>
        <time>2017-06-02T09:24:11Z</time>
      </trkpt>
      <trkpt lat="45.94217" lon="4.81759">
        <ele>265</ele>
        <time>2017-06-02T09:24:12Z</time>
      </trkpt>
      <trkpt lat="45.9422" lon="4.81753">
        <ele>265</ele>
        <time>2017-06-02T09:24:13Z</time>
      </trkpt>
      <trkpt lat="45.94223" lon="4.81745">
        <ele>265</ele>
        <time>2017-06-02T09:24:14Z</time>
      </trkpt>
      <trkpt lat="45.94225" lon="4.81736">
        <ele>265</ele>
        <time>2017-06-02T09:24:15Z</time>
      </trkpt>
      <trkpt lat="45.94224" lon="4.81728">
        <ele>265</ele>
        <time>2017-06-02T09:24:16Z</time>
      </trkpt>
      <trkpt lat="45.94221" lon="4.81719">
        <ele>266</ele>
        <time>2017-06-02T09:24:17Z</time>
      </trkpt>
      <trkpt lat="45.94218" lon="4.81712">
        <ele>266</ele>
        <time>2017-06-02T09:24:18Z</time>
      </trkpt>
      <trkpt lat="45.94212" lon="4.81708">
        <ele>266</ele>
        <time>2017-06-02T09:24:19Z</time>
      </trkpt>
      <trkpt lat="45.94205" lon="4.81704">
        <ele>266</ele>
        <time>2017-06-02T09:24:20Z</time>
      </trkpt>
      <trkpt lat="45.94199" lon="4.81701">
        <ele>267</ele>
        <time>2017-06-02T09:24:21Z</time>
      </trkpt>
      <trkpt lat="45.94193" lon="4.81696">
        <ele>267</ele>
        <time>2017-06-02T09:24:22Z</time>
      </trkpt>
      <trkpt lat="45.94187" lon="4.8169">
        <ele>267</ele>
        <time>2017-06-02T09:24:23Z</time>
      </trkpt>
      <trkpt lat="45.94183" lon="4.81682">
        <ele>267</ele>
        <time>2017-06-02T09:24:24Z</time>
      </trkpt>
      <trkpt lat="45.94179" lon="4.81672">
        <ele>268</ele>
        <time>2017-06-02T09:24:25Z</time>
      </trkpt>
      <trkpt lat="45.94176" lon="4.81662">
        <ele>268</ele>
        <time>2017-06-02T09:24:26Z</time>
      </trkpt>
      <trkpt lat="45.94174" lon="4.81651">
        <ele>268</ele>
        <time>2017-06-02T09:24:27Z</time>
      </trkpt>
      <trkpt lat="45.94171" lon="4.8164">
        <ele>268</ele>
        <time>2017-06-02T09:24:28Z</time>
      </trkpt>
      <trkpt lat="45.94169" lon="4.81629">
        <ele>267</ele>
        <time>2017-06-02T09:24:29Z</time>
      </trkpt>
      <trkpt lat="45.94166" lon="4.81618">
        <ele>268</ele>
        <time>2017-06-02T09:24:30Z</time>
      </trkpt>
      <trkpt lat="45.94164" lon="4.81605">
        <ele>267</ele>
        <time>2017-06-02T09:24:31Z</time>
      </trkpt>
      <trkpt lat="45.94161" lon="4.81594">
        <ele>267</ele>
        <time>2017-06-02T09:24:32Z</time>
      </trkpt>
      <trkpt lat="45.94159" lon="4.81581">
        <ele>266</ele>
        <time>2017-06-02T09:24:33Z</time>
      </trkpt>
      <trkpt lat="45.94158" lon="4.81569">
        <ele>265</ele>
        <time>2017-06-02T09:24:34Z</time>
      </trkpt>
      <trkpt lat="45.94156" lon="4.81558">
        <ele>265</ele>
        <time>2017-06-02T09:24:35Z</time>
      </trkpt>
      <trkpt lat="45.94155" lon="4.81546">
        <ele>264</ele>
        <time>2017-06-02T09:24:36Z</time>
      </trkpt>
      <trkpt lat="45.94156" lon="4.81531">
        <ele>264</ele>
        <time>2017-06-02T09:24:37Z</time>
      </trkpt>
      <trkpt lat="45.94155" lon="4.81518">
        <ele>263</ele>
        <time>2017-06-02T09:24:38Z</time>
      </trkpt>
      <trkpt lat="45.94156" lon="4.81502">
        <ele>263</ele>
        <time>2017-06-02T09:24:39Z</time>
      </trkpt>
      <trkpt lat="45.94158" lon="4.81488">
        <ele>260</ele>
        <time>2017-06-02T09:24:40Z</time>
      </trkpt>
      <trkpt lat="45.94159" lon="4.81474">
        <ele>258</ele>
        <time>2017-06-02T09:24:41Z</time>
      </trkpt>
      <trkpt lat="45.94161" lon="4.8146">
        <ele>257</ele>
        <time>2017-06-02T09:24:42Z</time>
      </trkpt>
      <trkpt lat="45.94162" lon="4.81444">
        <ele>256</ele>
        <time>2017-06-02T09:24:43Z</time>
      </trkpt>
      <trkpt lat="45.94163" lon="4.81429">
        <ele>256</ele>
        <time>2017-06-02T09:24:44Z</time>
      </trkpt>
      <trkpt lat="45.94165" lon="4.81414">
        <ele>255</ele>
        <time>2017-06-02T09:24:45Z</time>
      </trkpt>
      <trkpt lat="45.94166" lon="4.814">
        <ele>253</ele>
        <time>2017-06-02T09:24:46Z</time>
      </trkpt>
      <trkpt lat="45.94168" lon="4.81385">
        <ele>258</ele>
        <time>2017-06-02T09:24:47Z</time>
      </trkpt>
      <trkpt lat="45.9417" lon="4.81372">
        <ele>258</ele>
        <time>2017-06-02T09:24:48Z</time>
      </trkpt>
      <trkpt lat="45.94172" lon="4.81357">
        <ele>257</ele>
        <time>2017-06-02T09:24:49Z</time>
      </trkpt>
      <trkpt lat="45.94173" lon="4.81343">
        <ele>255</ele>
        <time>2017-06-02T09:24:50Z</time>
      </trkpt>
      <trkpt lat="45.94174" lon="4.81328">
        <ele>254</ele>
        <time>2017-06-02T09:24:51Z</time>
      </trkpt>
      <trkpt lat="45.94174" lon="4.81312">
        <ele>255</ele>
        <time>2017-06-02T09:24:52Z</time>
      </trkpt>
      <trkpt lat="45.94172" lon="4.81296">
        <ele>256</ele>
        <time>2017-06-02T09:24:53Z</time>
      </trkpt>
      <trkpt lat="45.9417" lon="4.81281">
        <ele>255</ele>
        <time>2017-06-02T09:24:54Z</time>
      </trkpt>
      <trkpt lat="45.94168" lon="4.81265">
        <ele>253</ele>
        <time>2017-06-02T09:24:55Z</time>
      </trkpt>
      <trkpt lat="45.94165" lon="4.81249">
        <ele>250</ele>
        <time>2017-06-02T09:24:56Z</time>
      </trkpt>
      <trkpt lat="45.94161" lon="4.81234">
        <ele>246</ele>
        <time>2017-06-02T09:24:57Z</time>
      </trkpt>
      <trkpt lat="45.94158" lon="4.81216">
        <ele>245</ele>
        <time>2017-06-02T09:24:58Z</time>
      </trkpt>
      <trkpt lat="45.94152" lon="4.81199">
        <ele>244</ele>
        <time>2017-06-02T09:24:59Z</time>
      </trkpt>
      <trkpt lat="45.94147" lon="4.81183">
        <ele>244</ele>
        <time>2017-06-02T09:25:00Z</time>
      </trkpt>
      <trkpt lat="45.94141" lon="4.81167">
        <ele>244</ele>
        <time>2017-06-02T09:25:01Z</time>
      </trkpt>
      <trkpt lat="45.94136" lon="4.81152">
        <ele>244</ele>
        <time>2017-06-02T09:25:02Z</time>
      </trkpt>
      <trkpt lat="45.9413" lon="4.81138">
        <ele>243</ele>
        <time>2017-06-02T09:25:03Z</time>
      </trkpt>
      <trkpt lat="45.94125" lon="4.81126">
        <ele>243</ele>
        <time>2017-06-02T09:25:04Z</time>
      </trkpt>
      <trkpt lat="45.9412" lon="4.81114">
        <ele>243</ele>
        <time>2017-06-02T09:25:05Z</time>
      </trkpt>
      <trkpt lat="45.94113" lon="4.81102">
        <ele>242</ele>
        <time>2017-06-02T09:25:06Z</time>
      </trkpt>
      <trkpt lat="45.94106" lon="4.8109">
        <ele>241</ele>
        <time>2017-06-02T09:25:07Z</time>
      </trkpt>
      <trkpt lat="45.941" lon="4.81078">
        <ele>242</ele>
        <time>2017-06-02T09:25:08Z</time>
      </trkpt>
      <trkpt lat="45.94095" lon="4.81064">
        <ele>242</ele>
        <time>2017-06-02T09:25:09Z</time>
      </trkpt>
      <trkpt lat="45.9409" lon="4.81051">
        <ele>243</ele>
        <time>2017-06-02T09:25:10Z</time>
      </trkpt>
      <trkpt lat="45.94084" lon="4.81038">
        <ele>244</ele>
        <time>2017-06-02T09:25:11Z</time>
      </trkpt>
      <trkpt lat="45.94079" lon="4.81024">
        <ele>234</ele>
        <time>2017-06-02T09:25:12Z</time>
      </trkpt>
      <trkpt lat="45.94074" lon="4.8101">
        <ele>236</ele>
        <time>2017-06-02T09:25:13Z</time>
      </trkpt>
      <trkpt lat="45.94069" lon="4.80996">
        <ele>235</ele>
        <time>2017-06-02T09:25:14Z</time>
      </trkpt>
      <trkpt lat="45.94067" lon="4.80981">
        <ele>233</ele>
        <time>2017-06-02T09:25:15Z</time>
      </trkpt>
      <trkpt lat="45.94065" lon="4.80965">
        <ele>232</ele>
        <time>2017-06-02T09:25:16Z</time>
      </trkpt>
      <trkpt lat="45.94061" lon="4.8095">
        <ele>232</ele>
        <time>2017-06-02T09:25:17Z</time>
      </trkpt>
      <trkpt lat="45.94059" lon="4.80934">
        <ele>232</ele>
        <time>2017-06-02T09:25:18Z</time>
      </trkpt>
      <trkpt lat="45.94055" lon="4.80918">
        <ele>232</ele>
        <time>2017-06-02T09:25:19Z</time>
      </trkpt>
      <trkpt lat="45.94053" lon="4.80903">
        <ele>230</ele>
        <time>2017-06-02T09:25:20Z</time>
      </trkpt>
      <trkpt lat="45.9405" lon="4.80887">
        <ele>230</ele>
        <time>2017-06-02T09:25:21Z</time>
      </trkpt>
      <trkpt lat="45.94047" lon="4.80871">
        <ele>229</ele>
        <time>2017-06-02T09:25:22Z</time>
      </trkpt>
      <trkpt lat="45.94044" lon="4.80856">
        <ele>229</ele>
        <time>2017-06-02T09:25:23Z</time>
      </trkpt>
      <trkpt lat="45.94043" lon="4.80841">
        <ele>229</ele>
        <time>2017-06-02T09:25:24Z</time>
      </trkpt>
      <trkpt lat="45.94042" lon="4.80825">
        <ele>228</ele>
        <time>2017-06-02T09:25:25Z</time>
      </trkpt>
      <trkpt lat="45.9404" lon="4.8081">
        <ele>228</ele>
        <time>2017-06-02T09:25:26Z</time>
      </trkpt>
      <trkpt lat="45.94038" lon="4.80793">
        <ele>228</ele>
        <time>2017-06-02T09:25:27Z</time>
      </trkpt>
      <trkpt lat="45.94035" lon="4.80777">
        <ele>227</ele>
        <time>2017-06-02T09:25:28Z</time>
      </trkpt>
      <trkpt lat="45.94032" lon="4.80761">
        <ele>226</ele>
        <time>2017-06-02T09:25:29Z</time>
      </trkpt>
      <trkpt lat="45.94029" lon="4.80744">
        <ele>225</ele>
        <time>2017-06-02T09:25:30Z</time>
      </trkpt>
      <trkpt lat="45.94027" lon="4.80728">
        <ele>225</ele>
        <time>2017-06-02T09:25:31Z</time>
      </trkpt>
      <trkpt lat="45.94026" lon="4.80711">
        <ele>225</ele>
        <time>2017-06-02T09:25:32Z</time>
      </trkpt>
      <trkpt lat="45.94024" lon="4.80693">
        <ele>224</ele>
        <time>2017-06-02T09:25:33Z</time>
      </trkpt>
      <trkpt lat="45.94022" lon="4.80675">
        <ele>223</ele>
        <time>2017-06-02T09:25:34Z</time>
      </trkpt>
      <trkpt lat="45.9402" lon="4.80658">
        <ele>223</ele>
        <time>2017-06-02T09:25:35Z</time>
      </trkpt>
      <trkpt lat="45.94019" lon="4.8064">
        <ele>224</ele>
        <time>2017-06-02T09:25:36Z</time>
      </trkpt>
      <trkpt lat="45.94017" lon="4.80622">
        <ele>224</ele>
        <time>2017-06-02T09:25:37Z</time>
      </trkpt>
      <trkpt lat="45.94018" lon="4.80603">
        <ele>223</ele>
        <time>2017-06-02T09:25:38Z</time>
      </trkpt>
      <trkpt lat="45.94017" lon="4.80585">
        <ele>222</ele>
        <time>2017-06-02T09:25:39Z</time>
      </trkpt>
      <trkpt lat="45.94016" lon="4.80566">
        <ele>223</ele>
        <time>2017-06-02T09:25:40Z</time>
      </trkpt>
      <trkpt lat="45.94015" lon="4.80547">
        <ele>224</ele>
        <time>2017-06-02T09:25:41Z</time>
      </trkpt>
      <trkpt lat="45.94015" lon="4.80528">
        <ele>224</ele>
        <time>2017-06-02T09:25:42Z</time>
      </trkpt>
      <trkpt lat="45.94015" lon="4.80508">
        <ele>223</ele>
        <time>2017-06-02T09:25:43Z</time>
      </trkpt>
      <trkpt lat="45.94016" lon="4.80487">
        <ele>222</ele>
        <time>2017-06-02T09:25:44Z</time>
      </trkpt>
      <trkpt lat="45.94017" lon="4.80466">
        <ele>223</ele>
        <time>2017-06-02T09:25:45Z</time>
      </trkpt>
      <trkpt lat="45.94016" lon="4.80445">
        <ele>222</ele>
        <time>2017-06-02T09:25:46Z</time>
      </trkpt>
      <trkpt lat="45.94013" lon="4.80425">
        <ele>220</ele>
        <time>2017-06-02T09:25:47Z</time>
      </trkpt>
      <trkpt lat="45.9401" lon="4.80407">
        <ele>217</ele>
        <time>2017-06-02T09:25:48Z</time>
      </trkpt>
      <trkpt lat="45.94006" lon="4.80389">
        <ele>217</ele>
        <time>2017-06-02T09:25:49Z</time>
      </trkpt>
      <trkpt lat="45.94005" lon="4.80365">
        <ele>215</ele>
        <time>2017-06-02T09:25:50Z</time>
      </trkpt>
      <trkpt lat="45.94001" lon="4.80344">
        <ele>210</ele>
        <time>2017-06-02T09:25:51Z</time>
      </trkpt>
      <trkpt lat="45.93998" lon="4.80325">
        <ele>205</ele>
        <time>2017-06-02T09:25:52Z</time>
      </trkpt>
      <trkpt lat="45.93995" lon="4.80306">
        <ele>203</ele>
        <time>2017-06-02T09:25:53Z</time>
      </trkpt>
      <trkpt lat="45.93991" lon="4.8029">
        <ele>203</ele>
        <time>2017-06-02T09:25:54Z</time>
      </trkpt>
      <trkpt lat="45.93987" lon="4.80274">
        <ele>203</ele>
        <time>2017-06-02T09:25:55Z</time>
      </trkpt>
      <trkpt lat="45.93982" lon="4.80261">
        <ele>203</ele>
        <time>2017-06-02T09:25:56Z</time>
      </trkpt>
      <trkpt lat="45.93977" lon="4.80244">
        <ele>205</ele>
        <time>2017-06-02T09:25:57Z</time>
      </trkpt>
      <trkpt lat="45.93973" lon="4.80229">
        <ele>205</ele>
        <time>2017-06-02T09:25:58Z</time>
      </trkpt>
      <trkpt lat="45.93968" lon="4.80213">
        <ele>205</ele>
        <time>2017-06-02T09:25:59Z</time>
      </trkpt>
      <trkpt lat="45.93963" lon="4.802">
        <ele>206</ele>
        <time>2017-06-02T09:26:00Z</time>
      </trkpt>
      <trkpt lat="45.93958" lon="4.80185">
        <ele>206</ele>
        <time>2017-06-02T09:26:01Z</time>
      </trkpt>
      <trkpt lat="45.93956" lon="4.8017">
        <ele>206</ele>
        <time>2017-06-02T09:26:02Z</time>
      </trkpt>
      <trkpt lat="45.93953" lon="4.80156">
        <ele>209</ele>
        <time>2017-06-02T09:26:03Z</time>
      </trkpt>
      <trkpt lat="45.93951" lon="4.80142">
        <ele>209</ele>
        <time>2017-06-02T09:26:04Z</time>
      </trkpt>
      <trkpt lat="45.9395" lon="4.80128">
        <ele>209</ele>
        <time>2017-06-02T09:26:05Z</time>
      </trkpt>
      <trkpt lat="45.93948" lon="4.80113">
        <ele>209</ele>
        <time>2017-06-02T09:26:06Z</time>
      </trkpt>
      <trkpt lat="45.93947" lon="4.801">
        <ele>209</ele>
        <time>2017-06-02T09:26:07Z</time>
      </trkpt>
      <trkpt lat="45.93946" lon="4.80087">
        <ele>209</ele>
        <time>2017-06-02T09:26:08Z</time>
      </trkpt>
      <trkpt lat="45.93945" lon="4.80074">
        <ele>208</ele>
        <time>2017-06-02T09:26:09Z</time>
      </trkpt>
      <trkpt lat="45.93946" lon="4.80062">
        <ele>208</ele>
        <time>2017-06-02T09:26:10Z</time>
      </trkpt>
      <trkpt lat="45.93947" lon="4.8005">
        <ele>208</ele>
        <time>2017-06-02T09:26:11Z</time>
      </trkpt>
      <trkpt lat="45.93947" lon="4.80039">
        <ele>207</ele>
        <time>2017-06-02T09:26:12Z</time>
      </trkpt>
      <trkpt lat="45.93948" lon="4.80028">
        <ele>207</ele>
        <time>2017-06-02T09:26:13Z</time>
      </trkpt>
      <trkpt lat="45.93949" lon="4.80018">
        <ele>207</ele>
        <time>2017-06-02T09:26:14Z</time>
      </trkpt>
      <trkpt lat="45.9395" lon="4.80007">
        <ele>207</ele>
        <time>2017-06-02T09:26:15Z</time>
      </trkpt>
      <trkpt lat="45.9395" lon="4.79996">
        <ele>205</ele>
        <time>2017-06-02T09:26:16Z</time>
      </trkpt>
      <trkpt lat="45.93951" lon="4.79985">
        <ele>205</ele>
        <time>2017-06-02T09:26:17Z</time>
      </trkpt>
      <trkpt lat="45.93952" lon="4.79975">
        <ele>205</ele>
        <time>2017-06-02T09:26:18Z</time>
      </trkpt>
      <trkpt lat="45.93953" lon="4.79966">
        <ele>205</ele>
        <time>2017-06-02T09:26:19Z</time>
      </trkpt>
      <trkpt lat="45.93954" lon="4.79956">
        <ele>205</ele>
        <time>2017-06-02T09:26:20Z</time>
      </trkpt>
      <trkpt lat="45.93956" lon="4.79947">
        <ele>205</ele>
        <time>2017-06-02T09:26:21Z</time>
      </trkpt>
      <trkpt lat="45.93959" lon="4.79938">
        <ele>205</ele>
        <time>2017-06-02T09:26:22Z</time>
      </trkpt>
      <trkpt lat="45.93961" lon="4.79929">
        <ele>205</ele>
        <time>2017-06-02T09:26:23Z</time>
      </trkpt>
      <trkpt lat="45.93962" lon="4.79919">
        <ele>205</ele>
        <time>2017-06-02T09:26:24Z</time>
      </trkpt>
      <trkpt lat="45.93963" lon="4.79909">
        <ele>206</ele>
        <time>2017-06-02T09:26:25Z</time>
      </trkpt>
      <trkpt lat="45.93964" lon="4.799">
        <ele>206</ele>
        <time>2017-06-02T09:26:26Z</time>
      </trkpt>
      <trkpt lat="45.93965" lon="4.79891">
        <ele>206</ele>
        <time>2017-06-02T09:26:27Z</time>
      </trkpt>
      <trkpt lat="45.93967" lon="4.79882">
        <ele>206</ele>
        <time>2017-06-02T09:26:28Z</time>
      </trkpt>
      <trkpt lat="45.93968" lon="4.79872">
        <ele>206</ele>
        <time>2017-06-02T09:26:29Z</time>
      </trkpt>
      <trkpt lat="45.9397" lon="4.79863">
        <ele>206</ele>
        <time>2017-06-02T09:26:30Z</time>
      </trkpt>
      <trkpt lat="45.93972" lon="4.79853">
        <ele>206</ele>
        <time>2017-06-02T09:26:31Z</time>
      </trkpt>
      <trkpt lat="45.93974" lon="4.79842">
        <ele>207</ele>
        <time>2017-06-02T09:26:32Z</time>
      </trkpt>
      <trkpt lat="45.93975" lon="4.79832">
        <ele>207</ele>
        <time>2017-06-02T09:26:33Z</time>
      </trkpt>
      <trkpt lat="45.93978" lon="4.79822">
        <ele>207</ele>
        <time>2017-06-02T09:26:34Z</time>
      </trkpt>
      <trkpt lat="45.93979" lon="4.79812">
        <ele>207</ele>
        <time>2017-06-02T09:26:35Z</time>
      </trkpt>
      <trkpt lat="45.93979" lon="4.79801">
        <ele>207</ele>
        <time>2017-06-02T09:26:36Z</time>
      </trkpt>
      <trkpt lat="45.9398" lon="4.7979">
        <ele>207</ele>
        <time>2017-06-02T09:26:37Z</time>
      </trkpt>
      <trkpt lat="45.93979" lon="4.79779">
        <ele>207</ele>
        <time>2017-06-02T09:26:38Z</time>
      </trkpt>
      <trkpt lat="45.93979" lon="4.79768">
        <ele>207</ele>
        <time>2017-06-02T09:26:39Z</time>
      </trkpt>
      <trkpt lat="45.93978" lon="4.79757">
        <ele>207</ele>
        <time>2017-06-02T09:26:40Z</time>
      </trkpt>
      <trkpt lat="45.93977" lon="4.79745">
        <ele>207</ele>
        <time>2017-06-02T09:26:41Z</time>
      </trkpt>
      <trkpt lat="45.93975" lon="4.79734">
        <ele>207</ele>
        <time>2017-06-02T09:26:42Z</time>
      </trkpt>
      <trkpt lat="45.93974" lon="4.79722">
        <ele>207</ele>
        <time>2017-06-02T09:26:43Z</time>
      </trkpt>
      <trkpt lat="45.93973" lon="4.7971">
        <ele>207</ele>
        <time>2017-06-02T09:26:44Z</time>
      </trkpt>
      <trkpt lat="45.93972" lon="4.79698">
        <ele>207</ele>
        <time>2017-06-02T09:26:45Z</time>
      </trkpt>
      <trkpt lat="45.93971" lon="4.79686">
        <ele>207</ele>
        <time>2017-06-02T09:26:46Z</time>
      </trkpt>
      <trkpt lat="45.9397" lon="4.79673">
        <ele>208</ele>
        <time>2017-06-02T09:26:47Z</time>
      </trkpt>
      <trkpt lat="45.9397" lon="4.79661">
        <ele>208</ele>
        <time>2017-06-02T09:26:48Z</time>
      </trkpt>
      <trkpt lat="45.93969" lon="4.7965">
        <ele>208</ele>
        <time>2017-06-02T09:26:49Z</time>
      </trkpt>
      <trkpt lat="45.93967" lon="4.79639">
        <ele>207</ele>
        <time>2017-06-02T09:26:50Z</time>
      </trkpt>
      <trkpt lat="45.93966" lon="4.79628">
        <ele>207</ele>
        <time>2017-06-02T09:26:51Z</time>
      </trkpt>
      <trkpt lat="45.93965" lon="4.79617">
        <ele>207</ele>
        <time>2017-06-02T09:26:52Z</time>
      </trkpt>
      <trkpt lat="45.93964" lon="4.79606">
        <ele>207</ele>
        <time>2017-06-02T09:26:53Z</time>
      </trkpt>
      <trkpt lat="45.93963" lon="4.79595">
        <ele>207</ele>
        <time>2017-06-02T09:26:54Z</time>
      </trkpt>
      <trkpt lat="45.93961" lon="4.79585">
        <ele>207</ele>
        <time>2017-06-02T09:26:55Z</time>
      </trkpt>
      <trkpt lat="45.93959" lon="4.79575">
        <ele>206</ele>
        <time>2017-06-02T09:26:56Z</time>
      </trkpt>
      <trkpt lat="45.93958" lon="4.79564">
        <ele>205</ele>
        <time>2017-06-02T09:26:57Z</time>
      </trkpt>
      <trkpt lat="45.93957" lon="4.79554">
        <ele>205</ele>
        <time>2017-06-02T09:26:58Z</time>
      </trkpt>
      <trkpt lat="45.93956" lon="4.79542">
        <ele>205</ele>
        <time>2017-06-02T09:26:59Z</time>
      </trkpt>
      <trkpt lat="45.93956" lon="4.79531">
        <ele>205</ele>
        <time>2017-06-02T09:27:00Z</time>
      </trkpt>
      <trkpt lat="45.93955" lon="4.79519">
        <ele>204</ele>
        <time>2017-06-02T09:27:01Z</time>
      </trkpt>
      <trkpt lat="45.93955" lon="4.79507">
        <ele>204</ele>
        <time>2017-06-02T09:27:02Z</time>
      </trkpt>
      <trkpt lat="45.93955" lon="4.79495">
        <ele>203</ele>
        <time>2017-06-02T09:27:03Z</time>
      </trkpt>
      <trkpt lat="45.93955" lon="4.79483">
        <ele>203</ele>
        <time>2017-06-02T09:27:04Z</time>
      </trkpt>
      <trkpt lat="45.93955" lon="4.79471">
        <ele>203</ele>
        <time>2017-06-02T09:27:05Z</time>
      </trkpt>
      <trkpt lat="45.93955" lon="4.79459">
        <ele>203</ele>
        <time>2017-06-02T09:27:06Z</time>
      </trkpt>
      <trkpt lat="45.93956" lon="4.79447">
        <ele>203</ele>
        <time>2017-06-02T09:27:07Z</time>
      </trkpt>
      <trkpt lat="45.93956" lon="4.79435">
        <ele>203</ele>
        <time>2017-06-02T09:27:08Z</time>
      </trkpt>
      <trkpt lat="45.93956" lon="4.79422">
        <ele>203</ele>
        <time>2017-06-02T09:27:09Z</time>
      </trkpt>
      <trkpt lat="45.93957" lon="4.7941">
        <ele>201</ele>
        <time>2017-06-02T09:27:10Z</time>
      </trkpt>
      <trkpt lat="45.93956" lon="4.79398">
        <ele>201</ele>
        <time>2017-06-02T09:27:11Z</time>
      </trkpt>
      <trkpt lat="45.93957" lon="4.79386">
        <ele>201</ele>
        <time>2017-06-02T09:27:12Z</time>
      </trkpt>
      <trkpt lat="45.93956" lon="4.79374">
        <ele>201</ele>
        <time>2017-06-02T09:27:13Z</time>
      </trkpt>
      <trkpt lat="45.93955" lon="4.79362">
        <ele>201</ele>
        <time>2017-06-02T09:27:14Z</time>
      </trkpt>
      <trkpt lat="45.93955" lon="4.7935">
        <ele>201</ele>
        <time>2017-06-02T09:27:15Z</time>
      </trkpt>
      <trkpt lat="45.93954" lon="4.79338">
        <ele>200</ele>
        <time>2017-06-02T09:27:16Z</time>
      </trkpt>
      <trkpt lat="45.93953" lon="4.79324">
        <ele>199</ele>
        <time>2017-06-02T09:27:17Z</time>
      </trkpt>
      <trkpt lat="45.93953" lon="4.79311">
        <ele>199</ele>
        <time>2017-06-02T09:27:18Z</time>
      </trkpt>
      <trkpt lat="45.93952" lon="4.79298">
        <ele>198</ele>
        <time>2017-06-02T09:27:19Z</time>
      </trkpt>
      <trkpt lat="45.93952" lon="4.79286">
        <ele>198</ele>
        <time>2017-06-02T09:27:20Z</time>
      </trkpt>
      <trkpt lat="45.93952" lon="4.79273">
        <ele>198</ele>
        <time>2017-06-02T09:27:21Z</time>
      </trkpt>
      <trkpt lat="45.93951" lon="4.79261">
        <ele>198</ele>
        <time>2017-06-02T09:27:22Z</time>
      </trkpt>
      <trkpt lat="45.93951" lon="4.79249">
        <ele>197</ele>
        <time>2017-06-02T09:27:23Z</time>
      </trkpt>
      <trkpt lat="45.93951" lon="4.79237">
        <ele>197</ele>
        <time>2017-06-02T09:27:24Z</time>
      </trkpt>
      <trkpt lat="45.93952" lon="4.79225">
        <ele>197</ele>
        <time>2017-06-02T09:27:25Z</time>
      </trkpt>
      <trkpt lat="45.93952" lon="4.79212">
        <ele>197</ele>
        <time>2017-06-02T09:27:26Z</time>
      </trkpt>
      <trkpt lat="45.93952" lon="4.792">
        <ele>197</ele>
        <time>2017-06-02T09:27:27Z</time>
      </trkpt>
      <trkpt lat="45.93953" lon="4.79188">
        <ele>197</ele>
        <time>2017-06-02T09:27:28Z</time>
      </trkpt>
      <trkpt lat="45.93952" lon="4.79176">
        <ele>197</ele>
        <time>2017-06-02T09:27:29Z</time>
      </trkpt>
      <trkpt lat="45.93951" lon="4.79165">
        <ele>197</ele>
        <time>2017-06-02T09:27:30Z</time>
      </trkpt>
      <trkpt lat="45.9395" lon="4.79154">
        <ele>197</ele>
        <time>2017-06-02T09:27:31Z</time>
      </trkpt>
      <trkpt lat="45.9395" lon="4.79143">
        <ele>197</ele>
        <time>2017-06-02T09:27:32Z</time>
      </trkpt>
      <trkpt lat="45.9395" lon="4.79132">
        <ele>197</ele>
        <time>2017-06-02T09:27:33Z</time>
      </trkpt>
      <trkpt lat="45.93951" lon="4.7912">
        <ele>197</ele>
        <time>2017-06-02T09:27:34Z</time>
      </trkpt>
      <trkpt lat="45.93951" lon="4.79108">
        <ele>197</ele>
        <time>2017-06-02T09:27:35Z</time>
      </trkpt>
      <trkpt lat="45.9395" lon="4.79097">
        <ele>197</ele>
        <time>2017-06-02T09:27:36Z</time>
      </trkpt>
      <trkpt lat="45.9395" lon="4.79086">
        <ele>196</ele>
        <time>2017-06-02T09:27:37Z</time>
      </trkpt>
      <trkpt lat="45.93949" lon="4.79075">
        <ele>196</ele>
        <time>2017-06-02T09:27:38Z</time>
      </trkpt>
      <trkpt lat="45.93949" lon="4.79064">
        <ele>196</ele>
        <time>2017-06-02T09:27:39Z</time>
      </trkpt>
      <trkpt lat="45.93949" lon="4.79052">
        <ele>196</ele>
        <time>2017-06-02T09:27:40Z</time>
      </trkpt>
      <trkpt lat="45.93948" lon="4.79041">
        <ele>196</ele>
        <time>2017-06-02T09:27:41Z</time>
      </trkpt>
      <trkpt lat="45.93948" lon="4.7903">
        <ele>195</ele>
        <time>2017-06-02T09:27:42Z</time>
      </trkpt>
      <trkpt lat="45.93948" lon="4.79019">
        <ele>195</ele>
        <time>2017-06-02T09:27:43Z</time>
      </trkpt>
      <trkpt lat="45.93947" lon="4.79008">
        <ele>195</ele>
        <time>2017-06-02T09:27:44Z</time>
      </trkpt>
      <trkpt lat="45.93947" lon="4.78997">
        <ele>194</ele>
        <time>2017-06-02T09:27:45Z</time>
      </trkpt>
      <trkpt lat="45.93947" lon="4.78987">
        <ele>194</ele>
        <time>2017-06-02T09:27:46Z</time>
      </trkpt>
      <trkpt lat="45.93946" lon="4.78976">
        <ele>194</ele>
        <time>2017-06-02T09:27:47Z</time>
      </trkpt>
      <trkpt lat="45.93946" lon="4.78966">
        <ele>194</ele>
        <time>2017-06-02T09:27:48Z</time>
      </trkpt>
      <trkpt lat="45.93945" lon="4.78956">
        <ele>194</ele>
        <time>2017-06-02T09:27:49Z</time>
      </trkpt>
      <trkpt lat="45.93945" lon="4.78946">
        <ele>194</ele>
        <time>2017-06-02T09:27:50Z</time>
      </trkpt>
      <trkpt lat="45.93945" lon="4.78936">
        <ele>194</ele>
        <time>2017-06-02T09:27:51Z</time>
      </trkpt>
      <trkpt lat="45.93945" lon="4.78926">
        <ele>193</ele>
        <time>2017-06-02T09:27:52Z</time>
      </trkpt>
      <trkpt lat="45.93945" lon="4.78915">
        <ele>193</ele>
        <time>2017-06-02T09:27:53Z</time>
      </trkpt>
      <trkpt lat="45.93944" lon="4.78905">
        <ele>193</ele>
        <time>2017-06-02T09:27:54Z</time>
      </trkpt>
      <trkpt lat="45.93943" lon="4.78895">
        <ele>194</ele>
        <time>2017-06-02T09:27:55Z</time>
      </trkpt>
      <trkpt lat="45.93943" lon="4.78885">
        <ele>194</ele>
        <time>2017-06-02T09:27:56Z</time>
      </trkpt>
      <trkpt lat="45.93942" lon="4.78874">
        <ele>194</ele>
        <time>2017-06-02T09:27:57Z</time>
      </trkpt>
      <trkpt lat="45.93942" lon="4.78864">
        <ele>194</ele>
        <time>2017-06-02T09:27:58Z</time>
      </trkpt>
      <trkpt lat="45.93941" lon="4.78855">
        <ele>194</ele>
        <time>2017-06-02T09:27:59Z</time>
      </trkpt>
      <trkpt lat="45.93941" lon="4.78845">
        <ele>193</ele>
        <time>2017-06-02T09:28:00Z</time>
      </trkpt>
      <trkpt lat="45.9394" lon="4.78836">
        <ele>193</ele>
        <time>2017-06-02T09:28:01Z</time>
      </trkpt>
      <trkpt lat="45.9394" lon="4.78827">
        <ele>194</ele>
        <time>2017-06-02T09:28:02Z</time>
      </trkpt>
      <trkpt lat="45.9394" lon="4.78818">
        <ele>194</ele>
        <time>2017-06-02T09:28:03Z</time>
      </trkpt>
      <trkpt lat="45.9394" lon="4.78809">
        <ele>194</ele>
        <time>2017-06-02T09:28:04Z</time>
      </trkpt>
      <trkpt lat="45.9394" lon="4.788">
        <ele>194</ele>
        <time>2017-06-02T09:28:05Z</time>
      </trkpt>
      <trkpt lat="45.93941" lon="4.78791">
        <ele>194</ele>
        <time>2017-06-02T09:28:06Z</time>
      </trkpt>
      <trkpt lat="45.93941" lon="4.78782">
        <ele>194</ele>
        <time>2017-06-02T09:28:07Z</time>
      </trkpt>
      <trkpt lat="45.9394" lon="4.78772">
        <ele>194</ele>
        <time>2017-06-02T09:28:08Z</time>
      </trkpt>
      <trkpt lat="45.9394" lon="4.78763">
        <ele>194</ele>
        <time>2017-06-02T09:28:09Z</time>
      </trkpt>
      <trkpt lat="45.93941" lon="4.78753">
        <ele>193</ele>
        <time>2017-06-02T09:28:10Z</time>
      </trkpt>
      <trkpt lat="45.93941" lon="4.78743">
        <ele>194</ele>
        <time>2017-06-02T09:28:11Z</time>
      </trkpt>
      <trkpt lat="45.93941" lon="4.78732">
        <ele>194</ele>
        <time>2017-06-02T09:28:12Z</time>
      </trkpt>
      <trkpt lat="45.93941" lon="4.78723">
        <ele>194</ele>
        <time>2017-06-02T09:28:13Z</time>
      </trkpt>
      <trkpt lat="45.93941" lon="4.78714">
        <ele>194</ele>
        <time>2017-06-02T09:28:14Z</time>
      </trkpt>
      <trkpt lat="45.9394" lon="4.78705">
        <ele>194</ele>
        <time>2017-06-02T09:28:15Z</time>
      </trkpt>
      <trkpt lat="45.9394" lon="4.78696">
        <ele>194</ele>
        <time>2017-06-02T09:28:16Z</time>
      </trkpt>
      <trkpt lat="45.9394" lon="4.78687">
        <ele>194</ele>
        <time>2017-06-02T09:28:17Z</time>
      </trkpt>
      <trkpt lat="45.9394" lon="4.78678">
        <ele>194</ele>
        <time>2017-06-02T09:28:18Z</time>
      </trkpt>
      <trkpt lat="45.9394" lon="4.78668">
        <ele>193</ele>
        <time>2017-06-02T09:28:19Z</time>
      </trkpt>
      <trkpt lat="45.9394" lon="4.78659">
        <ele>194</ele>
        <time>2017-06-02T09:28:20Z</time>
      </trkpt>
      <trkpt lat="45.93941" lon="4.7865">
        <ele>195</ele>
        <time>2017-06-02T09:28:21Z</time>
      </trkpt>
      <trkpt lat="45.93941" lon="4.78641">
        <ele>195</ele>
        <time>2017-06-02T09:28:22Z</time>
      </trkpt>
      <trkpt lat="45.93942" lon="4.78632">
        <ele>196</ele>
        <time>2017-06-02T09:28:23Z</time>
      </trkpt>
      <trkpt lat="45.93942" lon="4.78624">
        <ele>196</ele>
        <time>2017-06-02T09:28:24Z</time>
      </trkpt>
      <trkpt lat="45.93943" lon="4.78615">
        <ele>196</ele>
        <time>2017-06-02T09:28:25Z</time>
      </trkpt>
      <trkpt lat="45.93943" lon="4.78607">
        <ele>196</ele>
        <time>2017-06-02T09:28:26Z</time>
      </trkpt>
      <trkpt lat="45.93942" lon="4.78598">
        <ele>196</ele>
        <time>2017-06-02T09:28:27Z</time>
      </trkpt>
      <trkpt lat="45.93941" lon="4.7859">
        <ele>196</ele>
        <time>2017-06-02T09:28:28Z</time>
      </trkpt>
      <trkpt lat="45.9394" lon="4.78583">
        <ele>196</ele>
        <time>2017-06-02T09:28:29Z</time>
      </trkpt>
      <trkpt lat="45.9394" lon="4.78576">
        <ele>196</ele>
        <time>2017-06-02T09:28:30Z</time>
      </trkpt>
      <trkpt lat="45.93938" lon="4.78566">
        <ele>197</ele>
        <time>2017-06-02T09:28:32Z</time>
      </trkpt>
      <trkpt lat="45.93937" lon="4.78563">
        <ele>197</ele>
        <time>2017-06-02T09:28:33Z</time>
      </trkpt>
      <trkpt lat="45.93937" lon="4.78552">
        <ele>197</ele>
        <time>2017-06-02T09:28:37Z</time>
      </trkpt>
      <trkpt lat="45.93937" lon="4.78549">
        <ele>197</ele>
        <time>2017-06-02T09:28:38Z</time>
      </trkpt>
      <trkpt lat="45.93938" lon="4.78536">
        <ele>197</ele>
        <time>2017-06-02T09:28:41Z</time>
      </trkpt>
      <trkpt lat="45.93938" lon="4.78531">
        <ele>197</ele>
        <time>2017-06-02T09:28:42Z</time>
      </trkpt>
      <trkpt lat="45.93939" lon="4.78518">
        <ele>197</ele>
        <time>2017-06-02T09:28:44Z</time>
      </trkpt>
      <trkpt lat="45.93939" lon="4.78512">
        <ele>197</ele>
        <time>2017-06-02T09:28:45Z</time>
      </trkpt>
      <trkpt lat="45.9394" lon="4.78505">
        <ele>197</ele>
        <time>2017-06-02T09:28:46Z</time>
      </trkpt>
      <trkpt lat="45.93941" lon="4.78498">
        <ele>197</ele>
        <time>2017-06-02T09:28:47Z</time>
      </trkpt>
      <trkpt lat="45.93942" lon="4.7849">
        <ele>197</ele>
        <time>2017-06-02T09:28:48Z</time>
      </trkpt>
      <trkpt lat="45.93943" lon="4.78482">
        <ele>197</ele>
        <time>2017-06-02T09:28:49Z</time>
      </trkpt>
      <trkpt lat="45.93944" lon="4.78475">
        <ele>197</ele>
        <time>2017-06-02T09:28:50Z</time>
      </trkpt>
      <trkpt lat="45.93945" lon="4.78468">
        <ele>197</ele>
        <time>2017-06-02T09:28:51Z</time>
      </trkpt>
      <trkpt lat="45.93945" lon="4.78461">
        <ele>197</ele>
        <time>2017-06-02T09:28:52Z</time>
      </trkpt>
      <trkpt lat="45.93947" lon="4.78454">
        <ele>197</ele>
        <time>2017-06-02T09:28:53Z</time>
      </trkpt>
      <trkpt lat="45.93948" lon="4.78441">
        <ele>197</ele>
        <time>2017-06-02T09:28:55Z</time>
      </trkpt>
      <trkpt lat="45.93949" lon="4.78435">
        <ele>197</ele>
        <time>2017-06-02T09:28:56Z</time>
      </trkpt>
      <trkpt lat="45.93948" lon="4.78429">
        <ele>197</ele>
        <time>2017-06-02T09:28:57Z</time>
      </trkpt>
      <trkpt lat="45.93949" lon="4.78422">
        <ele>197</ele>
        <time>2017-06-02T09:28:58Z</time>
      </trkpt>
      <trkpt lat="45.9395" lon="4.78415">
        <ele>196</ele>
        <time>2017-06-02T09:28:59Z</time>
      </trkpt>
      <trkpt lat="45.93951" lon="4.78408">
        <ele>196</ele>
        <time>2017-06-02T09:29:00Z</time>
      </trkpt>
      <trkpt lat="45.93953" lon="4.78396">
        <ele>196</ele>
        <time>2017-06-02T09:29:02Z</time>
      </trkpt>
      <trkpt lat="45.93954" lon="4.78389">
        <ele>196</ele>
        <time>2017-06-02T09:29:03Z</time>
      </trkpt>
      <trkpt lat="45.93955" lon="4.78382">
        <ele>196</ele>
        <time>2017-06-02T09:29:04Z</time>
      </trkpt>
      <trkpt lat="45.93956" lon="4.78375">
        <ele>196</ele>
        <time>2017-06-02T09:29:05Z</time>
      </trkpt>
      <trkpt lat="45.93957" lon="4.78368">
        <ele>196</ele>
        <time>2017-06-02T09:29:06Z</time>
      </trkpt>
      <trkpt lat="45.93959" lon="4.78361">
        <ele>196</ele>
        <time>2017-06-02T09:29:07Z</time>
      </trkpt>
      <trkpt lat="45.9396" lon="4.78353">
        <ele>196</ele>
        <time>2017-06-02T09:29:08Z</time>
      </trkpt>
      <trkpt lat="45.93961" lon="4.78345">
        <ele>196</ele>
        <time>2017-06-02T09:29:09Z</time>
      </trkpt>
      <trkpt lat="45.93962" lon="4.78338">
        <ele>196</ele>
        <time>2017-06-02T09:29:10Z</time>
      </trkpt>
      <trkpt lat="45.93963" lon="4.78331">
        <ele>196</ele>
        <time>2017-06-02T09:29:11Z</time>
      </trkpt>
      <trkpt lat="45.93965" lon="4.78324">
        <ele>196</ele>
        <time>2017-06-02T09:29:12Z</time>
      </trkpt>
      <trkpt lat="45.93965" lon="4.78318">
        <ele>196</ele>
        <time>2017-06-02T09:29:13Z</time>
      </trkpt>
      <trkpt lat="45.93967" lon="4.78306">
        <ele>196</ele>
        <time>2017-06-02T09:29:15Z</time>
      </trkpt>
      <trkpt lat="45.93968" lon="4.78299">
        <ele>196</ele>
        <time>2017-06-02T09:29:16Z</time>
      </trkpt>
      <trkpt lat="45.93968" lon="4.78293">
        <ele>196</ele>
        <time>2017-06-02T09:29:17Z</time>
      </trkpt>
      <trkpt lat="45.93969" lon="4.78286">
        <ele>196</ele>
        <time>2017-06-02T09:29:18Z</time>
      </trkpt>
      <trkpt lat="45.93969" lon="4.78279">
        <ele>196</ele>
        <time>2017-06-02T09:29:19Z</time>
      </trkpt>
      <trkpt lat="45.93971" lon="4.78272">
        <ele>196</ele>
        <time>2017-06-02T09:29:20Z</time>
      </trkpt>
      <trkpt lat="45.93972" lon="4.78265">
        <ele>196</ele>
        <time>2017-06-02T09:29:21Z</time>
      </trkpt>
      <trkpt lat="45.93972" lon="4.78257">
        <ele>196</ele>
        <time>2017-06-02T09:29:22Z</time>
      </trkpt>
      <trkpt lat="45.93973" lon="4.78251">
        <ele>196</ele>
        <time>2017-06-02T09:29:23Z</time>
      </trkpt>
      <trkpt lat="45.93974" lon="4.78244">
        <ele>196</ele>
        <time>2017-06-02T09:29:24Z</time>
      </trkpt>
      <trkpt lat="45.93975" lon="4.78237">
        <ele>196</ele>
        <time>2017-06-02T09:29:25Z</time>
      </trkpt>
      <trkpt lat="45.93976" lon="4.78229">
        <ele>196</ele>
        <time>2017-06-02T09:29:26Z</time>
      </trkpt>
      <trkpt lat="45.93976" lon="4.78222">
        <ele>196</ele>
        <time>2017-06-02T09:29:27Z</time>
      </trkpt>
      <trkpt lat="45.93976" lon="4.78214">
        <ele>197</ele>
        <time>2017-06-02T09:29:28Z</time>
      </trkpt>
      <trkpt lat="45.93975" lon="4.78204">
        <ele>197</ele>
        <time>2017-06-02T09:29:29Z</time>
      </trkpt>
      <trkpt lat="45.93975" lon="4.78195">
        <ele>197</ele>
        <time>2017-06-02T09:29:30Z</time>
      </trkpt>
      <trkpt lat="45.93978" lon="4.78183">
        <ele>197</ele>
        <time>2017-06-02T09:29:32Z</time>
      </trkpt>
      <trkpt lat="45.93981" lon="4.78176">
        <ele>198</ele>
        <time>2017-06-02T09:29:33Z</time>
      </trkpt>
      <trkpt lat="45.93986" lon="4.78166">
        <ele>199</ele>
        <time>2017-06-02T09:29:35Z</time>
      </trkpt>
      <trkpt lat="45.93988" lon="4.78161">
        <ele>199</ele>
        <time>2017-06-02T09:29:36Z</time>
      </trkpt>
      <trkpt lat="45.9399" lon="4.78152">
        <ele>198</ele>
        <time>2017-06-02T09:29:38Z</time>
      </trkpt>
      <trkpt lat="45.93991" lon="4.78147">
        <ele>198</ele>
        <time>2017-06-02T09:29:39Z</time>
      </trkpt>
      <trkpt lat="45.93993" lon="4.78136">
        <ele>198</ele>
        <time>2017-06-02T09:29:41Z</time>
      </trkpt>
      <trkpt lat="45.93994" lon="4.7813">
        <ele>197</ele>
        <time>2017-06-02T09:29:42Z</time>
      </trkpt>
      <trkpt lat="45.93996" lon="4.78124">
        <ele>197</ele>
        <time>2017-06-02T09:29:43Z</time>
      </trkpt>
      <trkpt lat="45.93997" lon="4.78118">
        <ele>197</ele>
        <time>2017-06-02T09:29:44Z</time>
      </trkpt>
      <trkpt lat="45.93999" lon="4.78111">
        <ele>197</ele>
        <time>2017-06-02T09:29:45Z</time>
      </trkpt>
      <trkpt lat="45.94001" lon="4.78104">
        <ele>202</ele>
        <time>2017-06-02T09:29:46Z</time>
      </trkpt>
      <trkpt lat="45.94002" lon="4.78098">
        <ele>201</ele>
        <time>2017-06-02T09:29:47Z</time>
      </trkpt>
      <trkpt lat="45.94003" lon="4.78091">
        <ele>201</ele>
        <time>2017-06-02T09:29:48Z</time>
      </trkpt>
      <trkpt lat="45.94003" lon="4.78084">
        <ele>200</ele>
        <time>2017-06-02T09:29:49Z</time>
      </trkpt>
      <trkpt lat="45.94004" lon="4.78077">
        <ele>200</ele>
        <time>2017-06-02T09:29:50Z</time>
      </trkpt>
      <trkpt lat="45.94006" lon="4.7807">
        <ele>201</ele>
        <time>2017-06-02T09:29:51Z</time>
      </trkpt>
      <trkpt lat="45.94007" lon="4.78063">
        <ele>201</ele>
        <time>2017-06-02T09:29:52Z</time>
      </trkpt>
      <trkpt lat="45.94009" lon="4.78056">
        <ele>201</ele>
        <time>2017-06-02T09:29:53Z</time>
      </trkpt>
      <trkpt lat="45.94011" lon="4.7805">
        <ele>201</ele>
        <time>2017-06-02T09:29:54Z</time>
      </trkpt>
      <trkpt lat="45.94013" lon="4.78043">
        <ele>201</ele>
        <time>2017-06-02T09:29:55Z</time>
      </trkpt>
      <trkpt lat="45.94014" lon="4.78037">
        <ele>201</ele>
        <time>2017-06-02T09:29:56Z</time>
      </trkpt>
      <trkpt lat="45.94016" lon="4.7803">
        <ele>201</ele>
        <time>2017-06-02T09:29:57Z</time>
      </trkpt>
      <trkpt lat="45.94017" lon="4.78023">
        <ele>201</ele>
        <time>2017-06-02T09:29:58Z</time>
      </trkpt>
      <trkpt lat="45.94018" lon="4.78015">
        <ele>200</ele>
        <time>2017-06-02T09:29:59Z</time>
      </trkpt>
      <trkpt lat="45.9402" lon="4.78008">
        <ele>200</ele>
        <time>2017-06-02T09:30:00Z</time>
      </trkpt>
      <trkpt lat="45.94021" lon="4.78">
        <ele>200</ele>
        <time>2017-06-02T09:30:01Z</time>
      </trkpt>
      <trkpt lat="45.94022" lon="4.77992">
        <ele>200</ele>
        <time>2017-06-02T09:30:02Z</time>
      </trkpt>
      <trkpt lat="45.94023" lon="4.77984">
        <ele>200</ele>
        <time>2017-06-02T09:30:03Z</time>
      </trkpt>
      <trkpt lat="45.94024" lon="4.77976">
        <ele>200</ele>
        <time>2017-06-02T09:30:04Z</time>
      </trkpt>
      <trkpt lat="45.94026" lon="4.77968">
        <ele>200</ele>
        <time>2017-06-02T09:30:05Z</time>
      </trkpt>
      <trkpt lat="45.94028" lon="4.7796">
        <ele>200</ele>
        <time>2017-06-02T09:30:06Z</time>
      </trkpt>
      <trkpt lat="45.94032" lon="4.77949">
        <ele>201</ele>
        <time>2017-06-02T09:30:08Z</time>
      </trkpt>
      <trkpt lat="45.94033" lon="4.77944">
        <ele>201</ele>
        <time>2017-06-02T09:30:09Z</time>
      </trkpt>
      <trkpt lat="45.94033" lon="4.77933">
        <ele>200</ele>
        <time>2017-06-02T09:30:11Z</time>
      </trkpt>
      <trkpt lat="45.94028" lon="4.77931">
        <ele>200</ele>
        <time>2017-06-02T09:30:12Z</time>
      </trkpt>
      <trkpt lat="45.94024" lon="4.77928">
        <ele>199</ele>
        <time>2017-06-02T09:30:13Z</time>
      </trkpt>
      <trkpt lat="45.94018" lon="4.77927">
        <ele>198</ele>
        <time>2017-06-02T09:30:14Z</time>
      </trkpt>
      <trkpt lat="45.94012" lon="4.77926">
        <ele>197</ele>
        <time>2017-06-02T09:30:15Z</time>
      </trkpt>
      <trkpt lat="45.94006" lon="4.77927">
        <ele>197</ele>
        <time>2017-06-02T09:30:16Z</time>
      </trkpt>
      <trkpt lat="45.93999" lon="4.77928">
        <ele>193</ele>
        <time>2017-06-02T09:30:17Z</time>
      </trkpt>
      <trkpt lat="45.93992" lon="4.7793">
        <ele>192</ele>
        <time>2017-06-02T09:30:18Z</time>
      </trkpt>
      <trkpt lat="45.93985" lon="4.77934">
        <ele>192</ele>
        <time>2017-06-02T09:30:19Z</time>
      </trkpt>
      <trkpt lat="45.93977" lon="4.7794">
        <ele>191</ele>
        <time>2017-06-02T09:30:20Z</time>
      </trkpt>
      <trkpt lat="45.93969" lon="4.77945">
        <ele>191</ele>
        <time>2017-06-02T09:30:21Z</time>
      </trkpt>
      <trkpt lat="45.93962" lon="4.7795">
        <ele>190</ele>
        <time>2017-06-02T09:30:22Z</time>
      </trkpt>
      <trkpt lat="45.93953" lon="4.77956">
        <ele>190</ele>
        <time>2017-06-02T09:30:23Z</time>
      </trkpt>
      <trkpt lat="45.93945" lon="4.77961">
        <ele>189</ele>
        <time>2017-06-02T09:30:24Z</time>
      </trkpt>
      <trkpt lat="45.93937" lon="4.77967">
        <ele>189</ele>
        <time>2017-06-02T09:30:25Z</time>
      </trkpt>
      <trkpt lat="45.93927" lon="4.77974">
        <ele>188</ele>
        <time>2017-06-02T09:30:26Z</time>
      </trkpt>
      <trkpt lat="45.93918" lon="4.7798">
        <ele>188</ele>
        <time>2017-06-02T09:30:27Z</time>
      </trkpt>
      <trkpt lat="45.9391" lon="4.77986">
        <ele>183</ele>
        <time>2017-06-02T09:30:28Z</time>
      </trkpt>
      <trkpt lat="45.93903" lon="4.77994">
        <ele>183</ele>
        <time>2017-06-02T09:30:29Z</time>
      </trkpt>
      <trkpt lat="45.93897" lon="4.78002">
        <ele>185</ele>
        <time>2017-06-02T09:30:30Z</time>
      </trkpt>
      <trkpt lat="45.93891" lon="4.78008">
        <ele>184</ele>
        <time>2017-06-02T09:30:31Z</time>
      </trkpt>
      <trkpt lat="45.93885" lon="4.78013">
        <ele>184</ele>
        <time>2017-06-02T09:30:32Z</time>
      </trkpt>
      <trkpt lat="45.93881" lon="4.78017">
        <ele>184</ele>
        <time>2017-06-02T09:30:33Z</time>
      </trkpt>
      <trkpt lat="45.93872" lon="4.78015">
        <ele>183</ele>
        <time>2017-06-02T09:30:35Z</time>
      </trkpt>
      <trkpt lat="45.93867" lon="4.7801">
        <ele>183</ele>
        <time>2017-06-02T09:30:36Z</time>
      </trkpt>
      <trkpt lat="45.93863" lon="4.78004">
        <ele>182</ele>
        <time>2017-06-02T09:30:37Z</time>
      </trkpt>
      <trkpt lat="45.93858" lon="4.77999">
        <ele>179</ele>
        <time>2017-06-02T09:30:38Z</time>
      </trkpt>
      <trkpt lat="45.93852" lon="4.77995">
        <ele>179</ele>
        <time>2017-06-02T09:30:39Z</time>
      </trkpt>
      <trkpt lat="45.93847" lon="4.77992">
        <ele>179</ele>
        <time>2017-06-02T09:30:40Z</time>
      </trkpt>
      <trkpt lat="45.93843" lon="4.77988">
        <ele>179</ele>
        <time>2017-06-02T09:30:41Z</time>
      </trkpt>
      <trkpt lat="45.93839" lon="4.77982">
        <ele>178</ele>
        <time>2017-06-02T09:30:42Z</time>
      </trkpt>
      <trkpt lat="45.93836" lon="4.77976">
        <ele>178</ele>
        <time>2017-06-02T09:30:43Z</time>
      </trkpt>
      <trkpt lat="45.93833" lon="4.77971">
        <ele>172</ele>
        <time>2017-06-02T09:30:44Z</time>
      </trkpt>
      <trkpt lat="45.93826" lon="4.77962">
        <ele>171</ele>
        <time>2017-06-02T09:30:46Z</time>
      </trkpt>
      <trkpt lat="45.93823" lon="4.77958">
        <ele>170</ele>
        <time>2017-06-02T09:30:47Z</time>
      </trkpt>
      <trkpt lat="45.93819" lon="4.77953">
        <ele>170</ele>
        <time>2017-06-02T09:30:48Z</time>
      </trkpt>
      <trkpt lat="45.93815" lon="4.77948">
        <ele>169</ele>
        <time>2017-06-02T09:30:49Z</time>
      </trkpt>
      <trkpt lat="45.93812" lon="4.77943">
        <ele>169</ele>
        <time>2017-06-02T09:30:50Z</time>
      </trkpt>
      <trkpt lat="45.93808" lon="4.77937">
        <ele>169</ele>
        <time>2017-06-02T09:30:51Z</time>
      </trkpt>
      <trkpt lat="45.93804" lon="4.77932">
        <ele>168</ele>
        <time>2017-06-02T09:30:52Z</time>
      </trkpt>
      <trkpt lat="45.938" lon="4.77927">
        <ele>168</ele>
        <time>2017-06-02T09:30:53Z</time>
      </trkpt>
      <trkpt lat="45.93796" lon="4.77921">
        <ele>168</ele>
        <time>2017-06-02T09:30:54Z</time>
      </trkpt>
      <trkpt lat="45.93792" lon="4.77916">
        <ele>166</ele>
        <time>2017-06-02T09:30:55Z</time>
      </trkpt>
      <trkpt lat="45.93788" lon="4.7791">
        <ele>166</ele>
        <time>2017-06-02T09:30:56Z</time>
      </trkpt>
      <trkpt lat="45.93783" lon="4.77905">
        <ele>166</ele>
        <time>2017-06-02T09:30:57Z</time>
      </trkpt>
      <trkpt lat="45.93779" lon="4.77899">
        <ele>166</ele>
        <time>2017-06-02T09:30:58Z</time>
      </trkpt>
      <trkpt lat="45.93775" lon="4.77893">
        <ele>166</ele>
        <time>2017-06-02T09:30:59Z</time>
      </trkpt>
      <trkpt lat="45.9377" lon="4.77887">
        <ele>166</ele>
        <time>2017-06-02T09:31:00Z</time>
      </trkpt>
      <trkpt lat="45.93766" lon="4.77882">
        <ele>166</ele>
        <time>2017-06-02T09:31:01Z</time>
      </trkpt>
      <trkpt lat="45.93762" lon="4.77877">
        <ele>166</ele>
        <time>2017-06-02T09:31:02Z</time>
      </trkpt>
      <trkpt lat="45.93758" lon="4.77871">
        <ele>166</ele>
        <time>2017-06-02T09:31:03Z</time>
      </trkpt>
      <trkpt lat="45.93754" lon="4.77865">
        <ele>166</ele>
        <time>2017-06-02T09:31:04Z</time>
      </trkpt>
      <trkpt lat="45.9375" lon="4.7786">
        <ele>166</ele>
        <time>2017-06-02T09:31:05Z</time>
      </trkpt>
      <trkpt lat="45.93747" lon="4.77855">
        <ele>167</ele>
        <time>2017-06-02T09:31:06Z</time>
      </trkpt>
      <trkpt lat="45.93744" lon="4.7785">
        <ele>167</ele>
        <time>2017-06-02T09:31:07Z</time>
      </trkpt>
      <trkpt lat="45.9374" lon="4.77845">
        <ele>167</ele>
        <time>2017-06-02T09:31:08Z</time>
      </trkpt>
      <trkpt lat="45.93736" lon="4.77841">
        <ele>167</ele>
        <time>2017-06-02T09:31:09Z</time>
      </trkpt>
      <trkpt lat="45.93733" lon="4.77836">
        <ele>167</ele>
        <time>2017-06-02T09:31:10Z</time>
      </trkpt>
      <trkpt lat="45.93729" lon="4.77831">
        <ele>168</ele>
        <time>2017-06-02T09:31:11Z</time>
      </trkpt>
      <trkpt lat="45.93725" lon="4.77827">
        <ele>168</ele>
        <time>2017-06-02T09:31:12Z</time>
      </trkpt>
      <trkpt lat="45.93722" lon="4.77822">
        <ele>168</ele>
        <time>2017-06-02T09:31:13Z</time>
      </trkpt>
      <trkpt lat="45.93718" lon="4.77817">
        <ele>169</ele>
        <time>2017-06-02T09:31:14Z</time>
      </trkpt>
      <trkpt lat="45.93714" lon="4.77811">
        <ele>169</ele>
        <time>2017-06-02T09:31:15Z</time>
      </trkpt>
      <trkpt lat="45.9371" lon="4.77806">
        <ele>169</ele>
        <time>2017-06-02T09:31:16Z</time>
      </trkpt>
      <trkpt lat="45.93706" lon="4.778">
        <ele>169</ele>
        <time>2017-06-02T09:31:17Z</time>
      </trkpt>
      <trkpt lat="45.93701" lon="4.77795">
        <ele>169</ele>
        <time>2017-06-02T09:31:18Z</time>
      </trkpt>
      <trkpt lat="45.93697" lon="4.7779">
        <ele>169</ele>
        <time>2017-06-02T09:31:19Z</time>
      </trkpt>
      <trkpt lat="45.93692" lon="4.77784">
        <ele>170</ele>
        <time>2017-06-02T09:31:20Z</time>
      </trkpt>
      <trkpt lat="45.93688" lon="4.77778">
        <ele>170</ele>
        <time>2017-06-02T09:31:21Z</time>
      </trkpt>
      <trkpt lat="45.93684" lon="4.77771">
        <ele>170</ele>
        <time>2017-06-02T09:31:22Z</time>
      </trkpt>
      <trkpt lat="45.93679" lon="4.77765">
        <ele>170</ele>
        <time>2017-06-02T09:31:23Z</time>
      </trkpt>
      <trkpt lat="45.93675" lon="4.77758">
        <ele>170</ele>
        <time>2017-06-02T09:31:24Z</time>
      </trkpt>
      <trkpt lat="45.9367" lon="4.77751">
        <ele>171</ele>
        <time>2017-06-02T09:31:25Z</time>
      </trkpt>
      <trkpt lat="45.93666" lon="4.77744">
        <ele>171</ele>
        <time>2017-06-02T09:31:26Z</time>
      </trkpt>
      <trkpt lat="45.93661" lon="4.77736">
        <ele>170</ele>
        <time>2017-06-02T09:31:27Z</time>
      </trkpt>
      <trkpt lat="45.93656" lon="4.77729">
        <ele>170</ele>
        <time>2017-06-02T09:31:28Z</time>
      </trkpt>
      <trkpt lat="45.93651" lon="4.7772">
        <ele>170</ele>
        <time>2017-06-02T09:31:29Z</time>
      </trkpt>
      <trkpt lat="45.93646" lon="4.77712">
        <ele>170</ele>
        <time>2017-06-02T09:31:30Z</time>
      </trkpt>
      <trkpt lat="45.93641" lon="4.77703">
        <ele>170</ele>
        <time>2017-06-02T09:31:31Z</time>
      </trkpt>
      <trkpt lat="45.93636" lon="4.77694">
        <ele>169</ele>
        <time>2017-06-02T09:31:32Z</time>
      </trkpt>
      <trkpt lat="45.93631" lon="4.77684">
        <ele>169</ele>
        <time>2017-06-02T09:31:33Z</time>
      </trkpt>
      <trkpt lat="45.93627" lon="4.77675">
        <ele>169</ele>
        <time>2017-06-02T09:31:34Z</time>
      </trkpt>
      <trkpt lat="45.93623" lon="4.77665">
        <ele>169</ele>
        <time>2017-06-02T09:31:35Z</time>
      </trkpt>
      <trkpt lat="45.93618" lon="4.77655">
        <ele>169</ele>
        <time>2017-06-02T09:31:36Z</time>
      </trkpt>
      <trkpt lat="45.93614" lon="4.77646">
        <ele>169</ele>
        <time>2017-06-02T09:31:37Z</time>
      </trkpt>
      <trkpt lat="45.93611" lon="4.77637">
        <ele>169</ele>
        <time>2017-06-02T09:31:38Z</time>
      </trkpt>
      <trkpt lat="45.93607" lon="4.77628">
        <ele>169</ele>
        <time>2017-06-02T09:31:39Z</time>
      </trkpt>
      <trkpt lat="45.93604" lon="4.77619">
        <ele>170</ele>
        <time>2017-06-02T09:31:40Z</time>
      </trkpt>
      <trkpt lat="45.936" lon="4.7761">
        <ele>170</ele>
        <time>2017-06-02T09:31:41Z</time>
      </trkpt>
      <trkpt lat="45.93597" lon="4.77602">
        <ele>170</ele>
        <time>2017-06-02T09:31:42Z</time>
      </trkpt>
      <trkpt lat="45.93594" lon="4.77593">
        <ele>170</ele>
        <time>2017-06-02T09:31:43Z</time>
      </trkpt>
      <trkpt lat="45.93592" lon="4.77585">
        <ele>170</ele>
        <time>2017-06-02T09:31:44Z</time>
      </trkpt>
      <trkpt lat="45.9359" lon="4.77577">
        <ele>170</ele>
        <time>2017-06-02T09:31:45Z</time>
      </trkpt>
      <trkpt lat="45.93587" lon="4.77568">
        <ele>170</ele>
        <time>2017-06-02T09:31:46Z</time>
      </trkpt>
      <trkpt lat="45.93585" lon="4.7756">
        <ele>170</ele>
        <time>2017-06-02T09:31:47Z</time>
      </trkpt>
      <trkpt lat="45.93583" lon="4.77552">
        <ele>169</ele>
        <time>2017-06-02T09:31:48Z</time>
      </trkpt>
      <trkpt lat="45.93581" lon="4.77545">
        <ele>169</ele>
        <time>2017-06-02T09:31:49Z</time>
      </trkpt>
      <trkpt lat="45.93579" lon="4.77537">
        <ele>169</ele>
        <time>2017-06-02T09:31:50Z</time>
      </trkpt>
      <trkpt lat="45.93578" lon="4.7753">
        <ele>169</ele>
        <time>2017-06-02T09:31:51Z</time>
      </trkpt>
      <trkpt lat="45.93576" lon="4.77522">
        <ele>169</ele>
        <time>2017-06-02T09:31:52Z</time>
      </trkpt>
      <trkpt lat="45.93574" lon="4.77516">
        <ele>169</ele>
        <time>2017-06-02T09:31:53Z</time>
      </trkpt>
      <trkpt lat="45.93572" lon="4.77509">
        <ele>169</ele>
        <time>2017-06-02T09:31:54Z</time>
      </trkpt>
      <trkpt lat="45.93571" lon="4.77502">
        <ele>169</ele>
        <time>2017-06-02T09:31:55Z</time>
      </trkpt>
      <trkpt lat="45.93569" lon="4.77495">
        <ele>169</ele>
        <time>2017-06-02T09:31:56Z</time>
      </trkpt>
      <trkpt lat="45.93568" lon="4.77488">
        <ele>169</ele>
        <time>2017-06-02T09:31:57Z</time>
      </trkpt>
      <trkpt lat="45.93567" lon="4.77482">
        <ele>169</ele>
        <time>2017-06-02T09:31:58Z</time>
      </trkpt>
      <trkpt lat="45.93565" lon="4.77475">
        <ele>169</ele>
        <time>2017-06-02T09:31:59Z</time>
      </trkpt>
      <trkpt lat="45.93564" lon="4.77468">
        <ele>169</ele>
        <time>2017-06-02T09:32:00Z</time>
      </trkpt>
      <trkpt lat="45.93562" lon="4.77461">
        <ele>169</ele>
        <time>2017-06-02T09:32:01Z</time>
      </trkpt>
      <trkpt lat="45.9356" lon="4.77454">
        <ele>169</ele>
        <time>2017-06-02T09:32:02Z</time>
      </trkpt>
      <trkpt lat="45.93558" lon="4.77447">
        <ele>169</ele>
        <time>2017-06-02T09:32:03Z</time>
      </trkpt>
      <trkpt lat="45.93556" lon="4.7744">
        <ele>169</ele>
        <time>2017-06-02T09:32:04Z</time>
      </trkpt>
      <trkpt lat="45.93555" lon="4.77433">
        <ele>169</ele>
        <time>2017-06-02T09:32:05Z</time>
      </trkpt>
      <trkpt lat="45.93553" lon="4.77426">
        <ele>170</ele>
        <time>2017-06-02T09:32:06Z</time>
      </trkpt>
      <trkpt lat="45.93552" lon="4.7742">
        <ele>170</ele>
        <time>2017-06-02T09:32:07Z</time>
      </trkpt>
      <trkpt lat="45.9355" lon="4.77413">
        <ele>170</ele>
        <time>2017-06-02T09:32:08Z</time>
      </trkpt>
      <trkpt lat="45.93548" lon="4.77407">
        <ele>170</ele>
        <time>2017-06-02T09:32:09Z</time>
      </trkpt>
      <trkpt lat="45.93547" lon="4.77401">
        <ele>170</ele>
        <time>2017-06-02T09:32:10Z</time>
      </trkpt>
      <trkpt lat="45.93546" lon="4.77394">
        <ele>170</ele>
        <time>2017-06-02T09:32:11Z</time>
      </trkpt>
      <trkpt lat="45.93545" lon="4.77388">
        <ele>170</ele>
        <time>2017-06-02T09:32:12Z</time>
      </trkpt>
      <trkpt lat="45.93543" lon="4.7738">
        <ele>170</ele>
        <time>2017-06-02T09:32:13Z</time>
      </trkpt>
      <trkpt lat="45.93541" lon="4.77373">
        <ele>170</ele>
        <time>2017-06-02T09:32:14Z</time>
      </trkpt>
      <trkpt lat="45.93539" lon="4.77365">
        <ele>170</ele>
        <time>2017-06-02T09:32:15Z</time>
      </trkpt>
      <trkpt lat="45.93538" lon="4.77357">
        <ele>170</ele>
        <time>2017-06-02T09:32:16Z</time>
      </trkpt>
      <trkpt lat="45.93535" lon="4.77348">
        <ele>170</ele>
        <time>2017-06-02T09:32:17Z</time>
      </trkpt>
      <trkpt lat="45.93533" lon="4.77339">
        <ele>170</ele>
        <time>2017-06-02T09:32:18Z</time>
      </trkpt>
      <trkpt lat="45.93531" lon="4.77331">
        <ele>170</ele>
        <time>2017-06-02T09:32:19Z</time>
      </trkpt>
      <trkpt lat="45.93529" lon="4.77323">
        <ele>170</ele>
        <time>2017-06-02T09:32:20Z</time>
      </trkpt>
      <trkpt lat="45.93528" lon="4.77315">
        <ele>170</ele>
        <time>2017-06-02T09:32:21Z</time>
      </trkpt>
      <trkpt lat="45.93526" lon="4.77307">
        <ele>170</ele>
        <time>2017-06-02T09:32:22Z</time>
      </trkpt>
      <trkpt lat="45.93525" lon="4.77299">
        <ele>170</ele>
        <time>2017-06-02T09:32:23Z</time>
      </trkpt>
      <trkpt lat="45.93523" lon="4.77291">
        <ele>170</ele>
        <time>2017-06-02T09:32:24Z</time>
      </trkpt>
      <trkpt lat="45.93522" lon="4.77284">
        <ele>170</ele>
        <time>2017-06-02T09:32:25Z</time>
      </trkpt>
      <trkpt lat="45.93521" lon="4.77278">
        <ele>170</ele>
        <time>2017-06-02T09:32:26Z</time>
      </trkpt>
      <trkpt lat="45.93519" lon="4.77271">
        <ele>170</ele>
        <time>2017-06-02T09:32:27Z</time>
      </trkpt>
      <trkpt lat="45.93517" lon="4.77264">
        <ele>170</ele>
        <time>2017-06-02T09:32:28Z</time>
      </trkpt>
      <trkpt lat="45.93516" lon="4.77257">
        <ele>170</ele>
        <time>2017-06-02T09:32:29Z</time>
      </trkpt>
      <trkpt lat="45.93514" lon="4.7725">
        <ele>170</ele>
        <time>2017-06-02T09:32:30Z</time>
      </trkpt>
      <trkpt lat="45.93513" lon="4.77243">
        <ele>169</ele>
        <time>2017-06-02T09:32:31Z</time>
      </trkpt>
      <trkpt lat="45.93511" lon="4.77236">
        <ele>169</ele>
        <time>2017-06-02T09:32:32Z</time>
      </trkpt>
      <trkpt lat="45.9351" lon="4.77228">
        <ele>169</ele>
        <time>2017-06-02T09:32:33Z</time>
      </trkpt>
      <trkpt lat="45.93508" lon="4.7722">
        <ele>169</ele>
        <time>2017-06-02T09:32:34Z</time>
      </trkpt>
      <trkpt lat="45.93507" lon="4.77212">
        <ele>169</ele>
        <time>2017-06-02T09:32:35Z</time>
      </trkpt>
      <trkpt lat="45.93505" lon="4.77204">
        <ele>169</ele>
        <time>2017-06-02T09:32:36Z</time>
      </trkpt>
      <trkpt lat="45.93504" lon="4.77194">
        <ele>169</ele>
        <time>2017-06-02T09:32:37Z</time>
      </trkpt>
      <trkpt lat="45.93502" lon="4.77186">
        <ele>169</ele>
        <time>2017-06-02T09:32:38Z</time>
      </trkpt>
      <trkpt lat="45.935" lon="4.77177">
        <ele>169</ele>
        <time>2017-06-02T09:32:39Z</time>
      </trkpt>
      <trkpt lat="45.93498" lon="4.77169">
        <ele>169</ele>
        <time>2017-06-02T09:32:40Z</time>
      </trkpt>
      <trkpt lat="45.93497" lon="4.77161">
        <ele>169</ele>
        <time>2017-06-02T09:32:41Z</time>
      </trkpt>
      <trkpt lat="45.93495" lon="4.77153">
        <ele>169</ele>
        <time>2017-06-02T09:32:42Z</time>
      </trkpt>
      <trkpt lat="45.93493" lon="4.77146">
        <ele>169</ele>
        <time>2017-06-02T09:32:43Z</time>
      </trkpt>
      <trkpt lat="45.93491" lon="4.77139">
        <ele>169</ele>
        <time>2017-06-02T09:32:44Z</time>
      </trkpt>
      <trkpt lat="45.9349" lon="4.77132">
        <ele>169</ele>
        <time>2017-06-02T09:32:45Z</time>
      </trkpt>
      <trkpt lat="45.93489" lon="4.77124">
        <ele>169</ele>
        <time>2017-06-02T09:32:46Z</time>
      </trkpt>
      <trkpt lat="45.93488" lon="4.77118">
        <ele>169</ele>
        <time>2017-06-02T09:32:47Z</time>
      </trkpt>
      <trkpt lat="45.93487" lon="4.7711">
        <ele>169</ele>
        <time>2017-06-02T09:32:48Z</time>
      </trkpt>
      <trkpt lat="45.93486" lon="4.77103">
        <ele>169</ele>
        <time>2017-06-02T09:32:49Z</time>
      </trkpt>
      <trkpt lat="45.93484" lon="4.77095">
        <ele>169</ele>
        <time>2017-06-02T09:32:50Z</time>
      </trkpt>
      <trkpt lat="45.93483" lon="4.77087">
        <ele>169</ele>
        <time>2017-06-02T09:32:51Z</time>
      </trkpt>
      <trkpt lat="45.93481" lon="4.77079">
        <ele>170</ele>
        <time>2017-06-02T09:32:52Z</time>
      </trkpt>
      <trkpt lat="45.9348" lon="4.77071">
        <ele>170</ele>
        <time>2017-06-02T09:32:53Z</time>
      </trkpt>
      <trkpt lat="45.93478" lon="4.77064">
        <ele>170</ele>
        <time>2017-06-02T09:32:54Z</time>
      </trkpt>
      <trkpt lat="45.93477" lon="4.77057">
        <ele>170</ele>
        <time>2017-06-02T09:32:55Z</time>
      </trkpt>
      <trkpt lat="45.93476" lon="4.77049">
        <ele>170</ele>
        <time>2017-06-02T09:32:56Z</time>
      </trkpt>
      <trkpt lat="45.93475" lon="4.77042">
        <ele>170</ele>
        <time>2017-06-02T09:32:57Z</time>
      </trkpt>
      <trkpt lat="45.93474" lon="4.77035">
        <ele>170</ele>
        <time>2017-06-02T09:32:58Z</time>
      </trkpt>
      <trkpt lat="45.93473" lon="4.77028">
        <ele>170</ele>
        <time>2017-06-02T09:32:59Z</time>
      </trkpt>
      <trkpt lat="45.93471" lon="4.77021">
        <ele>170</ele>
        <time>2017-06-02T09:33:00Z</time>
      </trkpt>
      <trkpt lat="45.9347" lon="4.77014">
        <ele>170</ele>
        <time>2017-06-02T09:33:01Z</time>
      </trkpt>
      <trkpt lat="45.93469" lon="4.77007">
        <ele>170</ele>
        <time>2017-06-02T09:33:02Z</time>
      </trkpt>
      <trkpt lat="45.93468" lon="4.77001">
        <ele>170</ele>
        <time>2017-06-02T09:33:03Z</time>
      </trkpt>
      <trkpt lat="45.93467" lon="4.76993">
        <ele>170</ele>
        <time>2017-06-02T09:33:04Z</time>
      </trkpt>
      <trkpt lat="45.93466" lon="4.76986">
        <ele>170</ele>
        <time>2017-06-02T09:33:05Z</time>
      </trkpt>
      <trkpt lat="45.93465" lon="4.76977">
        <ele>170</ele>
        <time>2017-06-02T09:33:06Z</time>
      </trkpt>
      <trkpt lat="45.93463" lon="4.76969">
        <ele>170</ele>
        <time>2017-06-02T09:33:07Z</time>
      </trkpt>
      <trkpt lat="45.93461" lon="4.76959">
        <ele>170</ele>
        <time>2017-06-02T09:33:08Z</time>
      </trkpt>
      <trkpt lat="45.93459" lon="4.7695">
        <ele>170</ele>
        <time>2017-06-02T09:33:09Z</time>
      </trkpt>
      <trkpt lat="45.93458" lon="4.7694">
        <ele>170</ele>
        <time>2017-06-02T09:33:10Z</time>
      </trkpt>
      <trkpt lat="45.93456" lon="4.7693">
        <ele>170</ele>
        <time>2017-06-02T09:33:11Z</time>
      </trkpt>
      <trkpt lat="45.93454" lon="4.76921">
        <ele>170</ele>
        <time>2017-06-02T09:33:12Z</time>
      </trkpt>
      <trkpt lat="45.93453" lon="4.76912">
        <ele>170</ele>
        <time>2017-06-02T09:33:13Z</time>
      </trkpt>
      <trkpt lat="45.9345" lon="4.76903">
        <ele>170</ele>
        <time>2017-06-02T09:33:14Z</time>
      </trkpt>
      <trkpt lat="45.93448" lon="4.76895">
        <ele>170</ele>
        <time>2017-06-02T09:33:15Z</time>
      </trkpt>
      <trkpt lat="45.93445" lon="4.76887">
        <ele>170</ele>
        <time>2017-06-02T09:33:16Z</time>
      </trkpt>
      <trkpt lat="45.93443" lon="4.76879">
        <ele>170</ele>
        <time>2017-06-02T09:33:17Z</time>
      </trkpt>
      <trkpt lat="45.9344" lon="4.76871">
        <ele>171</ele>
        <time>2017-06-02T09:33:18Z</time>
      </trkpt>
      <trkpt lat="45.93437" lon="4.76864">
        <ele>171</ele>
        <time>2017-06-02T09:33:19Z</time>
      </trkpt>
      <trkpt lat="45.93434" lon="4.76856">
        <ele>171</ele>
        <time>2017-06-02T09:33:20Z</time>
      </trkpt>
      <trkpt lat="45.93431" lon="4.7685">
        <ele>171</ele>
        <time>2017-06-02T09:33:21Z</time>
      </trkpt>
      <trkpt lat="45.93428" lon="4.76843">
        <ele>171</ele>
        <time>2017-06-02T09:33:22Z</time>
      </trkpt>
      <trkpt lat="45.93425" lon="4.76837">
        <ele>171</ele>
        <time>2017-06-02T09:33:23Z</time>
      </trkpt>
      <trkpt lat="45.93422" lon="4.76831">
        <ele>172</ele>
        <time>2017-06-02T09:33:24Z</time>
      </trkpt>
      <trkpt lat="45.93419" lon="4.76825">
        <ele>172</ele>
        <time>2017-06-02T09:33:25Z</time>
      </trkpt>
      <trkpt lat="45.93416" lon="4.76819">
        <ele>172</ele>
        <time>2017-06-02T09:33:26Z</time>
      </trkpt>
      <trkpt lat="45.93412" lon="4.76813">
        <ele>172</ele>
        <time>2017-06-02T09:33:27Z</time>
      </trkpt>
      <trkpt lat="45.93408" lon="4.76808">
        <ele>172</ele>
        <time>2017-06-02T09:33:28Z</time>
      </trkpt>
      <trkpt lat="45.93404" lon="4.76802">
        <ele>172</ele>
        <time>2017-06-02T09:33:29Z</time>
      </trkpt>
      <trkpt lat="45.93399" lon="4.76797">
        <ele>172</ele>
        <time>2017-06-02T09:33:30Z</time>
      </trkpt>
      <trkpt lat="45.93394" lon="4.76792">
        <ele>172</ele>
        <time>2017-06-02T09:33:31Z</time>
      </trkpt>
      <trkpt lat="45.93389" lon="4.76786">
        <ele>172</ele>
        <time>2017-06-02T09:33:32Z</time>
      </trkpt>
      <trkpt lat="45.93385" lon="4.76781">
        <ele>172</ele>
        <time>2017-06-02T09:33:33Z</time>
      </trkpt>
      <trkpt lat="45.93379" lon="4.76775">
        <ele>172</ele>
        <time>2017-06-02T09:33:34Z</time>
      </trkpt>
      <trkpt lat="45.93374" lon="4.7677">
        <ele>172</ele>
        <time>2017-06-02T09:33:35Z</time>
      </trkpt>
      <trkpt lat="45.93368" lon="4.76765">
        <ele>172</ele>
        <time>2017-06-02T09:33:36Z</time>
      </trkpt>
      <trkpt lat="45.93363" lon="4.7676">
        <ele>172</ele>
        <time>2017-06-02T09:33:37Z</time>
      </trkpt>
      <trkpt lat="45.93358" lon="4.76755">
        <ele>172</ele>
        <time>2017-06-02T09:33:38Z</time>
      </trkpt>
      <trkpt lat="45.93353" lon="4.7675">
        <ele>172</ele>
        <time>2017-06-02T09:33:39Z</time>
      </trkpt>
      <trkpt lat="45.93348" lon="4.76746">
        <ele>172</ele>
        <time>2017-06-02T09:33:40Z</time>
      </trkpt>
      <trkpt lat="45.93343" lon="4.76741">
        <ele>172</ele>
        <time>2017-06-02T09:33:41Z</time>
      </trkpt>
      <trkpt lat="45.93338" lon="4.76736">
        <ele>172</ele>
        <time>2017-06-02T09:33:42Z</time>
      </trkpt>
      <trkpt lat="45.93333" lon="4.76731">
        <ele>172</ele>
        <time>2017-06-02T09:33:43Z</time>
      </trkpt>
      <trkpt lat="45.93328" lon="4.76726">
        <ele>172</ele>
        <time>2017-06-02T09:33:44Z</time>
      </trkpt>
      <trkpt lat="45.93323" lon="4.76721">
        <ele>172</ele>
        <time>2017-06-02T09:33:45Z</time>
      </trkpt>
      <trkpt lat="45.93318" lon="4.76716">
        <ele>172</ele>
        <time>2017-06-02T09:33:46Z</time>
      </trkpt>
      <trkpt lat="45.93313" lon="4.76711">
        <ele>172</ele>
        <time>2017-06-02T09:33:47Z</time>
      </trkpt>
      <trkpt lat="45.93307" lon="4.76706">
        <ele>172</ele>
        <time>2017-06-02T09:33:48Z</time>
      </trkpt>
      <trkpt lat="45.93302" lon="4.76701">
        <ele>172</ele>
        <time>2017-06-02T09:33:49Z</time>
      </trkpt>
      <trkpt lat="45.93297" lon="4.76696">
        <ele>172</ele>
        <time>2017-06-02T09:33:50Z</time>
      </trkpt>
      <trkpt lat="45.93291" lon="4.76691">
        <ele>172</ele>
        <time>2017-06-02T09:33:51Z</time>
      </trkpt>
      <trkpt lat="45.93286" lon="4.76686">
        <ele>172</ele>
        <time>2017-06-02T09:33:52Z</time>
      </trkpt>
      <trkpt lat="45.9328" lon="4.7668">
        <ele>172</ele>
        <time>2017-06-02T09:33:53Z</time>
      </trkpt>
      <trkpt lat="45.93275" lon="4.76675">
        <ele>172</ele>
        <time>2017-06-02T09:33:54Z</time>
      </trkpt>
      <trkpt lat="45.93269" lon="4.7667">
        <ele>172</ele>
        <time>2017-06-02T09:33:55Z</time>
      </trkpt>
      <trkpt lat="45.93263" lon="4.76665">
        <ele>171</ele>
        <time>2017-06-02T09:33:56Z</time>
      </trkpt>
      <trkpt lat="45.93257" lon="4.7666">
        <ele>171</ele>
        <time>2017-06-02T09:33:57Z</time>
      </trkpt>
      <trkpt lat="45.93252" lon="4.76655">
        <ele>171</ele>
        <time>2017-06-02T09:33:58Z</time>
      </trkpt>
      <trkpt lat="45.93247" lon="4.7665">
        <ele>171</ele>
        <time>2017-06-02T09:33:59Z</time>
      </trkpt>
      <trkpt lat="45.93242" lon="4.76646">
        <ele>171</ele>
        <time>2017-06-02T09:34:00Z</time>
      </trkpt>
      <trkpt lat="45.93238" lon="4.76642">
        <ele>171</ele>
        <time>2017-06-02T09:34:01Z</time>
      </trkpt>
      <trkpt lat="45.93233" lon="4.76638">
        <ele>171</ele>
        <time>2017-06-02T09:34:02Z</time>
      </trkpt>
      <trkpt lat="45.93228" lon="4.76633">
        <ele>171</ele>
        <time>2017-06-02T09:34:03Z</time>
      </trkpt>
      <trkpt lat="45.93224" lon="4.76628">
        <ele>170</ele>
        <time>2017-06-02T09:34:04Z</time>
      </trkpt>
      <trkpt lat="45.93219" lon="4.76623">
        <ele>170</ele>
        <time>2017-06-02T09:34:05Z</time>
      </trkpt>
      <trkpt lat="45.93215" lon="4.76619">
        <ele>170</ele>
        <time>2017-06-02T09:34:06Z</time>
      </trkpt>
      <trkpt lat="45.93211" lon="4.76614">
        <ele>170</ele>
        <time>2017-06-02T09:34:07Z</time>
      </trkpt>
      <trkpt lat="45.93207" lon="4.76609">
        <ele>170</ele>
        <time>2017-06-02T09:34:08Z</time>
      </trkpt>
      <trkpt lat="45.93203" lon="4.76605">
        <ele>170</ele>
        <time>2017-06-02T09:34:09Z</time>
      </trkpt>
      <trkpt lat="45.93198" lon="4.76601">
        <ele>170</ele>
        <time>2017-06-02T09:34:10Z</time>
      </trkpt>
      <trkpt lat="45.93194" lon="4.76596">
        <ele>170</ele>
        <time>2017-06-02T09:34:11Z</time>
      </trkpt>
      <trkpt lat="45.93189" lon="4.76591">
        <ele>170</ele>
        <time>2017-06-02T09:34:12Z</time>
      </trkpt>
      <trkpt lat="45.93185" lon="4.76588">
        <ele>171</ele>
        <time>2017-06-02T09:34:13Z</time>
      </trkpt>
      <trkpt lat="45.93181" lon="4.76583">
        <ele>170</ele>
        <time>2017-06-02T09:34:14Z</time>
      </trkpt>
      <trkpt lat="45.93177" lon="4.76579">
        <ele>170</ele>
        <time>2017-06-02T09:34:15Z</time>
      </trkpt>
      <trkpt lat="45.93173" lon="4.76575">
        <ele>170</ele>
        <time>2017-06-02T09:34:16Z</time>
      </trkpt>
      <trkpt lat="45.93168" lon="4.7657">
        <ele>170</ele>
        <time>2017-06-02T09:34:17Z</time>
      </trkpt>
      <trkpt lat="45.93164" lon="4.76565">
        <ele>170</ele>
        <time>2017-06-02T09:34:18Z</time>
      </trkpt>
      <trkpt lat="45.93159" lon="4.7656">
        <ele>170</ele>
        <time>2017-06-02T09:34:19Z</time>
      </trkpt>
      <trkpt lat="45.93154" lon="4.76555">
        <ele>170</ele>
        <time>2017-06-02T09:34:20Z</time>
      </trkpt>
      <trkpt lat="45.93149" lon="4.76549">
        <ele>170</ele>
        <time>2017-06-02T09:34:21Z</time>
      </trkpt>
      <trkpt lat="45.93143" lon="4.76544">
        <ele>170</ele>
        <time>2017-06-02T09:34:22Z</time>
      </trkpt>
      <trkpt lat="45.93138" lon="4.76538">
        <ele>170</ele>
        <time>2017-06-02T09:34:23Z</time>
      </trkpt>
      <trkpt lat="45.93133" lon="4.76534">
        <ele>170</ele>
        <time>2017-06-02T09:34:24Z</time>
      </trkpt>
      <trkpt lat="45.93128" lon="4.76529">
        <ele>170</ele>
        <time>2017-06-02T09:34:25Z</time>
      </trkpt>
      <trkpt lat="45.93123" lon="4.76524">
        <ele>170</ele>
        <time>2017-06-02T09:34:26Z</time>
      </trkpt>
      <trkpt lat="45.93118" lon="4.76519">
        <ele>170</ele>
        <time>2017-06-02T09:34:27Z</time>
      </trkpt>
      <trkpt lat="45.93114" lon="4.76515">
        <ele>170</ele>
        <time>2017-06-02T09:34:28Z</time>
      </trkpt>
      <trkpt lat="45.93109" lon="4.76511">
        <ele>170</ele>
        <time>2017-06-02T09:34:29Z</time>
      </trkpt>
      <trkpt lat="45.93105" lon="4.76506">
        <ele>170</ele>
        <time>2017-06-02T09:34:30Z</time>
      </trkpt>
      <trkpt lat="45.93101" lon="4.76501">
        <ele>170</ele>
        <time>2017-06-02T09:34:31Z</time>
      </trkpt>
      <trkpt lat="45.93097" lon="4.76496">
        <ele>170</ele>
        <time>2017-06-02T09:34:32Z</time>
      </trkpt>
      <trkpt lat="45.93092" lon="4.76491">
        <ele>170</ele>
        <time>2017-06-02T09:34:33Z</time>
      </trkpt>
      <trkpt lat="45.93087" lon="4.76486">
        <ele>170</ele>
        <time>2017-06-02T09:34:34Z</time>
      </trkpt>
      <trkpt lat="45.93083" lon="4.76481">
        <ele>169</ele>
        <time>2017-06-02T09:34:35Z</time>
      </trkpt>
      <trkpt lat="45.93078" lon="4.76477">
        <ele>169</ele>
        <time>2017-06-02T09:34:36Z</time>
      </trkpt>
      <trkpt lat="45.93073" lon="4.76472">
        <ele>169</ele>
        <time>2017-06-02T09:34:37Z</time>
      </trkpt>
      <trkpt lat="45.93068" lon="4.76467">
        <ele>169</ele>
        <time>2017-06-02T09:34:38Z</time>
      </trkpt>
      <trkpt lat="45.93062" lon="4.76462">
        <ele>169</ele>
        <time>2017-06-02T09:34:39Z</time>
      </trkpt>
      <trkpt lat="45.93056" lon="4.76457">
        <ele>169</ele>
        <time>2017-06-02T09:34:40Z</time>
      </trkpt>
      <trkpt lat="45.9305" lon="4.76451">
        <ele>169</ele>
        <time>2017-06-02T09:34:41Z</time>
      </trkpt>
      <trkpt lat="45.93045" lon="4.76446">
        <ele>169</ele>
        <time>2017-06-02T09:34:42Z</time>
      </trkpt>
      <trkpt lat="45.9304" lon="4.76441">
        <ele>169</ele>
        <time>2017-06-02T09:34:43Z</time>
      </trkpt>
      <trkpt lat="45.93035" lon="4.76436">
        <ele>169</ele>
        <time>2017-06-02T09:34:44Z</time>
      </trkpt>
      <trkpt lat="45.93031" lon="4.76432">
        <ele>169</ele>
        <time>2017-06-02T09:34:45Z</time>
      </trkpt>
      <trkpt lat="45.93026" lon="4.76428">
        <ele>169</ele>
        <time>2017-06-02T09:34:46Z</time>
      </trkpt>
      <trkpt lat="45.93022" lon="4.76424">
        <ele>169</ele>
        <time>2017-06-02T09:34:47Z</time>
      </trkpt>
      <trkpt lat="45.93018" lon="4.7642">
        <ele>169</ele>
        <time>2017-06-02T09:34:48Z</time>
      </trkpt>
      <trkpt lat="45.93015" lon="4.76415">
        <ele>169</ele>
        <time>2017-06-02T09:34:49Z</time>
      </trkpt>
      <trkpt lat="45.93011" lon="4.76411">
        <ele>169</ele>
        <time>2017-06-02T09:34:50Z</time>
      </trkpt>
      <trkpt lat="45.93006" lon="4.76406">
        <ele>169</ele>
        <time>2017-06-02T09:34:51Z</time>
      </trkpt>
      <trkpt lat="45.93002" lon="4.764">
        <ele>169</ele>
        <time>2017-06-02T09:34:52Z</time>
      </trkpt>
      <trkpt lat="45.92997" lon="4.76395">
        <ele>169</ele>
        <time>2017-06-02T09:34:53Z</time>
      </trkpt>
      <trkpt lat="45.92992" lon="4.7639">
        <ele>169</ele>
        <time>2017-06-02T09:34:54Z</time>
      </trkpt>
      <trkpt lat="45.92986" lon="4.76385">
        <ele>169</ele>
        <time>2017-06-02T09:34:55Z</time>
      </trkpt>
      <trkpt lat="45.9298" lon="4.76381">
        <ele>169</ele>
        <time>2017-06-02T09:34:56Z</time>
      </trkpt>
      <trkpt lat="45.92975" lon="4.76376">
        <ele>169</ele>
        <time>2017-06-02T09:34:57Z</time>
      </trkpt>
      <trkpt lat="45.9297" lon="4.76371">
        <ele>169</ele>
        <time>2017-06-02T09:34:58Z</time>
      </trkpt>
      <trkpt lat="45.92965" lon="4.76366">
        <ele>169</ele>
        <time>2017-06-02T09:34:59Z</time>
      </trkpt>
      <trkpt lat="45.92961" lon="4.76361">
        <ele>169</ele>
        <time>2017-06-02T09:35:00Z</time>
      </trkpt>
      <trkpt lat="45.92956" lon="4.76356">
        <ele>169</ele>
        <time>2017-06-02T09:35:01Z</time>
      </trkpt>
      <trkpt lat="45.92951" lon="4.76351">
        <ele>169</ele>
        <time>2017-06-02T09:35:02Z</time>
      </trkpt>
      <trkpt lat="45.92947" lon="4.76346">
        <ele>169</ele>
        <time>2017-06-02T09:35:03Z</time>
      </trkpt>
      <trkpt lat="45.92942" lon="4.76342">
        <ele>169</ele>
        <time>2017-06-02T09:35:04Z</time>
      </trkpt>
      <trkpt lat="45.92938" lon="4.76338">
        <ele>169</ele>
        <time>2017-06-02T09:35:05Z</time>
      </trkpt>
      <trkpt lat="45.92934" lon="4.76333">
        <ele>169</ele>
        <time>2017-06-02T09:35:06Z</time>
      </trkpt>
      <trkpt lat="45.9293" lon="4.76329">
        <ele>169</ele>
        <time>2017-06-02T09:35:07Z</time>
      </trkpt>
      <trkpt lat="45.92926" lon="4.76325">
        <ele>169</ele>
        <time>2017-06-02T09:35:08Z</time>
      </trkpt>
      <trkpt lat="45.92922" lon="4.76321">
        <ele>169</ele>
        <time>2017-06-02T09:35:09Z</time>
      </trkpt>
      <trkpt lat="45.92918" lon="4.76317">
        <ele>169</ele>
        <time>2017-06-02T09:35:10Z</time>
      </trkpt>
      <trkpt lat="45.92913" lon="4.76313">
        <ele>169</ele>
        <time>2017-06-02T09:35:11Z</time>
      </trkpt>
      <trkpt lat="45.92908" lon="4.76308">
        <ele>169</ele>
        <time>2017-06-02T09:35:12Z</time>
      </trkpt>
      <trkpt lat="45.92903" lon="4.76303">
        <ele>169</ele>
        <time>2017-06-02T09:35:13Z</time>
      </trkpt>
      <trkpt lat="45.92898" lon="4.76298">
        <ele>169</ele>
        <time>2017-06-02T09:35:14Z</time>
      </trkpt>
      <trkpt lat="45.92892" lon="4.76292">
        <ele>169</ele>
        <time>2017-06-02T09:35:15Z</time>
      </trkpt>
      <trkpt lat="45.92886" lon="4.76287">
        <ele>169</ele>
        <time>2017-06-02T09:35:16Z</time>
      </trkpt>
      <trkpt lat="45.9288" lon="4.76281">
        <ele>169</ele>
        <time>2017-06-02T09:35:17Z</time>
      </trkpt>
      <trkpt lat="45.92875" lon="4.76276">
        <ele>169</ele>
        <time>2017-06-02T09:35:18Z</time>
      </trkpt>
      <trkpt lat="45.9287" lon="4.7627">
        <ele>169</ele>
        <time>2017-06-02T09:35:19Z</time>
      </trkpt>
      <trkpt lat="45.92865" lon="4.76265">
        <ele>169</ele>
        <time>2017-06-02T09:35:20Z</time>
      </trkpt>
      <trkpt lat="45.9286" lon="4.7626">
        <ele>169</ele>
        <time>2017-06-02T09:35:21Z</time>
      </trkpt>
      <trkpt lat="45.92855" lon="4.76256">
        <ele>169</ele>
        <time>2017-06-02T09:35:22Z</time>
      </trkpt>
      <trkpt lat="45.92851" lon="4.76251">
        <ele>169</ele>
        <time>2017-06-02T09:35:23Z</time>
      </trkpt>
      <trkpt lat="45.92847" lon="4.76246">
        <ele>169</ele>
        <time>2017-06-02T09:35:24Z</time>
      </trkpt>
      <trkpt lat="45.92842" lon="4.76242">
        <ele>169</ele>
        <time>2017-06-02T09:35:25Z</time>
      </trkpt>
      <trkpt lat="45.92837" lon="4.76238">
        <ele>169</ele>
        <time>2017-06-02T09:35:26Z</time>
      </trkpt>
      <trkpt lat="45.92833" lon="4.76234">
        <ele>168</ele>
        <time>2017-06-02T09:35:27Z</time>
      </trkpt>
      <trkpt lat="45.92829" lon="4.7623">
        <ele>168</ele>
        <time>2017-06-02T09:35:28Z</time>
      </trkpt>
      <trkpt lat="45.92825" lon="4.76226">
        <ele>168</ele>
        <time>2017-06-02T09:35:29Z</time>
      </trkpt>
      <trkpt lat="45.9282" lon="4.76222">
        <ele>168</ele>
        <time>2017-06-02T09:35:30Z</time>
      </trkpt>
      <trkpt lat="45.92816" lon="4.76218">
        <ele>168</ele>
        <time>2017-06-02T09:35:31Z</time>
      </trkpt>
      <trkpt lat="45.92812" lon="4.76213">
        <ele>168</ele>
        <time>2017-06-02T09:35:32Z</time>
      </trkpt>
      <trkpt lat="45.92809" lon="4.76209">
        <ele>168</ele>
        <time>2017-06-02T09:35:33Z</time>
      </trkpt>
      <trkpt lat="45.92805" lon="4.76205">
        <ele>168</ele>
        <time>2017-06-02T09:35:34Z</time>
      </trkpt>
      <trkpt lat="45.928" lon="4.76202">
        <ele>168</ele>
        <time>2017-06-02T09:35:35Z</time>
      </trkpt>
      <trkpt lat="45.92796" lon="4.76198">
        <ele>168</ele>
        <time>2017-06-02T09:35:36Z</time>
      </trkpt>
      <trkpt lat="45.92792" lon="4.76194">
        <ele>168</ele>
        <time>2017-06-02T09:35:37Z</time>
      </trkpt>
      <trkpt lat="45.92787" lon="4.76191">
        <ele>168</ele>
        <time>2017-06-02T09:35:38Z</time>
      </trkpt>
      <trkpt lat="45.92783" lon="4.76187">
        <ele>168</ele>
        <time>2017-06-02T09:35:39Z</time>
      </trkpt>
      <trkpt lat="45.92779" lon="4.76183">
        <ele>168</ele>
        <time>2017-06-02T09:35:40Z</time>
      </trkpt>
      <trkpt lat="45.92775" lon="4.7618">
        <ele>167</ele>
        <time>2017-06-02T09:35:41Z</time>
      </trkpt>
      <trkpt lat="45.9277" lon="4.76175">
        <ele>167</ele>
        <time>2017-06-02T09:35:42Z</time>
      </trkpt>
      <trkpt lat="45.92765" lon="4.7617">
        <ele>167</ele>
        <time>2017-06-02T09:35:43Z</time>
      </trkpt>
      <trkpt lat="45.92759" lon="4.76166">
        <ele>167</ele>
        <time>2017-06-02T09:35:44Z</time>
      </trkpt>
      <trkpt lat="45.92754" lon="4.76161">
        <ele>167</ele>
        <time>2017-06-02T09:35:45Z</time>
      </trkpt>
      <trkpt lat="45.92749" lon="4.76156">
        <ele>168</ele>
        <time>2017-06-02T09:35:46Z</time>
      </trkpt>
      <trkpt lat="45.92743" lon="4.76151">
        <ele>168</ele>
        <time>2017-06-02T09:35:47Z</time>
      </trkpt>
      <trkpt lat="45.92737" lon="4.76147">
        <ele>168</ele>
        <time>2017-06-02T09:35:48Z</time>
      </trkpt>
      <trkpt lat="45.92731" lon="4.76142">
        <ele>168</ele>
        <time>2017-06-02T09:35:49Z</time>
      </trkpt>
      <trkpt lat="45.92726" lon="4.76138">
        <ele>168</ele>
        <time>2017-06-02T09:35:50Z</time>
      </trkpt>
      <trkpt lat="45.9272" lon="4.76135">
        <ele>168</ele>
        <time>2017-06-02T09:35:51Z</time>
      </trkpt>
      <trkpt lat="45.92716" lon="4.76131">
        <ele>168</ele>
        <time>2017-06-02T09:35:52Z</time>
      </trkpt>
      <trkpt lat="45.92711" lon="4.76127">
        <ele>168</ele>
        <time>2017-06-02T09:35:53Z</time>
      </trkpt>
      <trkpt lat="45.92708" lon="4.76124">
        <ele>169</ele>
        <time>2017-06-02T09:35:54Z</time>
      </trkpt>
      <trkpt lat="45.92703" lon="4.76121">
        <ele>169</ele>
        <time>2017-06-02T09:35:55Z</time>
      </trkpt>
      <trkpt lat="45.92699" lon="4.76118">
        <ele>169</ele>
        <time>2017-06-02T09:35:56Z</time>
      </trkpt>
      <trkpt lat="45.92694" lon="4.76115">
        <ele>169</ele>
        <time>2017-06-02T09:35:57Z</time>
      </trkpt>
      <trkpt lat="45.9269" lon="4.76111">
        <ele>169</ele>
        <time>2017-06-02T09:35:58Z</time>
      </trkpt>
      <trkpt lat="45.92685" lon="4.76108">
        <ele>169</ele>
        <time>2017-06-02T09:35:59Z</time>
      </trkpt>
      <trkpt lat="45.9268" lon="4.76104">
        <ele>169</ele>
        <time>2017-06-02T09:36:00Z</time>
      </trkpt>
      <trkpt lat="45.92676" lon="4.76101">
        <ele>169</ele>
        <time>2017-06-02T09:36:01Z</time>
      </trkpt>
      <trkpt lat="45.92671" lon="4.76097">
        <ele>169</ele>
        <time>2017-06-02T09:36:02Z</time>
      </trkpt>
      <trkpt lat="45.92666" lon="4.76093">
        <ele>170</ele>
        <time>2017-06-02T09:36:03Z</time>
      </trkpt>
      <trkpt lat="45.92662" lon="4.7609">
        <ele>170</ele>
        <time>2017-06-02T09:36:04Z</time>
      </trkpt>
      <trkpt lat="45.92657" lon="4.76086">
        <ele>170</ele>
        <time>2017-06-02T09:36:05Z</time>
      </trkpt>
      <trkpt lat="45.92653" lon="4.76082">
        <ele>170</ele>
        <time>2017-06-02T09:36:06Z</time>
      </trkpt>
      <trkpt lat="45.92648" lon="4.76078">
        <ele>170</ele>
        <time>2017-06-02T09:36:07Z</time>
      </trkpt>
      <trkpt lat="45.92644" lon="4.76075">
        <ele>170</ele>
        <time>2017-06-02T09:36:08Z</time>
      </trkpt>
      <trkpt lat="45.92639" lon="4.76071">
        <ele>170</ele>
        <time>2017-06-02T09:36:09Z</time>
      </trkpt>
      <trkpt lat="45.92635" lon="4.76068">
        <ele>170</ele>
        <time>2017-06-02T09:36:10Z</time>
      </trkpt>
      <trkpt lat="45.9263" lon="4.76065">
        <ele>170</ele>
        <time>2017-06-02T09:36:11Z</time>
      </trkpt>
      <trkpt lat="45.92625" lon="4.76061">
        <ele>170</ele>
        <time>2017-06-02T09:36:12Z</time>
      </trkpt>
      <trkpt lat="45.92621" lon="4.76058">
        <ele>171</ele>
        <time>2017-06-02T09:36:13Z</time>
      </trkpt>
      <trkpt lat="45.92616" lon="4.76055">
        <ele>171</ele>
        <time>2017-06-02T09:36:14Z</time>
      </trkpt>
      <trkpt lat="45.92612" lon="4.76053">
        <ele>171</ele>
        <time>2017-06-02T09:36:15Z</time>
      </trkpt>
      <trkpt lat="45.92607" lon="4.76047">
        <ele>171</ele>
        <time>2017-06-02T09:36:17Z</time>
      </trkpt>
      <trkpt lat="45.92604" lon="4.76045">
        <ele>171</ele>
        <time>2017-06-02T09:36:18Z</time>
      </trkpt>
      <trkpt lat="45.92596" lon="4.76041">
        <ele>171</ele>
        <time>2017-06-02T09:36:20Z</time>
      </trkpt>
      <trkpt lat="45.92592" lon="4.76039">
        <ele>171</ele>
        <time>2017-06-02T09:36:21Z</time>
      </trkpt>
      <trkpt lat="45.92587" lon="4.76037">
        <ele>171</ele>
        <time>2017-06-02T09:36:22Z</time>
      </trkpt>
      <trkpt lat="45.92583" lon="4.76034">
        <ele>172</ele>
        <time>2017-06-02T09:36:23Z</time>
      </trkpt>
      <trkpt lat="45.92579" lon="4.76031">
        <ele>172</ele>
        <time>2017-06-02T09:36:24Z</time>
      </trkpt>
      <trkpt lat="45.92574" lon="4.76027">
        <ele>172</ele>
        <time>2017-06-02T09:36:25Z</time>
      </trkpt>
      <trkpt lat="45.9257" lon="4.76024">
        <ele>172</ele>
        <time>2017-06-02T09:36:26Z</time>
      </trkpt>
      <trkpt lat="45.92565" lon="4.76021">
        <ele>172</ele>
        <time>2017-06-02T09:36:27Z</time>
      </trkpt>
      <trkpt lat="45.92561" lon="4.76017">
        <ele>172</ele>
        <time>2017-06-02T09:36:28Z</time>
      </trkpt>
      <trkpt lat="45.92557" lon="4.76015">
        <ele>172</ele>
        <time>2017-06-02T09:36:29Z</time>
      </trkpt>
      <trkpt lat="45.92549" lon="4.76009">
        <ele>172</ele>
        <time>2017-06-02T09:36:31Z</time>
      </trkpt>
      <trkpt lat="45.92545" lon="4.76007">
        <ele>172</ele>
        <time>2017-06-02T09:36:32Z</time>
      </trkpt>
      <trkpt lat="45.92538" lon="4.76002">
        <ele>172</ele>
        <time>2017-06-02T09:36:34Z</time>
      </trkpt>
      <trkpt lat="45.92535" lon="4.75999">
        <ele>172</ele>
        <time>2017-06-02T09:36:35Z</time>
      </trkpt>
      <trkpt lat="45.92531" lon="4.75996">
        <ele>172</ele>
        <time>2017-06-02T09:36:36Z</time>
      </trkpt>
      <trkpt lat="45.92526" lon="4.75993">
        <ele>172</ele>
        <time>2017-06-02T09:36:37Z</time>
      </trkpt>
      <trkpt lat="45.92521" lon="4.7599">
        <ele>172</ele>
        <time>2017-06-02T09:36:38Z</time>
      </trkpt>
      <trkpt lat="45.92517" lon="4.75987">
        <ele>172</ele>
        <time>2017-06-02T09:36:39Z</time>
      </trkpt>
      <trkpt lat="45.92512" lon="4.75983">
        <ele>172</ele>
        <time>2017-06-02T09:36:40Z</time>
      </trkpt>
      <trkpt lat="45.92508" lon="4.7598">
        <ele>172</ele>
        <time>2017-06-02T09:36:41Z</time>
      </trkpt>
      <trkpt lat="45.92503" lon="4.75976">
        <ele>172</ele>
        <time>2017-06-02T09:36:42Z</time>
      </trkpt>
      <trkpt lat="45.92498" lon="4.75973">
        <ele>172</ele>
        <time>2017-06-02T09:36:43Z</time>
      </trkpt>
      <trkpt lat="45.92493" lon="4.7597">
        <ele>172</ele>
        <time>2017-06-02T09:36:44Z</time>
      </trkpt>
      <trkpt lat="45.92488" lon="4.75967">
        <ele>172</ele>
        <time>2017-06-02T09:36:45Z</time>
      </trkpt>
      <trkpt lat="45.92484" lon="4.75963">
        <ele>172</ele>
        <time>2017-06-02T09:36:46Z</time>
      </trkpt>
      <trkpt lat="45.92479" lon="4.7596">
        <ele>172</ele>
        <time>2017-06-02T09:36:47Z</time>
      </trkpt>
      <trkpt lat="45.92473" lon="4.75957">
        <ele>172</ele>
        <time>2017-06-02T09:36:48Z</time>
      </trkpt>
      <trkpt lat="45.92468" lon="4.75953">
        <ele>172</ele>
        <time>2017-06-02T09:36:49Z</time>
      </trkpt>
      <trkpt lat="45.92463" lon="4.7595">
        <ele>172</ele>
        <time>2017-06-02T09:36:50Z</time>
      </trkpt>
      <trkpt lat="45.92458" lon="4.75947">
        <ele>172</ele>
        <time>2017-06-02T09:36:51Z</time>
      </trkpt>
      <trkpt lat="45.92453" lon="4.75943">
        <ele>172</ele>
        <time>2017-06-02T09:36:52Z</time>
      </trkpt>
      <trkpt lat="45.92447" lon="4.75939">
        <ele>172</ele>
        <time>2017-06-02T09:36:53Z</time>
      </trkpt>
      <trkpt lat="45.92442" lon="4.75935">
        <ele>172</ele>
        <time>2017-06-02T09:36:54Z</time>
      </trkpt>
      <trkpt lat="45.92436" lon="4.75931">
        <ele>172</ele>
        <time>2017-06-02T09:36:55Z</time>
      </trkpt>
      <trkpt lat="45.9243" lon="4.75927">
        <ele>172</ele>
        <time>2017-06-02T09:36:56Z</time>
      </trkpt>
      <trkpt lat="45.92424" lon="4.75923">
        <ele>172</ele>
        <time>2017-06-02T09:36:57Z</time>
      </trkpt>
      <trkpt lat="45.92418" lon="4.75919">
        <ele>172</ele>
        <time>2017-06-02T09:36:58Z</time>
      </trkpt>
      <trkpt lat="45.92412" lon="4.75914">
        <ele>172</ele>
        <time>2017-06-02T09:36:59Z</time>
      </trkpt>
      <trkpt lat="45.92405" lon="4.7591">
        <ele>172</ele>
        <time>2017-06-02T09:37:00Z</time>
      </trkpt>
      <trkpt lat="45.92399" lon="4.75906">
        <ele>173</ele>
        <time>2017-06-02T09:37:01Z</time>
      </trkpt>
      <trkpt lat="45.92393" lon="4.75902">
        <ele>173</ele>
        <time>2017-06-02T09:37:02Z</time>
      </trkpt>
      <trkpt lat="45.92387" lon="4.75898">
        <ele>173</ele>
        <time>2017-06-02T09:37:03Z</time>
      </trkpt>
      <trkpt lat="45.92382" lon="4.75894">
        <ele>173</ele>
        <time>2017-06-02T09:37:04Z</time>
      </trkpt>
      <trkpt lat="45.92376" lon="4.7589">
        <ele>173</ele>
        <time>2017-06-02T09:37:05Z</time>
      </trkpt>
      <trkpt lat="45.92371" lon="4.75886">
        <ele>173</ele>
        <time>2017-06-02T09:37:06Z</time>
      </trkpt>
      <trkpt lat="45.92365" lon="4.75883">
        <ele>173</ele>
        <time>2017-06-02T09:37:07Z</time>
      </trkpt>
      <trkpt lat="45.9236" lon="4.75879">
        <ele>173</ele>
        <time>2017-06-02T09:37:08Z</time>
      </trkpt>
      <trkpt lat="45.92355" lon="4.75876">
        <ele>173</ele>
        <time>2017-06-02T09:37:09Z</time>
      </trkpt>
      <trkpt lat="45.9235" lon="4.75873">
        <ele>173</ele>
        <time>2017-06-02T09:37:10Z</time>
      </trkpt>
      <trkpt lat="45.92346" lon="4.7587">
        <ele>173</ele>
        <time>2017-06-02T09:37:11Z</time>
      </trkpt>
      <trkpt lat="45.92341" lon="4.75867">
        <ele>173</ele>
        <time>2017-06-02T09:37:12Z</time>
      </trkpt>
      <trkpt lat="45.92336" lon="4.75864">
        <ele>173</ele>
        <time>2017-06-02T09:37:13Z</time>
      </trkpt>
      <trkpt lat="45.92332" lon="4.7586">
        <ele>173</ele>
        <time>2017-06-02T09:37:14Z</time>
      </trkpt>
      <trkpt lat="45.92327" lon="4.75858">
        <ele>174</ele>
        <time>2017-06-02T09:37:15Z</time>
      </trkpt>
      <trkpt lat="45.92323" lon="4.75854">
        <ele>174</ele>
        <time>2017-06-02T09:37:16Z</time>
      </trkpt>
      <trkpt lat="45.92319" lon="4.7585">
        <ele>174</ele>
        <time>2017-06-02T09:37:17Z</time>
      </trkpt>
      <trkpt lat="45.92314" lon="4.75847">
        <ele>174</ele>
        <time>2017-06-02T09:37:18Z</time>
      </trkpt>
      <trkpt lat="45.9231" lon="4.75843">
        <ele>173</ele>
        <time>2017-06-02T09:37:19Z</time>
      </trkpt>
      <trkpt lat="45.92304" lon="4.75841">
        <ele>173</ele>
        <time>2017-06-02T09:37:20Z</time>
      </trkpt>
      <trkpt lat="45.92299" lon="4.75838">
        <ele>173</ele>
        <time>2017-06-02T09:37:21Z</time>
      </trkpt>
      <trkpt lat="45.92293" lon="4.75835">
        <ele>173</ele>
        <time>2017-06-02T09:37:22Z</time>
      </trkpt>
      <trkpt lat="45.92288" lon="4.75832">
        <ele>174</ele>
        <time>2017-06-02T09:37:23Z</time>
      </trkpt>
      <trkpt lat="45.92282" lon="4.75827">
        <ele>174</ele>
        <time>2017-06-02T09:37:24Z</time>
      </trkpt>
      <trkpt lat="45.92276" lon="4.75822">
        <ele>174</ele>
        <time>2017-06-02T09:37:25Z</time>
      </trkpt>
      <trkpt lat="45.92272" lon="4.75816">
        <ele>174</ele>
        <time>2017-06-02T09:37:26Z</time>
      </trkpt>
      <trkpt lat="45.92268" lon="4.75809">
        <ele>174</ele>
        <time>2017-06-02T09:37:27Z</time>
      </trkpt>
      <trkpt lat="45.92266" lon="4.75802">
        <ele>174</ele>
        <time>2017-06-02T09:37:28Z</time>
      </trkpt>
      <trkpt lat="45.92263" lon="4.75796">
        <ele>174</ele>
        <time>2017-06-02T09:37:29Z</time>
      </trkpt>
      <trkpt lat="45.92262" lon="4.75789">
        <ele>174</ele>
        <time>2017-06-02T09:37:30Z</time>
      </trkpt>
      <trkpt lat="45.9226" lon="4.75783">
        <ele>174</ele>
        <time>2017-06-02T09:37:31Z</time>
      </trkpt>
      <trkpt lat="45.92259" lon="4.75776">
        <ele>174</ele>
        <time>2017-06-02T09:37:32Z</time>
      </trkpt>
      <trkpt lat="45.92258" lon="4.75769">
        <ele>174</ele>
        <time>2017-06-02T09:37:33Z</time>
      </trkpt>
      <trkpt lat="45.92256" lon="4.75763">
        <ele>174</ele>
        <time>2017-06-02T09:37:34Z</time>
      </trkpt>
      <trkpt lat="45.92255" lon="4.75756">
        <ele>174</ele>
        <time>2017-06-02T09:37:35Z</time>
      </trkpt>
      <trkpt lat="45.92254" lon="4.75749">
        <ele>174</ele>
        <time>2017-06-02T09:37:36Z</time>
      </trkpt>
      <trkpt lat="45.92253" lon="4.75742">
        <ele>174</ele>
        <time>2017-06-02T09:37:37Z</time>
      </trkpt>
      <trkpt lat="45.92251" lon="4.75735">
        <ele>174</ele>
        <time>2017-06-02T09:37:38Z</time>
      </trkpt>
      <trkpt lat="45.92249" lon="4.75729">
        <ele>174</ele>
        <time>2017-06-02T09:37:39Z</time>
      </trkpt>
      <trkpt lat="45.92247" lon="4.75723">
        <ele>174</ele>
        <time>2017-06-02T09:37:40Z</time>
      </trkpt>
      <trkpt lat="45.92244" lon="4.75716">
        <ele>174</ele>
        <time>2017-06-02T09:37:41Z</time>
      </trkpt>
      <trkpt lat="45.92241" lon="4.75711">
        <ele>174</ele>
        <time>2017-06-02T09:37:42Z</time>
      </trkpt>
      <trkpt lat="45.92238" lon="4.75705">
        <ele>174</ele>
        <time>2017-06-02T09:37:43Z</time>
      </trkpt>
      <trkpt lat="45.92234" lon="4.75701">
        <ele>174</ele>
        <time>2017-06-02T09:37:44Z</time>
      </trkpt>
      <trkpt lat="45.9223" lon="4.75697">
        <ele>174</ele>
        <time>2017-06-02T09:37:45Z</time>
      </trkpt>
      <trkpt lat="45.92226" lon="4.75692">
        <ele>174</ele>
        <time>2017-06-02T09:37:46Z</time>
      </trkpt>
      <trkpt lat="45.92222" lon="4.75688">
        <ele>174</ele>
        <time>2017-06-02T09:37:47Z</time>
      </trkpt>
      <trkpt lat="45.92218" lon="4.75684">
        <ele>174</ele>
        <time>2017-06-02T09:37:48Z</time>
      </trkpt>
      <trkpt lat="45.92213" lon="4.7568">
        <ele>174</ele>
        <time>2017-06-02T09:37:49Z</time>
      </trkpt>
      <trkpt lat="45.92209" lon="4.75675">
        <ele>174</ele>
        <time>2017-06-02T09:37:50Z</time>
      </trkpt>
      <trkpt lat="45.92206" lon="4.75671">
        <ele>174</ele>
        <time>2017-06-02T09:37:51Z</time>
      </trkpt>
      <trkpt lat="45.92202" lon="4.75667">
        <ele>174</ele>
        <time>2017-06-02T09:37:52Z</time>
      </trkpt>
      <trkpt lat="45.92198" lon="4.75663">
        <ele>174</ele>
        <time>2017-06-02T09:37:53Z</time>
      </trkpt>
      <trkpt lat="45.92194" lon="4.75659">
        <ele>174</ele>
        <time>2017-06-02T09:37:54Z</time>
      </trkpt>
      <trkpt lat="45.9219" lon="4.75655">
        <ele>174</ele>
        <time>2017-06-02T09:37:55Z</time>
      </trkpt>
      <trkpt lat="45.92186" lon="4.75651">
        <ele>174</ele>
        <time>2017-06-02T09:37:56Z</time>
      </trkpt>
      <trkpt lat="45.92182" lon="4.75647">
        <ele>174</ele>
        <time>2017-06-02T09:37:57Z</time>
      </trkpt>
      <trkpt lat="45.92178" lon="4.75643">
        <ele>174</ele>
        <time>2017-06-02T09:37:58Z</time>
      </trkpt>
      <trkpt lat="45.92173" lon="4.75639">
        <ele>174</ele>
        <time>2017-06-02T09:37:59Z</time>
      </trkpt>
      <trkpt lat="45.92169" lon="4.75634">
        <ele>174</ele>
        <time>2017-06-02T09:38:00Z</time>
      </trkpt>
      <trkpt lat="45.92164" lon="4.75629">
        <ele>174</ele>
        <time>2017-06-02T09:38:01Z</time>
      </trkpt>
      <trkpt lat="45.92159" lon="4.75624">
        <ele>174</ele>
        <time>2017-06-02T09:38:02Z</time>
      </trkpt>
      <trkpt lat="45.92154" lon="4.75619">
        <ele>174</ele>
        <time>2017-06-02T09:38:03Z</time>
      </trkpt>
      <trkpt lat="45.92149" lon="4.75615">
        <ele>174</ele>
        <time>2017-06-02T09:38:04Z</time>
      </trkpt>
      <trkpt lat="45.92145" lon="4.7561">
        <ele>174</ele>
        <time>2017-06-02T09:38:05Z</time>
      </trkpt>
      <trkpt lat="45.9214" lon="4.75605">
        <ele>174</ele>
        <time>2017-06-02T09:38:06Z</time>
      </trkpt>
      <trkpt lat="45.92136" lon="4.75601">
        <ele>174</ele>
        <time>2017-06-02T09:38:07Z</time>
      </trkpt>
      <trkpt lat="45.92132" lon="4.75596">
        <ele>174</ele>
        <time>2017-06-02T09:38:08Z</time>
      </trkpt>
      <trkpt lat="45.92128" lon="4.75592">
        <ele>174</ele>
        <time>2017-06-02T09:38:09Z</time>
      </trkpt>
      <trkpt lat="45.92124" lon="4.75588">
        <ele>174</ele>
        <time>2017-06-02T09:38:10Z</time>
      </trkpt>
      <trkpt lat="45.92121" lon="4.75584">
        <ele>174</ele>
        <time>2017-06-02T09:38:11Z</time>
      </trkpt>
      <trkpt lat="45.92118" lon="4.75572">
        <ele>174</ele>
        <time>2017-06-02T09:38:14Z</time>
      </trkpt>
      <trkpt lat="45.92119" lon="4.75567">
        <ele>174</ele>
        <time>2017-06-02T09:38:15Z</time>
      </trkpt>
      <trkpt lat="45.92122" lon="4.75558">
        <ele>174</ele>
        <time>2017-06-02T09:38:17Z</time>
      </trkpt>
      <trkpt lat="45.92124" lon="4.75553">
        <ele>174</ele>
        <time>2017-06-02T09:38:18Z</time>
      </trkpt>
      <trkpt lat="45.92128" lon="4.75548">
        <ele>174</ele>
        <time>2017-06-02T09:38:19Z</time>
      </trkpt>
      <trkpt lat="45.9213" lon="4.75542">
        <ele>174</ele>
        <time>2017-06-02T09:38:20Z</time>
      </trkpt>
      <trkpt lat="45.92133" lon="4.75537">
        <ele>174</ele>
        <time>2017-06-02T09:38:21Z</time>
      </trkpt>
      <trkpt lat="45.92136" lon="4.75531">
        <ele>174</ele>
        <time>2017-06-02T09:38:22Z</time>
      </trkpt>
      <trkpt lat="45.92139" lon="4.75525">
        <ele>174</ele>
        <time>2017-06-02T09:38:23Z</time>
      </trkpt>
      <trkpt lat="45.92143" lon="4.75518">
        <ele>174</ele>
        <time>2017-06-02T09:38:24Z</time>
      </trkpt>
      <trkpt lat="45.92145" lon="4.75511">
        <ele>175</ele>
        <time>2017-06-02T09:38:25Z</time>
      </trkpt>
      <trkpt lat="45.92148" lon="4.75505">
        <ele>175</ele>
        <time>2017-06-02T09:38:26Z</time>
      </trkpt>
      <trkpt lat="45.92151" lon="4.75498">
        <ele>175</ele>
        <time>2017-06-02T09:38:27Z</time>
      </trkpt>
      <trkpt lat="45.92154" lon="4.75491">
        <ele>175</ele>
        <time>2017-06-02T09:38:28Z</time>
      </trkpt>
      <trkpt lat="45.92156" lon="4.75484">
        <ele>176</ele>
        <time>2017-06-02T09:38:29Z</time>
      </trkpt>
      <trkpt lat="45.92159" lon="4.75477">
        <ele>176</ele>
        <time>2017-06-02T09:38:30Z</time>
      </trkpt>
      <trkpt lat="45.92161" lon="4.75471">
        <ele>176</ele>
        <time>2017-06-02T09:38:31Z</time>
      </trkpt>
      <trkpt lat="45.92164" lon="4.75465">
        <ele>176</ele>
        <time>2017-06-02T09:38:32Z</time>
      </trkpt>
      <trkpt lat="45.92168" lon="4.75453">
        <ele>176</ele>
        <time>2017-06-02T09:38:34Z</time>
      </trkpt>
      <trkpt lat="45.9217" lon="4.75448">
        <ele>176</ele>
        <time>2017-06-02T09:38:35Z</time>
      </trkpt>
      <trkpt lat="45.92174" lon="4.75437">
        <ele>177</ele>
        <time>2017-06-02T09:38:37Z</time>
      </trkpt>
      <trkpt lat="45.92176" lon="4.75432">
        <ele>177</ele>
        <time>2017-06-02T09:38:38Z</time>
      </trkpt>
      <trkpt lat="45.92178" lon="4.75427">
        <ele>177</ele>
        <time>2017-06-02T09:38:39Z</time>
      </trkpt>
      <trkpt lat="45.92181" lon="4.75421">
        <ele>177</ele>
        <time>2017-06-02T09:38:40Z</time>
      </trkpt>
      <trkpt lat="45.92183" lon="4.75415">
        <ele>177</ele>
        <time>2017-06-02T09:38:41Z</time>
      </trkpt>
      <trkpt lat="45.92185" lon="4.7541">
        <ele>177</ele>
        <time>2017-06-02T09:38:42Z</time>
      </trkpt>
      <trkpt lat="45.92187" lon="4.75404">
        <ele>177</ele>
        <time>2017-06-02T09:38:43Z</time>
      </trkpt>
      <trkpt lat="45.9219" lon="4.75397">
        <ele>177</ele>
        <time>2017-06-02T09:38:44Z</time>
      </trkpt>
      <trkpt lat="45.92192" lon="4.75391">
        <ele>177</ele>
        <time>2017-06-02T09:38:45Z</time>
      </trkpt>
      <trkpt lat="45.92194" lon="4.75384">
        <ele>177</ele>
        <time>2017-06-02T09:38:46Z</time>
      </trkpt>
      <trkpt lat="45.92197" lon="4.75378">
        <ele>177</ele>
        <time>2017-06-02T09:38:47Z</time>
      </trkpt>
      <trkpt lat="45.92199" lon="4.75372">
        <ele>177</ele>
        <time>2017-06-02T09:38:48Z</time>
      </trkpt>
      <trkpt lat="45.92201" lon="4.75366">
        <ele>177</ele>
        <time>2017-06-02T09:38:49Z</time>
      </trkpt>
      <trkpt lat="45.92202" lon="4.7536">
        <ele>177</ele>
        <time>2017-06-02T09:38:50Z</time>
      </trkpt>
      <trkpt lat="45.92204" lon="4.75353">
        <ele>177</ele>
        <time>2017-06-02T09:38:51Z</time>
      </trkpt>
      <trkpt lat="45.92205" lon="4.75346">
        <ele>177</ele>
        <time>2017-06-02T09:38:52Z</time>
      </trkpt>
      <trkpt lat="45.92206" lon="4.75339">
        <ele>177</ele>
        <time>2017-06-02T09:38:53Z</time>
      </trkpt>
      <trkpt lat="45.92208" lon="4.75331">
        <ele>176</ele>
        <time>2017-06-02T09:38:54Z</time>
      </trkpt>
      <trkpt lat="45.9221" lon="4.75323">
        <ele>176</ele>
        <time>2017-06-02T09:38:55Z</time>
      </trkpt>
      <trkpt lat="45.92211" lon="4.75315">
        <ele>176</ele>
        <time>2017-06-02T09:38:56Z</time>
      </trkpt>
      <trkpt lat="45.92212" lon="4.75306">
        <ele>176</ele>
        <time>2017-06-02T09:38:57Z</time>
      </trkpt>
      <trkpt lat="45.92213" lon="4.75297">
        <ele>176</ele>
        <time>2017-06-02T09:38:58Z</time>
      </trkpt>
      <trkpt lat="45.92213" lon="4.75288">
        <ele>176</ele>
        <time>2017-06-02T09:38:59Z</time>
      </trkpt>
      <trkpt lat="45.92214" lon="4.75278">
        <ele>176</ele>
        <time>2017-06-02T09:39:00Z</time>
      </trkpt>
      <trkpt lat="45.92214" lon="4.75268">
        <ele>176</ele>
        <time>2017-06-02T09:39:01Z</time>
      </trkpt>
      <trkpt lat="45.92214" lon="4.75259">
        <ele>175</ele>
        <time>2017-06-02T09:39:02Z</time>
      </trkpt>
      <trkpt lat="45.92215" lon="4.7525">
        <ele>175</ele>
        <time>2017-06-02T09:39:03Z</time>
      </trkpt>
      <trkpt lat="45.92215" lon="4.7524">
        <ele>175</ele>
        <time>2017-06-02T09:39:04Z</time>
      </trkpt>
      <trkpt lat="45.92216" lon="4.75231">
        <ele>175</ele>
        <time>2017-06-02T09:39:05Z</time>
      </trkpt>
      <trkpt lat="45.92217" lon="4.75221">
        <ele>175</ele>
        <time>2017-06-02T09:39:06Z</time>
      </trkpt>
      <trkpt lat="45.92218" lon="4.75211">
        <ele>175</ele>
        <time>2017-06-02T09:39:07Z</time>
      </trkpt>
      <trkpt lat="45.9222" lon="4.75201">
        <ele>175</ele>
        <time>2017-06-02T09:39:08Z</time>
      </trkpt>
      <trkpt lat="45.92223" lon="4.75191">
        <ele>175</ele>
        <time>2017-06-02T09:39:09Z</time>
      </trkpt>
      <trkpt lat="45.92226" lon="4.75182">
        <ele>175</ele>
        <time>2017-06-02T09:39:10Z</time>
      </trkpt>
      <trkpt lat="45.9223" lon="4.75172">
        <ele>175</ele>
        <time>2017-06-02T09:39:11Z</time>
      </trkpt>
      <trkpt lat="45.92234" lon="4.75164">
        <ele>174</ele>
        <time>2017-06-02T09:39:12Z</time>
      </trkpt>
      <trkpt lat="45.92238" lon="4.75155">
        <ele>174</ele>
        <time>2017-06-02T09:39:13Z</time>
      </trkpt>
      <trkpt lat="45.92242" lon="4.75148">
        <ele>174</ele>
        <time>2017-06-02T09:39:14Z</time>
      </trkpt>
      <trkpt lat="45.92247" lon="4.7514">
        <ele>174</ele>
        <time>2017-06-02T09:39:15Z</time>
      </trkpt>
      <trkpt lat="45.92252" lon="4.75133">
        <ele>174</ele>
        <time>2017-06-02T09:39:16Z</time>
      </trkpt>
      <trkpt lat="45.92258" lon="4.75127">
        <ele>174</ele>
        <time>2017-06-02T09:39:17Z</time>
      </trkpt>
      <trkpt lat="45.92263" lon="4.75121">
        <ele>174</ele>
        <time>2017-06-02T09:39:18Z</time>
      </trkpt>
      <trkpt lat="45.92268" lon="4.75115">
        <ele>174</ele>
        <time>2017-06-02T09:39:19Z</time>
      </trkpt>
      <trkpt lat="45.92272" lon="4.75109">
        <ele>174</ele>
        <time>2017-06-02T09:39:20Z</time>
      </trkpt>
      <trkpt lat="45.92277" lon="4.75104">
        <ele>173</ele>
        <time>2017-06-02T09:39:21Z</time>
      </trkpt>
      <trkpt lat="45.92281" lon="4.75098">
        <ele>173</ele>
        <time>2017-06-02T09:39:22Z</time>
      </trkpt>
      <trkpt lat="45.92286" lon="4.75093">
        <ele>173</ele>
        <time>2017-06-02T09:39:23Z</time>
      </trkpt>
      <trkpt lat="45.92291" lon="4.75088">
        <ele>173</ele>
        <time>2017-06-02T09:39:24Z</time>
      </trkpt>
      <trkpt lat="45.92296" lon="4.75084">
        <ele>173</ele>
        <time>2017-06-02T09:39:25Z</time>
      </trkpt>
      <trkpt lat="45.923" lon="4.7508">
        <ele>172</ele>
        <time>2017-06-02T09:39:26Z</time>
      </trkpt>
      <trkpt lat="45.92305" lon="4.75074">
        <ele>172</ele>
        <time>2017-06-02T09:39:27Z</time>
      </trkpt>
      <trkpt lat="45.9231" lon="4.75068">
        <ele>172</ele>
        <time>2017-06-02T09:39:28Z</time>
      </trkpt>
      <trkpt lat="45.92314" lon="4.7506">
        <ele>172</ele>
        <time>2017-06-02T09:39:29Z</time>
      </trkpt>
      <trkpt lat="45.92319" lon="4.75053">
        <ele>172</ele>
        <time>2017-06-02T09:39:30Z</time>
      </trkpt>
      <trkpt lat="45.92324" lon="4.75045">
        <ele>172</ele>
        <time>2017-06-02T09:39:31Z</time>
      </trkpt>
      <trkpt lat="45.92329" lon="4.75036">
        <ele>171</ele>
        <time>2017-06-02T09:39:32Z</time>
      </trkpt>
      <trkpt lat="45.92333" lon="4.75026">
        <ele>171</ele>
        <time>2017-06-02T09:39:33Z</time>
      </trkpt>
      <trkpt lat="45.92338" lon="4.75017">
        <ele>170</ele>
        <time>2017-06-02T09:39:34Z</time>
      </trkpt>
      <trkpt lat="45.92341" lon="4.75009">
        <ele>170</ele>
        <time>2017-06-02T09:39:35Z</time>
      </trkpt>
      <trkpt lat="45.92345" lon="4.75">
        <ele>170</ele>
        <time>2017-06-02T09:39:36Z</time>
      </trkpt>
      <trkpt lat="45.92349" lon="4.74991">
        <ele>170</ele>
        <time>2017-06-02T09:39:37Z</time>
      </trkpt>
      <trkpt lat="45.92352" lon="4.74983">
        <ele>170</ele>
        <time>2017-06-02T09:39:38Z</time>
      </trkpt>
      <trkpt lat="45.92356" lon="4.74975">
        <ele>170</ele>
        <time>2017-06-02T09:39:39Z</time>
      </trkpt>
      <trkpt lat="45.92359" lon="4.74967">
        <ele>170</ele>
        <time>2017-06-02T09:39:40Z</time>
      </trkpt>
      <trkpt lat="45.92362" lon="4.74959">
        <ele>170</ele>
        <time>2017-06-02T09:39:41Z</time>
      </trkpt>
      <trkpt lat="45.92365" lon="4.74952">
        <ele>170</ele>
        <time>2017-06-02T09:39:42Z</time>
      </trkpt>
      <trkpt lat="45.92367" lon="4.74945">
        <ele>170</ele>
        <time>2017-06-02T09:39:43Z</time>
      </trkpt>
      <trkpt lat="45.9237" lon="4.74938">
        <ele>170</ele>
        <time>2017-06-02T09:39:44Z</time>
      </trkpt>
      <trkpt lat="45.92373" lon="4.74931">
        <ele>170</ele>
        <time>2017-06-02T09:39:45Z</time>
      </trkpt>
      <trkpt lat="45.92376" lon="4.74923">
        <ele>170</ele>
        <time>2017-06-02T09:39:46Z</time>
      </trkpt>
      <trkpt lat="45.92378" lon="4.74916">
        <ele>171</ele>
        <time>2017-06-02T09:39:47Z</time>
      </trkpt>
      <trkpt lat="45.92381" lon="4.74908">
        <ele>171</ele>
        <time>2017-06-02T09:39:48Z</time>
      </trkpt>
      <trkpt lat="45.92384" lon="4.74899">
        <ele>171</ele>
        <time>2017-06-02T09:39:49Z</time>
      </trkpt>
      <trkpt lat="45.92387" lon="4.74891">
        <ele>171</ele>
        <time>2017-06-02T09:39:50Z</time>
      </trkpt>
      <trkpt lat="45.9239" lon="4.74881">
        <ele>171</ele>
        <time>2017-06-02T09:39:51Z</time>
      </trkpt>
      <trkpt lat="45.92393" lon="4.74873">
        <ele>171</ele>
        <time>2017-06-02T09:39:52Z</time>
      </trkpt>
      <trkpt lat="45.92396" lon="4.74865">
        <ele>171</ele>
        <time>2017-06-02T09:39:53Z</time>
      </trkpt>
      <trkpt lat="45.92398" lon="4.74858">
        <ele>171</ele>
        <time>2017-06-02T09:39:54Z</time>
      </trkpt>
      <trkpt lat="45.924" lon="4.74851">
        <ele>171</ele>
        <time>2017-06-02T09:39:55Z</time>
      </trkpt>
      <trkpt lat="45.92402" lon="4.74844">
        <ele>171</ele>
        <time>2017-06-02T09:39:56Z</time>
      </trkpt>
      <trkpt lat="45.92404" lon="4.74837">
        <ele>171</ele>
        <time>2017-06-02T09:39:57Z</time>
      </trkpt>
      <trkpt lat="45.92406" lon="4.7483">
        <ele>171</ele>
        <time>2017-06-02T09:39:58Z</time>
      </trkpt>
      <trkpt lat="45.92407" lon="4.74822">
        <ele>171</ele>
        <time>2017-06-02T09:39:59Z</time>
      </trkpt>
      <trkpt lat="45.9241" lon="4.74814">
        <ele>171</ele>
        <time>2017-06-02T09:40:00Z</time>
      </trkpt>
      <trkpt lat="45.92411" lon="4.74806">
        <ele>171</ele>
        <time>2017-06-02T09:40:01Z</time>
      </trkpt>
      <trkpt lat="45.92413" lon="4.74798">
        <ele>171</ele>
        <time>2017-06-02T09:40:02Z</time>
      </trkpt>
      <trkpt lat="45.92415" lon="4.74789">
        <ele>171</ele>
        <time>2017-06-02T09:40:03Z</time>
      </trkpt>
      <trkpt lat="45.92417" lon="4.7478">
        <ele>171</ele>
        <time>2017-06-02T09:40:04Z</time>
      </trkpt>
      <trkpt lat="45.92419" lon="4.74771">
        <ele>171</ele>
        <time>2017-06-02T09:40:05Z</time>
      </trkpt>
      <trkpt lat="45.92421" lon="4.74763">
        <ele>171</ele>
        <time>2017-06-02T09:40:06Z</time>
      </trkpt>
      <trkpt lat="45.92423" lon="4.74754">
        <ele>172</ele>
        <time>2017-06-02T09:40:07Z</time>
      </trkpt>
      <trkpt lat="45.92425" lon="4.74746">
        <ele>172</ele>
        <time>2017-06-02T09:40:08Z</time>
      </trkpt>
      <trkpt lat="45.92428" lon="4.74738">
        <ele>171</ele>
        <time>2017-06-02T09:40:09Z</time>
      </trkpt>
      <trkpt lat="45.9243" lon="4.7473">
        <ele>171</ele>
        <time>2017-06-02T09:40:10Z</time>
      </trkpt>
      <trkpt lat="45.92433" lon="4.74723">
        <ele>171</ele>
        <time>2017-06-02T09:40:11Z</time>
      </trkpt>
      <trkpt lat="45.92436" lon="4.74716">
        <ele>171</ele>
        <time>2017-06-02T09:40:12Z</time>
      </trkpt>
      <trkpt lat="45.92439" lon="4.74709">
        <ele>171</ele>
        <time>2017-06-02T09:40:13Z</time>
      </trkpt>
      <trkpt lat="45.92441" lon="4.74702">
        <ele>171</ele>
        <time>2017-06-02T09:40:14Z</time>
      </trkpt>
      <trkpt lat="45.92444" lon="4.74695">
        <ele>171</ele>
        <time>2017-06-02T09:40:15Z</time>
      </trkpt>
      <trkpt lat="45.92448" lon="4.74689">
        <ele>171</ele>
        <time>2017-06-02T09:40:16Z</time>
      </trkpt>
      <trkpt lat="45.92451" lon="4.74682">
        <ele>171</ele>
        <time>2017-06-02T09:40:17Z</time>
      </trkpt>
      <trkpt lat="45.92455" lon="4.74674">
        <ele>171</ele>
        <time>2017-06-02T09:40:18Z</time>
      </trkpt>
      <trkpt lat="45.92458" lon="4.74667">
        <ele>171</ele>
        <time>2017-06-02T09:40:19Z</time>
      </trkpt>
      <trkpt lat="45.92461" lon="4.7466">
        <ele>171</ele>
        <time>2017-06-02T09:40:20Z</time>
      </trkpt>
      <trkpt lat="45.92465" lon="4.74653">
        <ele>171</ele>
        <time>2017-06-02T09:40:21Z</time>
      </trkpt>
      <trkpt lat="45.92469" lon="4.74646">
        <ele>171</ele>
        <time>2017-06-02T09:40:22Z</time>
      </trkpt>
      <trkpt lat="45.92474" lon="4.74639">
        <ele>171</ele>
        <time>2017-06-02T09:40:23Z</time>
      </trkpt>
      <trkpt lat="45.92478" lon="4.74634">
        <ele>171</ele>
        <time>2017-06-02T09:40:24Z</time>
      </trkpt>
      <trkpt lat="45.92482" lon="4.7463">
        <ele>171</ele>
        <time>2017-06-02T09:40:25Z</time>
      </trkpt>
      <trkpt lat="45.92486" lon="4.74625">
        <ele>171</ele>
        <time>2017-06-02T09:40:26Z</time>
      </trkpt>
      <trkpt lat="45.92491" lon="4.7462">
        <ele>171</ele>
        <time>2017-06-02T09:40:27Z</time>
      </trkpt>
      <trkpt lat="45.92495" lon="4.74615">
        <ele>171</ele>
        <time>2017-06-02T09:40:28Z</time>
      </trkpt>
      <trkpt lat="45.92499" lon="4.74611">
        <ele>171</ele>
        <time>2017-06-02T09:40:29Z</time>
      </trkpt>
      <trkpt lat="45.92503" lon="4.74605">
        <ele>171</ele>
        <time>2017-06-02T09:40:30Z</time>
      </trkpt>
      <trkpt lat="45.92508" lon="4.74599">
        <ele>171</ele>
        <time>2017-06-02T09:40:31Z</time>
      </trkpt>
      <trkpt lat="45.92512" lon="4.74593">
        <ele>171</ele>
        <time>2017-06-02T09:40:32Z</time>
      </trkpt>
      <trkpt lat="45.92517" lon="4.74587">
        <ele>171</ele>
        <time>2017-06-02T09:40:33Z</time>
      </trkpt>
      <trkpt lat="45.92522" lon="4.74581">
        <ele>171</ele>
        <time>2017-06-02T09:40:34Z</time>
      </trkpt>
      <trkpt lat="45.92527" lon="4.74575">
        <ele>171</ele>
        <time>2017-06-02T09:40:35Z</time>
      </trkpt>
      <trkpt lat="45.92532" lon="4.74569">
        <ele>171</ele>
        <time>2017-06-02T09:40:36Z</time>
      </trkpt>
      <trkpt lat="45.92537" lon="4.74563">
        <ele>171</ele>
        <time>2017-06-02T09:40:37Z</time>
      </trkpt>
      <trkpt lat="45.92541" lon="4.74556">
        <ele>171</ele>
        <time>2017-06-02T09:40:38Z</time>
      </trkpt>
      <trkpt lat="45.92545" lon="4.74549">
        <ele>170</ele>
        <time>2017-06-02T09:40:39Z</time>
      </trkpt>
      <trkpt lat="45.9255" lon="4.74541">
        <ele>170</ele>
        <time>2017-06-02T09:40:40Z</time>
      </trkpt>
      <trkpt lat="45.92554" lon="4.74534">
        <ele>170</ele>
        <time>2017-06-02T09:40:41Z</time>
      </trkpt>
      <trkpt lat="45.92558" lon="4.74527">
        <ele>170</ele>
        <time>2017-06-02T09:40:42Z</time>
      </trkpt>
      <trkpt lat="45.92562" lon="4.7452">
        <ele>170</ele>
        <time>2017-06-02T09:40:43Z</time>
      </trkpt>
      <trkpt lat="45.92565" lon="4.74514">
        <ele>170</ele>
        <time>2017-06-02T09:40:44Z</time>
      </trkpt>
      <trkpt lat="45.92569" lon="4.74507">
        <ele>170</ele>
        <time>2017-06-02T09:40:45Z</time>
      </trkpt>
      <trkpt lat="45.92573" lon="4.745">
        <ele>170</ele>
        <time>2017-06-02T09:40:46Z</time>
      </trkpt>
      <trkpt lat="45.92576" lon="4.74493">
        <ele>170</ele>
        <time>2017-06-02T09:40:47Z</time>
      </trkpt>
      <trkpt lat="45.92579" lon="4.74487">
        <ele>170</ele>
        <time>2017-06-02T09:40:48Z</time>
      </trkpt>
      <trkpt lat="45.92583" lon="4.74481">
        <ele>170</ele>
        <time>2017-06-02T09:40:49Z</time>
      </trkpt>
      <trkpt lat="45.92586" lon="4.74475">
        <ele>170</ele>
        <time>2017-06-02T09:40:50Z</time>
      </trkpt>
      <trkpt lat="45.9259" lon="4.74468">
        <ele>170</ele>
        <time>2017-06-02T09:40:51Z</time>
      </trkpt>
      <trkpt lat="45.92594" lon="4.74461">
        <ele>170</ele>
        <time>2017-06-02T09:40:52Z</time>
      </trkpt>
      <trkpt lat="45.92598" lon="4.74455">
        <ele>170</ele>
        <time>2017-06-02T09:40:53Z</time>
      </trkpt>
      <trkpt lat="45.92602" lon="4.74447">
        <ele>170</ele>
        <time>2017-06-02T09:40:54Z</time>
      </trkpt>
      <trkpt lat="45.92606" lon="4.74439">
        <ele>170</ele>
        <time>2017-06-02T09:40:55Z</time>
      </trkpt>
      <trkpt lat="45.9261" lon="4.74432">
        <ele>170</ele>
        <time>2017-06-02T09:40:56Z</time>
      </trkpt>
      <trkpt lat="45.92614" lon="4.74424">
        <ele>170</ele>
        <time>2017-06-02T09:40:57Z</time>
      </trkpt>
      <trkpt lat="45.92618" lon="4.74418">
        <ele>170</ele>
        <time>2017-06-02T09:40:58Z</time>
      </trkpt>
      <trkpt lat="45.92622" lon="4.74411">
        <ele>170</ele>
        <time>2017-06-02T09:40:59Z</time>
      </trkpt>
      <trkpt lat="45.92626" lon="4.74405">
        <ele>170</ele>
        <time>2017-06-02T09:41:00Z</time>
      </trkpt>
      <trkpt lat="45.92629" lon="4.74398">
        <ele>170</ele>
        <time>2017-06-02T09:41:01Z</time>
      </trkpt>
      <trkpt lat="45.92633" lon="4.74392">
        <ele>170</ele>
        <time>2017-06-02T09:41:02Z</time>
      </trkpt>
      <trkpt lat="45.92636" lon="4.74386">
        <ele>170</ele>
        <time>2017-06-02T09:41:03Z</time>
      </trkpt>
      <trkpt lat="45.92639" lon="4.74381">
        <ele>170</ele>
        <time>2017-06-02T09:41:04Z</time>
      </trkpt>
      <trkpt lat="45.92642" lon="4.74375">
        <ele>171</ele>
        <time>2017-06-02T09:41:05Z</time>
      </trkpt>
      <trkpt lat="45.92645" lon="4.7437">
        <ele>171</ele>
        <time>2017-06-02T09:41:06Z</time>
      </trkpt>
      <trkpt lat="45.92648" lon="4.74364">
        <ele>171</ele>
        <time>2017-06-02T09:41:07Z</time>
      </trkpt>
      <trkpt lat="45.92651" lon="4.74359">
        <ele>171</ele>
        <time>2017-06-02T09:41:08Z</time>
      </trkpt>
      <trkpt lat="45.92654" lon="4.74353">
        <ele>171</ele>
        <time>2017-06-02T09:41:09Z</time>
      </trkpt>
      <trkpt lat="45.92657" lon="4.74347">
        <ele>171</ele>
        <time>2017-06-02T09:41:10Z</time>
      </trkpt>
      <trkpt lat="45.9266" lon="4.74341">
        <ele>171</ele>
        <time>2017-06-02T09:41:11Z</time>
      </trkpt>
      <trkpt lat="45.92663" lon="4.74335">
        <ele>171</ele>
        <time>2017-06-02T09:41:12Z</time>
      </trkpt>
      <trkpt lat="45.92667" lon="4.74329">
        <ele>171</ele>
        <time>2017-06-02T09:41:13Z</time>
      </trkpt>
      <trkpt lat="45.9267" lon="4.74323">
        <ele>171</ele>
        <time>2017-06-02T09:41:14Z</time>
      </trkpt>
      <trkpt lat="45.92673" lon="4.74318">
        <ele>171</ele>
        <time>2017-06-02T09:41:15Z</time>
      </trkpt>
      <trkpt lat="45.92676" lon="4.74312">
        <ele>171</ele>
        <time>2017-06-02T09:41:16Z</time>
      </trkpt>
      <trkpt lat="45.92678" lon="4.74307">
        <ele>171</ele>
        <time>2017-06-02T09:41:17Z</time>
      </trkpt>
      <trkpt lat="45.92681" lon="4.74301">
        <ele>171</ele>
        <time>2017-06-02T09:41:18Z</time>
      </trkpt>
      <trkpt lat="45.92685" lon="4.74296">
        <ele>171</ele>
        <time>2017-06-02T09:41:19Z</time>
      </trkpt>
      <trkpt lat="45.92688" lon="4.7429">
        <ele>171</ele>
        <time>2017-06-02T09:41:20Z</time>
      </trkpt>
      <trkpt lat="45.92692" lon="4.74283">
        <ele>171</ele>
        <time>2017-06-02T09:41:21Z</time>
      </trkpt>
      <trkpt lat="45.92695" lon="4.74277">
        <ele>171</ele>
        <time>2017-06-02T09:41:22Z</time>
      </trkpt>
      <trkpt lat="45.92699" lon="4.74269">
        <ele>171</ele>
        <time>2017-06-02T09:41:23Z</time>
      </trkpt>
      <trkpt lat="45.92702" lon="4.74261">
        <ele>171</ele>
        <time>2017-06-02T09:41:24Z</time>
      </trkpt>
      <trkpt lat="45.92707" lon="4.74254">
        <ele>171</ele>
        <time>2017-06-02T09:41:25Z</time>
      </trkpt>
      <trkpt lat="45.92711" lon="4.74247">
        <ele>171</ele>
        <time>2017-06-02T09:41:26Z</time>
      </trkpt>
      <trkpt lat="45.92716" lon="4.7424">
        <ele>171</ele>
        <time>2017-06-02T09:41:27Z</time>
      </trkpt>
      <trkpt lat="45.9272" lon="4.74234">
        <ele>171</ele>
        <time>2017-06-02T09:41:28Z</time>
      </trkpt>
      <trkpt lat="45.92725" lon="4.74228">
        <ele>171</ele>
        <time>2017-06-02T09:41:29Z</time>
      </trkpt>
      <trkpt lat="45.92729" lon="4.74221">
        <ele>171</ele>
        <time>2017-06-02T09:41:30Z</time>
      </trkpt>
      <trkpt lat="45.92733" lon="4.74215">
        <ele>171</ele>
        <time>2017-06-02T09:41:31Z</time>
      </trkpt>
      <trkpt lat="45.92738" lon="4.74209">
        <ele>171</ele>
        <time>2017-06-02T09:41:32Z</time>
      </trkpt>
      <trkpt lat="45.92742" lon="4.74203">
        <ele>171</ele>
        <time>2017-06-02T09:41:33Z</time>
      </trkpt>
      <trkpt lat="45.92746" lon="4.74197">
        <ele>171</ele>
        <time>2017-06-02T09:41:34Z</time>
      </trkpt>
      <trkpt lat="45.9275" lon="4.74191">
        <ele>172</ele>
        <time>2017-06-02T09:41:35Z</time>
      </trkpt>
      <trkpt lat="45.92755" lon="4.74186">
        <ele>172</ele>
        <time>2017-06-02T09:41:36Z</time>
      </trkpt>
      <trkpt lat="45.92759" lon="4.7418">
        <ele>172</ele>
        <time>2017-06-02T09:41:37Z</time>
      </trkpt>
      <trkpt lat="45.92764" lon="4.74174">
        <ele>172</ele>
        <time>2017-06-02T09:41:38Z</time>
      </trkpt>
      <trkpt lat="45.92769" lon="4.74169">
        <ele>172</ele>
        <time>2017-06-02T09:41:39Z</time>
      </trkpt>
      <trkpt lat="45.92773" lon="4.74164">
        <ele>172</ele>
        <time>2017-06-02T09:41:40Z</time>
      </trkpt>
      <trkpt lat="45.92778" lon="4.7416">
        <ele>172</ele>
        <time>2017-06-02T09:41:41Z</time>
      </trkpt>
      <trkpt lat="45.92782" lon="4.74155">
        <ele>172</ele>
        <time>2017-06-02T09:41:42Z</time>
      </trkpt>
      <trkpt lat="45.92786" lon="4.7415">
        <ele>172</ele>
        <time>2017-06-02T09:41:43Z</time>
      </trkpt>
      <trkpt lat="45.92791" lon="4.74146">
        <ele>172</ele>
        <time>2017-06-02T09:41:44Z</time>
      </trkpt>
      <trkpt lat="45.92795" lon="4.74142">
        <ele>172</ele>
        <time>2017-06-02T09:41:45Z</time>
      </trkpt>
      <trkpt lat="45.92799" lon="4.74138">
        <ele>172</ele>
        <time>2017-06-02T09:41:46Z</time>
      </trkpt>
      <trkpt lat="45.92803" lon="4.74134">
        <ele>172</ele>
        <time>2017-06-02T09:41:47Z</time>
      </trkpt>
      <trkpt lat="45.92807" lon="4.74129">
        <ele>172</ele>
        <time>2017-06-02T09:41:48Z</time>
      </trkpt>
      <trkpt lat="45.92811" lon="4.74125">
        <ele>172</ele>
        <time>2017-06-02T09:41:49Z</time>
      </trkpt>
      <trkpt lat="45.92816" lon="4.7412">
        <ele>172</ele>
        <time>2017-06-02T09:41:50Z</time>
      </trkpt>
      <trkpt lat="45.9282" lon="4.74116">
        <ele>172</ele>
        <time>2017-06-02T09:41:51Z</time>
      </trkpt>
      <trkpt lat="45.92824" lon="4.74111">
        <ele>171</ele>
        <time>2017-06-02T09:41:52Z</time>
      </trkpt>
      <trkpt lat="45.92828" lon="4.74107">
        <ele>171</ele>
        <time>2017-06-02T09:41:53Z</time>
      </trkpt>
      <trkpt lat="45.92832" lon="4.74102">
        <ele>171</ele>
        <time>2017-06-02T09:41:54Z</time>
      </trkpt>
      <trkpt lat="45.92836" lon="4.74097">
        <ele>171</ele>
        <time>2017-06-02T09:41:55Z</time>
      </trkpt>
      <trkpt lat="45.92839" lon="4.74092">
        <ele>171</ele>
        <time>2017-06-02T09:41:56Z</time>
      </trkpt>
      <trkpt lat="45.92843" lon="4.74087">
        <ele>171</ele>
        <time>2017-06-02T09:41:57Z</time>
      </trkpt>
      <trkpt lat="45.92847" lon="4.74083">
        <ele>172</ele>
        <time>2017-06-02T09:41:58Z</time>
      </trkpt>
      <trkpt lat="45.9285" lon="4.74079">
        <ele>172</ele>
        <time>2017-06-02T09:41:59Z</time>
      </trkpt>
      <trkpt lat="45.92854" lon="4.74075">
        <ele>172</ele>
        <time>2017-06-02T09:42:00Z</time>
      </trkpt>
      <trkpt lat="45.92858" lon="4.7407">
        <ele>172</ele>
        <time>2017-06-02T09:42:01Z</time>
      </trkpt>
      <trkpt lat="45.92862" lon="4.74065">
        <ele>172</ele>
        <time>2017-06-02T09:42:02Z</time>
      </trkpt>
      <trkpt lat="45.92866" lon="4.7406">
        <ele>172</ele>
        <time>2017-06-02T09:42:03Z</time>
      </trkpt>
      <trkpt lat="45.9287" lon="4.74054">
        <ele>172</ele>
        <time>2017-06-02T09:42:04Z</time>
      </trkpt>
      <trkpt lat="45.92875" lon="4.74049">
        <ele>172</ele>
        <time>2017-06-02T09:42:05Z</time>
      </trkpt>
      <trkpt lat="45.9288" lon="4.74044">
        <ele>172</ele>
        <time>2017-06-02T09:42:06Z</time>
      </trkpt>
      <trkpt lat="45.92886" lon="4.74042">
        <ele>172</ele>
        <time>2017-06-02T09:42:07Z</time>
      </trkpt>
      <trkpt lat="45.92891" lon="4.74041">
        <ele>172</ele>
        <time>2017-06-02T09:42:08Z</time>
      </trkpt>
      <trkpt lat="45.92897" lon="4.74041">
        <ele>172</ele>
        <time>2017-06-02T09:42:09Z</time>
      </trkpt>
      <trkpt lat="45.92903" lon="4.7404">
        <ele>172</ele>
        <time>2017-06-02T09:42:10Z</time>
      </trkpt>
      <trkpt lat="45.92908" lon="4.74038">
        <ele>172</ele>
        <time>2017-06-02T09:42:11Z</time>
      </trkpt>
      <trkpt lat="45.92913" lon="4.74035">
        <ele>172</ele>
        <time>2017-06-02T09:42:12Z</time>
      </trkpt>
      <trkpt lat="45.92916" lon="4.74029">
        <ele>172</ele>
        <time>2017-06-02T09:42:13Z</time>
      </trkpt>
      <trkpt lat="45.92917" lon="4.74022">
        <ele>172</ele>
        <time>2017-06-02T09:42:14Z</time>
      </trkpt>
      <trkpt lat="45.92917" lon="4.74014">
        <ele>172</ele>
        <time>2017-06-02T09:42:15Z</time>
      </trkpt>
      <trkpt lat="45.92916" lon="4.74007">
        <ele>172</ele>
        <time>2017-06-02T09:42:16Z</time>
      </trkpt>
      <trkpt lat="45.92914" lon="4.74">
        <ele>172</ele>
        <time>2017-06-02T09:42:17Z</time>
      </trkpt>
      <trkpt lat="45.92911" lon="4.73994">
        <ele>172</ele>
        <time>2017-06-02T09:42:18Z</time>
      </trkpt>
      <trkpt lat="45.92907" lon="4.73989">
        <ele>172</ele>
        <time>2017-06-02T09:42:19Z</time>
      </trkpt>
      <trkpt lat="45.92901" lon="4.73984">
        <ele>172</ele>
        <time>2017-06-02T09:42:20Z</time>
      </trkpt>
      <trkpt lat="45.92897" lon="4.73979">
        <ele>172</ele>
        <time>2017-06-02T09:42:21Z</time>
      </trkpt>
      <trkpt lat="45.92892" lon="4.73973">
        <ele>172</ele>
        <time>2017-06-02T09:42:22Z</time>
      </trkpt>
      <trkpt lat="45.9289" lon="4.73966">
        <ele>172</ele>
        <time>2017-06-02T09:42:23Z</time>
      </trkpt>
      <trkpt lat="45.92889" lon="4.73957">
        <ele>172</ele>
        <time>2017-06-02T09:42:24Z</time>
      </trkpt>
      <trkpt lat="45.92889" lon="4.73948">
        <ele>172</ele>
        <time>2017-06-02T09:42:25Z</time>
      </trkpt>
      <trkpt lat="45.92889" lon="4.73939">
        <ele>172</ele>
        <time>2017-06-02T09:42:26Z</time>
      </trkpt>
      <trkpt lat="45.92888" lon="4.73931">
        <ele>172</ele>
        <time>2017-06-02T09:42:27Z</time>
      </trkpt>
      <trkpt lat="45.92888" lon="4.73922">
        <ele>172</ele>
        <time>2017-06-02T09:42:28Z</time>
      </trkpt>
      <trkpt lat="45.92887" lon="4.73913">
        <ele>173</ele>
        <time>2017-06-02T09:42:29Z</time>
      </trkpt>
      <trkpt lat="45.92886" lon="4.73905">
        <ele>173</ele>
        <time>2017-06-02T09:42:30Z</time>
      </trkpt>
      <trkpt lat="45.92884" lon="4.73896">
        <ele>173</ele>
        <time>2017-06-02T09:42:31Z</time>
      </trkpt>
      <trkpt lat="45.92882" lon="4.73888">
        <ele>173</ele>
        <time>2017-06-02T09:42:32Z</time>
      </trkpt>
      <trkpt lat="45.9288" lon="4.7388">
        <ele>173</ele>
        <time>2017-06-02T09:42:33Z</time>
      </trkpt>
      <trkpt lat="45.92878" lon="4.73871">
        <ele>173</ele>
        <time>2017-06-02T09:42:34Z</time>
      </trkpt>
      <trkpt lat="45.92876" lon="4.73863">
        <ele>173</ele>
        <time>2017-06-02T09:42:35Z</time>
      </trkpt>
      <trkpt lat="45.92874" lon="4.73854">
        <ele>173</ele>
        <time>2017-06-02T09:42:36Z</time>
      </trkpt>
      <trkpt lat="45.92872" lon="4.73846">
        <ele>173</ele>
        <time>2017-06-02T09:42:37Z</time>
      </trkpt>
      <trkpt lat="45.9287" lon="4.73838">
        <ele>173</ele>
        <time>2017-06-02T09:42:38Z</time>
      </trkpt>
      <trkpt lat="45.92869" lon="4.73831">
        <ele>173</ele>
        <time>2017-06-02T09:42:39Z</time>
      </trkpt>
      <trkpt lat="45.92867" lon="4.73824">
        <ele>173</ele>
        <time>2017-06-02T09:42:40Z</time>
      </trkpt>
      <trkpt lat="45.92865" lon="4.73818">
        <ele>173</ele>
        <time>2017-06-02T09:42:41Z</time>
      </trkpt>
      <trkpt lat="45.92863" lon="4.73812">
        <ele>173</ele>
        <time>2017-06-02T09:42:42Z</time>
      </trkpt>
      <trkpt lat="45.9286" lon="4.738">
        <ele>173</ele>
        <time>2017-06-02T09:42:44Z</time>
      </trkpt>
      <trkpt lat="45.92857" lon="4.73796">
        <ele>173</ele>
        <time>2017-06-02T09:42:45Z</time>
      </trkpt>
      <trkpt lat="45.92853" lon="4.73792">
        <ele>173</ele>
        <time>2017-06-02T09:42:46Z</time>
      </trkpt>
      <trkpt lat="45.92849" lon="4.73789">
        <ele>173</ele>
        <time>2017-06-02T09:42:47Z</time>
      </trkpt>
      <trkpt lat="45.92844" lon="4.73786">
        <ele>173</ele>
        <time>2017-06-02T09:42:48Z</time>
      </trkpt>
      <trkpt lat="45.92839" lon="4.73783">
        <ele>173</ele>
        <time>2017-06-02T09:42:49Z</time>
      </trkpt>
      <trkpt lat="45.92834" lon="4.73781">
        <ele>173</ele>
        <time>2017-06-02T09:42:50Z</time>
      </trkpt>
      <trkpt lat="45.9283" lon="4.73778">
        <ele>173</ele>
        <time>2017-06-02T09:42:51Z</time>
      </trkpt>
      <trkpt lat="45.92825" lon="4.73775">
        <ele>173</ele>
        <time>2017-06-02T09:42:52Z</time>
      </trkpt>
      <trkpt lat="45.9282" lon="4.73772">
        <ele>173</ele>
        <time>2017-06-02T09:42:53Z</time>
      </trkpt>
      <trkpt lat="45.92815" lon="4.7377">
        <ele>173</ele>
        <time>2017-06-02T09:42:54Z</time>
      </trkpt>
      <trkpt lat="45.9281" lon="4.73767">
        <ele>173</ele>
        <time>2017-06-02T09:42:55Z</time>
      </trkpt>
      <trkpt lat="45.92806" lon="4.73764">
        <ele>173</ele>
        <time>2017-06-02T09:42:56Z</time>
      </trkpt>
      <trkpt lat="45.92802" lon="4.7376">
        <ele>173</ele>
        <time>2017-06-02T09:42:57Z</time>
      </trkpt>
      <trkpt lat="45.92794" lon="4.73754">
        <ele>173</ele>
        <time>2017-06-02T09:42:59Z</time>
      </trkpt>
      <trkpt lat="45.92791" lon="4.73752">
        <ele>173</ele>
        <time>2017-06-02T09:43:00Z</time>
      </trkpt>
      <trkpt lat="45.92786" lon="4.73744">
        <ele>172</ele>
        <time>2017-06-02T09:43:02Z</time>
      </trkpt>
      <trkpt lat="45.92784" lon="4.7374">
        <ele>172</ele>
        <time>2017-06-02T09:43:03Z</time>
      </trkpt>
      <trkpt lat="45.92778" lon="4.73734">
        <ele>172</ele>
        <time>2017-06-02T09:43:05Z</time>
      </trkpt>
      <trkpt lat="45.92775" lon="4.73732">
        <ele>172</ele>
        <time>2017-06-02T09:43:06Z</time>
      </trkpt>
      <trkpt lat="45.92768" lon="4.73729">
        <ele>172</ele>
        <time>2017-06-02T09:43:08Z</time>
      </trkpt>
      <trkpt lat="45.92764" lon="4.73727">
        <ele>172</ele>
        <time>2017-06-02T09:43:09Z</time>
      </trkpt>
      <trkpt lat="45.92756" lon="4.73724">
        <ele>172</ele>
        <time>2017-06-02T09:43:11Z</time>
      </trkpt>
      <trkpt lat="45.92752" lon="4.73722">
        <ele>172</ele>
        <time>2017-06-02T09:43:12Z</time>
      </trkpt>
      <trkpt lat="45.92747" lon="4.7372">
        <ele>173</ele>
        <time>2017-06-02T09:43:13Z</time>
      </trkpt>
      <trkpt lat="45.92743" lon="4.73719">
        <ele>173</ele>
        <time>2017-06-02T09:43:14Z</time>
      </trkpt>
      <trkpt lat="45.92738" lon="4.73718">
        <ele>173</ele>
        <time>2017-06-02T09:43:15Z</time>
      </trkpt>
      <trkpt lat="45.92734" lon="4.73717">
        <ele>173</ele>
        <time>2017-06-02T09:43:16Z</time>
      </trkpt>
      <trkpt lat="45.92729" lon="4.73716">
        <ele>173</ele>
        <time>2017-06-02T09:43:17Z</time>
      </trkpt>
      <trkpt lat="45.92724" lon="4.73715">
        <ele>173</ele>
        <time>2017-06-02T09:43:18Z</time>
      </trkpt>
      <trkpt lat="45.92719" lon="4.73714">
        <ele>173</ele>
        <time>2017-06-02T09:43:19Z</time>
      </trkpt>
      <trkpt lat="45.92714" lon="4.73713">
        <ele>173</ele>
        <time>2017-06-02T09:43:20Z</time>
      </trkpt>
      <trkpt lat="45.92709" lon="4.73713">
        <ele>173</ele>
        <time>2017-06-02T09:43:21Z</time>
      </trkpt>
      <trkpt lat="45.92703" lon="4.73712">
        <ele>173</ele>
        <time>2017-06-02T09:43:22Z</time>
      </trkpt>
      <trkpt lat="45.92698" lon="4.7371">
        <ele>173</ele>
        <time>2017-06-02T09:43:23Z</time>
      </trkpt>
      <trkpt lat="45.92692" lon="4.73708">
        <ele>173</ele>
        <time>2017-06-02T09:43:24Z</time>
      </trkpt>
      <trkpt lat="45.92686" lon="4.73706">
        <ele>173</ele>
        <time>2017-06-02T09:43:25Z</time>
      </trkpt>
      <trkpt lat="45.9268" lon="4.73704">
        <ele>173</ele>
        <time>2017-06-02T09:43:26Z</time>
      </trkpt>
      <trkpt lat="45.92674" lon="4.73702">
        <ele>174</ele>
        <time>2017-06-02T09:43:27Z</time>
      </trkpt>
      <trkpt lat="45.92668" lon="4.73699">
        <ele>174</ele>
        <time>2017-06-02T09:43:28Z</time>
      </trkpt>
      <trkpt lat="45.92663" lon="4.73696">
        <ele>173</ele>
        <time>2017-06-02T09:43:29Z</time>
      </trkpt>
      <trkpt lat="45.92658" lon="4.73692">
        <ele>173</ele>
        <time>2017-06-02T09:43:30Z</time>
      </trkpt>
      <trkpt lat="45.92653" lon="4.73687">
        <ele>173</ele>
        <time>2017-06-02T09:43:31Z</time>
      </trkpt>
      <trkpt lat="45.92649" lon="4.73683">
        <ele>173</ele>
        <time>2017-06-02T09:43:32Z</time>
      </trkpt>
      <trkpt lat="45.92646" lon="4.73677">
        <ele>173</ele>
        <time>2017-06-02T09:43:33Z</time>
      </trkpt>
      <trkpt lat="45.92642" lon="4.73672">
        <ele>173</ele>
        <time>2017-06-02T09:43:34Z</time>
      </trkpt>
      <trkpt lat="45.92639" lon="4.73668">
        <ele>173</ele>
        <time>2017-06-02T09:43:35Z</time>
      </trkpt>
      <trkpt lat="45.92636" lon="4.73662">
        <ele>173</ele>
        <time>2017-06-02T09:43:36Z</time>
      </trkpt>
      <trkpt lat="45.92634" lon="4.73656">
        <ele>173</ele>
        <time>2017-06-02T09:43:37Z</time>
      </trkpt>
      <trkpt lat="45.92632" lon="4.7365">
        <ele>173</ele>
        <time>2017-06-02T09:43:38Z</time>
      </trkpt>
      <trkpt lat="45.92628" lon="4.73639">
        <ele>173</ele>
        <time>2017-06-02T09:43:40Z</time>
      </trkpt>
      <trkpt lat="45.92625" lon="4.73635">
        <ele>173</ele>
        <time>2017-06-02T09:43:41Z</time>
      </trkpt>
      <trkpt lat="45.92622" lon="4.73631">
        <ele>173</ele>
        <time>2017-06-02T09:43:42Z</time>
      </trkpt>
      <trkpt lat="45.92617" lon="4.73628">
        <ele>173</ele>
        <time>2017-06-02T09:43:43Z</time>
      </trkpt>
      <trkpt lat="45.92612" lon="4.73625">
        <ele>173</ele>
        <time>2017-06-02T09:43:44Z</time>
      </trkpt>
      <trkpt lat="45.92606" lon="4.73624">
        <ele>173</ele>
        <time>2017-06-02T09:43:45Z</time>
      </trkpt>
      <trkpt lat="45.926" lon="4.73623">
        <ele>173</ele>
        <time>2017-06-02T09:43:46Z</time>
      </trkpt>
      <trkpt lat="45.92593" lon="4.73623">
        <ele>173</ele>
        <time>2017-06-02T09:43:47Z</time>
      </trkpt>
      <trkpt lat="45.92587" lon="4.73623">
        <ele>173</ele>
        <time>2017-06-02T09:43:48Z</time>
      </trkpt>
      <trkpt lat="45.92581" lon="4.73625">
        <ele>173</ele>
        <time>2017-06-02T09:43:49Z</time>
      </trkpt>
      <trkpt lat="45.92574" lon="4.73626">
        <ele>173</ele>
        <time>2017-06-02T09:43:50Z</time>
      </trkpt>
      <trkpt lat="45.92568" lon="4.73628">
        <ele>173</ele>
        <time>2017-06-02T09:43:51Z</time>
      </trkpt>
      <trkpt lat="45.92562" lon="4.7363">
        <ele>173</ele>
        <time>2017-06-02T09:43:52Z</time>
      </trkpt>
      <trkpt lat="45.92557" lon="4.73631">
        <ele>173</ele>
        <time>2017-06-02T09:43:53Z</time>
      </trkpt>
      <trkpt lat="45.92552" lon="4.73634">
        <ele>173</ele>
        <time>2017-06-02T09:43:54Z</time>
      </trkpt>
      <trkpt lat="45.92546" lon="4.73635">
        <ele>173</ele>
        <time>2017-06-02T09:43:55Z</time>
      </trkpt>
      <trkpt lat="45.92541" lon="4.73636">
        <ele>173</ele>
        <time>2017-06-02T09:43:56Z</time>
      </trkpt>
      <trkpt lat="45.92535" lon="4.73637">
        <ele>173</ele>
        <time>2017-06-02T09:43:57Z</time>
      </trkpt>
      <trkpt lat="45.92528" lon="4.7364">
        <ele>173</ele>
        <time>2017-06-02T09:43:59Z</time>
      </trkpt>
      <trkpt lat="45.92523" lon="4.7364">
        <ele>173</ele>
        <time>2017-06-02T09:44:00Z</time>
      </trkpt>
      <trkpt lat="45.92518" lon="4.73641">
        <ele>173</ele>
        <time>2017-06-02T09:44:01Z</time>
      </trkpt>
      <trkpt lat="45.92513" lon="4.73641">
        <ele>174</ele>
        <time>2017-06-02T09:44:02Z</time>
      </trkpt>
      <trkpt lat="45.92505" lon="4.7364">
        <ele>174</ele>
        <time>2017-06-02T09:44:04Z</time>
      </trkpt>
      <trkpt lat="45.92501" lon="4.7364">
        <ele>174</ele>
        <time>2017-06-02T09:44:05Z</time>
      </trkpt>
      <trkpt lat="45.92493" lon="4.73641">
        <ele>174</ele>
        <time>2017-06-02T09:44:07Z</time>
      </trkpt>
      <trkpt lat="45.92489" lon="4.73641">
        <ele>174</ele>
        <time>2017-06-02T09:44:08Z</time>
      </trkpt>
      <trkpt lat="45.92482" lon="4.73641">
        <ele>174</ele>
        <time>2017-06-02T09:44:10Z</time>
      </trkpt>
      <trkpt lat="45.92478" lon="4.73642">
        <ele>174</ele>
        <time>2017-06-02T09:44:11Z</time>
      </trkpt>
      <trkpt lat="45.92471" lon="4.7365">
        <ele>174</ele>
        <time>2017-06-02T09:44:13Z</time>
      </trkpt>
      <trkpt lat="45.92469" lon="4.73655">
        <ele>174</ele>
        <time>2017-06-02T09:44:14Z</time>
      </trkpt>
      <trkpt lat="45.92468" lon="4.73666">
        <ele>174</ele>
        <time>2017-06-02T09:44:16Z</time>
      </trkpt>
      <trkpt lat="45.92467" lon="4.7367">
        <ele>174</ele>
        <time>2017-06-02T09:44:17Z</time>
      </trkpt>
      <trkpt lat="45.92465" lon="4.7368">
        <ele>174</ele>
        <time>2017-06-02T09:44:19Z</time>
      </trkpt>
      <trkpt lat="45.92464" lon="4.73684">
        <ele>174</ele>
        <time>2017-06-02T09:44:20Z</time>
      </trkpt>
      <trkpt lat="45.92462" lon="4.73692">
        <ele>174</ele>
        <time>2017-06-02T09:44:22Z</time>
      </trkpt>
      <trkpt lat="45.92462" lon="4.73697">
        <ele>174</ele>
        <time>2017-06-02T09:44:23Z</time>
      </trkpt>
      <trkpt lat="45.9246" lon="4.73707">
        <ele>174</ele>
        <time>2017-06-02T09:44:26Z</time>
      </trkpt>
      <trkpt lat="45.92461" lon="4.73708">
        <ele>174</ele>
        <time>2017-06-02T09:44:27Z</time>
      </trkpt>
      <trkpt lat="45.9246" lon="4.73709">
        <ele>174</ele>
        <time>2017-06-02T09:44:37Z</time>
      </trkpt>
      <trkpt lat="45.9246" lon="4.7371">
        <ele>174</ele>
        <time>2017-06-02T09:44:38Z</time>
      </trkpt>
      <trkpt lat="45.92459" lon="4.7371">
        <ele>174</ele>
        <time>2017-06-02T09:44:56.739Z</time>
      </trkpt>
    </trkseg>
  </trk>
</gpx>